
Distance (Route):
Temperature : 10.9°C
Humidity : 62.2%
Pressure : 0hPa| Receiver | Frames | First received | Last received |
|---|---|---|---|
| IW2NTF | 1311 | 2026-09-02 10:05:30 | 2026-09-02 13:27:49 |
| AUTORXJP | 167 | 2026-09-02 10:50:42 | 2026-09-02 12:28:02 |
| DO3MHA-12 | 130 | 2026-09-02 11:27:02 | 2026-09-02 12:05:52 |
| DB0UT-7 | 87 | 2026-09-02 11:18:11 | 2026-09-02 12:11:46 |
| OE5DXL-15 | 6 | 2026-09-02 11:54:22 | 2026-09-02 11:57:28 |
| Receiver | Date | Latitude | Longitude | Direction | Speed | Altitude | Climb | Temperature | Humidity | Pressure | Voltage | Killtimer | Uptime | BKT | XDATA |
|---|---|---|---|---|---|---|---|---|---|---|---|---|---|---|---|
| IW2NTF | 2026-09-02 13:27:49 | 43.74888 | 8.88022 | 101° | 35km/h | 2647m | -2.2m/s | 10.9°C | 62.2% | 0hPa | 2.8V | 06:59:17 | 03:51:38 | 00:00:00 | |
| IW2NTF | 2026-09-02 13:27:43 | 43.74894 | 8.87957 | 88° | 29km/h | 2662m | -2.5m/s | 10.8°C | 63.1% | 0hPa | 2.8V | 06:59:23 | 03:51:32 | 00:00:00 | |
| IW2NTF | 2026-09-02 13:27:37 | 43.74886 | 8.87888 | 78° | 38km/h | 2676m | -2.4m/s | 10.5°C | 64.7% | 0hPa | 2.8V | 06:59:29 | 03:51:26 | 00:00:00 | |
| IW2NTF | 2026-09-02 13:27:31 | 43.74880 | 8.87798 | 91° | 46km/h | 2690m | -2.3m/s | 10.4°C | 67% | 0hPa | 2.8V | 06:59:35 | 03:51:20 | 00:00:00 | |
| IW2NTF | 2026-09-02 13:27:25 | 43.74889 | 8.87713 | 101° | 35km/h | 2703m | -2.2m/s | 10.3°C | 68.7% | 0hPa | 2.8V | 06:59:41 | 03:51:14 | 00:00:00 | |
| IW2NTF | 2026-09-02 13:27:19 | 43.74894 | 8.87648 | 87° | 29km/h | 2717m | -2.4m/s | 10.2°C | 69% | 0hPa | 2.8V | 06:59:47 | 03:51:08 | 00:00:00 | |
| IW2NTF | 2026-09-02 13:27:13 | 43.74886 | 8.87583 | 76° | 35km/h | 2732m | -2.3m/s | 10°C | 69.4% | 0hPa | 2.8V | 06:59:53 | 03:51:02 | 00:00:00 | |
| IW2NTF | 2026-09-02 13:27:06 | 43.74873 | 8.87503 | 79° | 44km/h | 2746m | -2.4m/s | 9.8°C | 70.8% | 0hPa | 2.8V | 06:59:59 | 03:50:56 | 00:00:00 | |
| IW2NTF | 2026-09-02 13:27:01 | 43.74867 | 8.87409 | 92° | 46km/h | 2761m | -2.4m/s | 9.9°C | 68.2% | 0hPa | 2.8V | 07:00:05 | 03:50:50 | 00:00:00 | |
| IW2NTF | 2026-09-02 13:26:55 | 43.74874 | 8.87327 | 94° | 33km/h | 2775m | -2.3m/s | 9.9°C | 68.1% | 0hPa | 2.8V | 07:00:11 | 03:50:44 | 00:00:00 | |
| IW2NTF | 2026-09-02 13:26:49 | 43.74867 | 8.87259 | 74° | 37km/h | 2789m | -2.3m/s | 9.7°C | 69.1% | 0hPa | 2.8V | 07:00:17 | 03:50:38 | 00:00:00 | |
| IW2NTF | 2026-09-02 13:26:43 | 43.74853 | 8.87174 | 80° | 46km/h | 2803m | -2.4m/s | 9.6°C | 69.7% | 0hPa | 2.8V | 07:00:23 | 03:50:32 | 00:00:00 | |
| IW2NTF | 2026-09-02 13:26:37 | 43.74848 | 8.87078 | 91° | 46km/h | 2817m | -2.4m/s | 9.5°C | 70.1% | 0hPa | 2.8V | 07:00:29 | 03:50:26 | 00:00:00 | |
| IW2NTF | 2026-09-02 13:26:31 | 43.74854 | 8.86989 | 98° | 38km/h | 2831m | -2.4m/s | 9.4°C | 72.1% | 0hPa | 2.8V | 07:00:35 | 03:50:20 | 00:00:00 | |
| IW2NTF | 2026-09-02 13:26:24 | 43.74859 | 8.86919 | 86° | 31km/h | 2845m | -2.3m/s | 9.4°C | 75.5% | 0hPa | 2.8V | 07:00:41 | 03:50:14 | 00:00:00 | |
| IW2NTF | 2026-09-02 13:26:19 | 43.74847 | 8.86848 | 73° | 40km/h | 2859m | -2.6m/s | 9.2°C | 76.7% | 0hPa | 2.8V | 07:00:47 | 03:50:08 | 00:00:00 | |
| IW2NTF | 2026-09-02 13:26:14 | 43.74833 | 8.86758 | 83° | 47km/h | 2873m | -2.5m/s | 9.1°C | 76.8% | 0hPa | 2.8V | 07:00:53 | 03:50:02 | 00:00:00 | |
| IW2NTF | 2026-09-02 13:26:07 | 43.74832 | 8.86659 | 94° | 46km/h | 2888m | -2.4m/s | 9°C | 76.6% | 0hPa | 2.8V | 07:00:59 | 03:49:56 | 00:00:00 | |
| IW2NTF | 2026-09-02 13:26:01 | 43.74839 | 8.86577 | 90° | 33km/h | 2901m | -2.4m/s | 8.9°C | 77.3% | 0hPa | 2.8V | 07:01:05 | 03:49:50 | 00:00:00 | |
| IW2NTF | 2026-09-02 13:25:54 | 43.74830 | 8.86506 | 75° | 38km/h | 2915m | -2.5m/s | 8.8°C | 79.7% | 0hPa | 2.8V | 07:01:11 | 03:49:44 | 00:00:00 | |
| IW2NTF | 2026-09-02 13:25:49 | 43.74815 | 8.86419 | 77° | 46km/h | 2929m | -2.2m/s | 8.5°C | 81.5% | 0hPa | 2.8V | 07:01:17 | 03:49:38 | 00:00:00 | |
| IW2NTF | 2026-09-02 13:25:43 | 43.74806 | 8.86319 | 89° | 49km/h | 2943m | -2.4m/s | 8.5°C | 81.5% | 0hPa | 2.8V | 07:01:23 | 03:49:32 | 00:00:00 | |
| IW2NTF | 2026-09-02 13:25:37 | 43.74812 | 8.86226 | 97° | 40km/h | 2957m | -2.3m/s | 8.6°C | 81.7% | 0hPa | 2.8V | 07:01:29 | 03:49:26 | 00:00:00 | |
| IW2NTF | 2026-09-02 13:25:31 | 43.74813 | 8.86152 | 83° | 33km/h | 2970m | -2.4m/s | 8.4°C | 82.6% | 0hPa | 2.8V | 07:01:35 | 03:49:20 | 00:00:00 | |
| IW2NTF | 2026-09-02 13:25:24 | 43.74802 | 8.86076 | 75° | 42km/h | 2984m | -2.2m/s | 8.2°C | 83.5% | 0hPa | 2.8V | 07:01:41 | 03:49:14 | 00:00:00 | |
| IW2NTF | 2026-09-02 13:25:17 | 43.74786 | 8.85948 | 86° | 49km/h | 3002m | -2.4m/s | 8.1°C | 83.7% | 0hPa | 2.7V | 07:01:49 | 03:49:06 | 00:00:00 | |
| IW2NTF | 2026-09-02 13:25:11 | 43.74788 | 8.85851 | 95° | 44km/h | 3016m | -2.4m/s | 8°C | 84.3% | 0hPa | 2.8V | 07:01:55 | 03:49:00 | 00:00:00 | |
| IW2NTF | 2026-09-02 13:25:04 | 43.74792 | 8.85770 | 91° | 35km/h | 3029m | -2.5m/s | 7.9°C | 83.8% | 0hPa | 2.8V | 07:02:01 | 03:48:54 | 00:00:00 | |
| IW2NTF | 2026-09-02 13:24:57 | 43.74786 | 8.85677 | 75° | 35km/h | 3048m | -2.5m/s | 7.7°C | 85.5% | 0hPa | 2.8V | 07:02:09 | 03:48:46 | 00:00:00 | |
| IW2NTF | 2026-09-02 13:24:51 | 43.74769 | 8.85595 | 75° | 46km/h | 3062m | -2.2m/s | 7.6°C | 84.5% | 0hPa | 2.8V | 07:02:15 | 03:48:40 | 00:00:00 | |
| IW2NTF | 2026-09-02 13:24:45 | 43.74760 | 8.85499 | 91° | 44km/h | 3075m | -2.2m/s | 7.6°C | 83% | 0hPa | 2.8V | 07:02:21 | 03:48:34 | 00:00:00 | |
| IW2NTF | 2026-09-02 13:24:39 | 43.74763 | 8.85418 | 92° | 35km/h | 3088m | -2.1m/s | 7.5°C | 83.1% | 0hPa | 2.8V | 07:02:27 | 03:48:28 | 00:00:00 | |
| IW2NTF | 2026-09-02 13:24:31 | 43.74758 | 8.85328 | 74° | 33km/h | 3106m | -2.2m/s | 7.4°C | 83.4% | 0hPa | 2.8V | 07:02:35 | 03:48:20 | 00:00:00 | |
| IW2NTF | 2026-09-02 13:24:24 | 43.74739 | 8.85251 | 73° | 44km/h | 3119m | -2.1m/s | 7.2°C | 83.6% | 0hPa | 2.8V | 07:02:41 | 03:48:14 | 00:00:00 | |
| IW2NTF | 2026-09-02 13:24:19 | 43.74726 | 8.85154 | 86° | 46km/h | 3132m | -2.5m/s | 7.2°C | 81.9% | 0hPa | 2.8V | 07:02:47 | 03:48:08 | 00:00:00 | |
| IW2NTF | 2026-09-02 13:24:13 | 43.74728 | 8.85065 | 94° | 37km/h | 3146m | -2.2m/s | 7.2°C | 78.1% | 0hPa | 2.8V | 07:02:53 | 03:48:02 | 00:00:00 | |
| IW2NTF | 2026-09-02 13:24:06 | 43.74727 | 8.84996 | 81° | 31km/h | 3160m | -2.4m/s | 7.1°C | 78.6% | 0hPa | 2.8V | 07:02:59 | 03:47:56 | 00:00:00 | |
| IW2NTF | 2026-09-02 13:23:59 | 43.74712 | 8.84925 | 72° | 42km/h | 3174m | -2.5m/s | 6.8°C | 78.8% | 0hPa | 2.8V | 07:03:05 | 03:47:50 | 00:00:00 | |
| IW2NTF | 2026-09-02 13:23:52 | 43.74700 | 8.84831 | 86° | 46km/h | 3188m | -2.5m/s | 6.8°C | 76.5% | 0hPa | 2.7V | 07:03:11 | 03:47:44 | 00:00:00 | |
| IW2NTF | 2026-09-02 13:23:47 | 43.74702 | 8.84741 | 95° | 38km/h | 3201m | -2.4m/s | 6.8°C | 74.9% | 0hPa | 2.8V | 07:03:17 | 03:47:38 | 00:00:00 | |
| IW2NTF | 2026-09-02 13:23:39 | 43.74704 | 8.84670 | 85° | 31km/h | 3215m | -2.1m/s | 6.6°C | 75% | 0hPa | 2.7V | 07:03:23 | 03:47:32 | 00:00:00 | |
| IW2NTF | 2026-09-02 13:23:34 | 43.74691 | 8.84603 | 71° | 38km/h | 3228m | -2.1m/s | 6.5°C | 73.4% | 0hPa | 2.8V | 07:03:29 | 03:47:26 | 00:00:00 | |
| IW2NTF | 2026-09-02 13:23:28 | 43.74677 | 8.84515 | 83° | 46km/h | 3242m | -2.5m/s | 6.4°C | 72.5% | 0hPa | 2.7V | 07:03:35 | 03:47:20 | 00:00:00 | |
| IW2NTF | 2026-09-02 13:23:23 | 43.74677 | 8.84423 | 95° | 38km/h | 3255m | -2.1m/s | 6.3°C | 73% | 0hPa | 2.8V | 07:03:41 | 03:47:14 | 00:00:00 | |
| IW2NTF | 2026-09-02 13:23:18 | 43.74680 | 8.84354 | 85° | 29km/h | 3268m | -2.1m/s | 6.2°C | 73.2% | 0hPa | 2.8V | 07:03:47 | 03:47:08 | 00:00:00 | |
| IW2NTF | 2026-09-02 13:23:13 | 43.74668 | 8.84288 | 73° | 38km/h | 3281m | -2.1m/s | 6°C | 73.4% | 0hPa | 2.8V | 07:03:53 | 03:47:02 | 00:00:00 | |
| IW2NTF | 2026-09-02 13:23:03 | 43.74655 | 8.84198 | 83° | 46km/h | 3294m | -2.4m/s | 5.9°C | 73% | 0hPa | 2.8V | 07:03:59 | 03:46:56 | 00:00:00 | |
| IW2NTF | 2026-09-02 13:22:58 | 43.74654 | 8.84073 | 96° | 42km/h | 3313m | -2.1m/s | 5.8°C | 72.2% | 0hPa | 2.8V | 07:04:07 | 03:46:48 | 00:00:00 | |
| IW2NTF | 2026-09-02 13:22:53 | 43.74658 | 8.83999 | 87° | 31km/h | 3326m | -2.2m/s | 5.8°C | 68.2% | 0hPa | 2.8V | 07:04:13 | 03:46:42 | 00:00:00 | |
| IW2NTF | 2026-09-02 13:22:48 | 43.74648 | 8.83929 | 75° | 37km/h | 3339m | -2.1m/s | 5.6°C | 63.6% | 0hPa | 2.8V | 07:04:19 | 03:46:36 | 00:00:00 | |
| IW2NTF | 2026-09-02 13:22:43 | 43.74633 | 8.83844 | 78° | 46km/h | 3353m | -2.4m/s | 5.5°C | 61.2% | 0hPa | 2.8V | 07:04:25 | 03:46:30 | 00:00:00 | |
| IW2NTF | 2026-09-02 13:22:37 | 43.74625 | 8.83779 | 82° | 49km/h | 3363m | -2.1m/s | 5.5°C | 60.6% | 0hPa | 2.8V | 07:04:29 | 03:46:26 | 00:00:00 | |
| IW2NTF | 2026-09-02 13:22:31 | 43.74622 | 8.83676 | 91° | 49km/h | 3377m | -2.7m/s | 5.4°C | 59.4% | 0hPa | 2.8V | 07:04:35 | 03:46:20 | 00:00:00 | |
| IW2NTF | 2026-09-02 13:22:25 | 43.74629 | 8.83583 | 96° | 38km/h | 3391m | -2.4m/s | 5.3°C | 59.8% | 0hPa | 2.8V | 07:04:41 | 03:46:14 | 00:00:00 | |
| IW2NTF | 2026-09-02 13:22:19 | 43.74625 | 8.83506 | 76° | 40km/h | 3404m | -2.4m/s | 5.2°C | 58% | 0hPa | 2.8V | 07:04:47 | 03:46:08 | 00:00:00 | |
| IW2NTF | 2026-09-02 13:22:13 | 43.74609 | 8.83419 | 76° | 46km/h | 3418m | -2.5m/s | 5°C | 59.4% | 0hPa | 2.8V | 07:04:53 | 03:46:02 | 00:00:00 | |
| IW2NTF | 2026-09-02 13:22:07 | 43.74595 | 8.83319 | 82° | 51km/h | 3433m | -2.4m/s | 5°C | 60.6% | 0hPa | 2.8V | 07:04:59 | 03:45:56 | 00:00:00 | |
| IW2NTF | 2026-09-02 13:22:01 | 43.74595 | 8.83214 | 96° | 47km/h | 3447m | -2.4m/s | 4.9°C | 62.1% | 0hPa | 2.8V | 07:05:05 | 03:45:50 | 00:00:00 | |
| IW2NTF | 2026-09-02 13:21:55 | 43.74603 | 8.83127 | 94° | 37km/h | 3461m | -2.5m/s | 4.9°C | 62.2% | 0hPa | 2.8V | 07:05:11 | 03:45:44 | 00:00:00 | |
| IW2NTF | 2026-09-02 13:21:48 | 43.74601 | 8.83053 | 79° | 37km/h | 3476m | -2.4m/s | 5°C | 55.2% | 0hPa | 2.8V | 07:05:17 | 03:45:38 | 00:00:00 | |
| IW2NTF | 2026-09-02 13:21:43 | 43.74586 | 8.82969 | 77° | 46km/h | 3490m | -2.5m/s | 4.8°C | 51.4% | 0hPa | 2.8V | 07:05:23 | 03:45:32 | 00:00:00 | |
| IW2NTF | 2026-09-02 13:21:37 | 43.74582 | 8.82868 | 95° | 47km/h | 3504m | -2.3m/s | 5.2°C | 32.9% | 0hPa | 2.7V | 07:05:29 | 03:45:26 | 00:00:00 | |
| IW2NTF | 2026-09-02 13:21:31 | 43.74592 | 8.82773 | 99° | 44km/h | 3520m | -2.7m/s | 5.2°C | 28.2% | 0hPa | 2.8V | 07:05:35 | 03:45:20 | 00:00:00 | |
| IW2NTF | 2026-09-02 13:21:25 | 43.74604 | 8.82689 | 100° | 37km/h | 3535m | -2.6m/s | 5.1°C | 25.1% | 0hPa | 2.7V | 07:05:41 | 03:45:14 | 00:00:00 | |
| IW2NTF | 2026-09-02 13:21:19 | 43.74610 | 8.82618 | 91° | 33km/h | 3550m | -2.5m/s | 5.1°C | 22.8% | 0hPa | 2.7V | 07:05:47 | 03:45:08 | 00:00:00 | |
| IW2NTF | 2026-09-02 13:21:13 | 43.74606 | 8.82548 | 80° | 37km/h | 3566m | -2.5m/s | 5°C | 19.2% | 0hPa | 2.8V | 07:05:53 | 03:45:02 | 00:00:00 | |
| IW2NTF | 2026-09-02 13:21:07 | 43.74597 | 8.82461 | 88° | 46km/h | 3580m | -2.5m/s | 5°C | 11.9% | 0hPa | 2.7V | 07:05:59 | 03:44:56 | 00:00:00 | |
| IW2NTF | 2026-09-02 13:21:01 | 43.74603 | 8.82367 | 100° | 44km/h | 3595m | -2.2m/s | 5°C | 11.2% | 0hPa | 2.8V | 07:06:05 | 03:44:50 | 00:00:00 | |
| IW2NTF | 2026-09-02 13:20:55 | 43.74618 | 8.82286 | 105° | 37km/h | 3609m | -2.7m/s | 4.9°C | 10.7% | 0hPa | 2.8V | 07:06:11 | 03:44:44 | 00:00:00 | |
| IW2NTF | 2026-09-02 13:20:49 | 43.74633 | 8.82216 | 106° | 33km/h | 3625m | -2.8m/s | 4.9°C | 12.1% | 0hPa | 2.7V | 07:06:17 | 03:44:38 | 00:00:00 | |
| IW2NTF | 2026-09-02 13:20:43 | 43.74640 | 8.82154 | 90° | 29km/h | 3641m | -2.3m/s | 4.8°C | 11.9% | 0hPa | 2.8V | 07:06:23 | 03:44:32 | 00:00:00 | |
| IW2NTF | 2026-09-02 13:20:37 | 43.74634 | 8.82086 | 81° | 38km/h | 3656m | -2.7m/s | 4.7°C | 12.9% | 0hPa | 2.7V | 07:06:29 | 03:44:26 | 00:00:00 | |
| IW2NTF | 2026-09-02 13:20:31 | 43.74630 | 8.81999 | 91° | 44km/h | 3672m | -2.8m/s | 4.6°C | 14.3% | 0hPa | 2.7V | 07:06:35 | 03:44:20 | 00:00:00 | |
| IW2NTF | 2026-09-02 13:20:25 | 43.74638 | 8.81910 | 104° | 40km/h | 3687m | -2.4m/s | 4.6°C | 14.3% | 0hPa | 2.7V | 07:06:41 | 03:44:14 | 00:00:00 | |
| IW2NTF | 2026-09-02 13:20:17 | 43.74655 | 8.81837 | 106° | 31km/h | 3703m | -2.7m/s | 4.5°C | 13.7% | 0hPa | 2.8V | 07:06:47 | 03:44:08 | 00:00:00 | |
| IW2NTF | 2026-09-02 13:20:11 | 43.74660 | 8.81778 | 88° | 29km/h | 3719m | -2.6m/s | 4.4°C | 13.5% | 0hPa | 2.7V | 07:06:53 | 03:44:02 | 00:00:00 | |
| IW2NTF | 2026-09-02 13:20:06 | 43.74655 | 8.81708 | 82° | 38km/h | 3734m | -2.6m/s | 4.2°C | 13.6% | 0hPa | 2.7V | 07:06:59 | 03:43:56 | 00:00:00 | |
| IW2NTF | 2026-09-02 13:20:01 | 43.74652 | 8.81619 | 93° | 46km/h | 3750m | -2.8m/s | 4.1°C | 13.5% | 0hPa | 2.7V | 07:07:05 | 03:43:50 | 00:00:00 | |
| IW2NTF | 2026-09-02 13:19:55 | 43.74665 | 8.81529 | 108° | 38km/h | 3766m | -2.4m/s | 4.1°C | 13.3% | 0hPa | 2.7V | 07:07:11 | 03:43:44 | 00:00:00 | |
| IW2NTF | 2026-09-02 13:19:47 | 43.74674 | 8.81464 | 89° | 31km/h | 3781m | -2.8m/s | 3.9°C | 13.7% | 0hPa | 2.7V | 07:07:17 | 03:43:38 | 00:00:00 | |
| IW2NTF | 2026-09-02 13:19:41 | 43.74669 | 8.81392 | 84° | 38km/h | 3797m | -2.7m/s | 3.7°C | 13.8% | 0hPa | 2.7V | 07:07:23 | 03:43:32 | 00:00:00 | |
| IW2NTF | 2026-09-02 13:19:36 | 43.74667 | 8.81301 | 93° | 46km/h | 3812m | -2.8m/s | 3.6°C | 14.1% | 0hPa | 2.7V | 07:07:29 | 03:43:26 | 00:00:00 | |
| IW2NTF | 2026-09-02 13:19:31 | 43.74680 | 8.81210 | 107° | 40km/h | 3828m | -2.6m/s | 3.6°C | 14.2% | 0hPa | 2.7V | 07:07:35 | 03:43:20 | 00:00:00 | |
| IW2NTF | 2026-09-02 13:19:25 | 43.74695 | 8.81141 | 101° | 31km/h | 3844m | -2.9m/s | 3.5°C | 13% | 0hPa | 2.7V | 07:07:41 | 03:43:14 | 00:00:00 | |
| IW2NTF | 2026-09-02 13:19:17 | 43.74696 | 8.81074 | 84° | 37km/h | 3860m | -2.6m/s | 3.3°C | 13.3% | 0hPa | 2.7V | 07:07:47 | 03:43:08 | 00:00:00 | |
| IW2NTF | 2026-09-02 13:19:11 | 43.74694 | 8.80986 | 93° | 46km/h | 3876m | -2.9m/s | 3.2°C | 13.4% | 0hPa | 2.7V | 07:07:53 | 03:43:02 | 00:00:00 | |
| IW2NTF | 2026-09-02 13:19:06 | 43.74705 | 8.80890 | 104° | 46km/h | 3892m | -2.5m/s | 3.1°C | 13.2% | 0hPa | 2.7V | 07:07:59 | 03:42:56 | 00:00:00 | |
| IW2NTF | 2026-09-02 13:19:01 | 43.74725 | 8.80807 | 110° | 38km/h | 3909m | -2.8m/s | 3°C | 14.1% | 0hPa | 2.7V | 07:08:05 | 03:42:50 | 00:00:00 | |
| IW2NTF | 2026-09-02 13:18:55 | 43.74741 | 8.80739 | 100° | 31km/h | 3925m | -2.6m/s | 2.8°C | 17.8% | 0hPa | 2.7V | 07:08:11 | 03:42:44 | 00:00:00 | |
| IW2NTF | 2026-09-02 13:18:49 | 43.74743 | 8.80668 | 87° | 38km/h | 3941m | -2.9m/s | 2.5°C | 19% | 0hPa | 2.7V | 07:08:17 | 03:42:38 | 00:00:00 | |
| IW2NTF | 2026-09-02 13:18:43 | 43.74743 | 8.80580 | 94° | 46km/h | 3956m | -2.7m/s | 2.4°C | 19.3% | 0hPa | 2.7V | 07:08:23 | 03:42:32 | 00:00:00 | |
| IW2NTF | 2026-09-02 13:18:38 | 43.74755 | 8.80485 | 105° | 46km/h | 3972m | -2.8m/s | 2.4°C | 20.1% | 0hPa | 2.7V | 07:08:29 | 03:42:26 | 00:00:00 | |
| IW2NTF | 2026-09-02 13:18:31 | 43.74778 | 8.80400 | 114° | 38km/h | 3989m | -2.7m/s | 2.2°C | 20.3% | 0hPa | 2.7V | 07:08:35 | 03:42:20 | 00:00:00 | |
| IW2NTF | 2026-09-02 13:18:25 | 43.74798 | 8.80333 | 108° | 31km/h | 4006m | -2.6m/s | 2.1°C | 18.9% | 0hPa | 2.7V | 07:08:41 | 03:42:14 | 00:00:00 | |
| IW2NTF | 2026-09-02 13:18:17 | 43.74805 | 8.80269 | 90° | 33km/h | 4022m | -2.7m/s | 1.9°C | 15.4% | 0hPa | 2.7V | 07:08:47 | 03:42:08 | 00:00:00 | |
| IW2NTF | 2026-09-02 13:18:11 | 43.74808 | 8.80186 | 100° | 46km/h | 4037m | -2.6m/s | 1.8°C | 13% | 0hPa | 2.6V | 07:08:53 | 03:42:02 | 00:00:00 | |
| IW2NTF | 2026-09-02 13:18:06 | 43.74829 | 8.80098 | 113° | 42km/h | 4053m | -2.6m/s | 1.7°C | 12.5% | 0hPa | 2.7V | 07:08:59 | 03:41:56 | 00:00:00 | |
| IW2NTF | 2026-09-02 13:17:57 | 43.74854 | 8.80030 | 113° | 31km/h | 4069m | -2.8m/s | 1.6°C | 10.9% | 0hPa | 2.7V | 07:09:05 | 03:41:50 | 00:00:00 | |
| IW2NTF | 2026-09-02 13:17:51 | 43.74863 | 8.79966 | 93° | 37km/h | 4084m | -2.5m/s | 1.4°C | 14% | 0hPa | 2.7V | 07:09:11 | 03:41:44 | 00:00:00 | |
| IW2NTF | 2026-09-02 13:17:46 | 43.74871 | 8.79877 | 101° | 46km/h | 4100m | -2.8m/s | 1.3°C | 14.7% | 0hPa | 2.7V | 07:09:17 | 03:41:38 | 00:00:00 | |
| IW2NTF | 2026-09-02 13:17:41 | 43.74893 | 8.79787 | 114° | 44km/h | 4116m | -2.6m/s | 1.2°C | 16.4% | 0hPa | 2.7V | 07:09:23 | 03:41:32 | 00:00:00 | |
| IW2NTF | 2026-09-02 13:17:36 | 43.74920 | 8.79715 | 116° | 33km/h | 4132m | -2.6m/s | 1.1°C | 17.2% | 0hPa | 2.7V | 07:09:29 | 03:41:26 | 00:00:00 | |
| IW2NTF | 2026-09-02 13:17:28 | 43.74934 | 8.79623 | 97° | 42km/h | 4152m | -2.6m/s | 0.9°C | 18% | 0hPa | 2.7V | 07:09:37 | 03:41:18 | 00:00:00 | |
| IW2NTF | 2026-09-02 13:17:21 | 43.74947 | 8.79530 | 103° | 47km/h | 4168m | -2.9m/s | 0.8°C | 18.3% | 0hPa | 2.7V | 07:09:43 | 03:41:12 | 00:00:00 | |
| IW2NTF | 2026-09-02 13:17:16 | 43.74971 | 8.79433 | 112° | 49km/h | 4184m | -2.8m/s | 0.7°C | 18.3% | 0hPa | 2.7V | 07:09:49 | 03:41:06 | 00:00:00 | |
| IW2NTF | 2026-09-02 13:17:11 | 43.75002 | 8.79350 | 119° | 38km/h | 4199m | -2.5m/s | 0.6°C | 17.1% | 0hPa | 2.7V | 07:09:55 | 03:41:00 | 00:00:00 | |
| IW2NTF | 2026-09-02 13:17:06 | 43.75021 | 8.79282 | 101° | 35km/h | 4214m | -2.6m/s | 0.4°C | 18.2% | 0hPa | 2.7V | 07:10:01 | 03:40:54 | 00:00:00 | |
| IW2NTF | 2026-09-02 13:17:00 | 43.75030 | 8.79201 | 97° | 42km/h | 4229m | -2.8m/s | 0.4°C | 16% | 0hPa | 2.7V | 07:10:07 | 03:40:48 | 00:00:00 | |
| IW2NTF | 2026-09-02 13:16:53 | 43.75043 | 8.79103 | 104° | 51km/h | 4245m | -2.8m/s | 0.3°C | 16.4% | 0hPa | 2.7V | 07:10:13 | 03:40:42 | 00:00:00 | |
| IW2NTF | 2026-09-02 13:16:47 | 43.75071 | 8.79002 | 116° | 49km/h | 4261m | -2.7m/s | 0.3°C | 16.7% | 0hPa | 2.7V | 07:10:19 | 03:40:36 | 00:00:00 | |
| IW2NTF | 2026-09-02 13:16:41 | 43.75101 | 8.78923 | 113° | 37km/h | 4276m | -2.5m/s | 0.2°C | 16.6% | 0hPa | 2.7V | 07:10:25 | 03:40:30 | 00:00:00 | |
| IW2NTF | 2026-09-02 13:16:35 | 43.75116 | 8.78852 | 102° | 35km/h | 4292m | -3m/s | 0.1°C | 17% | 0hPa | 2.7V | 07:10:31 | 03:40:24 | 00:00:00 | |
| IW2NTF | 2026-09-02 13:16:29 | 43.75124 | 8.78773 | 93° | 42km/h | 4308m | -2.8m/s | -0.1°C | 16.4% | 0hPa | 2.7V | 07:10:37 | 03:40:18 | 00:00:00 | |
| IW2NTF | 2026-09-02 13:16:23 | 43.75135 | 8.78673 | 107° | 53km/h | 4323m | -2.6m/s | -0.1°C | 16.8% | 0hPa | 2.7V | 07:10:43 | 03:40:12 | 00:00:00 | |
| IW2NTF | 2026-09-02 13:16:16 | 43.75165 | 8.78581 | 115° | 42km/h | 4339m | -2.7m/s | -0.1°C | 14.5% | 0hPa | 2.7V | 07:10:49 | 03:40:06 | 00:00:00 | |
| IW2NTF | 2026-09-02 13:16:10 | 43.75184 | 8.78510 | 99° | 35km/h | 4354m | -2.7m/s | -0.2°C | 12.3% | 0hPa | 2.7V | 07:10:55 | 03:40:00 | 00:00:00 | |
| IW2NTF | 2026-09-02 13:16:05 | 43.75188 | 8.78426 | 93° | 46km/h | 4370m | -2.6m/s | -0.5°C | 14.3% | 0hPa | 2.7V | 07:11:01 | 03:39:54 | 00:00:00 | |
| IW2NTF | 2026-09-02 13:15:59 | 43.75198 | 8.78323 | 101° | 51km/h | 4386m | -2.9m/s | -0.4°C | 16.1% | 0hPa | 2.7V | 07:11:07 | 03:39:48 | 00:00:00 | |
| IW2NTF | 2026-09-02 13:15:53 | 43.75222 | 8.78223 | 114° | 47km/h | 4402m | -2.6m/s | -0.4°C | 14.4% | 0hPa | 2.7V | 07:11:13 | 03:39:42 | 00:00:00 | |
| IW2NTF | 2026-09-02 13:15:46 | 43.75247 | 8.78145 | 105° | 35km/h | 4417m | -2.8m/s | -0.6°C | 15.1% | 0hPa | 2.7V | 07:11:19 | 03:39:36 | 00:00:00 | |
| IW2NTF | 2026-09-02 13:15:40 | 43.75254 | 8.78065 | 91° | 44km/h | 4433m | -2.8m/s | -0.8°C | 14.4% | 0hPa | 2.7V | 07:11:25 | 03:39:30 | 00:00:00 | |
| IW2NTF | 2026-09-02 13:15:35 | 43.75262 | 8.77962 | 102° | 53km/h | 4449m | -2.7m/s | -0.8°C | 11.7% | 0hPa | 2.7V | 07:11:31 | 03:39:24 | 00:00:00 | |
| IW2NTF | 2026-09-02 13:15:29 | 43.75285 | 8.77859 | 111° | 47km/h | 4464m | -2.7m/s | -0.8°C | 9.8% | 0hPa | 2.7V | 07:11:37 | 03:39:18 | 00:00:00 | |
| IW2NTF | 2026-09-02 13:15:23 | 43.75311 | 8.77777 | 112° | 38km/h | 4479m | -2.8m/s | -0.8°C | 7.9% | 0hPa | 2.6V | 07:11:43 | 03:39:12 | 00:00:00 | |
| IW2NTF | 2026-09-02 13:15:18 | 43.75324 | 8.77703 | 93° | 38km/h | 4496m | -3m/s | -0.9°C | 7.3% | 0hPa | 2.6V | 07:11:49 | 03:39:06 | 00:00:00 | |
| IW2NTF | 2026-09-02 13:15:11 | 43.75327 | 8.77610 | 94° | 49km/h | 4512m | -2.8m/s | -1.1°C | 13.9% | 0hPa | 2.6V | 07:11:55 | 03:39:00 | 00:00:00 | |
| IW2NTF | 2026-09-02 13:15:05 | 43.75342 | 8.77503 | 108° | 51km/h | 4527m | -2.7m/s | -1°C | 12.3% | 0hPa | 2.7V | 07:12:01 | 03:38:54 | 00:00:00 | |
| IW2NTF | 2026-09-02 13:14:59 | 43.75369 | 8.77414 | 115° | 40km/h | 4543m | -2.6m/s | -1.1°C | 12.1% | 0hPa | 2.7V | 07:12:07 | 03:38:48 | 00:00:00 | |
| IW2NTF | 2026-09-02 13:14:53 | 43.75386 | 8.77342 | 98° | 35km/h | 4559m | -2.8m/s | -1.3°C | 12.5% | 0hPa | 2.7V | 07:12:13 | 03:38:42 | 00:00:00 | |
| IW2NTF | 2026-09-02 13:14:47 | 43.75389 | 8.77257 | 92° | 47km/h | 4574m | -2.7m/s | -1.6°C | 12.4% | 0hPa | 2.6V | 07:12:19 | 03:38:36 | 00:00:00 | |
| IW2NTF | 2026-09-02 13:14:41 | 43.75402 | 8.77150 | 105° | 53km/h | 4590m | -2.7m/s | -1.6°C | 12.7% | 0hPa | 2.7V | 07:12:25 | 03:38:30 | 00:00:00 | |
| IW2NTF | 2026-09-02 13:14:35 | 43.75429 | 8.77053 | 114° | 44km/h | 4606m | -2.8m/s | -1.7°C | 13% | 0hPa | 2.7V | 07:12:31 | 03:38:24 | 00:00:00 | |
| IW2NTF | 2026-09-02 13:14:29 | 43.75448 | 8.76980 | 98° | 35km/h | 4622m | -2.5m/s | -1.8°C | 13.8% | 0hPa | 2.7V | 07:12:37 | 03:38:18 | 00:00:00 | |
| IW2NTF | 2026-09-02 13:14:23 | 43.75452 | 8.76893 | 94° | 49km/h | 4637m | -2.5m/s | -2°C | 13.8% | 0hPa | 2.7V | 07:12:43 | 03:38:12 | 00:00:00 | |
| IW2NTF | 2026-09-02 13:14:16 | 43.75466 | 8.76787 | 106° | 53km/h | 4652m | -2.5m/s | -2°C | 13.8% | 0hPa | 2.7V | 07:12:49 | 03:38:06 | 00:00:00 | |
| IW2NTF | 2026-09-02 13:14:11 | 43.75494 | 8.76690 | 115° | 44km/h | 4667m | -2.7m/s | -2°C | 14.2% | 0hPa | 2.7V | 07:12:55 | 03:38:00 | 00:00:00 | |
| IW2NTF | 2026-09-02 13:14:05 | 43.75515 | 8.76615 | 101° | 37km/h | 4683m | -2.7m/s | -2.2°C | 14.4% | 0hPa | 2.7V | 07:13:01 | 03:37:54 | 00:00:00 | |
| IW2NTF | 2026-09-02 13:13:59 | 43.75520 | 8.76531 | 91° | 46km/h | 4698m | -2.8m/s | -2.5°C | 14.5% | 0hPa | 2.7V | 07:13:07 | 03:37:48 | 00:00:00 | |
| IW2NTF | 2026-09-02 13:13:54 | 43.75525 | 8.76429 | 97° | 53km/h | 4713m | -2.6m/s | -2.6°C | 14.5% | 0hPa | 2.7V | 07:13:13 | 03:37:42 | 00:00:00 | |
| IW2NTF | 2026-09-02 13:13:46 | 43.75542 | 8.76318 | 106° | 55km/h | 4729m | -2.6m/s | -2.7°C | 15.2% | 0hPa | 2.7V | 07:13:19 | 03:37:36 | 00:00:00 | |
| IW2NTF | 2026-09-02 13:13:41 | 43.75571 | 8.76219 | 116° | 46km/h | 4744m | -2.6m/s | -2.8°C | 15.5% | 0hPa | 2.7V | 07:13:25 | 03:37:30 | 00:00:00 | |
| IW2NTF | 2026-09-02 13:13:33 | 43.75591 | 8.76141 | 97° | 38km/h | 4759m | -2.7m/s | -3°C | 15.7% | 0hPa | 2.6V | 07:13:31 | 03:37:24 | 00:00:00 | |
| IW2NTF | 2026-09-02 13:13:26 | 43.75599 | 8.76008 | 99° | 55km/h | 4780m | -2.6m/s | -3.2°C | 15.8% | 0hPa | 2.7V | 07:13:39 | 03:37:16 | 00:00:00 | |
| IW2NTF | 2026-09-02 13:13:21 | 43.75621 | 8.75895 | 110° | 53km/h | 4796m | -2.9m/s | -3.2°C | 15.5% | 0hPa | 2.7V | 07:13:45 | 03:37:10 | 00:00:00 | |
| IW2NTF | 2026-09-02 13:13:15 | 43.75649 | 8.75804 | 112° | 42km/h | 4811m | -2.8m/s | -3.4°C | 15.7% | 0hPa | 2.7V | 07:13:51 | 03:37:04 | 00:00:00 | |
| IW2NTF | 2026-09-02 13:13:09 | 43.75665 | 8.75725 | 96° | 40km/h | 4827m | -2.5m/s | -3.5°C | 16.3% | 0hPa | 2.7V | 07:13:57 | 03:36:58 | 00:00:00 | |
| IW2NTF | 2026-09-02 13:13:03 | 43.75669 | 8.75627 | 94° | 53km/h | 4843m | -2.9m/s | -3.8°C | 16.4% | 0hPa | 2.7V | 07:14:03 | 03:36:52 | 00:00:00 | |
| IW2NTF | 2026-09-02 13:12:56 | 43.75687 | 8.75512 | 110° | 55km/h | 4859m | -2.7m/s | -3.8°C | 16.4% | 0hPa | 2.7V | 07:14:09 | 03:36:46 | 00:00:00 | |
| IW2NTF | 2026-09-02 13:12:51 | 43.75718 | 8.75416 | 114° | 42km/h | 4874m | -2.5m/s | -3.9°C | 16.4% | 0hPa | 2.7V | 07:14:15 | 03:36:40 | 00:00:00 | |
| IW2NTF | 2026-09-02 13:12:45 | 43.75734 | 8.75335 | 94° | 42km/h | 4890m | -2.6m/s | -4.1°C | 16.6% | 0hPa | 2.7V | 07:14:21 | 03:36:34 | 00:00:00 | |
| IW2NTF | 2026-09-02 13:12:39 | 43.75739 | 8.75232 | 99° | 55km/h | 4905m | -2.8m/s | -4.3°C | 17% | 0hPa | 2.7V | 07:14:27 | 03:36:28 | 00:00:00 | |
| IW2NTF | 2026-09-02 13:12:33 | 43.75763 | 8.75120 | 112° | 53km/h | 4920m | -2.6m/s | -4.3°C | 17% | 0hPa | 2.7V | 07:14:33 | 03:36:22 | 00:00:00 | |
| IW2NTF | 2026-09-02 13:12:26 | 43.75794 | 8.75028 | 114° | 44km/h | 4936m | -2.9m/s | -4.5°C | 17% | 0hPa | 2.7V | 07:14:39 | 03:36:16 | 00:00:00 | |
| IW2NTF | 2026-09-02 13:12:21 | 43.75814 | 8.74950 | 100° | 38km/h | 4952m | -2.8m/s | -4.6°C | 17.1% | 0hPa | 2.7V | 07:14:45 | 03:36:10 | 00:00:00 | |
| IW2NTF | 2026-09-02 13:12:15 | 43.75820 | 8.74860 | 93° | 49km/h | 4969m | -3m/s | -4.9°C | 17.3% | 0hPa | 2.7V | 07:14:51 | 03:36:04 | 00:00:00 | |
| IW2NTF | 2026-09-02 13:12:09 | 43.75832 | 8.74749 | 104° | 57km/h | 4985m | -3m/s | -4.9°C | 17.7% | 0hPa | 2.6V | 07:14:57 | 03:35:58 | 00:00:00 | |
| IW2NTF | 2026-09-02 13:12:03 | 43.75860 | 8.74645 | 115° | 46km/h | 5001m | -2.5m/s | -5°C | 17.9% | 0hPa | 2.7V | 07:15:03 | 03:35:52 | 00:00:00 | |
| IW2NTF | 2026-09-02 13:11:54 | 43.75885 | 8.74510 | 92° | 44km/h | 5027m | -2.8m/s | -5.3°C | 19.1% | 0hPa | 2.7V | 07:15:13 | 03:35:42 | 00:00:00 | |
| IW2NTF | 2026-09-02 13:11:43 | 43.75905 | 8.74329 | 108° | 55km/h | 5053m | -2.8m/s | -5.4°C | 19.1% | 0hPa | 2.7V | 07:15:23 | 03:35:32 | 00:00:00 | |
| IW2NTF | 2026-09-02 13:11:33 | 43.75950 | 8.74178 | 106° | 38km/h | 5079m | -2.8m/s | -5.6°C | 19% | 0hPa | 2.7V | 07:15:33 | 03:35:22 | 00:00:00 | |
| IW2NTF | 2026-09-02 13:11:23 | 43.75962 | 8.74027 | 94° | 53km/h | 5106m | -2.8m/s | -6°C | 19.2% | 0hPa | 2.7V | 07:15:43 | 03:35:12 | 00:00:00 | |
| IW2NTF | 2026-09-02 13:11:13 | 43.75998 | 8.73843 | 113° | 51km/h | 5133m | -3.1m/s | -6.1°C | 19.9% | 0hPa | 2.7V | 07:15:53 | 03:35:02 | 00:00:00 | |
| IW2NTF | 2026-09-02 13:11:03 | 43.76042 | 8.73699 | 100° | 40km/h | 5161m | -3.1m/s | -6.3°C | 20.5% | 0hPa | 2.7V | 07:16:03 | 03:34:52 | 00:00:00 | |
| IW2NTF | 2026-09-02 13:10:53 | 43.76062 | 8.73526 | 105° | 57km/h | 5189m | -2.9m/s | -6.5°C | 20.8% | 0hPa | 2.7V | 07:16:13 | 03:34:42 | 00:00:00 | |
| IW2NTF | 2026-09-02 13:10:42 | 43.76111 | 8.73339 | 111° | 57km/h | 5217m | -2.5m/s | -6.7°C | 20.9% | 0hPa | 2.7V | 07:16:23 | 03:34:32 | 00:00:00 | |
| IW2NTF | 2026-09-02 13:10:31 | 43.76180 | 8.73125 | 119° | 53km/h | 5251m | -3m/s | -6.9°C | 20.7% | 0hPa | 2.7V | 07:16:35 | 03:34:20 | 00:00:00 | |
| IW2NTF | 2026-09-02 13:10:21 | 43.76252 | 8.72974 | 124° | 49km/h | 5279m | -3m/s | -7°C | 21.9% | 0hPa | 2.7V | 07:16:45 | 03:34:10 | 00:00:00 | |
| IW2NTF | 2026-09-02 13:10:11 | 43.76316 | 8.72847 | 118° | 38km/h | 5309m | -2.5m/s | -7.2°C | 22.2% | 0hPa | 2.7V | 07:16:55 | 03:34:00 | 00:00:00 | |
| IW2NTF | 2026-09-02 13:10:01 | 43.76356 | 8.72691 | 114° | 55km/h | 5337m | -2.8m/s | -7.5°C | 22.4% | 0hPa | 2.7V | 07:17:05 | 03:33:50 | 00:00:00 | |
| IW2NTF | 2026-09-02 13:09:51 | 43.76429 | 8.72538 | 129° | 46km/h | 5365m | -3.2m/s | -7.7°C | 22.5% | 0hPa | 2.6V | 07:17:15 | 03:33:40 | 00:00:00 | |
| IW2NTF | 2026-09-02 13:09:41 | 43.76487 | 8.72422 | 112° | 38km/h | 5393m | -2.9m/s | -8°C | 23.3% | 0hPa | 2.7V | 07:17:25 | 03:33:30 | 00:00:00 | |
| IW2NTF | 2026-09-02 13:09:31 | 43.76533 | 8.72273 | 123° | 53km/h | 5420m | -2.6m/s | -8.2°C | 23% | 0hPa | 2.7V | 07:17:35 | 03:33:20 | 00:00:00 | |
| IW2NTF | 2026-09-02 13:09:21 | 43.76612 | 8.72134 | 131° | 49km/h | 5449m | -3.3m/s | -8.4°C | 23.2% | 0hPa | 2.6V | 07:17:45 | 03:33:10 | 00:00:00 | |
| IW2NTF | 2026-09-02 13:09:11 | 43.76697 | 8.72018 | 138° | 44km/h | 5480m | -3.2m/s | -8.7°C | 22.2% | 0hPa | 2.7V | 07:17:55 | 03:33:00 | 00:00:00 | |
| IW2NTF | 2026-09-02 13:09:01 | 43.76763 | 8.71924 | 119° | 37km/h | 5509m | -2.8m/s | -8.8°C | 18.3% | 0hPa | 2.7V | 07:18:05 | 03:32:50 | 00:00:00 | |
| IW2NTF | 2026-09-02 13:08:50 | 43.76820 | 8.71777 | 119° | 47km/h | 5542m | -3.1m/s | -8.7°C | 22% | 0hPa | 2.7V | 07:18:16 | 03:32:39 | 00:00:00 | |
| IW2NTF | 2026-09-02 13:08:32 | 43.76917 | 8.71568 | 126° | 55km/h | 5584m | -3.4m/s | -9°C | 25.5% | 0hPa | 2.6V | 07:18:30 | 03:32:25 | 00:00:00 | |
| IW2NTF | 2026-09-02 13:08:22 | 43.77005 | 8.71438 | 137° | 42km/h | 5613m | -2.9m/s | -9.2°C | 26.6% | 0hPa | 2.7V | 07:18:40 | 03:32:15 | 00:00:00 | |
| IW2NTF | 2026-09-02 13:08:12 | 43.77065 | 8.71320 | 118° | 46km/h | 5642m | -3m/s | -9.6°C | 32.7% | 0hPa | 2.7V | 07:18:50 | 03:32:05 | 00:00:00 | |
| IW2NTF | 2026-09-02 13:08:05 | 43.77132 | 8.71162 | 125° | 58km/h | 5674m | -3.4m/s | -9.8°C | 42.7% | 0hPa | 2.7V | 07:19:00 | 03:31:55 | 00:00:00 | |
| IW2NTF | 2026-09-02 13:07:55 | 43.77230 | 8.71013 | 138° | 51km/h | 5704m | -2.9m/s | -9.9°C | 40.7% | 0hPa | 2.7V | 07:19:10 | 03:31:45 | 00:00:00 | |
| IW2NTF | 2026-09-02 13:07:42 | 43.77318 | 8.70870 | 120° | 46km/h | 5742m | -3.2m/s | -10.3°C | 42.2% | 0hPa | 2.7V | 07:19:22 | 03:31:33 | 00:00:00 | |
| IW2NTF | 2026-09-02 13:07:32 | 43.77384 | 8.70710 | 120° | 57km/h | 5772m | -3m/s | -10.6°C | 45.1% | 0hPa | 2.7V | 07:19:32 | 03:31:23 | 00:00:00 | |
| IW2NTF | 2026-09-02 13:07:24 | 43.77458 | 8.70534 | 120° | 60km/h | 5804m | -3.5m/s | -10.9°C | 46.7% | 0hPa | 2.7V | 07:19:42 | 03:31:13 | 00:00:00 | |
| IW2NTF | 2026-09-02 13:07:14 | 43.77550 | 8.70354 | 129° | 64km/h | 5836m | -3.1m/s | -11°C | 45.8% | 0hPa | 2.7V | 07:19:52 | 03:31:03 | 00:00:00 | |
| IW2NTF | 2026-09-02 13:07:04 | 43.77654 | 8.70204 | 134° | 51km/h | 5867m | -3.2m/s | -11.4°C | 46.8% | 0hPa | 2.6V | 07:20:02 | 03:30:53 | 00:00:00 | |
| IW2NTF | 2026-09-02 13:06:54 | 43.77729 | 8.70070 | 120° | 51km/h | 5898m | -3.3m/s | -11.7°C | 47.3% | 0hPa | 2.7V | 07:20:12 | 03:30:43 | 00:00:00 | |
| IW2NTF | 2026-09-02 13:06:44 | 43.77794 | 8.69897 | 118° | 60km/h | 5928m | -3.2m/s | -12°C | 48.7% | 0hPa | 2.6V | 07:20:22 | 03:30:33 | 00:00:00 | |
| IW2NTF | 2026-09-02 13:06:34 | 43.77881 | 8.69707 | 127° | 66km/h | 5959m | -2.8m/s | -12.1°C | 47.7% | 0hPa | 2.7V | 07:20:32 | 03:30:23 | 00:00:00 | |
| IW2NTF | 2026-09-02 13:06:24 | 43.77984 | 8.69550 | 133° | 55km/h | 5989m | -3.1m/s | -12.4°C | 49.1% | 0hPa | 2.6V | 07:20:42 | 03:30:13 | 00:00:00 | |
| IW2NTF | 2026-09-02 13:06:12 | 43.78084 | 8.69388 | 126° | 49km/h | 6025m | -3m/s | -12.8°C | 49.9% | 0hPa | 2.7V | 07:20:54 | 03:30:01 | 00:00:00 | |
| IW2NTF | 2026-09-02 13:06:02 | 43.78149 | 8.69235 | 115° | 55km/h | 6055m | -3.1m/s | -13.1°C | 50.5% | 0hPa | 2.7V | 07:21:04 | 03:29:51 | 00:00:00 | |
| IW2NTF | 2026-09-02 13:05:52 | 43.78225 | 8.69047 | 127° | 66km/h | 6086m | -2.8m/s | -13.3°C | 51% | 0hPa | 2.7V | 07:21:14 | 03:29:41 | 00:00:00 | |
| IW2NTF | 2026-09-02 13:05:42 | 43.78324 | 8.68896 | 133° | 51km/h | 6116m | -2.9m/s | -13.6°C | 52.6% | 0hPa | 2.7V | 07:21:24 | 03:29:31 | 00:00:00 | |
| IW2NTF | 2026-09-02 13:05:32 | 43.78394 | 8.68760 | 116° | 49km/h | 6145m | -3.2m/s | -13.9°C | 53.3% | 0hPa | 2.6V | 07:21:34 | 03:29:21 | 00:00:00 | |
| IW2NTF | 2026-09-02 13:05:22 | 43.78456 | 8.68580 | 118° | 64km/h | 6174m | -3m/s | -14.1°C | 54.6% | 0hPa | 2.7V | 07:21:44 | 03:29:11 | 00:00:00 | |
| IW2NTF | 2026-09-02 13:05:12 | 43.78549 | 8.68401 | 131° | 57km/h | 6204m | -3.2m/s | -14.3°C | 54.7% | 0hPa | 2.6V | 07:21:54 | 03:29:01 | 00:00:00 | |
| IW2NTF | 2026-09-02 13:05:02 | 43.78629 | 8.68263 | 126° | 47km/h | 6232m | -2.9m/s | -14.6°C | 55.4% | 0hPa | 2.7V | 07:22:04 | 03:28:51 | 00:00:00 | |
| IW2NTF | 2026-09-02 13:04:52 | 43.78689 | 8.68121 | 113° | 49km/h | 6262m | -3.1m/s | -14.9°C | 57.1% | 0hPa | 2.6V | 07:22:14 | 03:28:41 | 00:00:00 | |
| IW2NTF | 2026-09-02 13:04:42 | 43.78738 | 8.67947 | 110° | 58km/h | 6292m | -3.2m/s | -15.2°C | 58.2% | 0hPa | 2.7V | 07:22:24 | 03:28:31 | 00:00:00 | |
| IW2NTF | 2026-09-02 13:04:32 | 43.78801 | 8.67749 | 120° | 64km/h | 6321m | -2.8m/s | -15.3°C | 56.7% | 0hPa | 2.7V | 07:22:34 | 03:28:21 | 00:00:00 | |
| IW2NTF | 2026-09-02 13:04:22 | 43.78883 | 8.67583 | 120° | 47km/h | 6349m | -3.1m/s | -15.5°C | 52.2% | 0hPa | 2.7V | 07:22:44 | 03:28:11 | 00:00:00 | |
| IW2NTF | 2026-09-02 13:04:13 | 43.78928 | 8.67422 | 105° | 55km/h | 6378m | -2.8m/s | -15.7°C | 42.3% | 0hPa | 2.7V | 07:22:54 | 03:28:01 | 00:00:00 | |
| IW2NTF | 2026-09-02 13:04:02 | 43.78970 | 8.67223 | 108° | 64km/h | 6407m | -3.2m/s | -15.8°C | 41.3% | 0hPa | 2.6V | 07:23:04 | 03:27:51 | 00:00:00 | |
| IW2NTF | 2026-09-02 13:03:52 | 43.79039 | 8.67013 | 118° | 66km/h | 6435m | -2.9m/s | -16°C | 41.1% | 0hPa | 2.7V | 07:23:14 | 03:27:41 | 00:00:00 | |
| IW2NTF | 2026-09-02 13:03:40 | 43.79141 | 8.66793 | 124° | 57km/h | 6470m | -3m/s | -16.3°C | 42.5% | 0hPa | 2.7V | 07:23:26 | 03:27:29 | 00:00:00 | |
| IW2NTF | 2026-09-02 13:03:26 | 43.79201 | 8.66634 | 107° | 55km/h | 6498m | -2.9m/s | -16.6°C | 45.8% | 0hPa | 2.7V | 07:23:36 | 03:27:19 | 00:00:00 | |
| IW2NTF | 2026-09-02 13:03:20 | 43.79260 | 8.66428 | 118° | 68km/h | 6526m | -3.1m/s | -16.6°C | 51.7% | 0hPa | 2.6V | 07:23:46 | 03:27:09 | 00:00:00 | |
| IW2NTF | 2026-09-02 13:03:06 | 43.79349 | 8.66248 | 127° | 57km/h | 6554m | -2.5m/s | -16.8°C | 62.6% | 0hPa | 2.7V | 07:23:56 | 03:26:59 | 00:00:00 | |
| IW2NTF | 2026-09-02 13:03:00 | 43.79420 | 8.66101 | 117° | 47km/h | 6583m | -3m/s | -17°C | 66.2% | 0hPa | 2.7V | 07:24:06 | 03:26:49 | 00:00:00 | |
| IW2NTF | 2026-09-02 13:02:46 | 43.79466 | 8.65938 | 107° | 55km/h | 6611m | -3m/s | -17.4°C | 69% | 0hPa | 2.6V | 07:24:16 | 03:26:39 | 00:00:00 | |
| IW2NTF | 2026-09-02 13:02:40 | 43.79522 | 8.65738 | 117° | 66km/h | 6640m | -2.9m/s | -17.4°C | 73.6% | 0hPa | 2.7V | 07:24:26 | 03:26:29 | 00:00:00 | |
| IW2NTF | 2026-09-02 13:02:26 | 43.79609 | 8.65549 | 125° | 62km/h | 6670m | -3.1m/s | -17.5°C | 74.5% | 0hPa | 2.7V | 07:24:36 | 03:26:19 | 00:00:00 | |
| IW2NTF | 2026-09-02 13:02:20 | 43.79705 | 8.65369 | 125° | 66km/h | 6698m | -2.8m/s | -17.7°C | 76.8% | 0hPa | 2.6V | 07:24:46 | 03:26:09 | 00:00:00 | |
| IW2NTF | 2026-09-02 13:02:04 | 43.79847 | 8.65115 | 129° | 68km/h | 6739m | -2.9m/s | -17.6°C | 84.1% | 0hPa | 2.7V | 07:25:00 | 03:25:55 | 00:00:00 | |
| IW2NTF | 2026-09-02 13:01:54 | 43.79958 | 8.64939 | 133° | 66km/h | 6769m | -3.1m/s | -17.7°C | 86.4% | 0hPa | 2.6V | 07:25:10 | 03:25:45 | 00:00:00 | |
| IW2NTF | 2026-09-02 13:01:46 | 43.80070 | 8.64789 | 133° | 53km/h | 6798m | -2.8m/s | -17.9°C | 89% | 0hPa | 2.7V | 07:25:20 | 03:25:35 | 00:00:00 | |
| IW2NTF | 2026-09-02 13:01:34 | 43.80149 | 8.64625 | 120° | 64km/h | 6826m | -2.8m/s | -18.1°C | 91% | 0hPa | 2.7V | 07:25:30 | 03:25:25 | 00:00:00 | |
| IW2NTF | 2026-09-02 13:01:26 | 43.80250 | 8.64426 | 131° | 73km/h | 6856m | -3m/s | -18.1°C | 87.8% | 0hPa | 2.7V | 07:25:40 | 03:25:15 | 00:00:00 | |
| IW2NTF | 2026-09-02 13:01:14 | 43.80368 | 8.64269 | 135° | 57km/h | 6883m | -2.7m/s | -18.4°C | 89% | 0hPa | 2.6V | 07:25:50 | 03:25:05 | 00:00:00 | |
| IW2NTF | 2026-09-02 13:01:06 | 43.80454 | 8.64118 | 121° | 58km/h | 6911m | -2.9m/s | -18.6°C | 89.7% | 0hPa | 2.6V | 07:26:00 | 03:24:55 | 00:00:00 | |
| IW2NTF | 2026-09-02 13:00:54 | 43.80545 | 8.63921 | 126° | 73km/h | 6939m | -2.7m/s | -18.7°C | 89.8% | 0hPa | 2.7V | 07:26:10 | 03:24:45 | 00:00:00 | |
| IW2NTF | 2026-09-02 13:00:46 | 43.80668 | 8.63739 | 137° | 64km/h | 6968m | -2.7m/s | -18.9°C | 90% | 0hPa | 2.7V | 07:26:20 | 03:24:35 | 00:00:00 | |
| IW2NTF | 2026-09-02 13:00:34 | 43.80767 | 8.63591 | 126° | 57km/h | 6995m | -2.9m/s | -19.2°C | 90.5% | 0hPa | 2.6V | 07:26:30 | 03:24:25 | 00:00:00 | |
| IW2NTF | 2026-09-02 13:00:26 | 43.80848 | 8.63415 | 120° | 68km/h | 7025m | -3.4m/s | -19.5°C | 90.2% | 0hPa | 2.5V | 07:26:40 | 03:24:15 | 00:00:00 | |
| IW2NTF | 2026-09-02 13:00:14 | 43.80957 | 8.63209 | 132° | 75km/h | 7054m | -2.8m/s | -19.6°C | 90.2% | 0hPa | 2.6V | 07:26:50 | 03:24:05 | 00:00:00 | |
| IW2NTF | 2026-09-02 13:00:06 | 43.81076 | 8.63047 | 132° | 57km/h | 7083m | -2.6m/s | -19.9°C | 92.5% | 0hPa | 2.6V | 07:27:00 | 03:23:55 | 00:00:00 | |
| IW2NTF | 2026-09-02 12:59:54 | 43.81162 | 8.62870 | 121° | 68km/h | 7111m | -3m/s | -20.3°C | 94.3% | 0hPa | 2.6V | 07:27:10 | 03:23:45 | 00:00:00 | |
| IW2NTF | 2026-09-02 12:59:46 | 43.81255 | 8.62655 | 120° | 73km/h | 7141m | -3.3m/s | -20.5°C | 95.7% | 0hPa | 2.6V | 07:27:20 | 03:23:35 | 00:00:00 | |
| IW2NTF | 2026-09-02 12:59:35 | 43.81351 | 8.62428 | 122° | 80km/h | 7171m | -3.1m/s | -20.6°C | 92.6% | 0hPa | 2.6V | 07:27:30 | 03:23:25 | 00:00:00 | |
| IW2NTF | 2026-09-02 12:59:26 | 43.81475 | 8.62214 | 132° | 68km/h | 7200m | -2.8m/s | -20.7°C | 91.5% | 0hPa | 2.5V | 07:27:40 | 03:23:15 | 00:00:00 | |
| IW2NTF | 2026-09-02 12:59:15 | 43.81568 | 8.62027 | 118° | 68km/h | 7229m | -2.9m/s | -20.7°C | 86.8% | 0hPa | 2.6V | 07:27:50 | 03:23:05 | 00:00:00 | |
| IW2NTF | 2026-09-02 12:59:06 | 43.81654 | 8.61793 | 120° | 82km/h | 7257m | -3m/s | 0°C | 0% | 0hPa | 2.6V | 07:28:00 | 03:22:55 | 00:00:00 | |
| IW2NTF | 2026-09-02 12:58:54 | 43.81778 | 8.61563 | 131° | 77km/h | 7288m | -2.9m/s | -20.8°C | 76.2% | 0hPa | 2.6V | 07:28:10 | 03:22:45 | 00:00:00 | |
| IW2NTF | 2026-09-02 12:58:46 | 43.81886 | 8.61376 | 119° | 66km/h | 7318m | -3m/s | -21.2°C | 78.5% | 0hPa | 2.6V | 07:28:20 | 03:22:35 | 00:00:00 | |
| IW2NTF | 2026-09-02 12:58:34 | 43.81976 | 8.61143 | 122° | 84km/h | 7347m | -3.1m/s | -21.3°C | 76.7% | 0hPa | 2.6V | 07:28:30 | 03:22:25 | 00:00:00 | |
| IW2NTF | 2026-09-02 12:58:26 | 43.82106 | 8.60920 | 133° | 77km/h | 7377m | -3m/s | -21.5°C | 76.9% | 0hPa | 2.6V | 07:28:40 | 03:22:15 | 00:00:00 | |
| IW2NTF | 2026-09-02 12:58:14 | 43.82218 | 8.60738 | 121° | 66km/h | 7408m | -3.1m/s | -21.8°C | 78.7% | 0hPa | 2.5V | 07:28:50 | 03:22:05 | 00:00:00 | |
| IW2NTF | 2026-09-02 12:57:56 | 43.82398 | 8.60366 | 128° | 84km/h | 7458m | -3.2m/s | -22.2°C | 80.8% | 0hPa | 2.6V | 07:29:06 | 03:21:49 | 00:00:00 | |
| IW2NTF | 2026-09-02 12:57:50 | 43.82540 | 8.60147 | 135° | 82km/h | 7489m | -3.2m/s | -22.4°C | 80.7% | 0hPa | 2.6V | 07:29:16 | 03:21:39 | 00:00:00 | |
| IW2NTF | 2026-09-02 12:57:36 | 43.82685 | 8.59965 | 139° | 73km/h | 7521m | -3.2m/s | -22.4°C | 67.9% | 0hPa | 2.6V | 07:29:26 | 03:21:29 | 00:00:00 | |
| IW2NTF | 2026-09-02 12:57:31 | 43.82810 | 8.59803 | 129° | 66km/h | 7552m | -3m/s | -22.6°C | 65.8% | 0hPa | 2.6V | 07:29:36 | 03:21:19 | 00:00:00 | |
| IW2NTF | 2026-09-02 12:57:16 | 43.82919 | 8.59592 | 126° | 80km/h | 7583m | -3.2m/s | -22.8°C | 60.9% | 0hPa | 2.6V | 07:29:46 | 03:21:09 | 00:00:00 | |
| IW2NTF | 2026-09-02 12:57:10 | 43.83064 | 8.59387 | 140° | 77km/h | 7614m | -3.2m/s | -22.7°C | 43.2% | 0hPa | 2.6V | 07:29:56 | 03:20:59 | 00:00:00 | |
| IW2NTF | 2026-09-02 12:56:56 | 43.83196 | 8.59228 | 131° | 66km/h | 7645m | -3m/s | -22.8°C | 39.5% | 0hPa | 2.6V | 07:30:06 | 03:20:49 | 00:00:00 | |
| IW2NTF | 2026-09-02 12:56:50 | 43.83307 | 8.59021 | 128° | 82km/h | 7676m | -3m/s | -22.9°C | 29.6% | 0hPa | 2.6V | 07:30:16 | 03:20:39 | 00:00:00 | |
| IW2NTF | 2026-09-02 12:56:36 | 43.83456 | 8.58815 | 141° | 80km/h | 7708m | -3.3m/s | -23.1°C | 28.3% | 0hPa | 2.6V | 07:30:26 | 03:20:29 | 00:00:00 | |
| IW2NTF | 2026-09-02 12:56:31 | 43.83600 | 8.58659 | 138° | 64km/h | 7739m | -3.1m/s | -23.4°C | 26.9% | 0hPa | 2.6V | 07:30:36 | 03:20:19 | 00:00:00 | |
| IW2NTF | 2026-09-02 12:56:18 | 43.83749 | 8.58426 | 132° | 84km/h | 7776m | -3.4m/s | -23.7°C | 22.5% | 0hPa | 2.6V | 07:30:48 | 03:20:07 | 00:00:00 | |
| IW2NTF | 2026-09-02 12:56:08 | 43.83908 | 8.58220 | 140° | 88km/h | 7810m | -3.6m/s | -24°C | 21.8% | 0hPa | 2.6V | 07:30:58 | 03:19:57 | 00:00:00 | |
| IW2NTF | 2026-09-02 12:55:53 | 43.84090 | 8.58030 | 143° | 71km/h | 7846m | -3.1m/s | -24.3°C | 23.1% | 0hPa | 2.6V | 07:31:09 | 03:19:46 | 00:00:00 | |
| IW2NTF | 2026-09-02 12:55:43 | 43.84218 | 8.57856 | 130° | 77km/h | 7877m | -3.3m/s | -24.6°C | 17.8% | 0hPa | 2.5V | 07:31:19 | 03:19:36 | 00:00:00 | |
| IW2NTF | 2026-09-02 12:55:36 | 43.84358 | 8.57637 | 134° | 89km/h | 7909m | -3.1m/s | -24.6°C | 15.5% | 0hPa | 2.6V | 07:31:29 | 03:19:26 | 00:00:00 | |
| IW2NTF | 2026-09-02 12:55:23 | 43.84527 | 8.57438 | 143° | 78km/h | 7941m | -3.2m/s | -24.8°C | 15.7% | 0hPa | 2.6V | 07:31:39 | 03:19:16 | 00:00:00 | |
| IW2NTF | 2026-09-02 12:55:13 | 43.84663 | 8.57266 | 129° | 75km/h | 7972m | -2.9m/s | -25.2°C | 15.7% | 0hPa | 2.6V | 07:31:49 | 03:19:06 | 00:00:00 | |
| IW2NTF | 2026-09-02 12:55:04 | 43.84800 | 8.57042 | 133° | 89km/h | 8003m | -3.3m/s | -25.4°C | 16% | 0hPa | 2.5V | 07:31:59 | 03:18:56 | 00:00:00 | |
| IW2NTF | 2026-09-02 12:54:53 | 43.84970 | 8.56827 | 141° | 89km/h | 8035m | -2.9m/s | -25.6°C | 16.2% | 0hPa | 2.6V | 07:32:09 | 03:18:46 | 00:00:00 | |
| IW2NTF | 2026-09-02 12:54:43 | 43.85127 | 8.56653 | 134° | 73km/h | 8066m | -3.1m/s | -26°C | 17% | 0hPa | 2.5V | 07:32:19 | 03:18:36 | 00:00:00 | |
| IW2NTF | 2026-09-02 12:54:33 | 43.85249 | 8.56452 | 127° | 78km/h | 8099m | -3.4m/s | -26.3°C | 18.7% | 0hPa | 2.5V | 07:32:29 | 03:18:26 | 00:00:00 | |
| IW2NTF | 2026-09-02 12:54:27 | 43.85374 | 8.56220 | 128° | 91km/h | 8131m | -2.8m/s | -26.4°C | 19.5% | 0hPa | 2.6V | 07:32:39 | 03:18:16 | 00:00:00 | |
| IW2NTF | 2026-09-02 12:54:13 | 43.85536 | 8.55992 | 138° | 88km/h | 8163m | -3.2m/s | -26.6°C | 19.2% | 0hPa | 2.5V | 07:32:49 | 03:18:06 | 00:00:00 | |
| IW2NTF | 2026-09-02 12:54:03 | 43.85678 | 8.55805 | 129° | 73km/h | 8194m | -3.2m/s | -26.8°C | 19.3% | 0hPa | 2.5V | 07:32:59 | 03:17:56 | 00:00:00 | |
| IW2NTF | 2026-09-02 12:53:54 | 43.85799 | 8.55570 | 127° | 93km/h | 8226m | -3.2m/s | -27.1°C | 19.3% | 0hPa | 2.5V | 07:33:09 | 03:17:46 | 00:00:00 | |
| IW2NTF | 2026-09-02 12:53:44 | 43.85959 | 8.55331 | 138° | 88km/h | 8257m | -3.2m/s | -27.3°C | 20.2% | 0hPa | 2.6V | 07:33:19 | 03:17:36 | 00:00:00 | |
| IW2NTF | 2026-09-02 12:53:33 | 43.86101 | 8.55141 | 128° | 73km/h | 8289m | -3.1m/s | -27.7°C | 21.1% | 0hPa | 2.6V | 07:33:29 | 03:17:26 | 00:00:00 | |
| IW2NTF | 2026-09-02 12:53:23 | 43.86225 | 8.54902 | 127° | 93km/h | 8321m | -3.2m/s | -28°C | 22.9% | 0hPa | 2.5V | 07:33:39 | 03:17:16 | 00:00:00 | |
| IW2NTF | 2026-09-02 12:53:17 | 43.86385 | 8.54659 | 137° | 89km/h | 8352m | -3.2m/s | -28.2°C | 24.2% | 0hPa | 2.5V | 07:33:49 | 03:17:06 | 00:00:00 | |
| IW2NTF | 2026-09-02 12:53:03 | 43.86535 | 8.54470 | 134° | 73km/h | 8384m | -3m/s | -28.6°C | 26% | 0hPa | 2.6V | 07:33:59 | 03:16:56 | 00:00:00 | |
| IW2NTF | 2026-09-02 12:52:57 | 43.86654 | 8.54257 | 124° | 86km/h | 8417m | -3.4m/s | -28.9°C | 26.9% | 0hPa | 2.5V | 07:34:09 | 03:16:46 | 00:00:00 | |
| IW2NTF | 2026-09-02 12:52:44 | 43.86806 | 8.54014 | 136° | 91km/h | 8448m | -3m/s | -29.1°C | 26% | 0hPa | 2.5V | 07:34:19 | 03:16:36 | 00:00:00 | |
| IW2NTF | 2026-09-02 12:52:37 | 43.86967 | 8.53824 | 139° | 77km/h | 8481m | -3.3m/s | -29.4°C | 27.2% | 0hPa | 2.5V | 07:34:29 | 03:16:26 | 00:00:00 | |
| IW2NTF | 2026-09-02 12:52:23 | 43.87092 | 8.53630 | 125° | 80km/h | 8513m | -3m/s | -29.8°C | 26.8% | 0hPa | 2.6V | 07:34:39 | 03:16:16 | 00:00:00 | |
| IW2NTF | 2026-09-02 12:52:17 | 43.87240 | 8.53394 | 138° | 91km/h | 8545m | -3.2m/s | -29.8°C | 21.7% | 0hPa | 2.6V | 07:34:49 | 03:16:06 | 00:00:00 | |
| IW2NTF | 2026-09-02 12:52:06 | 43.87405 | 8.53209 | 140° | 75km/h | 8578m | -3.1m/s | -30°C | 24.9% | 0hPa | 2.6V | 07:34:59 | 03:15:56 | 00:00:00 | |
| IW2NTF | 2026-09-02 12:51:53 | 43.87530 | 8.53027 | 127° | 77km/h | 8610m | -3.1m/s | -30.4°C | 28.5% | 0hPa | 2.6V | 07:35:09 | 03:15:46 | 00:00:00 | |
| IW2NTF | 2026-09-02 12:51:47 | 43.87678 | 8.52800 | 139° | 89km/h | 8641m | -2.9m/s | -30.6°C | 30.3% | 0hPa | 2.6V | 07:35:19 | 03:15:36 | 00:00:00 | |
| IW2NTF | 2026-09-02 12:51:37 | 43.87847 | 8.52625 | 145° | 78km/h | 8674m | -3.2m/s | -30.8°C | 28.8% | 0hPa | 2.6V | 07:35:29 | 03:15:26 | 00:00:00 | |
| IW2NTF | 2026-09-02 12:51:23 | 43.87987 | 8.52465 | 131° | 73km/h | 8706m | -3.1m/s | -31.3°C | 33.4% | 0hPa | 2.6V | 07:35:39 | 03:15:16 | 00:00:00 | |
| IW2NTF | 2026-09-02 12:51:16 | 43.88131 | 8.52253 | 138° | 89km/h | 8736m | -2.8m/s | -31.3°C | 33.6% | 0hPa | 2.6V | 07:35:49 | 03:15:06 | 00:00:00 | |
| IW2NTF | 2026-09-02 12:51:04 | 43.88308 | 8.52074 | 147° | 80km/h | 8767m | -3.3m/s | -31.6°C | 35.2% | 0hPa | 2.6V | 07:35:59 | 03:14:56 | 00:00:00 | |
| IW2NTF | 2026-09-02 12:50:58 | 43.88457 | 8.51930 | 136° | 68km/h | 8798m | -3.2m/s | -31.9°C | 35.9% | 0hPa | 2.6V | 07:36:09 | 03:14:46 | 00:00:00 | |
| IW2NTF | 2026-09-02 12:50:46 | 43.88602 | 8.51732 | 139° | 88km/h | 8829m | -3.2m/s | -32.1°C | 35.8% | 0hPa | 2.5V | 07:36:19 | 03:14:36 | 00:00:00 | |
| IW2NTF | 2026-09-02 12:50:38 | 43.88783 | 8.51556 | 148° | 86km/h | 8859m | -3.3m/s | -32.3°C | 36.7% | 0hPa | 2.5V | 07:36:29 | 03:14:26 | 00:00:00 | |
| IW2NTF | 2026-09-02 12:50:27 | 43.88965 | 8.51419 | 153° | 77km/h | 8891m | -3.1m/s | -32.6°C | 37.2% | 0hPa | 2.5V | 07:36:39 | 03:14:16 | 00:00:00 | |
| IW2NTF | 2026-09-02 12:50:17 | 43.89117 | 8.51295 | 141° | 68km/h | 8921m | -2.9m/s | -32.9°C | 39.4% | 0hPa | 2.6V | 07:36:49 | 03:14:06 | 00:00:00 | |
| IW2NTF | 2026-09-02 12:50:04 | 43.89279 | 8.51127 | 150° | 88km/h | 8950m | -2.9m/s | -32.9°C | 35.3% | 0hPa | 2.5V | 07:36:59 | 03:13:56 | 00:00:00 | |
| IW2NTF | 2026-09-02 12:49:58 | 43.89473 | 8.50996 | 157° | 82km/h | 8979m | -2.8m/s | -33°C | 33.4% | 0hPa | 2.6V | 07:37:09 | 03:13:46 | 00:00:00 | |
| IW2NTF | 2026-09-02 12:49:43 | 43.89650 | 8.50903 | 156° | 66km/h | 9009m | -3.1m/s | -33.2°C | 28.8% | 0hPa | 2.5V | 07:37:19 | 03:13:36 | 00:00:00 | |
| IW2NTF | 2026-09-02 12:49:37 | 43.89804 | 8.50763 | 147° | 84km/h | 9038m | -2.9m/s | -33.4°C | 28.1% | 0hPa | 2.5V | 07:37:29 | 03:13:26 | 00:00:00 | |
| IW2NTF | 2026-09-02 12:49:27 | 43.89999 | 8.50639 | 161° | 78km/h | 9067m | -3.2m/s | -33.6°C | 29.3% | 0hPa | 2.5V | 07:37:39 | 03:13:16 | 00:00:00 | |
| IW2NTF | 2026-09-02 12:49:16 | 43.90164 | 8.50552 | 150° | 66km/h | 9099m | -3m/s | -33.9°C | 29% | 0hPa | 2.6V | 07:37:49 | 03:13:06 | 00:00:00 | |
| IW2NTF | 2026-09-02 12:49:05 | 43.90334 | 8.50413 | 154° | 88km/h | 9128m | -3.3m/s | -34°C | 28.5% | 0hPa | 2.5V | 07:37:59 | 03:12:56 | 00:00:00 | |
| IW2NTF | 2026-09-02 12:48:57 | 43.90540 | 8.50298 | 161° | 88km/h | 9160m | -3.3m/s | -34.2°C | 28.3% | 0hPa | 2.5V | 07:38:09 | 03:12:46 | 00:00:00 | |
| IW2NTF | 2026-09-02 12:48:46 | 43.90735 | 8.50224 | 163° | 69km/h | 9192m | -3m/s | -34.5°C | 28.7% | 0hPa | 2.6V | 07:38:19 | 03:12:36 | 00:00:00 | |
| IW2NTF | 2026-09-02 12:48:33 | 43.90990 | 8.50060 | 158° | 91km/h | 9235m | -3.2m/s | -34.8°C | 29.6% | 0hPa | 2.5V | 07:38:33 | 03:12:22 | 00:00:00 | |
| IW2NTF | 2026-09-02 12:48:23 | 43.91211 | 8.49971 | 168° | 86km/h | 9269m | -3.3m/s | -35°C | 30.1% | 0hPa | 2.6V | 07:38:43 | 03:12:12 | 00:00:00 | |
| IW2NTF | 2026-09-02 12:48:13 | 43.91396 | 8.49902 | 156° | 75km/h | 9302m | -3.2m/s | -35.5°C | 30.8% | 0hPa | 2.5V | 07:38:53 | 03:12:02 | 00:00:00 | |
| IW2NTF | 2026-09-02 12:48:01 | 43.91639 | 8.49754 | 158° | 97km/h | 9343m | -3.5m/s | -35.5°C | 33.2% | 0hPa | 2.5V | 07:39:05 | 03:11:50 | 00:00:00 | |
| IW2NTF | 2026-09-02 12:47:51 | 43.91878 | 8.49656 | 168° | 95km/h | 9377m | -2.9m/s | -35.7°C | 34% | 0hPa | 2.5V | 07:39:15 | 03:11:40 | 00:00:00 | |
| IW2NTF | 2026-09-02 12:47:37 | 43.92086 | 8.49592 | 161° | 78km/h | 9409m | -3.8m/s | -36.2°C | 36.5% | 0hPa | 2.5V | 07:39:25 | 03:11:30 | 00:00:00 | |
| IW2NTF | 2026-09-02 12:47:31 | 43.92286 | 8.49476 | 157° | 95km/h | 9444m | -3.1m/s | -36.4°C | 37% | 0hPa | 2.6V | 07:39:35 | 03:11:20 | 00:00:00 | |
| IW2NTF | 2026-09-02 12:47:22 | 43.92528 | 8.49377 | 169° | 97km/h | 9476m | -3.4m/s | -36.6°C | 38.3% | 0hPa | 2.5V | 07:39:45 | 03:11:10 | 00:00:00 | |
| IW2NTF | 2026-09-02 12:47:11 | 43.92744 | 8.49309 | 158° | 84km/h | 9511m | -3.7m/s | -37.2°C | 39.9% | 0hPa | 2.5V | 07:39:55 | 03:11:00 | 00:00:00 | |
| IW2NTF | 2026-09-02 12:46:59 | 43.93007 | 8.49147 | 156° | 102km/h | 9557m | -4m/s | -37.5°C | 41.8% | 0hPa | 2.6V | 07:40:07 | 03:10:48 | 00:00:00 | |
| IW2NTF | 2026-09-02 12:46:50 | 43.93263 | 8.49017 | 165° | 110km/h | 9598m | -4.1m/s | -37.8°C | 41.1% | 0hPa | 2.5V | 07:40:17 | 03:10:38 | 00:00:00 | |
| IW2NTF | 2026-09-02 12:46:39 | 43.93504 | 8.48941 | 162° | 88km/h | 9638m | -3.9m/s | -38.2°C | 39.5% | 0hPa | 2.6V | 07:40:27 | 03:10:28 | 00:00:00 | |
| IW2NTF | 2026-09-02 12:46:29 | 43.93731 | 8.48807 | 156° | 110km/h | 9676m | -3.9m/s | -38.4°C | 42.4% | 0hPa | 2.5V | 07:40:37 | 03:10:18 | 00:00:00 | |
| IW2NTF | 2026-09-02 12:46:19 | 43.93999 | 8.48686 | 168° | 106km/h | 9716m | -3.9m/s | -38.7°C | 45.9% | 0hPa | 2.5V | 07:40:47 | 03:10:08 | 00:00:00 | |
| IW2NTF | 2026-09-02 12:46:10 | 43.94230 | 8.48605 | 157° | 91km/h | 9754m | -3.5m/s | -39.1°C | 44.3% | 0hPa | 2.5V | 07:40:57 | 03:09:58 | 00:00:00 | |
| IW2NTF | 2026-09-02 12:45:59 | 43.94476 | 8.48471 | 163° | 111km/h | 9789m | -3.8m/s | -39.3°C | 45.1% | 0hPa | 2.5V | 07:41:07 | 03:09:48 | 00:00:00 | |
| IW2NTF | 2026-09-02 12:45:44 | 43.94772 | 8.48381 | 170° | 104km/h | 9828m | -3.8m/s | -39.6°C | 44.1% | 0hPa | 2.5V | 07:41:18 | 03:09:37 | 00:00:00 | |
| IW2NTF | 2026-09-02 12:45:38 | 43.95007 | 8.48317 | 160° | 93km/h | 9864m | -3.5m/s | -40°C | 43.3% | 0hPa | 2.5V | 07:41:28 | 03:09:27 | 00:00:00 | |
| IW2NTF | 2026-09-02 12:45:25 | 43.95263 | 8.48200 | 166° | 113km/h | 9899m | -3.8m/s | -40°C | 41.8% | 0hPa | 2.5V | 07:41:38 | 03:09:17 | 00:00:00 | |
| IW2NTF | 2026-09-02 12:45:19 | 43.95535 | 8.48139 | 172° | 97km/h | 9935m | -3.5m/s | -40.3°C | 41.8% | 0hPa | 2.5V | 07:41:48 | 03:09:07 | 00:00:00 | |
| IW2NTF | 2026-09-02 12:45:07 | 43.95818 | 8.48030 | 161° | 108km/h | 9975m | -3.2m/s | -40.6°C | 42% | 0hPa | 2.6V | 07:42:00 | 03:08:55 | 00:00:00 | |
| IW2NTF | 2026-09-02 12:44:56 | 43.96096 | 8.47914 | 166° | 119km/h | 10011m | -3.5m/s | -40.9°C | 39.3% | 0hPa | 2.5V | 07:42:10 | 03:08:45 | 00:00:00 | |
| IW2NTF | 2026-09-02 12:44:47 | 43.96371 | 8.47856 | 172° | 102km/h | 10046m | -3.3m/s | -41.1°C | 41.6% | 0hPa | 2.5V | 07:42:20 | 03:08:35 | 00:00:00 | |
| IW2NTF | 2026-09-02 12:44:36 | 43.96610 | 8.47788 | 161° | 99km/h | 10081m | -3.4m/s | -41.6°C | 39.8% | 0hPa | 2.5V | 07:42:30 | 03:08:25 | 00:00:00 | |
| IW2NTF | 2026-09-02 12:44:27 | 43.96878 | 8.47671 | 166° | 119km/h | 10116m | -3.2m/s | -41.8°C | 40.2% | 0hPa | 2.6V | 07:42:40 | 03:08:15 | 00:00:00 | |
| IW2NTF | 2026-09-02 12:44:16 | 43.97162 | 8.47611 | 173° | 102km/h | 10153m | -3.7m/s | -42.2°C | 42.4% | 0hPa | 2.6V | 07:42:50 | 03:08:05 | 00:00:00 | |
| IW2NTF | 2026-09-02 12:44:06 | 43.97453 | 8.47507 | 161° | 113km/h | 10197m | -3.2m/s | -42.6°C | 41.4% | 0hPa | 2.6V | 07:43:02 | 03:07:53 | 00:00:00 | |
| IW2NTF | 2026-09-02 12:43:54 | 43.97743 | 8.47423 | 173° | 110km/h | 10234m | -3.6m/s | -42.8°C | 44% | 0hPa | 2.5V | 07:43:12 | 03:07:43 | 00:00:00 | |
| IW2NTF | 2026-09-02 12:43:41 | 43.97988 | 8.47366 | 163° | 95km/h | 10270m | -3.7m/s | -43.3°C | 43.3% | 0hPa | 2.6V | 07:43:22 | 03:07:33 | 00:00:00 | |
| IW2NTF | 2026-09-02 12:43:30 | 43.98254 | 8.47255 | 167° | 119km/h | 10306m | -3.7m/s | -43.5°C | 42.2% | 0hPa | 2.6V | 07:43:32 | 03:07:23 | 00:00:00 | |
| IW2NTF | 2026-09-02 12:43:20 | 43.98540 | 8.47197 | 174° | 102km/h | 10342m | -3.6m/s | -43.8°C | 45.9% | 0hPa | 2.5V | 07:43:42 | 03:07:13 | 00:00:00 | |
| IW2NTF | 2026-09-02 12:43:10 | 43.98782 | 8.47123 | 160° | 104km/h | 10379m | -3.7m/s | -44.2°C | 44.8% | 0hPa | 2.5V | 07:43:52 | 03:07:03 | 00:00:00 | |
| IW2NTF | 2026-09-02 12:43:00 | 43.99063 | 8.47012 | 169° | 119km/h | 10416m | -3.9m/s | -44.5°C | 45.7% | 0hPa | 2.5V | 07:44:02 | 03:06:53 | 00:00:00 | |
| IW2NTF | 2026-09-02 12:42:50 | 43.99334 | 8.46966 | 170° | 97km/h | 10454m | -3.5m/s | -44.9°C | 47.6% | 0hPa | 2.6V | 07:44:12 | 03:06:43 | 00:00:00 | |
| IW2NTF | 2026-09-02 12:42:40 | 43.99580 | 8.46863 | 160° | 111km/h | 10492m | -3.4m/s | -45.2°C | 48.8% | 0hPa | 2.6V | 07:44:22 | 03:06:33 | 00:00:00 | |
| IW2NTF | 2026-09-02 12:42:34 | 43.99867 | 8.46745 | 166° | 122km/h | 10531m | -3.9m/s | -45.4°C | 46.5% | 0hPa | 2.5V | 07:44:32 | 03:06:23 | 00:00:00 | |
| IW2NTF | 2026-09-02 12:42:20 | 44.00153 | 8.46685 | 172° | 104km/h | 10569m | -3.8m/s | -45.8°C | 50% | 0hPa | 2.6V | 07:44:42 | 03:06:13 | 00:00:00 | |
| IW2NTF | 2026-09-02 12:42:11 | 44.00397 | 8.46604 | 161° | 102km/h | 10607m | -4m/s | -46.2°C | 48.5% | 0hPa | 2.5V | 07:44:52 | 03:06:03 | 00:00:00 | |
| IW2NTF | 2026-09-02 12:42:00 | 44.00665 | 8.46478 | 164° | 120km/h | 10646m | -3.6m/s | -46.3°C | 48.5% | 0hPa | 2.6V | 07:45:02 | 03:05:53 | 00:00:00 | |
| IW2NTF | 2026-09-02 12:41:50 | 44.00960 | 8.46400 | 173° | 111km/h | 10685m | -3.6m/s | -46.6°C | 49.5% | 0hPa | 2.6V | 07:45:12 | 03:05:43 | 00:00:00 | |
| IW2NTF | 2026-09-02 12:41:41 | 44.01260 | 8.46332 | 163° | 99km/h | 10732m | -3.6m/s | -47.1°C | 47.3% | 0hPa | 2.6V | 07:45:24 | 03:05:31 | 00:00:00 | |
| IW2NTF | 2026-09-02 12:41:30 | 44.01530 | 8.46221 | 166° | 119km/h | 10770m | -4.1m/s | -47.2°C | 46.4% | 0hPa | 2.5V | 07:45:34 | 03:05:21 | 00:00:00 | |
| IW2NTF | 2026-09-02 12:41:20 | 44.01822 | 8.46163 | 175° | 108km/h | 10809m | -3.9m/s | -47.5°C | 49.7% | 0hPa | 2.6V | 07:45:44 | 03:05:11 | 00:00:00 | |
| IW2NTF | 2026-09-02 12:41:09 | 44.02067 | 8.46109 | 164° | 99km/h | 10849m | -3.9m/s | -48°C | 47.5% | 0hPa | 2.5V | 07:45:54 | 03:05:01 | 00:00:00 | |
| IW2NTF | 2026-09-02 12:40:59 | 44.02339 | 8.46002 | 167° | 120km/h | 10888m | -4m/s | -48.2°C | 48.2% | 0hPa | 2.5V | 07:46:04 | 03:04:51 | 00:00:00 | |
| IW2NTF | 2026-09-02 12:40:52 | 44.02631 | 8.45954 | 176° | 106km/h | 10928m | -3.7m/s | -48.5°C | 48.7% | 0hPa | 2.6V | 07:46:14 | 03:04:41 | 00:00:00 | |
| IW2NTF | 2026-09-02 12:40:40 | 44.02882 | 8.45893 | 164° | 108km/h | 10967m | -4m/s | -48.9°C | 50.2% | 0hPa | 2.5V | 07:46:24 | 03:04:31 | 00:00:00 | |
| IW2NTF | 2026-09-02 12:40:29 | 44.03175 | 8.45797 | 168° | 124km/h | 11006m | -3.8m/s | -49.2°C | 49.8% | 0hPa | 2.6V | 07:46:34 | 03:04:21 | 00:00:00 | |
| IW2NTF | 2026-09-02 12:40:19 | 44.03482 | 8.45744 | 176° | 110km/h | 11045m | -3.6m/s | -49.6°C | 53.7% | 0hPa | 2.5V | 07:46:44 | 03:04:11 | 00:00:00 | |
| IW2NTF | 2026-09-02 12:40:09 | 44.03737 | 8.45694 | 167° | 100km/h | 11084m | -4.1m/s | -50°C | 48.4% | 0hPa | 2.6V | 07:46:54 | 03:04:01 | 00:00:00 | |
| IW2NTF | 2026-09-02 12:39:59 | 44.04071 | 8.45578 | 172° | 120km/h | 11130m | -3.7m/s | -50.3°C | 44.9% | 0hPa | 2.5V | 07:47:06 | 03:03:49 | 00:00:00 | |
| IW2NTF | 2026-09-02 12:39:49 | 44.04349 | 8.45549 | 173° | 99km/h | 11169m | -3.8m/s | -50.6°C | 39.7% | 0hPa | 2.6V | 07:47:16 | 03:03:39 | 00:00:00 | |
| IW2NTF | 2026-09-02 12:39:40 | 44.04601 | 8.45460 | 163° | 115km/h | 11208m | -3.7m/s | -50.8°C | 32.7% | 0hPa | 2.6V | 07:47:26 | 03:03:29 | 00:00:00 | |
| IW2NTF | 2026-09-02 12:39:29 | 44.04900 | 8.45391 | 176° | 117km/h | 11247m | -3.6m/s | -50.9°C | 31.9% | 0hPa | 2.6V | 07:47:36 | 03:03:19 | 00:00:00 | |
| IW2NTF | 2026-09-02 12:39:20 | 44.05161 | 8.45358 | 170° | 97km/h | 11286m | -4.3m/s | -51.3°C | 36.8% | 0hPa | 2.5V | 07:47:46 | 03:03:09 | 00:00:00 | |
| IW2NTF | 2026-09-02 12:39:06 | 44.05396 | 8.45292 | 164° | 97km/h | 11327m | -4m/s | -51.5°C | 33.5% | 0hPa | 2.6V | 07:47:56 | 03:02:59 | 00:00:00 | |
| IW2NTF | 2026-09-02 12:38:59 | 44.05653 | 8.45176 | 161° | 115km/h | 11366m | -3.9m/s | -51.5°C | 30% | 0hPa | 2.5V | 07:48:06 | 03:02:49 | 00:00:00 | |
| IW2NTF | 2026-09-02 12:38:49 | 44.05947 | 8.45073 | 172° | 119km/h | 11407m | -4.2m/s | -51.1°C | 31% | 0hPa | 2.5V | 07:48:16 | 03:02:39 | 00:00:00 | |
| IW2NTF | 2026-09-02 12:38:37 | 44.06208 | 8.45002 | 160° | 104km/h | 11446m | -3.5m/s | -51.4°C | 32.2% | 0hPa | 2.6V | 07:48:26 | 03:02:29 | 00:00:00 | |
| IW2NTF | 2026-09-02 12:38:29 | 44.06480 | 8.44862 | 161° | 126km/h | 11487m | -4.2m/s | -51.6°C | 32.6% | 0hPa | 2.5V | 07:48:36 | 03:02:19 | 00:00:00 | |
| IW2NTF | 2026-09-02 12:38:18 | 44.06796 | 8.44752 | 170° | 124km/h | 11528m | -3.8m/s | -51.8°C | 34.1% | 0hPa | 2.5V | 07:48:46 | 03:02:09 | 00:00:00 | |
| IW2NTF | 2026-09-02 12:38:10 | 44.07071 | 8.44668 | 160° | 110km/h | 11567m | -4m/s | -52.3°C | 35.2% | 0hPa | 2.6V | 07:48:56 | 03:01:59 | 00:00:00 | |
| IW2NTF | 2026-09-02 12:38:00 | 44.07367 | 8.44519 | 163° | 135km/h | 11607m | -4.3m/s | -52.3°C | 35.2% | 0hPa | 2.5V | 07:49:06 | 03:01:49 | 00:00:00 | |
| IW2NTF | 2026-09-02 12:37:49 | 44.07697 | 8.44425 | 171° | 124km/h | 11649m | -4.2m/s | -52.7°C | 36.8% | 0hPa | 2.5V | 07:49:16 | 03:01:39 | 00:00:00 | |
| IW2NTF | 2026-09-02 12:37:39 | 44.07979 | 8.44336 | 160° | 119km/h | 11689m | -3.7m/s | -53.2°C | 36% | 0hPa | 2.6V | 07:49:26 | 03:01:29 | 00:00:00 | |
| IW2NTF | 2026-09-02 12:37:30 | 44.08295 | 8.44196 | 167° | 139km/h | 11729m | -4m/s | -53.4°C | 36.6% | 0hPa | 2.5V | 07:49:36 | 03:01:19 | 00:00:00 | |
| IW2NTF | 2026-09-02 12:37:20 | 44.08623 | 8.44124 | 172° | 119km/h | 11770m | -3.9m/s | -53.7°C | 36.8% | 0hPa | 2.5V | 07:49:46 | 03:01:09 | 00:00:00 | |
| IW2NTF | 2026-09-02 12:37:09 | 44.08902 | 8.44058 | 168° | 108km/h | 11813m | -4.5m/s | -54.2°C | 35.7% | 0hPa | 2.6V | 07:49:56 | 03:00:59 | 00:00:00 | |
| IW2NTF | 2026-09-02 12:36:59 | 44.09172 | 8.43947 | 160° | 122km/h | 11856m | -4.2m/s | -54°C | 30.5% | 0hPa | 2.6V | 07:50:06 | 03:00:49 | 00:00:00 | |
| IW2NTF | 2026-09-02 12:36:49 | 44.09480 | 8.43847 | 172° | 117km/h | 11896m | -4.4m/s | -54.2°C | 31.7% | 0hPa | 2.5V | 07:50:16 | 03:00:39 | 00:00:00 | |
| IW2NTF | 2026-09-02 12:36:40 | 44.09744 | 8.43783 | 164° | 99km/h | 11938m | -4.2m/s | -54.4°C | 31.5% | 0hPa | 2.6V | 07:50:26 | 03:00:29 | 00:00:00 | |
| IW2NTF | 2026-09-02 12:36:28 | 44.10037 | 8.43621 | 156° | 119km/h | 11991m | -4.6m/s | -54.6°C | 29.3% | 0hPa | 2.5V | 07:50:38 | 03:00:17 | 00:00:00 | |
| IW2NTF | 2026-09-02 12:36:18 | 44.10314 | 8.43515 | 168° | 100km/h | 12030m | -4m/s | -54.9°C | 30.5% | 0hPa | 2.6V | 07:50:48 | 03:00:07 | 00:00:00 | |
| IW2NTF | 2026-09-02 12:36:08 | 44.10543 | 8.43425 | 157° | 91km/h | 12072m | -4.2m/s | -55.2°C | 30.5% | 0hPa | 2.6V | 07:50:58 | 02:59:57 | 00:00:00 | |
| IW2NTF | 2026-09-02 12:35:58 | 44.10757 | 8.43269 | 150° | 106km/h | 12116m | -4.2m/s | -55.4°C | 27.9% | 0hPa | 2.5V | 07:51:08 | 02:59:47 | 00:00:00 | |
| IW2NTF | 2026-09-02 12:35:49 | 44.11013 | 8.43116 | 162° | 99km/h | 12157m | -3.8m/s | -55.7°C | 29.7% | 0hPa | 2.5V | 07:51:18 | 02:59:37 | 00:00:00 | |
| IW2NTF | 2026-09-02 12:35:39 | 44.11223 | 8.42998 | 153° | 86km/h | 12197m | -3.9m/s | -55.9°C | 29.7% | 0hPa | 2.6V | 07:51:28 | 02:59:27 | 00:00:00 | |
| IW2NTF | 2026-09-02 12:35:29 | 44.11412 | 8.42833 | 143° | 93km/h | 12240m | -4.1m/s | -56°C | 29.1% | 0hPa | 2.6V | 07:51:38 | 02:59:17 | 00:00:00 | |
| IW2NTF | 2026-09-02 12:35:19 | 44.11615 | 8.42612 | 144° | 113km/h | 12283m | -4.3m/s | -56.1°C | 26.3% | 0hPa | 2.5V | 07:51:48 | 02:59:07 | 00:00:00 | |
| IW2NTF | 2026-09-02 12:35:08 | 44.11853 | 8.42431 | 152° | 93km/h | 12323m | -4m/s | -56.3°C | 28.7% | 0hPa | 2.5V | 07:51:58 | 02:58:57 | 00:00:00 | |
| IW2NTF | 2026-09-02 12:34:58 | 44.12045 | 8.42240 | 138° | 102km/h | 12363m | -3.9m/s | -56.5°C | 26.5% | 0hPa | 2.6V | 07:52:08 | 02:58:47 | 00:00:00 | |
| IW2NTF | 2026-09-02 12:34:44 | 44.12269 | 8.41986 | 144° | 120km/h | 12404m | -4m/s | -56.2°C | 25.9% | 0hPa | 2.6V | 07:52:18 | 02:58:37 | 00:00:00 | |
| IW2NTF | 2026-09-02 12:34:34 | 44.12533 | 8.41756 | 150° | 122km/h | 12448m | -4.7m/s | -56.2°C | 25.1% | 0hPa | 2.5V | 07:52:28 | 02:58:27 | 00:00:00 | |
| IW2NTF | 2026-09-02 12:34:24 | 44.12795 | 8.41583 | 154° | 104km/h | 12493m | -4.3m/s | -56.4°C | 24.6% | 0hPa | 2.5V | 07:52:38 | 02:58:17 | 00:00:00 | |
| IW2NTF | 2026-09-02 12:34:19 | 44.13017 | 8.41384 | 144° | 119km/h | 12535m | -3.9m/s | -56.6°C | 24.3% | 0hPa | 2.5V | 07:52:48 | 02:58:07 | 00:00:00 | |
| IW2NTF | 2026-09-02 12:34:09 | 44.13293 | 8.41159 | 155° | 128km/h | 12578m | -4.2m/s | -56.7°C | 24.8% | 0hPa | 2.6V | 07:52:58 | 02:57:57 | 00:00:00 | |
| IW2NTF | 2026-09-02 12:33:59 | 44.13568 | 8.41008 | 157° | 102km/h | 12622m | -4.8m/s | -57.1°C | 24.6% | 0hPa | 2.5V | 07:53:08 | 02:57:47 | 00:00:00 | |
| IW2NTF | 2026-09-02 12:33:49 | 44.13803 | 8.40812 | 147° | 122km/h | 12665m | -4.7m/s | -57.5°C | 24% | 0hPa | 2.6V | 07:53:18 | 02:57:37 | 00:00:00 | |
| IW2NTF | 2026-09-02 12:33:38 | 44.14091 | 8.40609 | 159° | 124km/h | 12709m | -4.4m/s | -57.8°C | 24.6% | 0hPa | 2.6V | 07:53:28 | 02:57:27 | 00:00:00 | |
| IW2NTF | 2026-09-02 12:33:28 | 44.14367 | 8.40486 | 163° | 106km/h | 12755m | -4.8m/s | -58°C | 23.8% | 0hPa | 2.5V | 07:53:38 | 02:57:17 | 00:00:00 | |
| IW2NTF | 2026-09-02 12:33:17 | 44.14606 | 8.40384 | 161° | 91km/h | 12801m | -4.7m/s | -58.1°C | 22.2% | 0hPa | 2.5V | 07:53:48 | 02:57:07 | 00:00:00 | |
| IW2NTF | 2026-09-02 12:33:04 | 44.14814 | 8.40247 | 150° | 104km/h | 12847m | -4.1m/s | -57.9°C | 19.5% | 0hPa | 2.6V | 07:53:58 | 02:56:57 | 00:00:00 | |
| IW2NTF | 2026-09-02 12:32:54 | 44.15063 | 8.40121 | 166° | 91km/h | 12889m | -4.6m/s | -57.7°C | 18.9% | 0hPa | 2.5V | 07:54:08 | 02:56:47 | 00:00:00 | |
| IW2NTF | 2026-09-02 12:32:48 | 44.15263 | 8.40038 | 157° | 75km/h | 12933m | -4.6m/s | -57.9°C | 18.9% | 0hPa | 2.6V | 07:54:18 | 02:56:37 | 00:00:00 | |
| IW2NTF | 2026-09-02 12:32:38 | 44.15429 | 8.39912 | 144° | 78km/h | 12979m | -5m/s | -58°C | 15.9% | 0hPa | 2.6V | 07:54:28 | 02:56:27 | 00:00:00 | |
| IW2NTF | 2026-09-02 12:32:26 | 44.15628 | 8.39739 | 157° | 97km/h | 13024m | -4.4m/s | -58.1°C | 15.9% | 0hPa | 2.5V | 07:54:38 | 02:56:17 | 00:00:00 | |
| IW2NTF | 2026-09-02 12:32:17 | 44.15815 | 8.39627 | 151° | 69km/h | 13068m | -4.5m/s | -57.9°C | 14.9% | 0hPa | 2.5V | 07:54:48 | 02:56:07 | 00:00:00 | |
| IW2NTF | 2026-09-02 12:32:06 | 44.15960 | 8.39516 | 147° | 60km/h | 13117m | -4.8m/s | -57.5°C | 12.4% | 0hPa | 2.6V | 07:54:58 | 02:55:57 | 00:00:00 | |
| IW2NTF | 2026-09-02 12:31:56 | 44.16084 | 8.39355 | 137° | 84km/h | 13162m | -4m/s | -57.2°C | 10.9% | 0hPa | 2.5V | 07:55:08 | 02:55:47 | 00:00:00 | |
| IW2NTF | 2026-09-02 12:31:46 | 44.16251 | 8.39218 | 155° | 66km/h | 13204m | -4.5m/s | -57°C | 10.7% | 0hPa | 2.5V | 07:55:18 | 02:55:37 | 00:00:00 | |
| IW2NTF | 2026-09-02 12:31:37 | 44.16379 | 8.39130 | 147° | 47km/h | 13249m | -4.4m/s | -57.1°C | 10.4% | 0hPa | 2.5V | 07:55:28 | 02:55:27 | 00:00:00 | |
| IW2NTF | 2026-09-02 12:31:26 | 44.16466 | 8.38999 | 126° | 64km/h | 13293m | -4.4m/s | -57.3°C | 9.7% | 0hPa | 2.5V | 07:55:38 | 02:55:17 | 00:00:00 | |
| IW2NTF | 2026-09-02 12:31:15 | 44.16600 | 8.38823 | 149° | 71km/h | 13338m | -4.5m/s | -57.4°C | 9.4% | 0hPa | 2.5V | 07:55:48 | 02:55:07 | 00:00:00 | |
| IW2NTF | 2026-09-02 12:31:04 | 44.16716 | 8.38718 | 127° | 49km/h | 13382m | -4.5m/s | -57.7°C | 9.5% | 0hPa | 2.5V | 07:55:58 | 02:54:57 | 00:00:00 | |
| IW2NTF | 2026-09-02 12:30:55 | 44.16804 | 8.38537 | 126° | 73km/h | 13425m | -4.1m/s | -57.9°C | 9.2% | 0hPa | 2.6V | 07:56:08 | 02:54:47 | 00:00:00 | |
| IW2NTF | 2026-09-02 12:30:48 | 44.16942 | 8.38329 | 141° | 82km/h | 13469m | -4.5m/s | -58°C | 8.4% | 0hPa | 2.5V | 07:56:18 | 02:54:37 | 00:00:00 | |
| IW2NTF | 2026-09-02 12:30:34 | 44.17072 | 8.38187 | 127° | 58km/h | 13512m | -4.1m/s | -58.4°C | 8.8% | 0hPa | 2.5V | 07:56:28 | 02:54:27 | 00:00:00 | |
| IW2NTF | 2026-09-02 12:30:24 | 44.17166 | 8.37983 | 120° | 78km/h | 13556m | -4.6m/s | -58.5°C | 8.1% | 0hPa | 2.5V | 07:56:38 | 02:54:17 | 00:00:00 | |
| IW2NTF | 2026-09-02 12:30:18 | 44.17300 | 8.37735 | 137° | 89km/h | 13601m | -3.8m/s | -58.5°C | 8% | 0hPa | 2.6V | 07:56:48 | 02:54:07 | 00:00:00 | |
| IW2NTF | 2026-09-02 12:30:04 | 44.17464 | 8.37561 | 145° | 77km/h | 13645m | -4.4m/s | -58.2°C | 7.4% | 0hPa | 2.6V | 07:56:58 | 02:53:57 | 00:00:00 | |
| IW2NTF | 2026-09-02 12:29:58 | 44.17633 | 8.37411 | 142° | 53km/h | 13700m | -4.3m/s | -57.5°C | 6.8% | 0hPa | 2.6V | 07:57:10 | 02:53:45 | 00:00:00 | |
| IW2NTF | 2026-09-02 12:29:45 | 44.17752 | 8.37205 | 130° | 82km/h | 13754m | -4.9m/s | -57.3°C | 5.9% | 0hPa | 2.5V | 07:57:22 | 02:53:33 | 00:00:00 | |
| IW2NTF | 2026-09-02 12:29:34 | 44.17891 | 8.37037 | 138° | 53km/h | 13798m | -4.2m/s | -57.6°C | 6.6% | 0hPa | 2.6V | 07:57:32 | 02:53:23 | 00:00:00 | |
| IW2NTF | 2026-09-02 12:29:25 | 44.17965 | 8.36893 | 113° | 55km/h | 13844m | -4.9m/s | -57.2°C | 5.9% | 0hPa | 2.5V | 07:57:42 | 02:53:13 | 00:00:00 | |
| IW2NTF | 2026-09-02 12:29:15 | 44.18039 | 8.36664 | 122° | 84km/h | 13891m | -4.4m/s | -57°C | 5.7% | 0hPa | 2.6V | 07:57:52 | 02:53:03 | 00:00:00 | |
| IW2NTF | 2026-09-02 12:29:05 | 44.18151 | 8.36481 | 121° | 51km/h | 13935m | -4.3m/s | -57.3°C | 5.9% | 0hPa | 2.5V | 07:58:02 | 02:52:53 | 00:00:00 | |
| IW2NTF | 2026-09-02 12:28:51 | 44.18208 | 8.36262 | 112° | 82km/h | 13978m | -4.6m/s | -57.5°C | 6% | 0hPa | 2.5V | 07:58:12 | 02:52:43 | 00:00:00 | |
| IW2NTF | 2026-09-02 12:28:44 | 44.18317 | 8.35997 | 125° | 89km/h | 14024m | -4.4m/s | -57.7°C | 5.8% | 0hPa | 2.6V | 07:58:22 | 02:52:33 | 00:00:00 | |
| IW2NTF | 2026-09-02 12:28:32 | 44.18460 | 8.35779 | 137° | 69km/h | 14070m | -4.8m/s | -57.7°C | 6.2% | 0hPa | 2.5V | 07:58:32 | 02:52:23 | 00:00:00 | |
| IW2NTF | 2026-09-02 12:28:21 | 44.18560 | 8.35617 | 116° | 64km/h | 14119m | -4.4m/s | -57.4°C | 5.7% | 0hPa | 2.6V | 07:58:42 | 02:52:13 | 00:00:00 | |
| IW2NTF | 2026-09-02 12:28:14 | 44.18662 | 8.35375 | 133° | 78km/h | 14166m | -4.5m/s | -57.3°C | 5.7% | 0hPa | 2.5V | 07:58:52 | 02:52:03 | 00:00:00 | |
| IW2NTF | 2026-09-02 12:28:02 | 44.18778 | 8.35222 | 129° | 51km/h | 14213m | -4.9m/s | -56.9°C | 5.9% | 0hPa | 2.6V | 07:59:02 | 02:51:53 | 00:00:00 | |
| AUTORXJP | 2026-09-02 12:28:02 | 44.18806 | 8.35164 | 116° | 47km/h | 14233m | -5.0m/s | -56.6°C | 2.4% | -1.0hPa | 2.5V | 00:00:00 | 00:00:00 | 00:00:00 | |
| IW2NTF | 2026-09-02 12:27:54 | 44.18830 | 8.35058 | 102° | 60km/h | 14263m | -5m/s | -56.3°C | 5.3% | 0hPa | 2.5V | 07:59:12 | 02:51:43 | 00:00:00 | |
| IW2NTF | 2026-09-02 12:27:40 | 44.18893 | 8.34811 | 119° | 84km/h | 14312m | -5.2m/s | -56.2°C | 5.2% | 0hPa | 2.5V | 07:59:22 | 02:51:33 | 00:00:00 | |
| IW2NTF | 2026-09-02 12:27:34 | 44.18999 | 8.34619 | 122° | 49km/h | 14363m | -4.7m/s | -56.4°C | 5.3% | 0hPa | 2.6V | 07:59:32 | 02:51:23 | 00:00:00 | |
| AUTORXJP | 2026-09-02 12:27:31 | 44.18983 | 8.34649 | 130° | 55km/h | 14354m | -5.0m/s | -56.3°C | 2.2% | -1.0hPa | 2.5V | 00:00:00 | 00:00:00 | 00:00:00 | |
| IW2NTF | 2026-09-02 12:27:23 | 44.19044 | 8.34410 | 107° | 78km/h | 14414m | -5.5m/s | -56.6°C | 5.2% | 0hPa | 2.5V | 07:59:42 | 02:51:13 | 00:00:00 | |
| IW2NTF | 2026-09-02 12:27:14 | 44.19141 | 8.34145 | 126° | 86km/h | 14466m | -5.2m/s | -56.7°C | 5.2% | 0hPa | 2.6V | 07:59:52 | 02:51:03 | 00:00:00 | |
| IW2NTF | 2026-09-02 12:27:00 | 44.19269 | 8.33941 | 119° | 53km/h | 14522m | -5.2m/s | -57°C | 5.4% | 0hPa | 2.5V | 08:00:03 | 02:50:52 | 00:00:00 | |
| AUTORXJP | 2026-09-02 12:27:00 | 44.19254 | 8.33973 | 128° | 55km/h | 14512m | -4.6m/s | -56.8°C | 2.2% | -1.0hPa | 2.6V | 00:00:00 | 00:00:00 | 00:00:00 | |
| IW2NTF | 2026-09-02 12:26:48 | 44.19338 | 8.33694 | 120° | 86km/h | 14579m | -4.6m/s | -57.1°C | 5.4% | 0hPa | 2.6V | 08:00:14 | 02:50:41 | 00:00:00 | |
| IW2NTF | 2026-09-02 12:26:38 | 44.19453 | 8.33513 | 130° | 49km/h | 14629m | -5.3m/s | -56.2°C | 5.3% | 0hPa | 2.5V | 08:00:24 | 02:50:31 | 00:00:00 | |
| AUTORXJP | 2026-09-02 12:26:29 | 44.19488 | 8.33390 | 98° | 53km/h | 14670m | -5.7m/s | -56.5°C | 2.0% | -1.0hPa | 2.6V | 00:00:00 | 00:00:00 | 00:00:00 | |
| IW2NTF | 2026-09-02 12:26:28 | 44.19492 | 8.33350 | 95° | 60km/h | 14681m | -5.3m/s | -56.6°C | 4.9% | 0hPa | 2.6V | 08:00:34 | 02:50:21 | 00:00:00 | |
| IW2NTF | 2026-09-02 12:26:18 | 44.19543 | 8.33101 | 120° | 73km/h | 14732m | -4.7m/s | -56.8°C | 5.2% | 0hPa | 2.5V | 08:00:44 | 02:50:11 | 00:00:00 | |
| IW2NTF | 2026-09-02 12:26:10 | 44.19608 | 8.32935 | 99° | 46km/h | 14782m | -5.1m/s | -57.2°C | 5.6% | 0hPa | 2.6V | 08:00:54 | 02:50:01 | 00:00:00 | |
| IW2NTF | 2026-09-02 12:25:58 | 44.19611 | 8.32721 | 97° | 78km/h | 14833m | -4.5m/s | -57.5°C | 5.2% | 0hPa | 2.5V | 08:01:04 | 02:49:51 | 00:00:00 | |
| AUTORXJP | 2026-09-02 12:25:58 | 44.19611 | 8.32721 | 97° | 78km/h | 14833m | -4.5m/s | -57.5°C | 2.1% | -1.0hPa | 2.5V | 00:00:00 | 00:00:00 | 00:00:00 | |
| IW2NTF | 2026-09-02 12:25:48 | 44.19678 | 8.32480 | 119° | 55km/h | 14884m | -5.2m/s | -57.9°C | 5.5% | 0hPa | 2.5V | 08:01:14 | 02:49:41 | 00:00:00 | |
| IW2NTF | 2026-09-02 12:25:39 | 44.19701 | 8.32305 | 90° | 69km/h | 14933m | -4.5m/s | -58.5°C | 5.8% | 0hPa | 2.6V | 08:01:24 | 02:49:31 | 00:00:00 | |
| IW2NTF | 2026-09-02 12:25:32 | 44.19744 | 8.32025 | 113° | 86km/h | 14982m | -5.4m/s | -58.3°C | 5.5% | 0hPa | 2.5V | 08:01:34 | 02:49:21 | 00:00:00 | |
| AUTORXJP | 2026-09-02 12:25:27 | 44.19753 | 8.31998 | 115° | 82km/h | 14987m | -5.2m/s | -58.3°C | 2.2% | -1.0hPa | 2.5V | 00:00:00 | 00:00:00 | 00:00:00 | |
| IW2NTF | 2026-09-02 12:25:21 | 44.19832 | 8.31779 | 97° | 58km/h | 15041m | -4.8m/s | -58.4°C | 5.6% | 0hPa | 2.5V | 08:01:46 | 02:49:09 | 00:00:00 | |
| IW2NTF | 2026-09-02 12:25:08 | 44.19890 | 8.31446 | 115° | 91km/h | 15099m | -4.8m/s | -58.1°C | 5.7% | 0hPa | 2.6V | 08:01:58 | 02:48:57 | 00:00:00 | |
| IW2NTF | 2026-09-02 12:24:57 | 44.20005 | 8.31216 | 128° | 60km/h | 15149m | -4.8m/s | -57.5°C | 5.3% | 0hPa | 2.5V | 08:02:08 | 02:48:47 | 00:00:00 | |
| AUTORXJP | 2026-09-02 12:24:57 | 44.19984 | 8.31251 | 130° | 69km/h | 15139m | -4.6m/s | -57.6°C | 2.1% | -1.0hPa | 2.6V | 00:00:00 | 00:00:00 | 00:00:00 | |
| IW2NTF | 2026-09-02 12:24:49 | 44.20067 | 8.31006 | 109° | 86km/h | 15196m | -4.6m/s | -57.8°C | 5.4% | 0hPa | 2.6V | 08:02:18 | 02:48:37 | 00:00:00 | |
| IW2NTF | 2026-09-02 12:24:34 | 44.20187 | 8.30731 | 132° | 88km/h | 15245m | -4.8m/s | -57.3°C | 5.2% | 0hPa | 2.5V | 08:02:28 | 02:48:27 | 00:00:00 | |
| IW2NTF | 2026-09-02 12:24:26 | 44.20333 | 8.30551 | 141° | 66km/h | 15296m | -5.7m/s | -57.4°C | 5.4% | 0hPa | 2.5V | 08:02:38 | 02:48:17 | 00:00:00 | |
| AUTORXJP | 2026-09-02 12:24:25 | 44.20320 | 8.30565 | 141° | 68km/h | 15290m | -5.6m/s | -57.5°C | 2.0% | -1.0hPa | 2.6V | 00:00:00 | 00:00:00 | 00:00:00 | |
| IW2NTF | 2026-09-02 12:24:18 | 44.20424 | 8.30402 | 113° | 62km/h | 15347m | -5m/s | -57°C | 4.8% | 0hPa | 2.6V | 08:02:48 | 02:48:07 | 00:00:00 | |
| IW2NTF | 2026-09-02 12:24:04 | 44.20533 | 8.30186 | 141° | 77km/h | 15399m | -5.1m/s | -56.7°C | 5% | 0hPa | 2.6V | 08:02:58 | 02:47:57 | 00:00:00 | |
| IW2NTF | 2026-09-02 12:23:59 | 44.20647 | 8.30069 | 131° | 42km/h | 15451m | -5.5m/s | -56.6°C | 4.9% | 0hPa | 2.5V | 08:03:08 | 02:47:47 | 00:00:00 | |
| AUTORXJP | 2026-09-02 12:23:53 | 44.20647 | 8.30069 | 131° | 42km/h | 15451m | -5.5m/s | -56.6°C | 1.7% | -1.0hPa | 2.6V | 00:00:00 | 00:00:00 | 00:00:00 | |
| IW2NTF | 2026-09-02 12:23:45 | 44.20692 | 8.29943 | 105° | 42km/h | 15505m | -5.7m/s | -56.9°C | 5.1% | 0hPa | 2.6V | 08:03:18 | 02:47:37 | 00:00:00 | |
| IW2NTF | 2026-09-02 12:23:39 | 44.20711 | 8.29757 | 98° | 69km/h | 15562m | -6m/s | -56.4°C | 4.6% | 0hPa | 2.6V | 08:03:28 | 02:47:27 | 00:00:00 | |
| IW2NTF | 2026-09-02 12:23:24 | 44.20784 | 8.29526 | 127° | 57km/h | 15620m | -5.9m/s | -56.4°C | 4.9% | 0hPa | 2.5V | 08:03:38 | 02:47:17 | 00:00:00 | |
| AUTORXJP | 2026-09-02 12:23:22 | 44.20792 | 8.29511 | 126° | 51km/h | 15626m | -5.6m/s | -56.6°C | 1.7% | -1.0hPa | 2.5V | 00:00:00 | 00:00:00 | 00:00:00 | |
| IW2NTF | 2026-09-02 12:23:18 | 44.20814 | 8.29322 | 93° | 71km/h | 15691m | -6.2m/s | -57°C | 4.8% | 0hPa | 2.5V | 08:03:50 | 02:47:05 | 00:00:00 | |
| IW2NTF | 2026-09-02 12:23:06 | 44.20881 | 8.29075 | 124° | 64km/h | 15752m | -6.5m/s | -56.6°C | 5% | 0hPa | 2.5V | 08:04:00 | 02:46:55 | 00:00:00 | |
| IW2NTF | 2026-09-02 12:22:56 | 44.20937 | 8.28933 | 92° | 38km/h | 15814m | -6.3m/s | -56.2°C | 4.7% | 0hPa | 2.6V | 08:04:10 | 02:46:45 | 00:00:00 | |
| AUTORXJP | 2026-09-02 12:22:51 | 44.20937 | 8.28933 | 92° | 38km/h | 15814m | -6.3m/s | -56.2°C | 1.6% | -1.0hPa | 2.5V | 00:00:00 | 00:00:00 | 00:00:00 | |
| IW2NTF | 2026-09-02 12:22:46 | 44.20942 | 8.28720 | 106° | 77km/h | 15878m | -6.4m/s | -56.3°C | 4.6% | 0hPa | 2.5V | 08:04:20 | 02:46:35 | 00:00:00 | |
| IW2NTF | 2026-09-02 12:22:35 | 44.21008 | 8.28546 | 110° | 37km/h | 15938m | -5.7m/s | -56.1°C | 4.9% | 0hPa | 2.6V | 08:04:30 | 02:46:25 | 00:00:00 | |
| IW2NTF | 2026-09-02 12:22:23 | 44.20997 | 8.28421 | 66° | 46km/h | 15997m | -5.3m/s | -56.4°C | 4.6% | 0hPa | 2.5V | 08:04:40 | 02:46:15 | 00:00:00 | |
| AUTORXJP | 2026-09-02 12:22:20 | 44.20992 | 8.28406 | 65° | 49km/h | 16003m | -5.4m/s | -56.4°C | 1.5% | -1.0hPa | 2.6V | 00:00:00 | 00:00:00 | 00:00:00 | |
| IW2NTF | 2026-09-02 12:22:14 | 44.20960 | 8.28214 | 95° | 68km/h | 16052m | -5.2m/s | -55.6°C | 4.4% | 0hPa | 2.6V | 08:04:50 | 02:46:05 | 00:00:00 | |
| IW2NTF | 2026-09-02 12:22:03 | 44.20978 | 8.28062 | 73° | 27km/h | 16105m | -6.2m/s | -56.1°C | 4.5% | 0hPa | 2.5V | 08:05:00 | 02:45:55 | 00:00:00 | |
| IW2NTF | 2026-09-02 12:21:52 | 44.20927 | 8.27911 | 75° | 68km/h | 16161m | -5.7m/s | -56.6°C | 4.8% | 0hPa | 2.5V | 08:05:10 | 02:45:45 | 00:00:00 | |
| AUTORXJP | 2026-09-02 12:21:49 | 44.20920 | 8.27865 | 81° | 68km/h | 16172m | -5.6m/s | -56.6°C | 1.6% | -1.0hPa | 2.5V | 00:00:00 | 00:00:00 | 00:00:00 | |
| IW2NTF | 2026-09-02 12:21:42 | 44.20929 | 8.27683 | 106° | 58km/h | 16218m | -5.8m/s | -56.6°C | 4.7% | 0hPa | 2.5V | 08:05:20 | 02:45:35 | 00:00:00 | |
| IW2NTF | 2026-09-02 12:21:37 | 44.20958 | 8.27553 | 76° | 29km/h | 16278m | -6m/s | -56.8°C | 4.9% | 0hPa | 2.5V | 08:05:30 | 02:45:25 | 00:00:00 | |
| IW2NTF | 2026-09-02 12:21:25 | 44.20932 | 8.27369 | 93° | 71km/h | 16337m | -6.6m/s | -57.2°C | 4.9% | 0hPa | 2.5V | 08:05:40 | 02:45:15 | 00:00:00 | |
| AUTORXJP | 2026-09-02 12:21:18 | 44.20941 | 8.27295 | 105° | 69km/h | 16356m | -5.9m/s | -57.1°C | 1.7% | -1.0hPa | 2.5V | 00:00:00 | 00:00:00 | 00:00:00 | |
| IW2NTF | 2026-09-02 12:21:12 | 44.20990 | 8.27158 | 127° | 51km/h | 16400m | -6.3m/s | -57°C | 5% | 0hPa | 2.5V | 08:05:50 | 02:45:05 | 00:00:00 | |
| IW2NTF | 2026-09-02 12:21:06 | 44.21023 | 8.27049 | 76° | 35km/h | 16463m | -6.4m/s | -56.8°C | 4.7% | 0hPa | 2.6V | 08:06:00 | 02:44:55 | 00:00:00 | |
| IW2NTF | 2026-09-02 12:20:52 | 44.21014 | 8.26855 | 106° | 66km/h | 16525m | -6.2m/s | -56.9°C | 4.8% | 0hPa | 2.5V | 08:06:10 | 02:44:45 | 00:00:00 | |
| AUTORXJP | 2026-09-02 12:20:47 | 44.21039 | 8.26780 | 123° | 47km/h | 16550m | -6.1m/s | -57.1°C | 1.8% | -1.0hPa | 2.5V | 00:00:00 | 00:00:00 | 00:00:00 | |
| IW2NTF | 2026-09-02 12:20:46 | 44.21067 | 8.26721 | 99° | 22km/h | 16588m | -6.2m/s | -57.1°C | 4.9% | 0hPa | 2.5V | 08:06:20 | 02:44:35 | 00:00:00 | |
| IW2NTF | 2026-09-02 12:20:36 | 44.21040 | 8.26584 | 90° | 60km/h | 16648m | -5.7m/s | -57.6°C | 5.2% | 0hPa | 2.6V | 08:06:30 | 02:44:25 | 00:00:00 | |
| IW2NTF | 2026-09-02 12:20:24 | 44.21093 | 8.26401 | 132° | 47km/h | 16710m | -6.6m/s | -57.4°C | 5.1% | 0hPa | 2.5V | 08:06:40 | 02:44:15 | 00:00:00 | |
| AUTORXJP | 2026-09-02 12:20:16 | 44.21126 | 8.26359 | 136° | 20km/h | 16742m | -6.2m/s | -57.5°C | 1.8% | -1.0hPa | 2.5V | 00:00:00 | 00:00:00 | 00:00:00 | |
| IW2NTF | 2026-09-02 12:20:15 | 44.21130 | 8.26330 | 72° | 24km/h | 16774m | -6.2m/s | -57.7°C | 5.2% | 0hPa | 2.5V | 08:06:50 | 02:44:05 | 00:00:00 | |
| IW2NTF | 2026-09-02 12:20:04 | 44.21116 | 8.26178 | 101° | 58km/h | 16836m | -6m/s | -57.5°C | 4.7% | 0hPa | 2.7V | 08:07:00 | 02:43:55 | 00:00:00 | |
| IW2NTF | 2026-09-02 12:19:54 | 44.21171 | 8.26056 | 127° | 16km/h | 16896m | -6.4m/s | -57.8°C | 5.2% | 0hPa | 2.5V | 08:07:10 | 02:43:45 | 00:00:00 | |
| AUTORXJP | 2026-09-02 12:19:46 | 44.21163 | 8.26019 | 58° | 33km/h | 16933m | -6.3m/s | -58.2°C | 1.7% | -1.0hPa | 2.6V | 00:00:00 | 00:00:00 | 00:00:00 | |
| IW2NTF | 2026-09-02 12:19:43 | 44.21145 | 8.25962 | 73° | 55km/h | 16958m | -6.2m/s | -58.5°C | 5% | 0hPa | 2.6V | 08:07:20 | 02:43:35 | 00:00:00 | |
| IW2NTF | 2026-09-02 12:19:37 | 44.21172 | 8.25770 | 129° | 44km/h | 17020m | -6m/s | -58.8°C | 5.4% | 0hPa | 2.6V | 08:07:30 | 02:43:25 | 00:00:00 | |
| IW2NTF | 2026-09-02 12:19:25 | 44.21182 | 8.25689 | 62° | 40km/h | 17083m | -6.5m/s | -59.1°C | 5.4% | 0hPa | 2.6V | 08:07:40 | 02:43:15 | 00:00:00 | |
| AUTORXJP | 2026-09-02 12:19:14 | 44.21170 | 8.25555 | 102° | 66km/h | 17125m | -6.4m/s | -58.6°C | 1.6% | -1.0hPa | 2.5V | 00:00:00 | 00:00:00 | 00:00:00 | |
| IW2NTF | 2026-09-02 12:19:13 | 44.21187 | 8.25491 | 117° | 62km/h | 17145m | -6.9m/s | -58.5°C | 5.1% | 0hPa | 2.5V | 08:07:50 | 02:43:05 | 00:00:00 | |
| IW2NTF | 2026-09-02 12:19:07 | 44.21235 | 8.25383 | 78° | 29km/h | 17208m | -6.4m/s | -58.2°C | 5.2% | 0hPa | 2.6V | 08:08:00 | 02:42:55 | 00:00:00 | |
| IW2NTF | 2026-09-02 12:18:55 | 44.21235 | 8.25191 | 105° | 71km/h | 17270m | -6.2m/s | -58°C | 4.8% | 0hPa | 2.6V | 08:08:10 | 02:42:45 | 00:00:00 | |
| IW2NTF | 2026-09-02 12:18:46 | 44.21328 | 8.25014 | 146° | 46km/h | 17336m | -7.1m/s | -57.9°C | 5% | 0hPa | 2.5V | 08:08:20 | 02:42:35 | 00:00:00 | |
| AUTORXJP | 2026-09-02 12:18:43 | 44.21318 | 8.25023 | 144° | 51km/h | 17329m | -6.8m/s | -57.9°C | 1.5% | -1.0hPa | 2.5V | 00:00:00 | 00:00:00 | 00:00:00 | |
| IW2NTF | 2026-09-02 12:18:35 | 44.21362 | 8.24922 | 89° | 47km/h | 17401m | -6.7m/s | -58.1°C | 4.7% | 0hPa | 2.5V | 08:08:30 | 02:42:25 | 00:00:00 | |
| IW2NTF | 2026-09-02 12:18:26 | 44.21427 | 8.24733 | 142° | 53km/h | 17466m | -6m/s | -57.7°C | 5% | 0hPa | 2.6V | 08:08:40 | 02:42:15 | 00:00:00 | |
| IW2NTF | 2026-09-02 12:18:15 | 44.21483 | 8.24667 | 82° | 27km/h | 17531m | -6.3m/s | -57.6°C | 4.9% | 0hPa | 2.6V | 08:08:50 | 02:42:05 | 00:00:00 | |
| AUTORXJP | 2026-09-02 12:18:13 | 44.21483 | 8.24667 | 82° | 26km/h | 17531m | -6.3m/s | -57.6°C | 1.4% | -1.0hPa | 2.7V | 00:00:00 | 00:00:00 | 00:00:00 | |
| IW2NTF | 2026-09-02 12:18:04 | 44.21484 | 8.24491 | 110° | 68km/h | 17600m | -7m/s | -57.1°C | 4.5% | 0hPa | 2.7V | 08:09:00 | 02:41:55 | 00:00:00 | |
| IW2NTF | 2026-09-02 12:17:54 | 44.21561 | 8.24370 | 119° | 16km/h | 17668m | -7m/s | -57.4°C | 4.7% | 0hPa | 2.6V | 08:09:10 | 02:41:45 | 00:00:00 | |
| IW2NTF | 2026-09-02 12:17:42 | 44.21567 | 8.24224 | 112° | 62km/h | 17735m | -6.6m/s | -57°C | 4.7% | 0hPa | 2.6V | 08:09:20 | 02:41:35 | 00:00:00 | |
| AUTORXJP | 2026-09-02 12:17:41 | 44.21574 | 8.24204 | 118° | 62km/h | 17741m | -6.7m/s | -57.0°C | 1.4% | -1.0hPa | 2.5V | 00:00:00 | 00:00:00 | 00:00:00 | |
| IW2NTF | 2026-09-02 12:17:32 | 44.21666 | 8.24087 | 160° | 42km/h | 17802m | -7.1m/s | -56.3°C | 4.6% | 0hPa | 2.5V | 08:09:30 | 02:41:25 | 00:00:00 | |
| IW2NTF | 2026-09-02 12:17:26 | 44.21701 | 8.24059 | 71° | 26km/h | 17873m | -6.6m/s | -56.3°C | 4.2% | 0hPa | 2.6V | 08:09:40 | 02:41:15 | 00:00:00 | |
| IW2NTF | 2026-09-02 12:17:12 | 44.21737 | 8.23914 | 142° | 51km/h | 17940m | -6.8m/s | -55.8°C | 4.2% | 0hPa | 2.7V | 08:09:50 | 02:41:05 | 00:00:00 | |
| AUTORXJP | 2026-09-02 12:17:10 | 44.21757 | 8.23897 | 156° | 42km/h | 17954m | -6.7m/s | -55.8°C | 1.3% | -1.0hPa | 2.6V | 00:00:00 | 00:00:00 | 00:00:00 | |
| IW2NTF | 2026-09-02 12:17:06 | 44.21794 | 8.23881 | 70° | 13km/h | 18007m | -6.6m/s | -56.3°C | 4.5% | 0hPa | 2.6V | 08:10:00 | 02:40:55 | 00:00:00 | |
| IW2NTF | 2026-09-02 12:16:54 | 44.21770 | 8.23752 | 88° | 57km/h | 18076m | -7.2m/s | -56.8°C | 4.5% | 0hPa | 2.7V | 08:10:10 | 02:40:45 | 00:00:00 | |
| IW2NTF | 2026-09-02 12:16:43 | 44.21810 | 8.23629 | 136° | 15km/h | 18142m | -6.7m/s | -55.6°C | 4.3% | 0hPa | 2.6V | 08:10:20 | 02:40:35 | 00:00:00 | |
| AUTORXJP | 2026-09-02 12:16:41 | 44.21812 | 8.23621 | 39° | 7km/h | 18162m | -6.5m/s | -55.6°C | 1.3% | -1.0hPa | 2.6V | 00:00:00 | 00:00:00 | 00:00:00 | |
| IW2NTF | 2026-09-02 12:16:36 | 44.21765 | 8.23588 | 39° | 47km/h | 18211m | -7.5m/s | -56°C | 4.2% | 0hPa | 2.6V | 08:10:30 | 02:40:25 | 00:00:00 | |
| IW2NTF | 2026-09-02 12:16:26 | 44.21728 | 8.23423 | 104° | 42km/h | 18279m | -7.1m/s | -56.1°C | 4.2% | 0hPa | 2.6V | 08:10:40 | 02:40:15 | 00:00:00 | |
| IW2NTF | 2026-09-02 12:16:13 | 44.21716 | 8.23357 | 28° | 33km/h | 18346m | -6.8m/s | -56.7°C | 4.6% | 0hPa | 2.5V | 08:10:50 | 02:40:05 | 00:00:00 | |
| AUTORXJP | 2026-09-02 12:16:07 | 44.21680 | 8.23323 | 40° | 51km/h | 18373m | -6.6m/s | -56.8°C | 1.3% | -1.0hPa | 2.6V | 00:00:00 | 00:00:00 | 00:00:00 | |
| IW2NTF | 2026-09-02 12:16:03 | 44.21626 | 8.23222 | 65° | 66km/h | 18413m | -7m/s | -57°C | 4.5% | 0hPa | 2.6V | 08:11:00 | 02:39:55 | 00:00:00 | |
| IW2NTF | 2026-09-02 12:15:52 | 44.21621 | 8.23021 | 112° | 38km/h | 18482m | -6.5m/s | -57°C | 4.6% | 0hPa | 2.6V | 08:11:10 | 02:39:45 | 00:00:00 | |
| IW2NTF | 2026-09-02 12:15:46 | 44.21599 | 8.22927 | 56° | 55km/h | 18550m | -6.4m/s | -57.6°C | 4.9% | 0hPa | 2.6V | 08:11:20 | 02:39:35 | 00:00:00 | |
| AUTORXJP | 2026-09-02 12:15:36 | 44.21563 | 8.22827 | 70° | 71km/h | 18584m | -7.2m/s | -57.4°C | 1.3% | -1.0hPa | 2.6V | 00:00:00 | 00:00:00 | 00:00:00 | |
| IW2NTF | 2026-09-02 12:15:33 | 44.21547 | 8.22699 | 90° | 75km/h | 18619m | -6.7m/s | -57.2°C | 4.7% | 0hPa | 2.6V | 08:11:30 | 02:39:25 | 00:00:00 | |
| IW2NTF | 2026-09-02 12:15:26 | 44.21595 | 8.22512 | 125° | 33km/h | 18689m | -7.5m/s | -56.6°C | 4.8% | 0hPa | 2.6V | 08:11:40 | 02:39:15 | 00:00:00 | |
| IW2NTF | 2026-09-02 12:15:12 | 44.21573 | 8.22406 | 75° | 57km/h | 18759m | -7m/s | -56.3°C | 4.4% | 0hPa | 2.7V | 08:11:50 | 02:39:05 | 00:00:00 | |
| IW2NTF | 2026-09-02 12:15:05 | 44.21614 | 8.22224 | 138° | 47km/h | 18826m | -6.7m/s | -55.6°C | 4.3% | 0hPa | 2.7V | 08:12:00 | 02:38:55 | 00:00:00 | |
| IW2NTF | 2026-09-02 12:14:56 | 44.21661 | 8.22197 | 354° | 9km/h | 18897m | -7.4m/s | -55.5°C | 4.2% | 0hPa | 2.7V | 08:12:10 | 02:38:45 | 00:00:00 | |
| IW2NTF | 2026-09-02 12:14:46 | 44.21627 | 8.22107 | 104° | 46km/h | 18969m | -6.7m/s | -55.7°C | 4.1% | 0hPa | 2.6V | 08:12:20 | 02:38:35 | 00:00:00 | |
| IW2NTF | 2026-09-02 12:14:35 | 44.21680 | 8.22054 | 278° | 15km/h | 19046m | -7.3m/s | -55.9°C | 4.4% | 0hPa | 2.6V | 08:12:31 | 02:38:24 | 00:00:00 | |
| IW2NTF | 2026-09-02 12:14:25 | 44.21617 | 8.22055 | 43° | 42km/h | 19122m | -7.5m/s | -56.2°C | 4.1% | 0hPa | 2.6V | 08:12:41 | 02:38:14 | 00:00:00 | |
| IW2NTF | 2026-09-02 12:14:11 | 44.21613 | 8.21970 | 193° | 9km/h | 19191m | -7.4m/s | -56.2°C | 4.3% | 0hPa | 2.7V | 08:12:51 | 02:38:04 | 00:00:00 | |
| IW2NTF | 2026-09-02 12:14:05 | 44.21575 | 8.22015 | 352° | 40km/h | 19265m | -6.8m/s | -56.8°C | 4.6% | 0hPa | 2.6V | 08:13:01 | 02:37:54 | 00:00:00 | |
| AUTORXJP | 2026-09-02 12:14:03 | 44.21600 | 8.22003 | 328° | 31km/h | 19243m | -7.3m/s | -56.6°C | 1.3% | -1.0hPa | 2.7V | 00:00:00 | 00:00:00 | 00:00:00 | |
| IW2NTF | 2026-09-02 12:13:53 | 44.21483 | 8.21939 | 66° | 46km/h | 19336m | -7.3m/s | -56.6°C | 4.4% | 0hPa | 2.7V | 08:13:11 | 02:37:44 | 00:00:00 | |
| IW2NTF | 2026-09-02 12:13:45 | 44.21500 | 8.21828 | 165° | 20km/h | 19409m | -7.1m/s | -56.7°C | 4.5% | 0hPa | 2.7V | 08:13:21 | 02:37:34 | 00:00:00 | |
| IW2NTF | 2026-09-02 12:13:35 | 44.21484 | 8.21811 | 57° | 38km/h | 19481m | -6.8m/s | -57.2°C | 4.7% | 0hPa | 2.7V | 08:13:31 | 02:37:24 | 00:00:00 | |
| AUTORXJP | 2026-09-02 12:13:32 | 44.21495 | 8.21829 | 37° | 27km/h | 19468m | -7.1m/s | -57.1°C | 1.3% | -1.0hPa | 2.7V | 00:00:00 | 00:00:00 | 00:00:00 | |
| IW2NTF | 2026-09-02 12:13:25 | 44.21488 | 8.21647 | 123° | 49km/h | 19552m | -6.8m/s | -56.6°C | 4.6% | 0hPa | 2.7V | 08:13:41 | 02:37:14 | 00:00:00 | |
| IW2NTF | 2026-09-02 12:13:14 | 44.21566 | 8.21586 | 188° | 22km/h | 19624m | -6.9m/s | -56.2°C | 4.5% | 0hPa | 2.7V | 08:13:51 | 02:37:04 | 00:00:00 | |
| IW2NTF | 2026-09-02 12:13:03 | 44.21566 | 8.21594 | 32° | 22km/h | 19696m | -7.3m/s | -55.9°C | 4.3% | 0hPa | 2.6V | 08:14:01 | 02:36:54 | 00:00:00 | |
| AUTORXJP | 2026-09-02 12:13:01 | 44.21570 | 8.21597 | 22° | 16km/h | 19688m | -7.4m/s | -55.9°C | 1.2% | -1.0hPa | 2.7V | 00:00:00 | 00:00:00 | 00:00:00 | |
| IW2NTF | 2026-09-02 12:12:51 | 44.21532 | 8.21478 | 92° | 46km/h | 19769m | -7.2m/s | -55.9°C | 4.3% | 0hPa | 2.7V | 08:14:11 | 02:36:44 | 00:00:00 | |
| IW2NTF | 2026-09-02 12:12:45 | 44.21589 | 8.21368 | 162° | 35km/h | 19841m | -7.8m/s | -56°C | 4.5% | 0hPa | 2.7V | 08:14:21 | 02:36:34 | 00:00:00 | |
| IW2NTF | 2026-09-02 12:12:31 | 44.21620 | 8.21384 | 346° | 16km/h | 19919m | -7.8m/s | -56.1°C | 4.5% | 0hPa | 2.6V | 08:14:31 | 02:36:24 | 00:00:00 | |
| AUTORXJP | 2026-09-02 12:12:30 | 44.21620 | 8.21384 | 346° | 15km/h | 19919m | -7.8m/s | -56.1°C | 0% | -1.0hPa | 2.7V | 00:00:00 | 00:00:00 | 00:00:00 | |
| IW2NTF | 2026-09-02 12:12:25 | 44.21579 | 8.21298 | 103° | 42km/h | 19996m | -7.6m/s | -55.3°C | 4.2% | 0hPa | 2.7V | 08:14:41 | 02:36:14 | 00:00:00 | |
| IW2NTF | 2026-09-02 12:12:11 | 44.21631 | 8.21257 | 245° | 16km/h | 20075m | -8.3m/s | -55.2°C | 4.3% | 0hPa | 2.6V | 08:14:51 | 02:36:04 | 00:00:00 | |
| IW2NTF | 2026-09-02 12:12:05 | 44.21588 | 8.21231 | 71° | 40km/h | 20152m | -7.7m/s | -54.7°C | 4.1% | 0hPa | 2.6V | 08:15:01 | 02:35:54 | 00:00:00 | |
| AUTORXJP | 2026-09-02 12:11:59 | 44.21584 | 8.21202 | 89° | 44km/h | 20168m | -8.2m/s | -54.4°C | 1.0% | -1.0hPa | 2.7V | 00:00:00 | 00:00:00 | 00:00:00 | |
| IW2NTF | 2026-09-02 12:11:55 | 44.21633 | 8.21095 | 154° | 46km/h | 20231m | -7.8m/s | -54.2°C | 3.9% | 0hPa | 2.7V | 08:15:11 | 02:35:44 | 00:00:00 | |
| DB0UT-7 | 2026-09-02 12:11:46 | 44.21673 | 8.21086 | 191° | 33km/h | 20262m | -7.9m/s | -54.3°C | 4.0% | 0hPa | 2.6V | 00:00:00 | 02:35:40 | 00:00:00 | |
| IW2NTF | 2026-09-02 12:11:45 | 44.21694 | 8.21110 | 298° | 9km/h | 20310m | -8.3m/s | -54.8°C | 4.1% | 0hPa | 2.6V | 08:15:21 | 02:35:34 | 00:00:00 | |
| IW2NTF | 2026-09-02 12:11:36 | 44.21689 | 8.21033 | 118° | 47km/h | 20389m | -8.2m/s | -55.1°C | 4.1% | 0hPa | 2.6V | 08:15:31 | 02:35:24 | 00:00:00 | |
| AUTORXJP | 2026-09-02 12:11:28 | 44.21714 | 8.20993 | 141° | 51km/h | 20414m | -8.0m/s | -54.9°C | 1.1% | -1.0hPa | 2.7V | 00:00:00 | 00:00:00 | 00:00:00 | |
| IW2NTF | 2026-09-02 12:11:25 | 44.21793 | 8.20972 | 200° | 35km/h | 20470m | -7.4m/s | -54.6°C | 4.3% | 0hPa | 2.7V | 08:15:41 | 02:35:14 | 00:00:00 | |
| DB0UT-7 | 2026-09-02 12:11:16 | 44.21811 | 8.20993 | 251° | 33km/h | 20502m | -8.2m/s | -54.6°C | 4.1% | 0hPa | 2.7V | 00:00:00 | 00:00:00 | 00:00:00 | |
| IW2NTF | 2026-09-02 12:11:15 | 44.21800 | 8.20984 | 70° | 26km/h | 20551m | -8m/s | -54.9°C | 4.1% | 0hPa | 2.7V | 08:15:51 | 02:35:04 | 00:00:00 | |
| IW2NTF | 2026-09-02 12:11:05 | 44.21848 | 8.20884 | 166° | 42km/h | 20631m | -8.3m/s | -54.4°C | 4.2% | 0hPa | 2.6V | 08:16:01 | 02:34:54 | 00:00:00 | |
| AUTORXJP | 2026-09-02 12:10:57 | 44.21890 | 8.20887 | 200° | 42km/h | 20663m | -7.6m/s | -54.1°C | 1.1% | -1.0hPa | 2.7V | 00:00:00 | 00:00:00 | 00:00:00 | |
| IW2NTF | 2026-09-02 12:10:52 | 44.21928 | 8.20946 | 259° | 37km/h | 20712m | -8.3m/s | -54°C | 4.1% | 0hPa | 2.7V | 08:16:11 | 02:34:44 | 00:00:00 | |
| IW2NTF | 2026-09-02 12:10:45 | 44.21904 | 8.20981 | 93° | 22km/h | 20796m | -8.3m/s | -53.9°C | 3.9% | 0hPa | 2.7V | 08:16:21 | 02:34:34 | 00:00:00 | |
| IW2NTF | 2026-09-02 12:10:32 | 44.21982 | 8.20942 | 204° | 44km/h | 20882m | -8.4m/s | -53.9°C | 4.1% | 0hPa | 2.6V | 08:16:31 | 02:34:24 | 00:00:00 | |
| AUTORXJP | 2026-09-02 12:10:26 | 44.22010 | 8.20992 | 265° | 29km/h | 20923m | -8.5m/s | -54.0°C | 1.1% | -1.0hPa | 2.7V | 00:00:00 | 00:00:00 | 00:00:00 | |
| IW2NTF | 2026-09-02 12:10:24 | 44.21996 | 8.21022 | 359° | 20km/h | 20966m | -8.6m/s | -54°C | 3.8% | 0hPa | 2.7V | 08:16:41 | 02:34:14 | 00:00:00 | |
| DB0UT-7 | 2026-09-02 12:10:16 | 44.21980 | 8.21005 | 72° | 35km/h | 21001m | -8.5m/s | -53.6°C | 3.7% | 0hPa | 2.7V | 00:00:00 | 00:00:00 | 00:00:00 | |
| IW2NTF | 2026-09-02 12:10:12 | 44.22000 | 8.20963 | 166° | 31km/h | 21052m | -8.5m/s | -53.9°C | 4% | 0hPa | 2.7V | 08:16:51 | 02:34:04 | 00:00:00 | |
| IW2NTF | 2026-09-02 12:10:03 | 44.22041 | 8.21075 | 314° | 38km/h | 21156m | -8.6m/s | -54.1°C | 4.2% | 0hPa | 2.7V | 08:17:03 | 02:33:52 | 00:00:00 | |
| AUTORXJP | 2026-09-02 12:09:54 | 44.22008 | 8.21093 | 2° | 35km/h | 21192m | -9.4m/s | -54.2°C | 1.1% | -1.0hPa | 2.7V | 00:00:00 | 00:00:00 | 00:00:00 | |
| IW2NTF | 2026-09-02 12:09:48 | 44.21971 | 8.21027 | 101° | 37km/h | 21266m | -9.4m/s | -53.8°C | 3.9% | 0hPa | 2.7V | 08:17:15 | 02:33:40 | 00:00:00 | |
| DB0UT-7 | 2026-09-02 12:09:46 | 44.21971 | 8.21027 | 102° | 33km/h | 21266m | -9.3m/s | -53.7°C | 3.9% | 0hPa | 2.6V | 00:00:00 | 02:33:40 | 00:00:00 | |
| IW2NTF | 2026-09-02 12:09:40 | 44.22033 | 8.21005 | 242° | 31km/h | 21360m | -9.5m/s | -53.4°C | 4% | 0hPa | 2.6V | 08:17:25 | 02:33:30 | 00:00:00 | |
| IW2NTF | 2026-09-02 12:09:28 | 44.22000 | 8.21035 | 66° | 29km/h | 21452m | -9.2m/s | -53.3°C | 3.8% | 0hPa | 2.7V | 08:17:35 | 02:33:20 | 00:00:00 | |
| AUTORXJP | 2026-09-02 12:09:23 | 44.22000 | 8.21002 | 112° | 35km/h | 21481m | -9.6m/s | -53.2°C | 0.9% | -1.0hPa | 2.7V | 00:00:00 | 00:00:00 | 00:00:00 | |
| IW2NTF | 2026-09-02 12:09:21 | 44.22069 | 8.20967 | 193° | 55km/h | 21546m | -9.6m/s | -53.5°C | 3.8% | 0hPa | 2.7V | 08:17:45 | 02:33:10 | 00:00:00 | |
| DB0UT-7 | 2026-09-02 12:09:16 | 44.22069 | 8.20967 | 194° | 40km/h | 21547m | -9.5m/s | -53.4°C | 3.8% | 0hPa | 2.7V | 08:17:00 | 00:00:00 | 00:00:00 | |
| IW2NTF | 2026-09-02 12:09:08 | 44.22131 | 8.21066 | 307° | 13km/h | 21641m | -9.5m/s | -54.2°C | 3.9% | 0hPa | 2.7V | 08:17:55 | 02:33:00 | 00:00:00 | |
| IW2NTF | 2026-09-02 12:09:01 | 44.22172 | 8.21010 | 172° | 53km/h | 21737m | -9m/s | -53.9°C | 4.1% | 0hPa | 2.6V | 08:18:05 | 02:32:50 | 00:00:00 | |
| AUTORXJP | 2026-09-02 12:08:52 | 44.22224 | 8.21028 | 213° | 53km/h | 21774m | -9.6m/s | -53.8°C | 1.1% | -1.0hPa | 2.6V | 00:00:00 | 00:00:00 | 00:00:00 | |
| IW2NTF | 2026-09-02 12:08:49 | 44.22253 | 8.21111 | 283° | 40km/h | 21831m | -9.4m/s | -54°C | 4% | 0hPa | 2.6V | 08:18:15 | 02:32:40 | 00:00:00 | |
| DB0UT-7 | 2026-09-02 12:08:46 | 44.22253 | 8.21111 | 284° | 33km/h | 21831m | -9.3m/s | -53.9°C | 4.0% | 0hPa | 2.7V | 00:00:00 | 02:32:40 | 00:00:00 | |
| IW2NTF | 2026-09-02 12:08:42 | 44.22195 | 8.21139 | 86° | 16km/h | 21928m | -8.9m/s | -54.2°C | 4.1% | 0hPa | 2.7V | 08:18:25 | 02:32:30 | 00:00:00 | |
| IW2NTF | 2026-09-02 12:08:28 | 44.22252 | 8.21183 | 255° | 49km/h | 22024m | -9.4m/s | -53.5°C | 4.1% | 0hPa | 2.7V | 08:18:35 | 02:32:20 | 00:00:00 | |
| AUTORXJP | 2026-09-02 12:08:21 | 44.22239 | 8.21266 | 307° | 47km/h | 22073m | -9.4m/s | -53.5°C | 1.0% | -1.0hPa | 2.7V | 00:00:00 | 00:00:00 | 00:00:00 | |
| IW2NTF | 2026-09-02 12:08:21 | 44.22189 | 8.21299 | 3° | 42km/h | 22121m | -10m/s | -53.5°C | 3.9% | 0hPa | 2.7V | 08:18:45 | 02:32:10 | 00:00:00 | |
| DB0UT-7 | 2026-09-02 12:08:16 | 44.22188 | 8.21299 | 4° | 37km/h | 22122m | -10.0m/s | -53.5°C | 3.9% | 0hPa | 2.7V | 00:00:00 | 00:00:00 | 00:00:00 | |
| IW2NTF | 2026-09-02 12:08:09 | 44.22174 | 8.21242 | 191° | 24km/h | 22221m | -10m/s | -53.2°C | 3.9% | 0hPa | 2.7V | 08:18:55 | 02:32:00 | 00:00:00 | |
| IW2NTF | 2026-09-02 12:08:00 | 44.22128 | 8.21334 | 14° | 46km/h | 22339m | -9.9m/s | -53.1°C | 4.1% | 0hPa | 2.7V | 08:19:07 | 02:31:48 | 00:00:00 | |
| AUTORXJP | 2026-09-02 12:07:50 | 44.22095 | 8.21296 | 65° | 38km/h | 22379m | -10.1m/s | -52.4°C | 0.9% | -1.0hPa | 2.6V | 00:00:00 | 00:00:00 | 00:00:00 | |
| IW2NTF | 2026-09-02 12:07:49 | 44.22110 | 8.21232 | 156° | 31km/h | 22439m | -10.2m/s | -51.8°C | 3.7% | 0hPa | 2.6V | 08:19:17 | 02:31:38 | 00:00:00 | |
| DB0UT-7 | 2026-09-02 12:07:46 | 44.22097 | 8.21247 | 124° | 38km/h | 22419m | -9.6m/s | -51.9°C | 3.6% | 0hPa | 2.7V | 00:00:00 | 02:31:40 | 00:00:00 | |
| IW2NTF | 2026-09-02 12:07:36 | 44.22115 | 8.21297 | 332° | 42km/h | 22539m | -10m/s | -51.4°C | 3.6% | 0hPa | 2.7V | 08:19:27 | 02:31:28 | 00:00:00 | |
| IW2NTF | 2026-09-02 12:07:28 | 44.22028 | 8.21213 | 99° | 42km/h | 22651m | -10m/s | -51.2°C | 3.5% | 0hPa | 2.6V | 08:19:38 | 02:31:17 | 00:00:00 | |
| AUTORXJP | 2026-09-02 12:07:19 | 44.22050 | 8.21170 | 154° | 35km/h | 22693m | -10.3m/s | -51.2°C | 0.8% | -1.0hPa | 2.7V | 00:00:00 | 00:00:00 | 00:00:00 | |
| IW2NTF | 2026-09-02 12:07:16 | 44.22088 | 8.21192 | 259° | 31km/h | 22754m | -10.2m/s | -51.3°C | 3.6% | 0hPa | 2.7V | 08:19:48 | 02:31:07 | 00:00:00 | |
| DB0UT-7 | 2026-09-02 12:07:16 | 44.22075 | 8.21169 | 203° | 37km/h | 22724m | -9.9m/s | -51.2°C | 3.5% | 0hPa | 2.7V | 00:00:00 | 00:00:00 | 00:00:00 | |
| IW2NTF | 2026-09-02 12:07:07 | 44.22026 | 8.21230 | 49° | 35km/h | 22858m | -9.8m/s | -51.4°C | 3.4% | 0hPa | 2.7V | 08:19:58 | 02:30:57 | 00:00:00 | |
| IW2NTF | 2026-09-02 12:06:57 | 44.22072 | 8.21175 | 209° | 42km/h | 22963m | -10.4m/s | -51.4°C | 3.5% | 0hPa | 2.7V | 08:20:08 | 02:30:47 | 00:00:00 | |
| AUTORXJP | 2026-09-02 12:06:48 | 44.22097 | 8.21243 | 272° | 47km/h | 23015m | -10.2m/s | -51.5°C | 0.9% | -1.0hPa | 2.7V | 00:00:00 | 00:00:00 | 00:00:00 | |
| DB0UT-7 | 2026-09-02 12:06:46 | 44.22091 | 8.21275 | 295° | 40km/h | 23036m | -10.6m/s | -51.5°C | 3.6% | 0hPa | 2.7V | 00:00:00 | 02:30:40 | 00:00:00 | |
| IW2NTF | 2026-09-02 12:06:44 | 44.22066 | 8.21315 | 326° | 51km/h | 23068m | -10.8m/s | -51.7°C | 3.6% | 0hPa | 2.7V | 08:20:18 | 02:30:37 | 00:00:00 | |
| IW2NTF | 2026-09-02 12:06:34 | 44.21992 | 8.21273 | 105° | 33km/h | 23175m | -11.3m/s | -51.6°C | 3.5% | 0hPa | 2.6V | 08:20:28 | 02:30:27 | 00:00:00 | |
| IW2NTF | 2026-09-02 12:06:24 | 44.22041 | 8.21304 | 278° | 42km/h | 23283m | -11.2m/s | -51.5°C | 3.7% | 0hPa | 2.7V | 08:20:38 | 02:30:17 | 00:00:00 | |
| AUTORXJP | 2026-09-02 12:06:17 | 44.21995 | 8.21362 | 358° | 44km/h | 23350m | -11.1m/s | -51.6°C | 0.9% | -1.0hPa | 2.7V | 00:00:00 | 00:00:00 | 00:00:00 | |
| DB0UT-7 | 2026-09-02 12:06:16 | 44.21984 | 8.21360 | 12° | 40km/h | 23361m | -10.8m/s | -51.5°C | 3.5% | 0hPa | 2.7V | 00:00:00 | 00:00:00 | 00:00:00 | |
| IW2NTF | 2026-09-02 12:06:15 | 44.21960 | 8.21339 | 58° | 35km/h | 23393m | -10.6m/s | -51.5°C | 3.4% | 0hPa | 2.6V | 08:20:48 | 02:30:07 | 00:00:00 | |
| IW2NTF | 2026-09-02 12:06:05 | 44.22006 | 8.21305 | 237° | 40km/h | 23506m | -10.9m/s | -51.5°C | 3.6% | 0hPa | 2.6V | 08:20:58 | 02:29:57 | 00:00:00 | |
| IW2NTF | 2026-09-02 12:05:56 | 44.21917 | 8.21409 | 32° | 42km/h | 23641m | -10.4m/s | -51.8°C | 3.7% | 0hPa | 2.7V | 08:21:10 | 02:29:45 | 00:00:00 | |
| DO3MHA-12 | 2026-09-02 12:05:52 | 44.21927 | 8.21416 | 19° | 38km/h | 23631m | -11.0m/s | -51.8°C | 3.7% | 0hPa | 2.7V | 00:00:00 | 02:29:46 | 00:00:00 | |
| IW2NTF | 2026-09-02 12:05:46 | 44.21947 | 8.21363 | 224° | 42km/h | 23755m | -10.9m/s | -51.4°C | 3.6% | 0hPa | 2.7V | 08:21:20 | 02:29:35 | 00:00:00 | |
| IW2NTF | 2026-09-02 12:05:33 | 44.21905 | 8.21494 | 355° | 49km/h | 23869m | -10.9m/s | -51.5°C | 3.6% | 0hPa | 2.7V | 08:21:30 | 02:29:25 | 00:00:00 | |
| IW2NTF | 2026-09-02 12:05:25 | 44.21881 | 8.21396 | 149° | 46km/h | 23981m | -11.2m/s | -51.6°C | 3.6% | 0hPa | 2.7V | 08:21:40 | 02:29:15 | 00:00:00 | |
| DO3MHA-12 | 2026-09-02 12:05:23 | 44.21866 | 8.21417 | 121° | 44km/h | 23958m | -11.2m/s | -51.6°C | 3.6% | 0hPa | 2.7V | 00:00:00 | 02:29:17 | 00:00:00 | |
| AUTORXJP | 2026-09-02 12:05:15 | 44.21951 | 8.21433 | 250° | 49km/h | 24061m | -11.3m/s | -51.3°C | 0.9% | -1.0hPa | 2.7V | 00:00:00 | 00:00:00 | 00:00:00 | |
| IW2NTF | 2026-09-02 12:05:13 | 44.21950 | 8.21484 | 292° | 49km/h | 24096m | -10.6m/s | -51.4°C | 3.6% | 0hPa | 2.7V | 08:21:50 | 02:29:05 | 00:00:00 | |
| DO3MHA-12 | 2026-09-02 12:05:11 | 44.21950 | 8.21484 | 293° | 42km/h | 24096m | -10.5m/s | -51.4°C | 3.6% | 0hPa | 2.7V | 00:00:00 | 02:29:05 | 00:00:00 | |
| IW2NTF | 2026-09-02 12:05:05 | 44.21873 | 8.21493 | 92° | 27km/h | 24210m | -11.3m/s | -51.5°C | 3.5% | 0hPa | 2.7V | 08:22:00 | 02:28:55 | 00:00:00 | |
| DO3MHA-12 | 2026-09-02 12:05:01 | 44.21873 | 8.21492 | 93° | 37km/h | 24211m | -11.3m/s | -51.5°C | 3.5% | 0hPa | 2.7V | 00:00:00 | 02:28:55 | 00:00:00 | |
| IW2NTF | 2026-09-02 12:04:55 | 44.21915 | 8.21554 | 285° | 58km/h | 24331m | -10.8m/s | -51.7°C | 3.8% | 0hPa | 2.7V | 08:22:10 | 02:28:45 | 00:00:00 | |
| DO3MHA-12 | 2026-09-02 12:04:51 | 44.21915 | 8.21554 | 286° | 62km/h | 24332m | -10.7m/s | -51.7°C | 3.8% | 0hPa | 2.7V | 00:00:00 | 02:28:45 | 00:00:00 | |
| DB0UT-7 | 2026-09-02 12:04:46 | 44.21859 | 8.21631 | 342° | 60km/h | 24389m | -11.4m/s | -51.4°C | 3.7% | 0hPa | 2.7V | 08:22:00 | 02:28:40 | 00:00:00 | |
| IW2NTF | 2026-09-02 12:04:45 | 44.21790 | 8.21613 | 46° | 49km/h | 24447m | -11.3m/s | -51.2°C | 3.5% | 0hPa | 2.6V | 08:22:20 | 02:28:35 | 00:00:00 | |
| AUTORXJP | 2026-09-02 12:04:44 | 44.21812 | 8.21632 | 18° | 57km/h | 24424m | -11.3m/s | -51.3°C | 0.9% | -1.0hPa | 2.6V | 00:00:00 | 00:00:00 | 00:00:00 | |
| DO3MHA-12 | 2026-09-02 12:04:41 | 44.21790 | 8.21613 | 47° | 35km/h | 24448m | -11.2m/s | -51.1°C | 3.5% | 0hPa | 2.6V | 00:00:00 | 02:28:35 | 00:00:00 | |
| IW2NTF | 2026-09-02 12:04:35 | 44.21811 | 8.21568 | 257° | 37km/h | 24567m | -10.8m/s | -51°C | 3.6% | 0hPa | 2.6V | 08:22:30 | 02:28:25 | 00:00:00 | |
| DO3MHA-12 | 2026-09-02 12:04:31 | 44.21811 | 8.21568 | 258° | 58km/h | 24567m | -10.7m/s | -51.0°C | 3.6% | 0hPa | 2.6V | 00:00:00 | 02:28:25 | 00:00:00 | |
| IW2NTF | 2026-09-02 12:04:24 | 44.21704 | 8.21671 | 15° | 66km/h | 24685m | -11.9m/s | -50.7°C | 3.6% | 0hPa | 2.6V | 08:22:40 | 02:28:15 | 00:00:00 | |
| DO3MHA-12 | 2026-09-02 12:04:21 | 44.21704 | 8.21671 | 16° | 55km/h | 24686m | -11.8m/s | -50.6°C | 3.6% | 0hPa | 2.7V | 00:00:00 | 02:28:15 | 00:00:00 | |
| DB0UT-7 | 2026-09-02 12:04:16 | 44.21653 | 8.21601 | 78° | 46km/h | 24746m | -11.4m/s | -50.2°C | 3.4% | 0hPa | 2.7V | 00:00:00 | 00:00:00 | 00:00:00 | |
| IW2NTF | 2026-09-02 12:04:14 | 44.21674 | 8.21530 | 151° | 44km/h | 24807m | -11.5m/s | -50.2°C | 3.4% | 0hPa | 2.7V | 08:22:50 | 02:28:05 | 00:00:00 | |
| AUTORXJP | 2026-09-02 12:04:13 | 44.21665 | 8.21539 | 135° | 44km/h | 24795m | -11.9m/s | -50.2°C | 0.8% | -1.0hPa | 2.7V | 00:00:00 | 00:00:00 | 00:00:00 | |
| DO3MHA-12 | 2026-09-02 12:04:11 | 44.21674 | 8.21530 | 152° | 38km/h | 24808m | -11.4m/s | -50.1°C | 3.4% | 0hPa | 2.7V | 08:22:00 | 02:28:05 | 00:00:00 | |
| IW2NTF | 2026-09-02 12:04:05 | 44.21695 | 8.21606 | 338° | 44km/h | 24931m | -11.7m/s | -49.5°C | 3.3% | 0hPa | 2.7V | 08:23:00 | 02:27:55 | 00:00:00 | |
| DO3MHA-12 | 2026-09-02 12:04:01 | 44.21695 | 8.21606 | 339° | 49km/h | 24931m | -11.7m/s | -49.5°C | 3.3% | 0hPa | 2.7V | 00:00:00 | 02:27:55 | 00:00:00 | |
| IW2NTF | 2026-09-02 12:03:55 | 44.21658 | 8.21498 | 144° | 49km/h | 25057m | -12.2m/s | -49.7°C | 3.3% | 0hPa | 2.7V | 08:23:10 | 02:27:45 | 00:00:00 | |
| DB0UT-7 | 2026-09-02 12:03:46 | 44.21716 | 8.21508 | 225° | 49km/h | 25119m | -12.2m/s | -49.3°C | 3.3% | 0hPa | 2.6V | 00:00:00 | 02:27:40 | 00:00:00 | |
| IW2NTF | 2026-09-02 12:03:43 | 44.21725 | 8.21601 | 297° | 58km/h | 25183m | -12m/s | -49.3°C | 3.3% | 0hPa | 2.6V | 08:23:20 | 02:27:35 | 00:00:00 | |
| AUTORXJP | 2026-09-02 12:03:42 | 44.21725 | 8.21601 | 297° | 58km/h | 25183m | -12.0m/s | -49.3°C | 0.8% | -1.0hPa | 2.6V | 00:00:00 | 00:00:00 | 00:00:00 | |
| IW2NTF | 2026-09-02 12:03:33 | 44.21625 | 8.21598 | 88° | 38km/h | 25308m | -12.8m/s | -49.5°C | 3.3% | 0hPa | 2.6V | 08:23:30 | 02:27:25 | 00:00:00 | |
| IW2NTF | 2026-09-02 12:03:23 | 44.21669 | 8.21636 | 294° | 51km/h | 25439m | -13.8m/s | -49°C | 3.3% | 0hPa | 2.7V | 08:23:40 | 02:27:15 | 00:00:00 | |
| IW2NTF | 2026-09-02 12:03:16 | 44.21540 | 8.21609 | 67° | 66km/h | 25571m | -13.2m/s | -48.9°C | 3.1% | 0hPa | 2.6V | 08:23:50 | 02:27:05 | 00:00:00 | |
| DB0UT-7 | 2026-09-02 12:03:16 | 44.21605 | 8.21677 | 8° | 53km/h | 25505m | -13.3m/s | -48.5°C | 3.1% | 0hPa | 2.6V | 00:00:00 | 00:00:00 | 00:00:00 | |
| AUTORXJP | 2026-09-02 12:03:10 | 44.21535 | 8.21587 | 80° | 62km/h | 25584m | -12.7m/s | -48.9°C | 0.7% | -1.0hPa | 2.6V | 00:00:00 | 00:00:00 | 00:00:00 | |
| IW2NTF | 2026-09-02 12:03:02 | 44.21600 | 8.21512 | 229° | 33km/h | 25706m | -14m/s | -49°C | 3.4% | 0hPa | 2.6V | 08:24:00 | 02:26:55 | 00:00:00 | |
| IW2NTF | 2026-09-02 12:02:55 | 44.21520 | 8.21520 | 57° | 57km/h | 25843m | -14m/s | -48.7°C | 3.2% | 0hPa | 2.7V | 08:24:10 | 02:26:45 | 00:00:00 | |
| IW2NTF | 2026-09-02 12:02:46 | 44.21577 | 8.21446 | 234° | 42km/h | 25984m | -14.3m/s | -48°C | 3.2% | 0hPa | 2.7V | 08:24:20 | 02:26:35 | 00:00:00 | |
| AUTORXJP | 2026-09-02 12:02:39 | 44.21583 | 8.21474 | 275° | 44km/h | 26011m | -14.0m/s | -47.9°C | 0.7% | -1.0hPa | 2.6V | 00:00:00 | 00:00:00 | 00:00:00 | |
| IW2NTF | 2026-09-02 12:02:36 | 44.21503 | 8.21516 | 38° | 51km/h | 26126m | -14.6m/s | -47.3°C | 3% | 0hPa | 2.6V | 08:24:30 | 02:26:25 | 00:00:00 | |
| IW2NTF | 2026-09-02 12:02:26 | 44.21553 | 8.21409 | 202° | 53km/h | 26270m | -14m/s | -47.1°C | 2.9% | 0hPa | 2.7V | 08:24:40 | 02:26:15 | 00:00:00 | |
| IW2NTF | 2026-09-02 12:02:16 | 44.21545 | 8.21529 | 12° | 47km/h | 26420m | -14.6m/s | -47.1°C | 3% | 0hPa | 2.7V | 08:24:50 | 02:26:05 | 00:00:00 | |
| DB0UT-7 | 2026-09-02 12:02:16 | 44.21585 | 8.21482 | 277° | 53km/h | 26344m | -15.6m/s | -47.0°C | 3.0% | 0hPa | 2.7V | 00:00:00 | 00:00:00 | 00:00:00 | |
| AUTORXJP | 2026-09-02 12:02:08 | 44.21517 | 8.21495 | 64° | 55km/h | 26464m | -15.0m/s | -47.1°C | 0.7% | -1.0hPa | 2.7V | 00:00:00 | 00:00:00 | 00:00:00 | |
| IW2NTF | 2026-09-02 12:02:06 | 44.21556 | 8.21377 | 166° | 58km/h | 26568m | -15.1m/s | -46.5°C | 2.8% | 0hPa | 2.7V | 08:25:00 | 02:25:55 | 00:00:00 | |
| IW2NTF | 2026-09-02 12:01:56 | 44.21598 | 8.21490 | 333° | 51km/h | 26717m | -15.7m/s | -46.7°C | 2.9% | 0hPa | 2.6V | 08:25:10 | 02:25:45 | 00:00:00 | |
| IW2NTF | 2026-09-02 12:01:46 | 44.21553 | 8.21401 | 148° | 47km/h | 26869m | -15.4m/s | -47.4°C | 2.9% | 0hPa | 2.7V | 08:25:20 | 02:25:35 | 00:00:00 | |
| AUTORXJP | 2026-09-02 12:01:37 | 44.21601 | 8.21407 | 219° | 55km/h | 26931m | -16.0m/s | -47.6°C | 0.7% | -1.0hPa | 2.7V | 00:00:00 | 00:00:00 | 00:00:00 | |
| IW2NTF | 2026-09-02 12:01:34 | 44.21604 | 8.21512 | 316° | 58km/h | 27022m | -16m/s | -47.3°C | 3.1% | 0hPa | 2.7V | 08:25:30 | 02:25:25 | 00:00:00 | |
| DO3MHA-12 | 2026-09-02 12:01:27 | 44.21549 | 8.21529 | 17° | 47km/h | 27086m | -16.1m/s | -47.4°C | 3.1% | 0hPa | 2.6V | 00:00:00 | 02:25:21 | 00:00:00 | |
| IW2NTF | 2026-09-02 12:01:25 | 44.21519 | 8.21448 | 124° | 46km/h | 27179m | -16.1m/s | -47.2°C | 3% | 0hPa | 2.6V | 08:25:40 | 02:25:15 | 00:00:00 | |
| DO3MHA-12 | 2026-09-02 12:01:15 | 44.21574 | 8.21459 | 240° | 57km/h | 27272m | -16.1m/s | -46.7°C | 3.0% | 0hPa | 2.6V | 00:00:00 | 02:25:09 | 00:00:00 | |
| IW2NTF | 2026-09-02 12:01:15 | 44.21576 | 8.21534 | 297° | 60km/h | 27335m | -16m/s | -46.3°C | 3% | 0hPa | 2.7V | 08:25:50 | 02:25:05 | 00:00:00 | |
| AUTORXJP | 2026-09-02 12:01:06 | 44.21515 | 8.21572 | 15° | 57km/h | 27416m | -16.1m/s | -46.0°C | 0.6% | -1.0hPa | 2.6V | 00:00:00 | 00:00:00 | 00:00:00 | |
| IW2NTF | 2026-09-02 12:01:05 | 44.21483 | 8.21506 | 104° | 46km/h | 27496m | -16.4m/s | -45.8°C | 2.8% | 0hPa | 2.6V | 08:26:00 | 02:24:55 | 00:00:00 | |
| DO3MHA-12 | 2026-09-02 12:01:05 | 44.21503 | 8.21565 | 32° | 49km/h | 27432m | -16.1m/s | -45.8°C | 2.8% | 0hPa | 2.6V | 00:00:00 | 02:24:59 | 00:00:00 | |
| IW2NTF | 2026-09-02 12:00:55 | 44.21567 | 8.21567 | 274° | 68km/h | 27658m | -17.5m/s | -45.4°C | 2.7% | 0hPa | 2.6V | 08:26:10 | 02:24:45 | 00:00:00 | |
| IW2NTF | 2026-09-02 12:00:43 | 44.21461 | 8.21599 | 69° | 55km/h | 27821m | -17.1m/s | -46.2°C | 2.7% | 0hPa | 2.7V | 08:26:20 | 02:24:35 | 00:00:00 | |
| DO3MHA-12 | 2026-09-02 12:00:37 | 44.21473 | 8.21529 | 139° | 53km/h | 27887m | -16.8m/s | -46.3°C | 2.8% | 0hPa | 2.6V | 00:00:00 | 02:24:31 | 00:00:00 | |
| IW2NTF | 2026-09-02 12:00:36 | 44.21537 | 8.21556 | 247° | 60km/h | 27986m | -18m/s | -46.4°C | 2.8% | 0hPa | 2.6V | 08:26:30 | 02:24:25 | 00:00:00 | |
| AUTORXJP | 2026-09-02 12:00:35 | 44.21496 | 8.21516 | 175° | 49km/h | 27919m | -16.3m/s | -46.4°C | 0.6% | -1.0hPa | 2.7V | 00:00:00 | 00:00:00 | 00:00:00 | |
| DO3MHA-12 | 2026-09-02 12:00:27 | 44.21527 | 8.21642 | 310° | 69km/h | 28053m | -16.0m/s | -46.5°C | 3.0% | 0hPa | 2.7V | 00:00:00 | 02:24:21 | 00:00:00 | |
| DB0UT-7 | 2026-09-02 12:00:25 | 44.21499 | 8.21672 | 336° | 64km/h | 28085m | -16.0m/s | -46.7°C | 3.0% | 0hPa | 2.7V | 00:00:00 | 02:24:19 | 00:00:00 | |
| IW2NTF | 2026-09-02 12:00:24 | 44.21423 | 8.21674 | 21° | 77km/h | 28149m | -17.3m/s | -47.1°C | 3.1% | 0hPa | 2.7V | 08:26:40 | 02:24:15 | 00:00:00 | |
| IW2NTF | 2026-09-02 12:00:17 | 44.21397 | 8.21610 | 254° | 42km/h | 28314m | -17.7m/s | -46.1°C | 2.9% | 0hPa | 2.7V | 08:26:50 | 02:24:05 | 00:00:00 | |
| DO3MHA-12 | 2026-09-02 12:00:06 | 44.21371 | 8.21705 | 321° | 78km/h | 28400m | -17.0m/s | -45.7°C | 2.9% | 0hPa | 2.7V | 00:00:00 | 02:24:00 | 08:30:00 | |
| IW2NTF | 2026-09-02 12:00:04 | 44.21273 | 8.21735 | 14° | 86km/h | 28489m | -18.5m/s | -46.1°C | 2.9% | 0hPa | 2.6V | 08:27:00 | 02:23:55 | 00:00:00 | |
| IW2NTF | 2026-09-02 11:59:57 | 44.21245 | 8.21583 | 170° | 47km/h | 28660m | -18.6m/s | -45.7°C | 3% | 0hPa | 2.7V | 08:27:10 | 02:23:45 | 00:00:00 | |
| DO3MHA-12 | 2026-09-02 11:59:56 | 44.21213 | 8.21652 | 84° | 55km/h | 28574m | -16.7m/s | -46.1°C | 3.0% | 0hPa | 2.6V | 00:00:00 | 02:23:50 | 00:00:00 | |
| DB0UT-7 | 2026-09-02 11:59:55 | 44.21213 | 8.21632 | 99° | 58km/h | 28591m | -17.5m/s | -46.0°C | 3.0% | 0hPa | 2.6V | 08:27:00 | 00:00:00 | 00:00:00 | |
| IW2NTF | 2026-09-02 11:59:43 | 44.21228 | 8.21708 | 344° | 66km/h | 28839m | -19.7m/s | -44.7°C | 2.9% | 0hPa | 2.7V | 08:27:20 | 02:23:35 | 00:00:00 | |
| IW2NTF | 2026-09-02 11:59:36 | 44.21198 | 8.21581 | 154° | 66km/h | 29022m | -18.8m/s | -43°C | 2.3% | 0hPa | 2.7V | 08:27:30 | 02:23:25 | 00:00:00 | |
| AUTORXJP | 2026-09-02 11:59:33 | 44.21173 | 8.21610 | 125° | 64km/h | 28986m | -19.3m/s | -43.2°C | 0.5% | -1.0hPa | 2.7V | 00:00:00 | 00:00:00 | 00:00:00 | |
| DB0UT-7 | 2026-09-02 11:59:25 | 44.21279 | 8.21618 | 252° | 60km/h | 29134m | -19.0m/s | -43.0°C | 2.4% | 0hPa | 2.7V | 00:00:00 | 02:23:19 | 00:00:00 | |
| IW2NTF | 2026-09-02 11:59:23 | 44.21263 | 8.21686 | 327° | 58km/h | 29208m | -19.5m/s | -43.6°C | 2.6% | 0hPa | 2.7V | 08:27:40 | 02:23:15 | 00:00:00 | |
| IW2NTF | 2026-09-02 11:59:16 | 44.21174 | 8.21545 | 113° | 75km/h | 29397m | -19.3m/s | -43.8°C | 2.6% | 0hPa | 2.6V | 08:27:50 | 02:23:05 | 00:00:00 | |
| IW2NTF | 2026-09-02 11:59:03 | 44.21286 | 8.21552 | 275° | 47km/h | 29587m | -20.3m/s | -43.5°C | 2.6% | 0hPa | 2.6V | 08:28:00 | 02:22:55 | 00:00:00 | |
| IW2NTF | 2026-09-02 11:58:56 | 44.21215 | 8.21484 | 101° | 73km/h | 29781m | -20.1m/s | -43.7°C | 2.6% | 0hPa | 2.6V | 08:28:10 | 02:22:45 | 00:00:00 | |
| DB0UT-7 | 2026-09-02 11:58:49 | 44.21229 | 8.21436 | 126° | 62km/h | 29820m | -20.0m/s | -43.7°C | 2.6% | 0hPa | 2.7V | 00:00:00 | 00:00:00 | 00:00:00 | |
| IW2NTF | 2026-09-02 11:58:43 | 44.21334 | 8.21430 | 255° | 49km/h | 29982m | -20.8m/s | -43.3°C | 2.7% | 0hPa | 2.7V | 08:28:20 | 02:22:35 | 00:00:00 | |
| IW2NTF | 2026-09-02 11:58:32 | 44.21239 | 8.21415 | 73° | 68km/h | 30186m | -21.3m/s | -42.4°C | 2.4% | 0hPa | 2.7V | 08:28:30 | 02:22:25 | 00:00:00 | |
| AUTORXJP | 2026-09-02 11:58:31 | 44.21237 | 8.21392 | 90° | 68km/h | 30207m | -20.9m/s | -42.3°C | 0.5% | -1.0hPa | 2.6V | 00:00:00 | 00:00:00 | 00:00:00 | |
| IW2NTF | 2026-09-02 11:58:26 | 44.21334 | 8.21344 | 237° | 55km/h | 30393m | -21m/s | -41.7°C | 2.4% | 0hPa | 2.6V | 08:28:40 | 02:22:15 | 00:00:00 | |
| DB0UT-7 | 2026-09-02 11:58:19 | 44.21340 | 8.21383 | 275° | 64km/h | 30433m | -19.9m/s | -41.6°C | 2.4% | 0hPa | 2.7V | 00:00:00 | 02:22:13 | 00:00:00 | |
| IW2NTF | 2026-09-02 11:58:16 | 44.21244 | 8.21454 | 25° | 53km/h | 30600m | -22.3m/s | -41.6°C | 2.3% | 0hPa | 2.6V | 08:28:50 | 02:22:05 | 00:00:00 | |
| IW2NTF | 2026-09-02 11:58:06 | 44.21301 | 8.21402 | 219° | 66km/h | 30812m | -22.5m/s | -41.3°C | 2.2% | 0hPa | 2.6V | 08:30:00 | 02:21:55 | 00:00:00 | |
| AUTORXJP | 2026-09-02 11:58:00 | 44.21323 | 8.21440 | 244° | 69km/h | 30855m | -21.4m/s | -41.4°C | 0.5% | -1.0hPa | 2.6V | 00:00:00 | 00:00:00 | 00:00:00 | |
| IW2NTF | 2026-09-02 11:57:55 | 44.21231 | 8.21641 | 354° | 75km/h | 31067m | -20.9m/s | -42.4°C | 2.5% | 0hPa | 2.6V | 08:30:00 | 02:21:43 | 00:00:00 | |
| DB0UT-7 | 2026-09-02 11:57:48 | 44.21212 | 8.21641 | 4° | 55km/h | 31088m | -19.9m/s | -42.5°C | 2.5% | 0hPa | 2.6V | 00:00:00 | 00:00:00 | 00:00:00 | |
| DO3MHA-12 | 2026-09-02 11:57:45 | 44.21164 | 8.21614 | 36° | 69km/h | 31147m | -20.2m/s | -42.8°C | 2.6% | 0hPa | 2.6V | 00:00:00 | 02:21:39 | 00:00:00 | |
| IW2NTF | 2026-09-02 11:57:44 | 44.21118 | 8.21490 | 91° | 66km/h | 31269m | -20.4m/s | -42.9°C | 2.6% | 0hPa | 2.6V | 08:30:00 | 02:21:33 | 00:00:00 | |
| IW2NTF | 2026-09-02 11:57:34 | 44.21214 | 8.21380 | 187° | 46km/h | 31467m | -20.1m/s | -41.4°C | 2.4% | 0hPa | 2.7V | 08:30:00 | 02:21:23 | 00:00:00 | |
| AUTORXJP | 2026-09-02 11:57:29 | 44.21225 | 8.21383 | 193° | 42km/h | 31487m | -19.9m/s | -41.2°C | 0.5% | -1.0hPa | 2.7V | 00:00:00 | 00:00:00 | 00:00:00 | |
| OE5DXL-15 | 2026-09-02 11:57:28 | 44.21225 | 8.21383 | 194° | 57km/h | 31487m | -19.9m/s | 0°C | 0% | 0hPa | 2.7V | 00:00:00 | 00:00:00 | 00:00:00 | |
| IW2NTF | 2026-09-02 11:57:23 | 44.21271 | 8.21475 | 259° | 44km/h | 31658m | -19.6m/s | -41°C | 2.3% | 0hPa | 2.7V | 08:30:00 | 02:21:13 | 00:00:00 | |
| DB0UT-7 | 2026-09-02 11:57:18 | 44.21273 | 8.21491 | 257° | 57km/h | 31678m | -19.6m/s | -40.9°C | 2.3% | 0hPa | 2.7V | 00:00:00 | 02:21:12 | 00:00:00 | |
| IW2NTF | 2026-09-02 11:57:15 | 44.21325 | 8.21668 | 236° | 62km/h | 31860m | -20.8m/s | -40.5°C | 2.3% | 0hPa | 2.7V | 08:30:00 | 02:21:03 | 00:00:00 | |
| IW2NTF | 2026-09-02 11:57:00 | 44.21415 | 8.21835 | 233° | 58km/h | 32073m | -22.5m/s | -40.5°C | 2.2% | 0hPa | 2.7V | 08:30:00 | 02:20:53 | 00:00:00 | |
| AUTORXJP | 2026-09-02 11:56:58 | 44.21431 | 8.21869 | 240° | 51km/h | 32118m | -22.3m/s | -40.4°C | 0.5% | -1.0hPa | 2.6V | 00:00:00 | 00:00:00 | 00:00:00 | |
| OE5DXL-15 | 2026-09-02 11:56:56 | 44.21436 | 8.21884 | 246° | 46km/h | 32139m | -21.5m/s | 0°C | 0% | 0hPa | 2.6V | 00:00:00 | 00:00:00 | 00:00:00 | |
| IW2NTF | 2026-09-02 11:56:54 | 44.21430 | 8.22004 | 293° | 66km/h | 32284m | -22.1m/s | -40.7°C | 2.3% | 0hPa | 2.6V | 08:30:00 | 02:20:43 | 00:00:00 | |
| DB0UT-7 | 2026-09-02 11:56:48 | 44.21423 | 8.22026 | 296° | 29km/h | 32307m | -23.3m/s | -40.6°C | 2.3% | 0hPa | 2.7V | 00:00:00 | 00:00:00 | 00:00:00 | |
| DO3MHA-12 | 2026-09-02 11:56:46 | 44.21405 | 8.22070 | 301° | 33km/h | 32356m | -26.5m/s | -40.6°C | 2.3% | 0hPa | 2.6V | 00:00:00 | 02:20:40 | 00:00:00 | |
| IW2NTF | 2026-09-02 11:56:41 | 44.21364 | 8.22120 | 65° | 24km/h | 32524m | -29.1m/s | -40.4°C | 2.2% | 0hPa | 2.6V | 08:30:00 | 02:20:33 | 00:00:00 | |
| DO3MHA-12 | 2026-09-02 11:56:36 | 44.21358 | 8.22109 | 318° | 11km/h | 32627m | -38.9m/s | -39.7°C | 2.2% | 0hPa | 2.7V | 00:00:00 | 02:20:30 | 00:00:00 | |
| IW2NTF | 2026-09-02 11:56:34 | 44.21356 | 8.22122 | 231° | 15km/h | 32715m | 5.3m/s | -39.5°C | 2.1% | 0hPa | 2.7V | 08:30:00 | 02:20:23 | 00:00:00 | |
| AUTORXJP | 2026-09-02 11:56:27 | 44.21362 | 8.22143 | 264° | 27km/h | 32701m | 5.3m/s | -39.6°C | 0.4% | -1.0hPa | 2.6V | 00:00:00 | 00:00:00 | 00:00:00 | |
| DO3MHA-12 | 2026-09-02 11:56:26 | 44.21362 | 8.22143 | 265° | 31km/h | 32701m | 5.2m/s | -39.5°C | 2.2% | 0hPa | 2.6V | 00:00:00 | 02:20:20 | 00:00:00 | |
| OE5DXL-15 | 2026-09-02 11:56:25 | 44.21362 | 8.22153 | 278° | 27km/h | 32695m | 5.7m/s | 0°C | 0% | 0hPa | 2.7V | 00:00:00 | 00:00:00 | 00:00:00 | |
| IW2NTF | 2026-09-02 11:56:21 | 44.21343 | 8.22219 | 279° | 31km/h | 32665m | 5.2m/s | -40°C | 2.2% | 0hPa | 2.7V | 08:30:00 | 02:20:13 | 00:00:00 | |
| DB0UT-7 | 2026-09-02 11:56:18 | 44.21343 | 8.22230 | 270° | 20km/h | 32660m | 5.2m/s | -40.0°C | 2.3% | 0hPa | 2.6V | 00:00:00 | 02:20:12 | 00:00:00 | |
| IW2NTF | 2026-09-02 11:56:15 | 44.21329 | 8.22303 | 280° | 20km/h | 32612m | 5.8m/s | -40.3°C | 2.2% | 0hPa | 2.6V | 08:30:00 | 02:20:03 | 00:00:00 | |
| IW2NTF | 2026-09-02 11:56:05 | 44.21310 | 8.22369 | 298° | 29km/h | 32560m | 5.7m/s | -40.7°C | 2.3% | 0hPa | 2.7V | 08:30:00 | 02:19:53 | 00:00:00 | |
| OE5DXL-15 | 2026-09-02 11:55:55 | 44.21309 | 8.22403 | 250° | 16km/h | 32539m | 4.3m/s | 0°C | 0% | 0hPa | 2.7V | 00:00:00 | 00:00:00 | 00:00:00 | |
| IW2NTF | 2026-09-02 11:55:54 | 44.21302 | 8.22414 | 337° | 13km/h | 32505m | 5.7m/s | -40.3°C | 2.2% | 0hPa | 2.7V | 08:30:00 | 02:19:43 | 00:00:00 | |
| DO3MHA-12 | 2026-09-02 11:55:51 | 44.21308 | 8.22413 | 4° | 13km/h | 32516m | 5.2m/s | -40.3°C | 2.3% | 0hPa | 2.6V | 00:00:00 | 02:19:45 | 08:30:00 | |
| DB0UT-7 | 2026-09-02 11:55:48 | 44.21300 | 8.22417 | 311° | 16km/h | 32500m | 5.6m/s | -40.2°C | 2.3% | 0hPa | 2.6V | 00:00:00 | 00:00:00 | 00:00:00 | |
| IW2NTF | 2026-09-02 11:55:45 | 44.21295 | 8.22465 | 214° | 13km/h | 32453m | 5.2m/s | -40.6°C | 2.3% | 0hPa | 2.6V | 08:30:00 | 02:19:33 | 00:00:00 | |
| DO3MHA-12 | 2026-09-02 11:55:36 | 44.21307 | 8.22475 | 213° | 18km/h | 32436m | 5.0m/s | -40.5°C | 2.3% | 0hPa | 2.7V | 00:00:00 | 02:19:30 | 00:00:00 | |
| IW2NTF | 2026-09-02 11:55:35 | 44.21299 | 8.22504 | 330° | 24km/h | 32399m | 4.7m/s | -40.5°C | 2.3% | 0hPa | 2.7V | 08:30:00 | 02:19:23 | 00:00:00 | |
| OE5DXL-15 | 2026-09-02 11:55:25 | 44.21295 | 8.22522 | 214° | 11km/h | 32379m | 5.4m/s | 0°C | 0% | 0hPa | 2.6V | 00:00:00 | 00:00:00 | 00:00:00 | |
| IW2NTF | 2026-09-02 11:55:24 | 44.21314 | 8.22522 | 301° | 0km/h | 32346m | 5.9m/s | -40.8°C | 2.3% | 0hPa | 2.6V | 08:30:00 | 02:19:13 | 00:00:00 | |
| AUTORXJP | 2026-09-02 11:55:24 | 44.21300 | 8.22525 | 196° | 18km/h | 32373m | 5.8m/s | -40.6°C | 0.5% | -1.0hPa | 2.7V | 00:00:00 | 00:00:00 | 00:00:00 | |
| DO3MHA-12 | 2026-09-02 11:55:21 | 44.21312 | 8.22523 | 155° | 13km/h | 32357m | 4.8m/s | -40.6°C | 2.3% | 0hPa | 2.7V | 00:00:00 | 02:19:15 | 00:00:00 | |
| DB0UT-7 | 2026-09-02 11:55:18 | 44.21314 | 8.22523 | 310° | 11km/h | 32340m | 6.6m/s | -40.7°C | 2.3% | 0hPa | 2.7V | 00:00:00 | 02:19:12 | 08:30:00 | |
| IW2NTF | 2026-09-02 11:55:14 | 44.21301 | 8.22520 | 117° | 16km/h | 32292m | 4.1m/s | -40.8°C | 2.3% | 0hPa | 2.6V | 08:30:00 | 02:19:03 | 00:00:00 | |
| DO3MHA-12 | 2026-09-02 11:55:09 | 44.21300 | 8.22520 | 118° | 18km/h | 32292m | 4.1m/s | -40.7°C | 2.3% | 0hPa | 2.6V | 00:00:00 | 02:19:03 | 00:00:00 | |
| IW2NTF | 2026-09-02 11:55:05 | 44.21314 | 8.22521 | 58° | 13km/h | 32237m | 4.5m/s | -40.6°C | 2.3% | 0hPa | 2.6V | 08:30:00 | 02:18:53 | 00:00:00 | |
| IW2NTF | 2026-09-02 11:54:55 | 44.21331 | 8.22526 | 159° | 4km/h | 32185m | 4.5m/s | -40°C | 2.2% | 0hPa | 2.7V | 08:30:00 | 02:18:43 | 00:00:00 | |
| AUTORXJP | 2026-09-02 11:54:53 | 44.21320 | 8.22521 | 213° | 15km/h | 32206m | 5.1m/s | -40.4°C | 0.5% | -1.0hPa | 2.6V | 00:00:00 | 00:00:00 | 00:00:00 | |
| DB0UT-7 | 2026-09-02 11:54:48 | 44.21331 | 8.22526 | 331° | 18km/h | 32180m | 4.5m/s | -40.1°C | 2.2% | 0hPa | 2.6V | 00:00:00 | 00:00:00 | 00:00:00 | |
| IW2NTF | 2026-09-02 11:54:45 | 44.21322 | 8.22558 | 173° | 5km/h | 32130m | 5.3m/s | -40.3°C | 2.2% | 0hPa | 2.6V | 08:30:00 | 02:18:33 | 00:00:00 | |
| IW2NTF | 2026-09-02 11:54:35 | 44.21308 | 8.22604 | 326° | 24km/h | 32077m | 4.6m/s | -40.5°C | 2.3% | 0hPa | 2.6V | 08:30:00 | 02:18:23 | 00:00:00 | |
| OE5DXL-15 | 2026-09-02 11:54:22 | 44.21296 | 8.22658 | 260° | 16km/h | 32040m | 5.1m/s | 0°C | 0% | 0hPa | 2.7V | 00:00:00 | 00:00:00 | 00:00:00 | |
| IW2NTF | 2026-09-02 11:54:20 | 44.21296 | 8.22675 | 299° | 11km/h | 32023m | 4.8m/s | -40°C | 2.2% | 0hPa | 2.7V | 08:30:00 | 02:18:13 | 00:00:00 | |
| DB0UT-7 | 2026-09-02 11:54:18 | 44.21294 | 8.22679 | 319° | 22km/h | 32019m | 4.9m/s | -40.0°C | 2.2% | 0hPa | 2.7V | 00:00:00 | 02:18:12 | 00:00:00 | |
| IW2NTF | 2026-09-02 11:54:15 | 44.21270 | 8.22743 | 254° | 18km/h | 31970m | 4.8m/s | -40.1°C | 2.2% | 0hPa | 2.7V | 08:30:00 | 02:18:03 | 00:00:00 | |
| IW2NTF | 2026-09-02 11:54:05 | 44.21263 | 8.22815 | 317° | 4km/h | 31919m | 5.1m/s | -40.5°C | 2.3% | 0hPa | 2.6V | 08:30:00 | 02:17:53 | 00:00:00 | |
| IW2NTF | 2026-09-02 11:53:55 | 44.21281 | 8.22882 | 275° | 13km/h | 31867m | 4.9m/s | -40.2°C | 2.3% | 0hPa | 2.6V | 08:30:00 | 02:17:43 | 00:00:00 | |
| AUTORXJP | 2026-09-02 11:53:51 | 44.21280 | 8.22868 | 258° | 26km/h | 31878m | 5.8m/s | -40.2°C | 0.5% | -1.0hPa | 2.6V | 00:00:00 | 00:00:00 | 00:00:00 | |
| DB0UT-7 | 2026-09-02 11:53:48 | 44.21280 | 8.22886 | 289° | 15km/h | 31862m | 4.7m/s | -40.2°C | 2.2% | 0hPa | 2.6V | 00:00:00 | 00:00:00 | 00:00:00 | |
| IW2NTF | 2026-09-02 11:53:45 | 44.21292 | 8.22921 | 199° | 16km/h | 31814m | 4.7m/s | -40.4°C | 2.2% | 0hPa | 2.7V | 08:30:00 | 02:17:33 | 00:00:00 | |
| IW2NTF | 2026-09-02 11:53:35 | 44.21307 | 8.22949 | 141° | 16km/h | 31763m | 4.9m/s | -40.7°C | 2.3% | 0hPa | 2.7V | 08:30:00 | 02:17:23 | 00:00:00 | |
| IW2NTF | 2026-09-02 11:53:25 | 44.21337 | 8.22949 | 139° | 13km/h | 31712m | 5m/s | -40.7°C | 2.3% | 0hPa | 2.6V | 08:30:00 | 02:17:13 | 00:00:00 | |
| AUTORXJP | 2026-09-02 11:53:20 | 44.21335 | 8.22952 | 147° | 7km/h | 31717m | 5.0m/s | -40.8°C | 0.5% | -1.0hPa | 2.7V | 00:00:00 | 00:00:00 | 00:00:00 | |
| DB0UT-7 | 2026-09-02 11:53:18 | 44.21340 | 8.22946 | 144° | 18km/h | 31707m | 4.9m/s | -40.7°C | 2.3% | 0hPa | 2.7V | 00:00:00 | 02:17:12 | 00:00:00 | |
| IW2NTF | 2026-09-02 11:53:13 | 44.21366 | 8.22906 | 133° | 29km/h | 31653m | 5.1m/s | -40.9°C | 2.2% | 0hPa | 2.7V | 08:30:00 | 02:17:01 | 00:00:00 | |
| IW2NTF | 2026-09-02 11:53:02 | 44.21397 | 8.22859 | 94° | 31km/h | 31602m | 4.3m/s | -41°C | 2.3% | 0hPa | 2.6V | 08:30:00 | 02:16:51 | 00:00:00 | |
| IW2NTF | 2026-09-02 11:52:53 | 44.21423 | 8.22806 | 89° | 24km/h | 31550m | 5.2m/s | -40.9°C | 2.3% | 0hPa | 2.6V | 08:30:00 | 02:16:41 | 00:00:00 | |
| AUTORXJP | 2026-09-02 11:52:49 | 44.21421 | 8.22818 | 116° | 13km/h | 31561m | 5.6m/s | -40.9°C | 0.5% | -1.0hPa | 2.6V | 00:00:00 | 00:00:00 | 00:00:00 | |
| DB0UT-7 | 2026-09-02 11:52:48 | 44.21422 | 8.22813 | 98° | 22km/h | 31556m | 5.9m/s | -40.9°C | 2.3% | 0hPa | 2.6V | 00:00:00 | 00:00:00 | 00:00:00 | |
| IW2NTF | 2026-09-02 11:52:38 | 44.21425 | 8.22732 | 77° | 18km/h | 31497m | 4.5m/s | -41.2°C | 2.3% | 0hPa | 2.6V | 08:30:00 | 02:16:31 | 00:00:00 | |
| IW2NTF | 2026-09-02 11:52:31 | 44.21399 | 8.22638 | 62° | 20km/h | 31433m | 5.2m/s | -42.1°C | 2.4% | 0hPa | 2.6V | 08:30:00 | 02:16:19 | 00:00:00 | |
| DO3MHA-12 | 2026-09-02 11:52:28 | 44.21406 | 8.22666 | 73° | 24km/h | 31450m | 4.7m/s | -42.0°C | 2.4% | 0hPa | 2.7V | 00:00:00 | 02:16:22 | 00:00:00 | |
| DB0UT-7 | 2026-09-02 11:52:18 | 44.21387 | 8.22595 | 86° | 18km/h | 31398m | 4.2m/s | -42.4°C | 2.5% | 0hPa | 2.7V | 00:00:00 | 02:16:12 | 00:00:00 | |
| DO3MHA-12 | 2026-09-02 11:52:17 | 44.21387 | 8.22587 | 87° | 22km/h | 31393m | 5.3m/s | -42.4°C | 2.5% | 0hPa | 2.6V | 00:00:00 | 02:16:11 | 00:00:00 | |
| IW2NTF | 2026-09-02 11:52:16 | 44.21384 | 8.22569 | 55° | 15km/h | 31376m | 4.8m/s | -42.4°C | 2.5% | 0hPa | 2.6V | 08:30:00 | 02:16:08 | 00:00:00 | |
| IW2NTF | 2026-09-02 11:52:06 | 44.21350 | 8.22530 | 69° | 11km/h | 31322m | 4.9m/s | -43°C | 2.6% | 0hPa | 2.6V | 08:30:00 | 02:15:58 | 00:00:00 | |
| IW2NTF | 2026-09-02 11:51:56 | 44.21311 | 8.22491 | 1° | 20km/h | 31269m | 6m/s | -43°C | 2.6% | 0hPa | 2.7V | 08:30:00 | 02:15:48 | 00:00:00 | |
| DB0UT-7 | 2026-09-02 11:51:48 | 44.21294 | 8.22477 | 33° | 26km/h | 31237m | 5.4m/s | -42.8°C | 2.7% | 0hPa | 2.7V | 00:00:00 | 00:00:00 | 00:00:00 | |
| DO3MHA-12 | 2026-09-02 11:51:47 | 44.21292 | 8.22476 | 8° | 22km/h | 31232m | 4.3m/s | -42.7°C | 2.6% | 0hPa | 2.7V | 00:00:00 | 02:15:41 | 00:00:00 | |
| IW2NTF | 2026-09-02 11:51:46 | 44.21280 | 8.22474 | 9° | 26km/h | 31216m | 6.8m/s | -42.7°C | 2.6% | 0hPa | 2.7V | 08:30:00 | 02:15:38 | 00:00:00 | |
| DO3MHA-12 | 2026-09-02 11:51:36 | 44.21227 | 8.22479 | 314° | 20km/h | 31173m | 4.5m/s | -42.6°C | 2.7% | 0hPa | 2.7V | 00:00:00 | 02:15:30 | 00:00:00 | |
| IW2NTF | 2026-09-02 11:51:35 | 44.21215 | 8.22487 | 8° | 20km/h | 31157m | 6.5m/s | -42.7°C | 2.6% | 0hPa | 2.7V | 08:30:00 | 02:15:27 | 00:00:00 | |
| DO3MHA-12 | 2026-09-02 11:51:26 | 44.21170 | 8.22475 | 334° | 24km/h | 31119m | 5.2m/s | -42.2°C | 2.6% | 0hPa | 2.7V | 00:00:00 | 02:15:20 | 08:30:00 | |
| IW2NTF | 2026-09-02 11:51:25 | 44.21146 | 8.22495 | 332° | 29km/h | 31096m | 6m/s | -42.1°C | 2.6% | 0hPa | 2.7V | 08:30:00 | 02:15:16 | 00:00:00 | |
| DB0UT-7 | 2026-09-02 11:51:18 | 44.21118 | 8.22514 | 331° | 27km/h | 31073m | 5.9m/s | -42.0°C | 2.5% | 0hPa | 2.7V | 00:00:00 | 02:15:12 | 00:00:00 | |
| IW2NTF | 2026-09-02 11:51:16 | 44.21085 | 8.22527 | 1° | 18km/h | 31040m | 4.3m/s | -41.8°C | 2.5% | 0hPa | 2.7V | 08:30:00 | 02:15:06 | 00:00:00 | |
| DO3MHA-12 | 2026-09-02 11:51:09 | 44.21071 | 8.22536 | 315° | 27km/h | 31025m | 6.8m/s | -41.6°C | 2.5% | 0hPa | 2.6V | 00:00:00 | 02:15:03 | 00:00:00 | |
| IW2NTF | 2026-09-02 11:51:05 | 44.21027 | 8.22587 | 348° | 22km/h | 30984m | 5.2m/s | -41.4°C | 2.4% | 0hPa | 2.6V | 08:30:00 | 02:14:56 | 00:00:00 | |
| DO3MHA-12 | 2026-09-02 11:50:59 | 44.21015 | 8.22595 | 308° | 27km/h | 30967m | 6.1m/s | -41.5°C | 2.4% | 0hPa | 2.6V | 00:00:00 | 02:14:53 | 00:00:00 | |
| IW2NTF | 2026-09-02 11:50:56 | 44.20988 | 8.22645 | 327° | 31km/h | 30928m | 5.3m/s | -41.5°C | 2.4% | 0hPa | 2.6V | 08:30:00 | 02:14:46 | 00:00:00 | |
| DO3MHA-12 | 2026-09-02 11:50:49 | 44.20970 | 8.22667 | 305° | 29km/h | 30913m | 6.1m/s | -41.5°C | 2.5% | 0hPa | 2.7V | 00:00:00 | 02:14:43 | 00:00:00 | |
| DB0UT-7 | 2026-09-02 11:50:48 | 44.20966 | 8.22676 | 292° | 27km/h | 30906m | 6.6m/s | -41.4°C | 2.4% | 0hPa | 2.6V | 00:00:00 | 00:00:00 | 08:30:00 | |
| IW2NTF | 2026-09-02 11:50:45 | 44.20958 | 8.22738 | 295° | 24km/h | 30872m | 4.9m/s | -41.1°C | 2.4% | 0hPa | 2.6V | 08:30:00 | 02:14:36 | 00:00:00 | |
| AUTORXJP | 2026-09-02 11:50:45 | 44.20962 | 8.22721 | 277° | 27km/h | 30883m | 6.2m/s | -41.2°C | 0.5% | -1.0hPa | 2.6V | 00:00:00 | 00:00:00 | 00:00:00 | |
| DO3MHA-12 | 2026-09-02 11:50:39 | 44.20949 | 8.22763 | 296° | 26km/h | 30854m | 6.4m/s | -41.0°C | 2.3% | 0hPa | 2.6V | 00:00:00 | 02:14:33 | 00:00:00 | |
| IW2NTF | 2026-09-02 11:50:34 | 44.20933 | 8.22822 | 274° | 20km/h | 30815m | 4.8m/s | -41.3°C | 2.4% | 0hPa | 2.6V | 08:30:00 | 02:14:26 | 00:00:00 | |
| DO3MHA-12 | 2026-09-02 11:50:29 | 44.20935 | 8.22849 | 259° | 29km/h | 30797m | 5.9m/s | -41.2°C | 2.4% | 0hPa | 2.7V | 00:00:00 | 02:14:23 | 00:00:00 | |
| IW2NTF | 2026-09-02 11:50:25 | 44.20930 | 8.22919 | 285° | 26km/h | 30758m | 5.9m/s | -41.4°C | 2.4% | 0hPa | 2.7V | 08:30:00 | 02:14:16 | 00:00:00 | |
| DO3MHA-12 | 2026-09-02 11:50:19 | 44.20930 | 8.22949 | 257° | 27km/h | 30742m | 5.0m/s | -41.3°C | 2.4% | 0hPa | 2.6V | 00:00:00 | 02:14:13 | 00:00:00 | |
| DB0UT-7 | 2026-09-02 11:50:18 | 44.20933 | 8.22960 | 251° | 20km/h | 30737m | 4.8m/s | -41.2°C | 2.4% | 0hPa | 2.7V | 00:00:00 | 02:14:12 | 00:00:00 | |
| IW2NTF | 2026-09-02 11:50:14 | 44.20945 | 8.23006 | 260° | 20km/h | 30703m | 6.6m/s | -41.1°C | 2.4% | 0hPa | 2.7V | 08:30:00 | 02:14:06 | 00:00:00 | |
| AUTORXJP | 2026-09-02 11:50:14 | 44.20944 | 8.22999 | 256° | 18km/h | 30709m | 5.4m/s | -41.1°C | 0.5% | -1.0hPa | 2.7V | 00:00:00 | 00:00:00 | 00:00:00 | |
| IW2NTF | 2026-09-02 11:50:04 | 44.20951 | 8.23073 | 260° | 22km/h | 30646m | 4.7m/s | -40.9°C | 2.3% | 0hPa | 2.7V | 08:30:00 | 02:13:56 | 00:00:00 | |
| IW2NTF | 2026-09-02 11:49:54 | 44.20948 | 8.23126 | 262° | 27km/h | 30592m | 4.8m/s | -41.3°C | 2.3% | 0hPa | 2.7V | 08:30:00 | 02:13:46 | 00:00:00 | |
| DB0UT-7 | 2026-09-02 11:49:48 | 44.20946 | 8.23160 | 306° | 7km/h | 30572m | 5.1m/s | -41.5°C | 2.3% | 0hPa | 2.7V | 00:00:00 | 00:00:00 | 00:00:00 | |
| IW2NTF | 2026-09-02 11:49:44 | 44.20932 | 8.23173 | 279° | 5km/h | 30539m | 5.1m/s | -41.3°C | 2.4% | 0hPa | 2.7V | 08:30:00 | 02:13:36 | 00:00:00 | |
| AUTORXJP | 2026-09-02 11:49:43 | 44.20932 | 8.23173 | 279° | 4km/h | 30540m | 5.1m/s | -41.3°C | 0.5% | -1.0hPa | 2.7V | 00:00:00 | 00:00:00 | 00:00:00 | |
| IW2NTF | 2026-09-02 11:49:36 | 44.20926 | 8.23190 | 301° | 7km/h | 30482m | 5.6m/s | -41.4°C | 2.3% | 0hPa | 2.7V | 08:30:00 | 02:13:25 | 00:00:00 | |
| IW2NTF | 2026-09-02 11:49:24 | 44.20926 | 8.23170 | 53° | 5km/h | 30428m | 5m/s | -41.5°C | 2.3% | 0hPa | 2.7V | 08:30:00 | 02:13:15 | 00:00:00 | |
| DB0UT-7 | 2026-09-02 11:49:18 | 44.20922 | 8.23170 | 311° | 11km/h | 30413m | 5.9m/s | -41.6°C | 2.3% | 0hPa | 2.6V | 00:00:00 | 02:13:12 | 00:00:00 | |
| IW2NTF | 2026-09-02 11:49:14 | 44.20918 | 8.23166 | 79° | 20km/h | 30377m | 4.1m/s | -41.7°C | 2.4% | 0hPa | 2.7V | 08:30:00 | 02:13:05 | 00:00:00 | |
| AUTORXJP | 2026-09-02 11:49:11 | 44.20918 | 8.23166 | 79° | 18km/h | 30377m | 4.1m/s | -41.7°C | 0.5% | -1.0hPa | 2.6V | 00:00:00 | 00:00:00 | 00:00:00 | |
| IW2NTF | 2026-09-02 11:49:04 | 44.20901 | 8.23162 | 339° | 15km/h | 30327m | 4.3m/s | -41.8°C | 2.3% | 0hPa | 2.6V | 08:30:00 | 02:12:55 | 00:00:00 | |
| IW2NTF | 2026-09-02 11:48:54 | 44.20892 | 8.23128 | 71° | 9km/h | 30278m | 5.8m/s | -41.9°C | 2.3% | 0hPa | 2.7V | 08:30:00 | 02:12:45 | 00:00:00 | |
| DB0UT-7 | 2026-09-02 11:48:48 | 44.20890 | 8.23131 | 297° | 13km/h | 30262m | 4.4m/s | -42.1°C | 2.4% | 0hPa | 2.6V | 00:00:00 | 00:00:00 | 00:00:00 | |
| IW2NTF | 2026-09-02 11:48:44 | 44.20877 | 8.23128 | 104° | 13km/h | 30227m | 5.2m/s | -42.3°C | 2.4% | 0hPa | 2.6V | 08:30:00 | 02:12:35 | 00:00:00 | |
| AUTORXJP | 2026-09-02 11:48:40 | 44.20878 | 8.23123 | 114° | 13km/h | 30222m | 4.4m/s | -42.4°C | 0.5% | -1.0hPa | 2.6V | 00:00:00 | 00:00:00 | 00:00:00 | |
| IW2NTF | 2026-09-02 11:48:34 | 44.20880 | 8.23114 | 180° | 4km/h | 30177m | 3.5m/s | -42.9°C | 2.5% | 0hPa | 2.6V | 08:30:00 | 02:12:25 | 00:00:00 | |
| IW2NTF | 2026-09-02 11:48:22 | 44.20881 | 8.23057 | 132° | 5km/h | 30127m | 4.7m/s | -43.4°C | 2.6% | 0hPa | 2.6V | 08:30:00 | 02:12:15 | 00:00:00 | |
| DB0UT-7 | 2026-09-02 11:48:18 | 44.20881 | 8.23051 | 74° | 16km/h | 30112m | 4.5m/s | -43.4°C | 2.5% | 0hPa | 2.6V | 00:00:00 | 02:12:12 | 00:00:00 | |
| IW2NTF | 2026-09-02 11:48:14 | 44.20877 | 8.22998 | 74° | 33km/h | 30076m | 5.6m/s | -43.7°C | 2.6% | 0hPa | 2.6V | 08:30:00 | 02:12:05 | 00:00:00 | |
| AUTORXJP | 2026-09-02 11:48:10 | 44.20872 | 8.22977 | 71° | 26km/h | 30067m | 4.0m/s | -43.5°C | 0.6% | -1.0hPa | 2.6V | 00:00:00 | 00:00:00 | 00:00:00 | |
| IW2NTF | 2026-09-02 11:48:04 | 44.20869 | 8.22956 | 69° | 18km/h | 30028m | 4.6m/s | -43.7°C | 2.6% | 0hPa | 2.6V | 08:30:00 | 02:11:55 | 00:00:00 | |
| IW2NTF | 2026-09-02 11:47:54 | 44.20872 | 8.22889 | 122° | 2km/h | 29978m | 4.2m/s | -43.4°C | 2.6% | 0hPa | 2.6V | 08:30:00 | 02:11:45 | 00:00:00 | |
| DO3MHA-12 | 2026-09-02 11:47:51 | 44.20872 | 8.22889 | 123° | 11km/h | 29979m | 4.2m/s | -43.4°C | 2.6% | 0hPa | 2.6V | 00:00:00 | 02:11:45 | 00:00:00 | |
| IW2NTF | 2026-09-02 11:47:47 | 44.20889 | 8.22861 | 113° | 20km/h | 29927m | 5.8m/s | -43.8°C | 2.6% | 0hPa | 2.6V | 08:30:00 | 02:11:35 | 00:00:00 | |
| DO3MHA-12 | 2026-09-02 11:47:41 | 44.20889 | 8.22860 | 114° | 20km/h | 29927m | 5.8m/s | -43.8°C | 2.6% | 0hPa | 2.6V | 00:00:00 | 02:11:35 | 00:00:00 | |
| AUTORXJP | 2026-09-02 11:47:38 | 44.20897 | 8.22842 | 119° | 16km/h | 29912m | 4.6m/s | -44.0°C | 0.6% | -1.0hPa | 2.6V | 00:00:00 | 00:00:00 | 00:00:00 | |
| IW2NTF | 2026-09-02 11:47:35 | 44.20900 | 8.22815 | 124° | 16km/h | 29876m | 5m/s | -43.9°C | 2.7% | 0hPa | 2.6V | 08:30:00 | 02:11:25 | 00:00:00 | |
| DO3MHA-12 | 2026-09-02 11:47:31 | 44.20900 | 8.22815 | 125° | 20km/h | 29876m | 5.0m/s | -43.9°C | 2.7% | 0hPa | 2.6V | 00:00:00 | 02:11:25 | 08:30:00 | |
| IW2NTF | 2026-09-02 11:47:25 | 44.20924 | 8.22756 | 161° | 16km/h | 29825m | 4.3m/s | -44°C | 2.7% | 0hPa | 2.6V | 08:30:00 | 02:11:15 | 00:00:00 | |
| DO3MHA-12 | 2026-09-02 11:47:21 | 44.20924 | 8.22756 | 162° | 16km/h | 29826m | 4.3m/s | -43.9°C | 2.7% | 0hPa | 2.6V | 00:00:00 | 02:11:15 | 00:00:00 | |
| DB0UT-7 | 2026-09-02 11:47:18 | 44.20932 | 8.22751 | 129° | 18km/h | 29809m | 5.7m/s | -43.9°C | 2.7% | 0hPa | 2.6V | 00:00:00 | 02:11:12 | 00:00:00 | |
| IW2NTF | 2026-09-02 11:47:17 | 44.20952 | 8.22716 | 126° | 27km/h | 29772m | 5.3m/s | -43.9°C | 2.6% | 0hPa | 2.6V | 08:30:00 | 02:11:05 | 00:00:00 | |
| DO3MHA-12 | 2026-09-02 11:47:11 | 44.20952 | 8.22716 | 127° | 16km/h | 29772m | 5.2m/s | -43.9°C | 2.6% | 0hPa | 2.6V | 00:00:00 | 02:11:05 | 00:00:00 | |
| IW2NTF | 2026-09-02 11:47:07 | 44.20979 | 8.22676 | 128° | 9km/h | 29718m | 6.1m/s | -44.2°C | 2.7% | 0hPa | 2.6V | 08:30:00 | 02:10:55 | 00:00:00 | |
| DO3MHA-12 | 2026-09-02 11:47:00 | 44.20980 | 8.22673 | 112° | 22km/h | 29713m | 5.5m/s | -44.2°C | 2.7% | 0hPa | 2.6V | 00:00:00 | 02:10:54 | 00:00:00 | |
| IW2NTF | 2026-09-02 11:46:56 | 44.21023 | 8.22631 | 139° | 15km/h | 29665m | 5.8m/s | -43.8°C | 2.7% | 0hPa | 2.6V | 08:30:00 | 02:10:45 | 00:00:00 | |
| DO3MHA-12 | 2026-09-02 11:46:50 | 44.21025 | 8.22628 | 123° | 11km/h | 29660m | 5.3m/s | -43.7°C | 2.6% | 0hPa | 2.6V | 00:00:00 | 02:10:44 | 00:00:00 | |
| DB0UT-7 | 2026-09-02 11:46:48 | 44.21027 | 8.22623 | 107° | 15km/h | 29649m | 6.1m/s | -43.8°C | 2.6% | 0hPa | 2.6V | 00:00:00 | 00:00:00 | 00:00:00 | |
| IW2NTF | 2026-09-02 11:46:47 | 44.21039 | 8.22599 | 121° | 24km/h | 29609m | 5.5m/s | -43.4°C | 2.6% | 0hPa | 2.6V | 08:30:00 | 02:10:35 | 00:00:00 | |
| DO3MHA-12 | 2026-09-02 11:46:40 | 44.21042 | 8.22591 | 127° | 22km/h | 29603m | 6.2m/s | -43.3°C | 2.6% | 0hPa | 2.7V | 00:00:00 | 02:10:34 | 00:00:00 | |
| IW2NTF | 2026-09-02 11:46:36 | 44.21051 | 8.22535 | 46° | 13km/h | 29552m | 5.8m/s | -43.4°C | 2.5% | 0hPa | 2.7V | 08:30:00 | 02:10:25 | 00:00:00 | |
| DO3MHA-12 | 2026-09-02 11:46:30 | 44.21050 | 8.22531 | 80° | 15km/h | 29547m | 5.6m/s | -43.3°C | 2.5% | 0hPa | 2.7V | 00:00:00 | 02:10:24 | 00:00:00 | |
| IW2NTF | 2026-09-02 11:46:23 | 44.21063 | 8.22475 | 82° | 15km/h | 29499m | 5.9m/s | -43.7°C | 2.6% | 0hPa | 2.7V | 08:30:00 | 02:10:15 | 00:00:00 | |
| IW2NTF | 2026-09-02 11:46:16 | 44.21046 | 8.22407 | 82° | 16km/h | 29443m | 5.1m/s | -43.7°C | 2.6% | 0hPa | 2.6V | 08:30:00 | 02:10:05 | 00:00:00 | |
| IW2NTF | 2026-09-02 11:46:07 | 44.21027 | 8.22359 | 80° | 11km/h | 29387m | 5.3m/s | -44°C | 2.7% | 0hPa | 2.6V | 08:30:00 | 02:09:55 | 00:00:00 | |
| AUTORXJP | 2026-09-02 11:46:05 | 44.21036 | 8.22376 | 48° | 20km/h | 29410m | 5.0m/s | -43.8°C | 0.6% | -1.0hPa | 2.7V | 00:00:00 | 00:00:00 | 00:00:00 | |
| IW2NTF | 2026-09-02 11:45:52 | 44.21021 | 8.22305 | 54° | 15km/h | 29331m | 6.2m/s | -44°C | 2.7% | 0hPa | 2.7V | 08:30:00 | 02:09:45 | 00:00:00 | |
| IW2NTF | 2026-09-02 11:45:47 | 44.20999 | 8.22270 | 85° | 11km/h | 29277m | 4.5m/s | -43.5°C | 2.7% | 0hPa | 2.7V | 08:30:00 | 02:09:35 | 00:00:00 | |
| IW2NTF | 2026-09-02 11:45:37 | 44.20971 | 8.22247 | 155° | 11km/h | 29225m | 5.7m/s | -43.4°C | 2.6% | 0hPa | 2.6V | 08:30:00 | 02:09:25 | 00:00:00 | |
| DB0UT-7 | 2026-09-02 11:45:36 | 44.20979 | 8.22246 | 14° | 9km/h | 29252m | 5.4m/s | -43.5°C | 2.7% | 0hPa | 2.7V | 00:00:00 | 02:09:30 | 08:30:00 | |
| AUTORXJP | 2026-09-02 11:45:34 | 44.20970 | 8.22246 | 343° | 11km/h | 29241m | 5.1m/s | -43.5°C | 0.6% | -1.0hPa | 2.6V | 00:00:00 | 00:00:00 | 00:00:00 | |
| DO3MHA-12 | 2026-09-02 11:45:27 | 44.20977 | 8.22229 | 79° | 11km/h | 29204m | 5.5m/s | -43.2°C | 2.6% | 0hPa | 2.6V | 00:00:00 | 02:09:21 | 08:30:00 | |
| IW2NTF | 2026-09-02 11:45:26 | 44.20964 | 8.22226 | 37° | 4km/h | 29171m | 5.7m/s | -43°C | 2.6% | 0hPa | 2.6V | 08:30:00 | 02:09:15 | 00:00:00 | |
| IW2NTF | 2026-09-02 11:45:18 | 44.20965 | 8.22202 | 50° | 4km/h | 29114m | 6.2m/s | -42.8°C | 2.6% | 0hPa | 2.6V | 08:30:00 | 02:09:05 | 00:00:00 | |
| DO3MHA-12 | 2026-09-02 11:45:07 | 44.20966 | 8.22195 | 144° | 7km/h | 29090m | 7.0m/s | -42.8°C | 2.5% | 0hPa | 2.7V | 00:00:00 | 02:09:01 | 00:00:00 | |
| IW2NTF | 2026-09-02 11:45:06 | 44.20978 | 8.22191 | 149° | 13km/h | 29055m | 4.6m/s | -42.4°C | 2.4% | 0hPa | 2.7V | 08:30:00 | 02:08:55 | 00:00:00 | |
| DB0UT-7 | 2026-09-02 11:45:06 | 44.20967 | 8.22195 | 186° | 9km/h | 29083m | 5.6m/s | -42.6°C | 2.5% | 0hPa | 2.7V | 00:00:00 | 00:00:00 | 00:00:00 | |
| AUTORXJP | 2026-09-02 11:45:03 | 44.20975 | 8.22193 | 151° | 11km/h | 29061m | 5.7m/s | -42.6°C | 0.6% | -1.0hPa | 2.7V | 00:00:00 | 00:00:00 | 00:00:00 | |
| DO3MHA-12 | 2026-09-02 11:44:57 | 44.20982 | 8.22190 | 295° | 5km/h | 29033m | 4.6m/s | -42.5°C | 2.4% | 0hPa | 2.7V | 00:00:00 | 02:08:51 | 00:00:00 | |
| IW2NTF | 2026-09-02 11:44:56 | 44.20983 | 8.22186 | 145° | 7km/h | 29001m | 5.2m/s | -43°C | 2.5% | 0hPa | 2.6V | 08:30:00 | 02:08:45 | 00:00:00 | |
| IW2NTF | 2026-09-02 11:44:47 | 44.21006 | 8.22191 | 171° | 13km/h | 28947m | 5.8m/s | -43.3°C | 2.4% | 0hPa | 2.7V | 08:30:00 | 02:08:35 | 00:00:00 | |
| DO3MHA-12 | 2026-09-02 11:44:47 | 44.20990 | 8.22191 | 233° | 11km/h | 28979m | 5.2m/s | -42.9°C | 2.5% | 0hPa | 2.7V | 00:00:00 | 02:08:41 | 00:00:00 | |
| DO3MHA-12 | 2026-09-02 11:44:37 | 44.21014 | 8.22197 | 232° | 9km/h | 28926m | 4.4m/s | -43.4°C | 2.5% | 0hPa | 2.7V | 00:00:00 | 02:08:31 | 00:00:00 | |
| IW2NTF | 2026-09-02 11:44:36 | 44.21016 | 8.22181 | 73° | 9km/h | 28894m | 5.8m/s | -44°C | 2.6% | 0hPa | 2.7V | 08:30:00 | 02:08:25 | 00:00:00 | |
| DB0UT-7 | 2026-09-02 11:44:36 | 44.21015 | 8.22197 | 189° | 13km/h | 28921m | 5.0m/s | -43.5°C | 2.5% | 0hPa | 2.7V | 00:00:00 | 02:08:30 | 00:00:00 | |
| AUTORXJP | 2026-09-02 11:44:32 | 44.21016 | 8.22181 | 73° | 9km/h | 28894m | 5.8m/s | -44.0°C | 0.6% | -1.0hPa | 2.7V | 00:00:00 | 00:00:00 | 00:00:00 | |
| DO3MHA-12 | 2026-09-02 11:44:27 | 44.21009 | 8.22181 | 327° | 9km/h | 28872m | 5.1m/s | -44.2°C | 2.6% | 0hPa | 2.7V | 00:00:00 | 02:08:21 | 00:00:00 | |
| IW2NTF | 2026-09-02 11:44:26 | 44.21004 | 8.22179 | 44° | 5km/h | 28838m | 5.8m/s | -44.6°C | 2.6% | 0hPa | 2.7V | 08:30:00 | 02:08:15 | 00:00:00 | |
| DO3MHA-12 | 2026-09-02 11:44:17 | 44.20989 | 8.22172 | 22° | 22km/h | 28818m | 6.5m/s | -44.6°C | 2.6% | 0hPa | 2.7V | 00:00:00 | 02:08:11 | 00:00:00 | |
| IW2NTF | 2026-09-02 11:44:16 | 44.20949 | 8.22164 | 341° | 16km/h | 28785m | 5m/s | -45°C | 2.7% | 0hPa | 2.7V | 08:30:00 | 02:08:05 | 00:00:00 | |
| DO3MHA-12 | 2026-09-02 11:44:07 | 44.20942 | 8.22161 | 82° | 18km/h | 28763m | 4.7m/s | -45.2°C | 2.8% | 0hPa | 2.6V | 00:00:00 | 02:08:01 | 00:00:00 | |
| IW2NTF | 2026-09-02 11:44:06 | 44.20925 | 8.22139 | 26° | 27km/h | 28731m | 6.1m/s | -45.4°C | 2.8% | 0hPa | 2.6V | 08:30:00 | 02:07:55 | 00:00:00 | |
| DB0UT-7 | 2026-09-02 11:44:06 | 44.20942 | 8.22157 | 81° | 18km/h | 28758m | 5.5m/s | -45.2°C | 2.8% | 0hPa | 2.7V | 00:00:00 | 00:00:00 | 00:00:00 | |
| AUTORXJP | 2026-09-02 11:44:01 | 44.20919 | 8.22135 | 22° | 29km/h | 28726m | 4.7m/s | -45.3°C | 0.6% | -1.0hPa | 2.6V | 00:00:00 | 00:00:00 | 00:00:00 | |
| DO3MHA-12 | 2026-09-02 11:43:57 | 44.20900 | 8.22130 | 351° | 15km/h | 28710m | 5.9m/s | -45.3°C | 2.8% | 0hPa | 2.6V | 00:00:00 | 02:07:51 | 08:30:00 | |
| IW2NTF | 2026-09-02 11:43:52 | 44.20890 | 8.22124 | 63° | 18km/h | 28679m | 4.3m/s | -45.4°C | 2.9% | 0hPa | 2.7V | 08:30:00 | 02:07:45 | 00:00:00 | |
| DO3MHA-12 | 2026-09-02 11:43:47 | 44.20875 | 8.22108 | 13° | 18km/h | 28659m | 4.9m/s | -45.4°C | 2.9% | 0hPa | 2.6V | 00:00:00 | 02:07:41 | 00:00:00 | |
| IW2NTF | 2026-09-02 11:43:45 | 44.20840 | 8.22104 | 358° | 20km/h | 28628m | 5.6m/s | -45.4°C | 2.8% | 0hPa | 2.6V | 08:30:00 | 02:07:35 | 00:00:00 | |
| DB0UT-7 | 2026-09-02 11:43:36 | 44.20823 | 8.22102 | 45° | 29km/h | 28602m | 5.4m/s | -45.3°C | 2.8% | 0hPa | 2.6V | 00:00:00 | 02:07:30 | 00:00:00 | |
| IW2NTF | 2026-09-02 11:43:35 | 44.20799 | 8.22087 | 357° | 27km/h | 28576m | 5m/s | -45.7°C | 2.9% | 0hPa | 2.6V | 08:30:00 | 02:07:25 | 00:00:00 | |
| DO3MHA-12 | 2026-09-02 11:43:35 | 44.20820 | 8.22097 | 46° | 26km/h | 28597m | 4.5m/s | -45.3°C | 2.8% | 0hPa | 2.6V | 00:00:00 | 02:07:29 | 00:00:00 | |
| IW2NTF | 2026-09-02 11:43:25 | 44.20726 | 8.22081 | 22° | 27km/h | 28522m | 6.2m/s | -45.5°C | 2.9% | 0hPa | 2.6V | 08:30:00 | 02:07:15 | 00:00:00 | |
| DO3MHA-12 | 2026-09-02 11:43:25 | 44.20752 | 8.22087 | 1° | 29km/h | 28544m | 5.8m/s | -45.6°C | 2.9% | 0hPa | 2.6V | 00:00:00 | 02:07:19 | 00:00:00 | |
| IW2NTF | 2026-09-02 11:43:15 | 44.20649 | 8.22071 | 356° | 31km/h | 28469m | 4.9m/s | -45.3°C | 2.8% | 0hPa | 2.6V | 08:30:00 | 02:07:05 | 00:00:00 | |
| DO3MHA-12 | 2026-09-02 11:43:06 | 44.20611 | 8.22070 | 19° | 29km/h | 28443m | 5.8m/s | -45.3°C | 2.9% | 0hPa | 2.7V | 00:00:00 | 02:07:00 | 00:00:00 | |
| IW2NTF | 2026-09-02 11:43:05 | 44.20578 | 8.22061 | 340° | 26km/h | 28417m | 5.3m/s | -45.3°C | 2.9% | 0hPa | 2.7V | 08:30:00 | 02:06:55 | 00:00:00 | |
| AUTORXJP | 2026-09-02 11:42:59 | 44.20560 | 8.22073 | 338° | 26km/h | 28402m | 5.1m/s | -45.2°C | 0.7% | -1.0hPa | 2.7V | 00:00:00 | 00:00:00 | 00:00:00 | |
| DO3MHA-12 | 2026-09-02 11:42:56 | 44.20546 | 8.22077 | 353° | 27km/h | 28392m | 4.5m/s | -45.0°C | 2.8% | 0hPa | 2.7V | 00:00:00 | 02:06:50 | 00:00:00 | |
| IW2NTF | 2026-09-02 11:42:55 | 44.20505 | 8.22082 | 355° | 29km/h | 28367m | 4.5m/s | -45.2°C | 2.8% | 0hPa | 2.7V | 08:30:00 | 02:06:45 | 00:00:00 | |
| DO3MHA-12 | 2026-09-02 11:42:46 | 44.20475 | 8.22085 | 342° | 38km/h | 28343m | 5.4m/s | -45.1°C | 2.7% | 0hPa | 2.7V | 00:00:00 | 02:06:40 | 00:00:00 | |
| IW2NTF | 2026-09-02 11:42:45 | 44.20425 | 8.22113 | 345° | 49km/h | 28317m | 5.2m/s | -45.3°C | 2.7% | 0hPa | 2.7V | 08:30:00 | 02:06:35 | 00:00:00 | |
| DO3MHA-12 | 2026-09-02 11:42:36 | 44.20379 | 8.22122 | 345° | 44km/h | 28292m | 5.6m/s | -45.7°C | 2.8% | 0hPa | 2.7V | 00:00:00 | 02:06:30 | 00:00:00 | |
| IW2NTF | 2026-09-02 11:42:35 | 44.20327 | 8.22150 | 342° | 49km/h | 28260m | 4.7m/s | -46.3°C | 3% | 0hPa | 2.7V | 08:30:00 | 02:06:24 | 00:00:00 | |
| AUTORXJP | 2026-09-02 11:42:27 | 44.20287 | 8.22171 | 335° | 60km/h | 28245m | 5.4m/s | -46.4°C | 0.7% | -1.0hPa | 2.6V | 00:00:00 | 00:00:00 | 00:00:00 | |
| DO3MHA-12 | 2026-09-02 11:42:26 | 44.20273 | 8.22180 | 336° | 37km/h | 28240m | 3.6m/s | -46.4°C | 2.9% | 0hPa | 2.6V | 00:00:00 | 02:06:20 | 00:00:00 | |
| IW2NTF | 2026-09-02 11:42:25 | 44.20217 | 8.22198 | 359° | 22km/h | 28210m | 5.2m/s | -46.8°C | 3.1% | 0hPa | 2.6V | 08:30:00 | 02:06:14 | 00:00:00 | |
| DO3MHA-12 | 2026-09-02 11:42:16 | 44.20190 | 8.22213 | 331° | 37km/h | 28190m | 5.5m/s | -46.4°C | 3.1% | 0hPa | 2.7V | 00:00:00 | 02:06:10 | 08:30:00 | |
| IW2NTF | 2026-09-02 11:42:15 | 44.20135 | 8.22254 | 324° | 38km/h | 28159m | 5.9m/s | -46.6°C | 3% | 0hPa | 2.7V | 08:30:00 | 02:06:04 | 00:00:00 | |
| DO3MHA-12 | 2026-09-02 11:42:06 | 44.20110 | 8.22276 | 344° | 27km/h | 28139m | 6.4m/s | -46.6°C | 3.1% | 0hPa | 2.7V | 00:00:00 | 02:06:00 | 00:00:00 | |
| IW2NTF | 2026-09-02 11:42:05 | 44.20078 | 8.22293 | 314° | 33km/h | 28107m | 4.6m/s | -46.4°C | 3% | 0hPa | 2.7V | 08:30:00 | 02:05:54 | 00:00:00 | |
| DO3MHA-12 | 2026-09-02 11:41:56 | 44.20054 | 8.22325 | 322° | 18km/h | 28086m | 5.1m/s | -46.3°C | 3.0% | 0hPa | 2.7V | 00:00:00 | 02:05:50 | 00:00:00 | |
| IW2NTF | 2026-09-02 11:41:55 | 44.20034 | 8.22352 | 311° | 15km/h | 28055m | 4.8m/s | -46.2°C | 3% | 0hPa | 2.7V | 08:30:00 | 02:05:44 | 00:00:00 | |
| DO3MHA-12 | 2026-09-02 11:41:46 | 44.20020 | 8.22363 | 328° | 18km/h | 28033m | 5.6m/s | -46.0°C | 2.9% | 0hPa | 2.6V | 00:00:00 | 02:05:40 | 00:00:00 | |
| IW2NTF | 2026-09-02 11:41:45 | 44.19998 | 8.22398 | 318° | 15km/h | 28000m | 4.8m/s | -46°C | 2.9% | 0hPa | 2.6V | 08:30:00 | 02:05:34 | 00:00:00 | |
| DO3MHA-12 | 2026-09-02 11:41:36 | 44.19989 | 8.22410 | 307° | 16km/h | 27980m | 5.1m/s | -45.8°C | 3.0% | 0hPa | 2.6V | 00:00:00 | 02:05:30 | 00:00:00 | |
| IW2NTF | 2026-09-02 11:41:35 | 44.19970 | 8.22427 | 326° | 16km/h | 27948m | 4.8m/s | -46°C | 2.9% | 0hPa | 2.6V | 08:30:00 | 02:05:24 | 00:00:00 | |
| IW2NTF | 2026-09-02 11:41:26 | 44.19965 | 8.22453 | 267° | 2km/h | 27893m | 5.4m/s | -46°C | 3% | 0hPa | 2.6V | 08:30:00 | 02:05:14 | 00:00:00 | |
| AUTORXJP | 2026-09-02 11:41:26 | 44.19964 | 8.22451 | 265° | 9km/h | 27921m | 6.1m/s | -46.0°C | 0.7% | -1.0hPa | 2.7V | 00:00:00 | 00:00:00 | 00:00:00 | |
| DO3MHA-12 | 2026-09-02 11:41:16 | 44.19962 | 8.22457 | 354° | 7km/h | 27872m | 6.1m/s | -45.9°C | 3.0% | 0hPa | 2.7V | 00:00:00 | 02:05:10 | 00:00:00 | |
| IW2NTF | 2026-09-02 11:41:12 | 44.19954 | 8.22467 | 297° | 7km/h | 27840m | 5.4m/s | -46°C | 3% | 0hPa | 2.6V | 08:30:00 | 02:05:04 | 00:00:00 | |
| DO3MHA-12 | 2026-09-02 11:41:07 | 44.19950 | 8.22467 | 41° | 5km/h | 27817m | 5.7m/s | -45.8°C | 2.9% | 0hPa | 2.6V | 00:00:00 | 02:05:00 | 00:00:00 | |
| IW2NTF | 2026-09-02 11:41:06 | 44.19949 | 8.22462 | 87° | 0km/h | 27784m | 4.4m/s | -45.6°C | 2.9% | 0hPa | 2.6V | 08:30:00 | 02:04:54 | 00:00:00 | |
| AUTORXJP | 2026-09-02 11:40:54 | 44.19950 | 8.22484 | 272° | 9km/h | 27751m | 5.4m/s | -45.3°C | 0.7% | -1.0hPa | 2.7V | 00:00:00 | 00:00:00 | 00:00:00 | |
| IW2NTF | 2026-09-02 11:40:51 | 44.19948 | 8.22496 | 292° | 11km/h | 27729m | 5.9m/s | -45.3°C | 2.8% | 0hPa | 2.7V | 08:30:00 | 02:04:44 | 00:00:00 | |
| DO3MHA-12 | 2026-09-02 11:40:46 | 44.19941 | 8.22506 | 337° | 13km/h | 27708m | 5.4m/s | -45.5°C | 2.8% | 0hPa | 2.7V | 00:00:00 | 02:04:40 | 08:30:00 | |
| IW2NTF | 2026-09-02 11:40:42 | 44.19939 | 8.22533 | 259° | 18km/h | 27675m | 5.8m/s | -45.5°C | 2.8% | 0hPa | 2.7V | 08:30:00 | 02:04:34 | 00:00:00 | |
| DO3MHA-12 | 2026-09-02 11:40:36 | 44.19939 | 8.22551 | 284° | 16km/h | 27654m | 5.0m/s | -45.3°C | 2.8% | 0hPa | 2.6V | 00:00:00 | 02:04:30 | 00:00:00 | |
| IW2NTF | 2026-09-02 11:40:31 | 44.19937 | 8.22586 | 270° | 16km/h | 27620m | 5.8m/s | -45.4°C | 2.9% | 0hPa | 2.6V | 08:30:00 | 02:04:24 | 00:00:00 | |
| DO3MHA-12 | 2026-09-02 11:40:26 | 44.19936 | 8.22610 | 273° | 15km/h | 27598m | 5.5m/s | -45.5°C | 2.8% | 0hPa | 2.7V | 00:00:00 | 02:04:20 | 00:00:00 | |
| AUTORXJP | 2026-09-02 11:40:23 | 44.19935 | 8.22631 | 278° | 15km/h | 27582m | 6.5m/s | -45.5°C | 0.7% | -1.0hPa | 2.7V | 00:00:00 | 00:00:00 | 00:00:00 | |
| IW2NTF | 2026-09-02 11:40:22 | 44.19933 | 8.22641 | 290° | 9km/h | 27566m | 4.5m/s | -45.6°C | 2.8% | 0hPa | 2.7V | 08:30:00 | 02:04:14 | 00:00:00 | |
| DO3MHA-12 | 2026-09-02 11:40:16 | 44.19930 | 8.22663 | 281° | 11km/h | 27545m | 4.2m/s | -45.6°C | 2.9% | 0hPa | 2.6V | 00:00:00 | 02:04:10 | 00:00:00 | |
| IW2NTF | 2026-09-02 11:40:11 | 44.19928 | 8.22688 | 249° | 9km/h | 27511m | 5.7m/s | -45.8°C | 2.9% | 0hPa | 2.7V | 08:30:00 | 02:04:04 | 00:00:00 | |
| DO3MHA-12 | 2026-09-02 11:40:06 | 44.19932 | 8.22696 | 223° | 7km/h | 27490m | 6.0m/s | -45.9°C | 2.9% | 0hPa | 2.6V | 00:00:00 | 02:04:00 | 00:00:00 | |
| IW2NTF | 2026-09-02 11:40:01 | 44.19928 | 8.22713 | 296° | 13km/h | 27457m | 4.6m/s | -45.8°C | 2.9% | 0hPa | 2.6V | 08:30:00 | 02:03:54 | 00:00:00 | |
| AUTORXJP | 2026-09-02 11:39:52 | 44.19930 | 8.22710 | 229° | 9km/h | 27413m | 5.2m/s | -46.2°C | 0.7% | -1.0hPa | 2.7V | 00:00:00 | 00:00:00 | 00:00:00 | |
| IW2NTF | 2026-09-02 11:39:51 | 44.19933 | 8.22717 | 248° | 11km/h | 27402m | 6.1m/s | -46.2°C | 2.9% | 0hPa | 2.7V | 08:30:00 | 02:03:44 | 00:00:00 | |
| DO3MHA-12 | 2026-09-02 11:39:46 | 44.19932 | 8.22729 | 282° | 9km/h | 27382m | 5.1m/s | -46.3°C | 2.9% | 0hPa | 2.7V | 00:00:00 | 02:03:40 | 00:00:00 | |
| IW2NTF | 2026-09-02 11:39:41 | 44.19928 | 8.22747 | 30° | 5km/h | 27348m | 5.7m/s | -46.5°C | 2.9% | 0hPa | 2.7V | 08:30:00 | 02:03:34 | 00:00:00 | |
| DO3MHA-12 | 2026-09-02 11:39:36 | 44.19924 | 8.22743 | 302° | 7km/h | 27327m | 5.2m/s | -46.8°C | 3.0% | 0hPa | 2.6V | 00:00:00 | 02:03:30 | 00:00:00 | |
| DB0UT-7 | 2026-09-02 11:39:33 | 44.19922 | 8.22747 | 329° | 11km/h | 27310m | 5.5m/s | -46.8°C | 3.0% | 0hPa | 2.6V | 00:00:00 | 02:03:27 | 00:00:00 | |
| IW2NTF | 2026-09-02 11:39:31 | 44.19918 | 8.22749 | 319° | 5km/h | 27295m | 5.6m/s | -47°C | 3.1% | 0hPa | 2.7V | 08:30:00 | 02:03:24 | 00:00:00 | |
| DO3MHA-12 | 2026-09-02 11:39:26 | 44.19912 | 8.22761 | 316° | 11km/h | 27274m | 6.2m/s | -47.0°C | 3.1% | 0hPa | 2.6V | 00:00:00 | 02:03:20 | 00:00:00 | |
| IW2NTF | 2026-09-02 11:39:22 | 44.19894 | 8.22779 | 309° | 11km/h | 27234m | 4.6m/s | -47.2°C | 3% | 0hPa | 2.6V | 08:30:00 | 02:03:13 | 00:00:00 | |
| AUTORXJP | 2026-09-02 11:39:21 | 44.19899 | 8.22773 | 314° | 13km/h | 27245m | 5.8m/s | -47.1°C | 0.7% | -1.0hPa | 2.7V | 00:00:00 | 00:00:00 | 00:00:00 | |
| DO3MHA-12 | 2026-09-02 11:39:16 | 44.19889 | 8.22784 | 333° | 15km/h | 27218m | 4.8m/s | -47.2°C | 3.0% | 0hPa | 2.7V | 00:00:00 | 02:03:10 | 08:30:00 | |
| IW2NTF | 2026-09-02 11:39:11 | 44.19873 | 8.22817 | 319° | 15km/h | 27179m | 5.1m/s | -47.4°C | 3.1% | 0hPa | 2.7V | 08:30:00 | 02:03:03 | 00:00:00 | |
| DO3MHA-12 | 2026-09-02 11:39:06 | 44.19866 | 8.22824 | 316° | 9km/h | 27165m | 5.7m/s | -47.5°C | 3.2% | 0hPa | 2.7V | 00:00:00 | 02:03:00 | 00:00:00 | |
| DB0UT-7 | 2026-09-02 11:39:03 | 44.19862 | 8.22834 | 298° | 7km/h | 27149m | 5.0m/s | -47.6°C | 3.2% | 0hPa | 2.7V | 00:00:00 | 00:00:00 | 00:00:00 | |
| IW2NTF | 2026-09-02 11:39:01 | 44.19853 | 8.22842 | 339° | 11km/h | 27126m | 4.8m/s | -47.6°C | 3.2% | 0hPa | 2.7V | 08:30:00 | 02:02:53 | 00:00:00 | |
| IW2NTF | 2026-09-02 11:38:51 | 44.19843 | 8.22863 | 265° | 7km/h | 27072m | 5.2m/s | -47.5°C | 3.1% | 0hPa | 2.7V | 08:30:00 | 02:02:43 | 00:00:00 | |
| AUTORXJP | 2026-09-02 11:38:50 | 44.19843 | 8.22861 | 280° | 5km/h | 27078m | 6.1m/s | -47.5°C | 0.8% | -1.0hPa | 2.6V | 00:00:00 | 00:00:00 | 00:00:00 | |
| DO3MHA-12 | 2026-09-02 11:38:47 | 44.19843 | 8.22868 | 276° | 4km/h | 27063m | 4.9m/s | -47.5°C | 3.1% | 0hPa | 2.6V | 00:00:00 | 02:02:41 | 00:00:00 | |
| IW2NTF | 2026-09-02 11:38:41 | 44.19843 | 8.22864 | 187° | 4km/h | 27018m | 5.6m/s | -47.7°C | 3.2% | 0hPa | 2.6V | 08:30:00 | 02:02:33 | 00:00:00 | |
| DO3MHA-12 | 2026-09-02 11:38:37 | 44.19843 | 8.22865 | 283° | 11km/h | 27008m | 4.7m/s | -47.7°C | 3.2% | 0hPa | 2.6V | 00:00:00 | 02:02:31 | 00:00:00 | |
| DB0UT-7 | 2026-09-02 11:38:33 | 44.19843 | 8.22877 | 266° | 11km/h | 26986m | 4.9m/s | -47.6°C | 3.2% | 0hPa | 2.7V | 00:00:00 | 02:02:27 | 00:00:00 | |
| IW2NTF | 2026-09-02 11:38:32 | 44.19838 | 8.22894 | 318° | 15km/h | 26964m | 4.9m/s | -47.5°C | 3.2% | 0hPa | 2.7V | 08:30:00 | 02:02:23 | 00:00:00 | |
| DO3MHA-12 | 2026-09-02 11:38:25 | 44.19830 | 8.22912 | 283° | 9km/h | 26938m | 5.3m/s | -47.4°C | 3.2% | 0hPa | 2.6V | 00:00:00 | 02:02:18 | 00:00:00 | |
| IW2NTF | 2026-09-02 11:38:21 | 44.19828 | 8.22926 | 246° | 9km/h | 26912m | 6.5m/s | -47.4°C | 3.2% | 0hPa | 2.6V | 08:30:00 | 02:02:13 | 00:00:00 | |
| AUTORXJP | 2026-09-02 11:38:19 | 44.19828 | 8.22926 | 246° | 9km/h | 26912m | 6.5m/s | -47.4°C | 0.8% | -1.0hPa | 2.7V | 00:00:00 | 00:00:00 | 00:00:00 | |
| DO3MHA-12 | 2026-09-02 11:38:13 | 44.19830 | 8.22945 | 308° | 11km/h | 26881m | 4.2m/s | -47.3°C | 3.2% | 0hPa | 2.7V | 00:00:00 | 02:02:07 | 00:00:00 | |
| IW2NTF | 2026-09-02 11:38:12 | 44.19826 | 8.22969 | 253° | 5km/h | 26849m | 6.1m/s | -47.1°C | 3.1% | 0hPa | 2.7V | 08:30:00 | 02:02:01 | 00:00:00 | |
| DB0UT-7 | 2026-09-02 11:38:03 | 44.19831 | 8.22970 | 185° | 7km/h | 26828m | 5.8m/s | -47.0°C | 3.1% | 0hPa | 2.7V | 00:00:00 | 00:00:00 | 00:00:00 | |
| IW2NTF | 2026-09-02 11:38:01 | 44.19836 | 8.22976 | 285° | 5km/h | 26796m | 4.5m/s | -46.9°C | 3.1% | 0hPa | 2.6V | 08:30:00 | 02:01:51 | 00:00:00 | |
| IW2NTF | 2026-09-02 11:37:51 | 44.19841 | 8.22985 | 143° | 7km/h | 26744m | 5.2m/s | -46.8°C | 3.1% | 0hPa | 2.6V | 08:30:00 | 02:01:41 | 00:00:00 | |
| AUTORXJP | 2026-09-02 11:37:48 | 44.19841 | 8.22984 | 143° | 7km/h | 26744m | 5.2m/s | -46.8°C | 0.8% | -1.0hPa | 2.7V | 00:00:00 | 00:00:00 | 00:00:00 | |
| IW2NTF | 2026-09-02 11:37:42 | 44.19854 | 8.22982 | 146° | 7km/h | 26690m | 5.8m/s | -46.5°C | 3.1% | 0hPa | 2.7V | 08:30:00 | 02:01:31 | 00:00:00 | |
| DB0UT-7 | 2026-09-02 11:37:33 | 44.19856 | 8.22975 | 128° | 9km/h | 26669m | 6.1m/s | -46.3°C | 3.0% | 0hPa | 2.7V | 00:00:00 | 02:01:27 | 00:00:00 | |
| IW2NTF | 2026-09-02 11:37:31 | 44.19863 | 8.22972 | 98° | 4km/h | 26637m | 4.8m/s | -46°C | 2.9% | 0hPa | 2.7V | 08:30:00 | 02:01:21 | 00:00:00 | |
| IW2NTF | 2026-09-02 11:37:22 | 44.19878 | 8.22953 | 170° | 13km/h | 26585m | 5.1m/s | -46.4°C | 3% | 0hPa | 2.6V | 08:30:00 | 02:01:11 | 00:00:00 | |
| AUTORXJP | 2026-09-02 11:37:17 | 44.19881 | 8.22952 | 176° | 13km/h | 26581m | 4.2m/s | -46.4°C | 0.8% | -1.0hPa | 2.7V | 00:00:00 | 00:00:00 | 00:00:00 | |
| IW2NTF | 2026-09-02 11:37:11 | 44.19889 | 8.22924 | 139° | 20km/h | 26536m | 4.7m/s | -46.7°C | 3% | 0hPa | 2.7V | 08:30:00 | 02:01:01 | 00:00:00 | |
| DB0UT-7 | 2026-09-02 11:37:03 | 44.19905 | 8.22914 | 174° | 13km/h | 26516m | 5.1m/s | -46.7°C | 3.0% | 0hPa | 2.7V | 00:00:00 | 00:00:00 | 00:00:00 | |
| IW2NTF | 2026-09-02 11:37:00 | 44.19914 | 8.22897 | 98° | 13km/h | 26485m | 5.1m/s | -46.9°C | 3% | 0hPa | 2.7V | 08:30:00 | 02:00:51 | 00:00:00 | |
| IW2NTF | 2026-09-02 11:36:52 | 44.19939 | 8.22882 | 133° | 5km/h | 26433m | 5.1m/s | -46.8°C | 3% | 0hPa | 2.6V | 08:30:00 | 02:00:41 | 00:00:00 | |
| AUTORXJP | 2026-09-02 11:36:46 | 44.19940 | 8.22877 | 80° | 9km/h | 26422m | 6.1m/s | -46.7°C | 0.8% | -1.0hPa | 2.7V | 00:00:00 | 00:00:00 | 00:00:00 | |
| IW2NTF | 2026-09-02 11:36:41 | 44.19940 | 8.22852 | 165° | 16km/h | 26381m | 6.3m/s | -46.8°C | 3.1% | 0hPa | 2.7V | 08:30:00 | 02:00:31 | 00:00:00 | |
| DB0UT-7 | 2026-09-02 11:36:33 | 44.19956 | 8.22849 | 186° | 7km/h | 26362m | 5.7m/s | -46.7°C | 3.1% | 0hPa | 2.7V | 00:00:00 | 02:00:27 | 08:30:00 | |
| IW2NTF | 2026-09-02 11:36:31 | 44.19950 | 8.22846 | 69° | 5km/h | 26330m | 4.4m/s | -46.8°C | 3% | 0hPa | 2.7V | 08:30:00 | 02:00:21 | 00:00:00 | |
| IW2NTF | 2026-09-02 11:36:21 | 44.19965 | 8.22855 | 170° | 9km/h | 26281m | 3.7m/s | -47.1°C | 3.1% | 0hPa | 2.6V | 08:30:00 | 02:00:11 | 00:00:00 | |
| AUTORXJP | 2026-09-02 11:36:15 | 44.19967 | 8.22852 | 15° | 5km/h | 26265m | 5.6m/s | -47.1°C | 0.8% | -1.0hPa | 2.7V | 00:00:00 | 00:00:00 | 00:00:00 | |
| IW2NTF | 2026-09-02 11:36:11 | 44.19966 | 8.22851 | 228° | 11km/h | 26228m | 5.7m/s | -47.1°C | 3.1% | 0hPa | 2.7V | 08:30:00 | 02:00:01 | 00:00:00 | |
| DB0UT-7 | 2026-09-02 11:36:03 | 44.19976 | 8.22863 | 199° | 9km/h | 26208m | 4.6m/s | -46.9°C | 3.0% | 0hPa | 2.7V | 00:00:00 | 00:00:00 | 00:00:00 | |
| IW2NTF | 2026-09-02 11:36:02 | 44.19969 | 8.22857 | 30° | 18km/h | 26175m | 5.7m/s | -47.4°C | 3% | 0hPa | 2.7V | 08:30:00 | 01:59:51 | 00:00:00 | |
| IW2NTF | 2026-09-02 11:35:51 | 44.19978 | 8.22863 | 198° | 7km/h | 26125m | 3.5m/s | -47.8°C | 3.2% | 0hPa | 2.6V | 08:30:00 | 01:59:41 | 00:00:00 | |
| DO3MHA-12 | 2026-09-02 11:35:47 | 44.19978 | 8.22863 | 199° | 11km/h | 26125m | 3.5m/s | -47.7°C | 3.2% | 0hPa | 2.6V | 00:00:00 | 01:59:41 | 00:00:00 | |
| AUTORXJP | 2026-09-02 11:35:43 | 44.19975 | 8.22862 | 21° | 13km/h | 26104m | 4.6m/s | -47.9°C | 0.8% | -1.0hPa | 2.7V | 00:00:00 | 00:00:00 | 00:00:00 | |
| IW2NTF | 2026-09-02 11:35:41 | 44.19965 | 8.22840 | 127° | 5km/h | 26074m | 6.4m/s | -47.9°C | 3.2% | 0hPa | 2.7V | 08:30:00 | 01:59:31 | 00:00:00 | |
| DO3MHA-12 | 2026-09-02 11:35:37 | 44.19965 | 8.22840 | 128° | 9km/h | 26074m | 6.4m/s | -47.8°C | 3.2% | 0hPa | 2.7V | 00:00:00 | 01:59:31 | 00:00:00 | |
| DB0UT-7 | 2026-09-02 11:35:33 | 44.19970 | 8.22844 | 223° | 9km/h | 26052m | 5.3m/s | -47.8°C | 3.2% | 0hPa | 2.7V | 00:00:00 | 01:59:27 | 00:00:00 | |
| IW2NTF | 2026-09-02 11:35:32 | 44.19956 | 8.22838 | 25° | 18km/h | 26021m | 5.3m/s | -47.9°C | 3.1% | 0hPa | 2.7V | 08:30:00 | 01:59:21 | 00:00:00 | |
| DO3MHA-12 | 2026-09-02 11:35:27 | 44.19956 | 8.22838 | 26° | 9km/h | 26021m | 5.3m/s | -47.9°C | 3.1% | 0hPa | 2.6V | 00:00:00 | 01:59:21 | 00:00:00 | |
| IW2NTF | 2026-09-02 11:35:21 | 44.19947 | 8.22844 | 22° | 2km/h | 25971m | 4.7m/s | -48°C | 3.1% | 0hPa | 2.6V | 08:30:00 | 01:59:11 | 00:00:00 | |
| DO3MHA-12 | 2026-09-02 11:35:17 | 44.19947 | 8.22843 | 23° | 9km/h | 25972m | 4.6m/s | -47.9°C | 3.1% | 0hPa | 2.6V | 00:00:00 | 01:59:11 | 08:30:00 | |
| IW2NTF | 2026-09-02 11:35:12 | 44.19927 | 8.22832 | 283° | 5km/h | 25921m | 6m/s | -48.2°C | 3.2% | 0hPa | 2.7V | 08:30:00 | 01:59:01 | 00:00:00 | |
| DO3MHA-12 | 2026-09-02 11:35:07 | 44.19927 | 8.22832 | 284° | 5km/h | 25921m | 6.0m/s | -48.2°C | 3.2% | 0hPa | 2.7V | 00:00:00 | 01:59:01 | 00:00:00 | |
| DB0UT-7 | 2026-09-02 11:35:03 | 44.19926 | 8.22843 | 250° | 11km/h | 25901m | 5.3m/s | -48.4°C | 3.2% | 0hPa | 2.7V | 00:00:00 | 00:00:00 | 00:00:00 | |
| IW2NTF | 2026-09-02 11:35:01 | 44.19930 | 8.22845 | 355° | 5km/h | 25871m | 4.4m/s | -48.6°C | 3.3% | 0hPa | 2.7V | 08:30:00 | 01:58:51 | 00:00:00 | |
| DO3MHA-12 | 2026-09-02 11:34:57 | 44.19929 | 8.22845 | 356° | 9km/h | 25871m | 4.4m/s | -48.6°C | 3.3% | 0hPa | 2.6V | 00:00:00 | 01:58:51 | 00:00:00 | |
| IW2NTF | 2026-09-02 11:34:52 | 44.19915 | 8.22827 | 123° | 15km/h | 25818m | 4.6m/s | -49°C | 3.4% | 0hPa | 2.6V | 08:30:00 | 01:58:41 | 00:00:00 | |
| DO3MHA-12 | 2026-09-02 11:34:47 | 44.19914 | 8.22827 | 124° | 11km/h | 25818m | 4.5m/s | -48.9°C | 3.4% | 0hPa | 2.6V | 00:00:00 | 01:58:41 | 00:00:00 | |
| IW2NTF | 2026-09-02 11:34:41 | 44.19921 | 8.22790 | 81° | 22km/h | 25767m | 5.6m/s | -49.1°C | 3.3% | 0hPa | 2.7V | 08:30:00 | 01:58:31 | 00:00:00 | |
| AUTORXJP | 2026-09-02 11:34:41 | 44.19924 | 8.22813 | 86° | 7km/h | 25789m | 4.6m/s | -49.2°C | 0.9% | -1.0hPa | 2.7V | 00:00:00 | 00:00:00 | 00:00:00 | |
| DO3MHA-12 | 2026-09-02 11:34:37 | 44.19921 | 8.22790 | 82° | 16km/h | 25768m | 5.6m/s | -49.0°C | 3.3% | 0hPa | 2.7V | 00:00:00 | 01:58:31 | 00:00:00 | |
| DB0UT-7 | 2026-09-02 11:34:33 | 44.19921 | 8.22762 | 106° | 16km/h | 25747m | 6.1m/s | -49.0°C | 3.4% | 0hPa | 2.7V | 00:00:00 | 01:58:27 | 00:00:00 | |
| IW2NTF | 2026-09-02 11:34:31 | 44.19919 | 8.22738 | 23° | 16km/h | 25718m | 4.2m/s | -49°C | 3.4% | 0hPa | 2.7V | 08:30:00 | 01:58:21 | 00:00:00 | |
| DO3MHA-12 | 2026-09-02 11:34:27 | 44.19919 | 8.22738 | 24° | 16km/h | 25718m | 4.2m/s | -48.9°C | 3.4% | 0hPa | 2.6V | 00:00:00 | 01:58:21 | 00:00:00 | |
| IW2NTF | 2026-09-02 11:34:21 | 44.19906 | 8.22688 | 68° | 13km/h | 25669m | 5.3m/s | -49.1°C | 3.4% | 0hPa | 2.6V | 08:30:00 | 01:58:11 | 00:00:00 | |
| IW2NTF | 2026-09-02 11:34:11 | 44.19867 | 8.22644 | 48° | 16km/h | 25618m | 5.1m/s | -48.9°C | 3.4% | 0hPa | 2.7V | 08:30:00 | 01:58:01 | 00:00:00 | |
| AUTORXJP | 2026-09-02 11:34:10 | 44.19879 | 8.22652 | 17° | 20km/h | 25634m | 4.5m/s | -49.0°C | 0.9% | -1.0hPa | 2.7V | 00:00:00 | 00:00:00 | 00:00:00 | |
| DO3MHA-12 | 2026-09-02 11:34:07 | 44.19867 | 8.22643 | 49° | 16km/h | 25618m | 5.1m/s | -48.8°C | 3.4% | 0hPa | 2.7V | 00:00:00 | 01:58:01 | 00:00:00 | |
| DB0UT-7 | 2026-09-02 11:34:03 | 44.19859 | 8.22626 | 54° | 16km/h | 25597m | 4.6m/s | -48.8°C | 3.3% | 0hPa | 2.7V | 00:00:00 | 00:00:00 | 00:00:00 | |
| IW2NTF | 2026-09-02 11:34:01 | 44.19835 | 8.22606 | 356° | 20km/h | 25567m | 5.4m/s | -48.6°C | 3.3% | 0hPa | 2.7V | 08:30:00 | 01:57:51 | 00:00:00 | |
| DO3MHA-12 | 2026-09-02 11:33:57 | 44.19835 | 8.22606 | 357° | 16km/h | 25568m | 5.3m/s | -48.6°C | 3.3% | 0hPa | 2.6V | 00:00:00 | 01:57:51 | 00:00:00 | |
| IW2NTF | 2026-09-02 11:33:52 | 44.19798 | 8.22594 | 16° | 15km/h | 25518m | 5.1m/s | -49°C | 3.3% | 0hPa | 2.6V | 08:30:00 | 01:57:41 | 00:00:00 | |
| DO3MHA-12 | 2026-09-02 11:33:47 | 44.19798 | 8.22594 | 17° | 16km/h | 25518m | 5.1m/s | -48.9°C | 3.3% | 0hPa | 2.6V | 00:00:00 | 01:57:41 | 08:30:00 | |
| IW2NTF | 2026-09-02 11:33:42 | 44.19758 | 8.22604 | 0° | 13km/h | 25466m | 4.6m/s | -49.6°C | 3.4% | 0hPa | 2.7V | 08:30:00 | 01:57:31 | 00:00:00 | |
| AUTORXJP | 2026-09-02 11:33:39 | 44.19765 | 8.22602 | 336° | 16km/h | 25476m | 5.7m/s | -49.5°C | 0.9% | -1.0hPa | 2.7V | 00:00:00 | 00:00:00 | 00:00:00 | |
| DO3MHA-12 | 2026-09-02 11:33:37 | 44.19758 | 8.22604 | 1° | 15km/h | 25467m | 4.6m/s | -49.6°C | 3.4% | 0hPa | 2.7V | 00:00:00 | 01:57:31 | 00:00:00 | |
| DB0UT-7 | 2026-09-02 11:33:33 | 44.19747 | 8.22608 | 334° | 16km/h | 25446m | 4.3m/s | -49.5°C | 3.4% | 0hPa | 2.7V | 00:00:00 | 01:57:27 | 00:00:00 | |
| IW2NTF | 2026-09-02 11:33:29 | 44.19723 | 8.22635 | 312° | 24km/h | 25410m | 4.4m/s | -49.6°C | 3.5% | 0hPa | 2.7V | 08:30:00 | 01:57:20 | 00:00:00 | |
| DO3MHA-12 | 2026-09-02 11:33:27 | 44.19727 | 8.22628 | 310° | 18km/h | 25415m | 4.6m/s | -49.6°C | 3.5% | 0hPa | 2.6V | 00:00:00 | 01:57:21 | 00:00:00 | |
| IW2NTF | 2026-09-02 11:33:20 | 44.19689 | 8.22673 | 306° | 22km/h | 25360m | 4m/s | -49.7°C | 3.4% | 0hPa | 2.6V | 08:30:00 | 01:57:10 | 00:00:00 | |
| DO3MHA-12 | 2026-09-02 11:33:17 | 44.19692 | 8.22667 | 311° | 20km/h | 25365m | 4.8m/s | -49.5°C | 3.4% | 0hPa | 2.6V | 00:00:00 | 01:57:11 | 00:00:00 | |
| IW2NTF | 2026-09-02 11:33:09 | 44.19669 | 8.22727 | 284° | 9km/h | 25311m | 5m/s | -49.7°C | 3.6% | 0hPa | 2.6V | 08:30:00 | 01:57:00 | 00:00:00 | |
| AUTORXJP | 2026-09-02 11:33:08 | 44.19671 | 8.22722 | 313° | 9km/h | 25321m | 4.6m/s | -49.7°C | 0.9% | -1.0hPa | 2.7V | 00:00:00 | 00:00:00 | 00:00:00 | |
| DO3MHA-12 | 2026-09-02 11:33:07 | 44.19669 | 8.22724 | 303° | 16km/h | 25316m | 5.4m/s | -49.7°C | 3.5% | 0hPa | 2.7V | 00:00:00 | 01:57:01 | 00:00:00 | |
| DB0UT-7 | 2026-09-02 11:33:03 | 44.19666 | 8.22740 | 297° | 16km/h | 25297m | 5.6m/s | -49.5°C | 3.5% | 0hPa | 2.7V | 00:00:00 | 00:00:00 | 00:00:00 | |
| IW2NTF | 2026-09-02 11:32:59 | 44.19654 | 8.22785 | 279° | 18km/h | 25263m | 5.5m/s | -49.5°C | 3.4% | 0hPa | 2.7V | 08:30:00 | 01:56:50 | 00:00:00 | |
| DO3MHA-12 | 2026-09-02 11:32:57 | 44.19654 | 8.22779 | 279° | 16km/h | 25268m | 4.1m/s | -49.5°C | 3.4% | 0hPa | 2.6V | 00:00:00 | 01:56:51 | 00:00:00 | |
| IW2NTF | 2026-09-02 11:32:50 | 44.19646 | 8.22838 | 283° | 20km/h | 25214m | 3.8m/s | -49.6°C | 3.4% | 0hPa | 2.6V | 08:30:00 | 01:56:40 | 00:00:00 | |
| DO3MHA-12 | 2026-09-02 11:32:47 | 44.19648 | 8.22832 | 287° | 16km/h | 25219m | 3.8m/s | -49.7°C | 3.5% | 0hPa | 2.6V | 00:00:00 | 01:56:41 | 00:00:00 | |
| IW2NTF | 2026-09-02 11:32:38 | 44.19644 | 8.22892 | 250° | 9km/h | 25166m | 4.8m/s | -49.6°C | 3.5% | 0hPa | 2.6V | 08:30:00 | 01:56:30 | 00:00:00 | |
| DO3MHA-12 | 2026-09-02 11:32:37 | 44.19643 | 8.22889 | 256° | 7km/h | 25171m | 5.2m/s | -49.5°C | 3.4% | 0hPa | 2.7V | 00:00:00 | 01:56:31 | 00:00:00 | |
| DB0UT-7 | 2026-09-02 11:32:33 | 44.19645 | 8.22904 | 275° | 9km/h | 25151m | 5.6m/s | -49.7°C | 3.5% | 0hPa | 2.7V | 00:00:00 | 01:56:27 | 00:00:00 | |
| IW2NTF | 2026-09-02 11:32:29 | 44.19643 | 8.22940 | 238° | 4km/h | 25116m | 6m/s | -50°C | 3.4% | 0hPa | 2.7V | 08:30:00 | 01:56:20 | 00:00:00 | |
| IW2NTF | 2026-09-02 11:32:19 | 44.19652 | 8.22945 | 297° | 5km/h | 25070m | 3.9m/s | -50°C | 3.6% | 0hPa | 2.6V | 08:30:00 | 01:56:10 | 00:00:00 | |
| IW2NTF | 2026-09-02 11:32:09 | 44.19664 | 8.22943 | 118° | 7km/h | 25022m | 5.8m/s | -49.9°C | 3.4% | 0hPa | 2.6V | 08:30:00 | 01:56:00 | 00:00:00 | |
| AUTORXJP | 2026-09-02 11:32:06 | 44.19664 | 8.22943 | 118° | 5km/h | 25022m | 5.8m/s | -49.9°C | 0.9% | -1.0hPa | 2.7V | 00:00:00 | 00:00:00 | 00:00:00 | |
| DB0UT-7 | 2026-09-02 11:32:03 | 44.19666 | 8.22941 | 190° | 7km/h | 25007m | 5.2m/s | -49.8°C | 3.4% | 0hPa | 2.7V | 00:00:00 | 00:00:00 | 08:30:00 | |
| IW2NTF | 2026-09-02 11:31:58 | 44.19662 | 8.22941 | 37° | 5km/h | 24973m | 6.2m/s | -49.9°C | 3.5% | 0hPa | 2.7V | 08:30:00 | 01:55:50 | 00:00:00 | |
| DO3MHA-12 | 2026-09-02 11:31:54 | 44.19659 | 8.22936 | 52° | 7km/h | 24963m | 3.9m/s | -50.0°C | 3.4% | 0hPa | 2.6V | 00:00:00 | 01:55:48 | 00:00:00 | |
| IW2NTF | 2026-09-02 11:31:48 | 44.19647 | 8.22927 | 25° | 9km/h | 24924m | 4.6m/s | -50.2°C | 3.5% | 0hPa | 2.6V | 08:30:00 | 01:55:40 | 00:00:00 | |
| DO3MHA-12 | 2026-09-02 11:31:44 | 44.19643 | 8.22923 | 41° | 11km/h | 24915m | 5.9m/s | -50.3°C | 3.5% | 0hPa | 2.7V | 00:00:00 | 01:55:38 | 08:30:00 | |
| IW2NTF | 2026-09-02 11:31:39 | 44.19629 | 8.22900 | 39° | 5km/h | 24874m | 4.6m/s | -50.5°C | 3.5% | 0hPa | 2.6V | 08:30:00 | 01:55:30 | 00:00:00 | |
| AUTORXJP | 2026-09-02 11:31:35 | 44.19627 | 8.22899 | 20° | 4km/h | 24870m | 4.3m/s | -50.5°C | 0.9% | -1.0hPa | 2.7V | 00:00:00 | 00:00:00 | 00:00:00 | |
| DO3MHA-12 | 2026-09-02 11:31:34 | 44.19626 | 8.22898 | 22° | 11km/h | 24866m | 4.8m/s | -50.4°C | 3.5% | 0hPa | 2.7V | 00:00:00 | 01:55:28 | 00:00:00 | |
| DB0UT-7 | 2026-09-02 11:31:33 | 44.19624 | 8.22897 | 28° | 18km/h | 24860m | 5.5m/s | -50.4°C | 3.5% | 0hPa | 2.7V | 00:00:00 | 01:55:27 | 00:00:00 | |
| IW2NTF | 2026-09-02 11:31:27 | 44.19606 | 8.22884 | 30° | 13km/h | 24825m | 5.7m/s | -50.7°C | 3.5% | 0hPa | 2.7V | 08:30:00 | 01:55:20 | 00:00:00 | |
| DO3MHA-12 | 2026-09-02 11:31:24 | 44.19599 | 8.22878 | 31° | 20km/h | 24816m | 4.1m/s | -50.7°C | 3.6% | 0hPa | 2.6V | 00:00:00 | 01:55:18 | 00:00:00 | |
| IW2NTF | 2026-09-02 11:31:21 | 44.19562 | 8.22876 | 5° | 26km/h | 24777m | 3.3m/s | -50.7°C | 3.6% | 0hPa | 2.6V | 08:30:00 | 01:55:10 | 00:00:00 | |
| DO3MHA-12 | 2026-09-02 11:31:14 | 44.19551 | 8.22875 | 360° | 22km/h | 24768m | 5.6m/s | -50.8°C | 3.6% | 0hPa | 2.7V | 00:00:00 | 01:55:08 | 00:00:00 | |
| IW2NTF | 2026-09-02 11:31:11 | 44.19508 | 8.22880 | 354° | 22km/h | 24730m | 5.5m/s | -51°C | 3.7% | 0hPa | 2.6V | 08:30:00 | 01:55:00 | 00:00:00 | |
| DO3MHA-12 | 2026-09-02 11:31:04 | 44.19497 | 8.22882 | 349° | 31km/h | 24720m | 5.1m/s | -50.9°C | 3.8% | 0hPa | 2.7V | 00:00:00 | 01:54:58 | 00:00:00 | |
| DB0UT-7 | 2026-09-02 11:31:03 | 44.19490 | 8.22884 | 352° | 29km/h | 24715m | 5.6m/s | -50.9°C | 3.7% | 0hPa | 2.7V | 00:00:00 | 00:00:00 | 00:00:00 | |
| IW2NTF | 2026-09-02 11:31:01 | 44.19436 | 8.22900 | 347° | 35km/h | 24679m | 5.3m/s | -51.1°C | 3.6% | 0hPa | 2.7V | 08:30:00 | 01:54:50 | 00:00:00 | |
| DO3MHA-12 | 2026-09-02 11:30:54 | 44.19420 | 8.22906 | 346° | 29km/h | 24669m | 5.6m/s | -51.1°C | 3.7% | 0hPa | 2.6V | 00:00:00 | 01:54:48 | 00:00:00 | |
| IW2NTF | 2026-09-02 11:30:52 | 44.19366 | 8.22935 | 326° | 26km/h | 24630m | 5.2m/s | -51.1°C | 3.6% | 0hPa | 2.6V | 08:30:00 | 01:54:40 | 00:00:00 | |
| DO3MHA-12 | 2026-09-02 11:30:44 | 44.19356 | 8.22945 | 324° | 26km/h | 24620m | 4.3m/s | -51.1°C | 3.6% | 0hPa | 2.7V | 00:00:00 | 01:54:38 | 00:00:00 | |
| IW2NTF | 2026-09-02 11:30:41 | 44.19305 | 8.22978 | 337° | 26km/h | 24580m | 5.6m/s | -51.1°C | 3.7% | 0hPa | 2.7V | 08:30:00 | 01:54:30 | 00:00:00 | |
| IW2NTF | 2026-09-02 11:30:31 | 44.19257 | 8.23030 | 331° | 27km/h | 24532m | 4m/s | -51.5°C | 3.6% | 0hPa | 2.6V | 08:30:00 | 01:54:20 | 00:00:00 | |
| DO3MHA-12 | 2026-09-02 11:30:31 | 44.19281 | 8.22999 | 307° | 24km/h | 24556m | 4.6m/s | -51.4°C | 3.8% | 0hPa | 2.7V | 00:00:00 | 01:54:25 | 00:00:00 | |
| IW2NTF | 2026-09-02 11:30:22 | 44.19226 | 8.23062 | 315° | 13km/h | 24482m | 5.3m/s | -51.4°C | 3.8% | 0hPa | 2.7V | 08:30:00 | 01:54:10 | 00:00:00 | |
| DO3MHA-12 | 2026-09-02 11:30:19 | 44.19232 | 8.23056 | 337° | 15km/h | 24498m | 4.5m/s | -51.4°C | 3.8% | 0hPa | 2.7V | 00:00:00 | 01:54:13 | 00:00:00 | |
| IW2NTF | 2026-09-02 11:30:11 | 44.19188 | 8.23077 | 343° | 16km/h | 24433m | 6m/s | -51.5°C | 3.7% | 0hPa | 2.7V | 08:30:00 | 01:54:00 | 00:00:00 | |
| DO3MHA-12 | 2026-09-02 11:30:06 | 44.19188 | 8.23077 | 344° | 20km/h | 24433m | 5.9m/s | -51.4°C | 3.7% | 0hPa | 2.7V | 00:00:00 | 01:54:00 | 08:30:00 | |
| IW2NTF | 2026-09-02 11:30:02 | 44.19151 | 8.23127 | 326° | 22km/h | 24382m | 4.6m/s | -51.7°C | 3.7% | 0hPa | 2.6V | 08:30:00 | 01:53:50 | 00:00:00 | |
| AUTORXJP | 2026-09-02 11:30:02 | 44.19169 | 8.23097 | 299° | 20km/h | 24407m | 5.1m/s | -51.6°C | 1.0% | -1.0hPa | 2.7V | 00:00:00 | 00:00:00 | 00:00:00 | |
| DO3MHA-12 | 2026-09-02 11:29:55 | 44.19147 | 8.23131 | 329° | 24km/h | 24378m | 5.7m/s | -51.7°C | 3.8% | 0hPa | 2.7V | 00:00:00 | 01:53:49 | 00:00:00 | |
| IW2NTF | 2026-09-02 11:29:51 | 44.19106 | 8.23176 | 286° | 26km/h | 24334m | 5.1m/s | -51.8°C | 3.9% | 0hPa | 2.7V | 08:30:00 | 01:53:40 | 00:00:00 | |
| DO3MHA-12 | 2026-09-02 11:29:44 | 44.19102 | 8.23195 | 285° | 24km/h | 24325m | 5.2m/s | -51.8°C | 3.8% | 0hPa | 2.7V | 00:00:00 | 01:53:38 | 00:00:00 | |
| IW2NTF | 2026-09-02 11:29:41 | 44.19078 | 8.23245 | 319° | 16km/h | 24284m | 5.1m/s | -51.7°C | 3.8% | 0hPa | 2.7V | 08:30:00 | 01:53:30 | 00:00:00 | |
| DO3MHA-12 | 2026-09-02 11:29:34 | 44.19073 | 8.23253 | 295° | 18km/h | 24276m | 4.4m/s | -51.6°C | 3.8% | 0hPa | 2.7V | 00:00:00 | 01:53:28 | 00:00:00 | |
| DB0UT-7 | 2026-09-02 11:29:33 | 44.19072 | 8.23259 | 279° | 15km/h | 24271m | 6.0m/s | -51.6°C | 3.8% | 0hPa | 2.6V | 00:00:00 | 01:53:27 | 00:00:00 | |
| IW2NTF | 2026-09-02 11:29:31 | 44.19072 | 8.23307 | 280° | 13km/h | 24234m | 5.6m/s | -51.4°C | 3.7% | 0hPa | 2.6V | 08:30:00 | 01:53:20 | 00:00:00 | |
| AUTORXJP | 2026-09-02 11:29:31 | 44.19074 | 8.23280 | 263° | 22km/h | 24254m | 5.9m/s | -51.6°C | 1.0% | -1.0hPa | 2.7V | 00:00:00 | 00:00:00 | 00:00:00 | |
| DO3MHA-12 | 2026-09-02 11:29:24 | 44.19071 | 8.23313 | 299° | 15km/h | 24225m | 4.7m/s | -51.5°C | 3.7% | 0hPa | 2.7V | 00:00:00 | 01:53:18 | 00:00:00 | |
| IW2NTF | 2026-09-02 11:29:21 | 44.19075 | 8.23343 | 241° | 18km/h | 24185m | 5.7m/s | -51.6°C | 3.8% | 0hPa | 2.7V | 08:30:00 | 01:53:10 | 00:00:00 | |
| DO3MHA-12 | 2026-09-02 11:29:14 | 44.19077 | 8.23355 | 261° | 13km/h | 24176m | 4.2m/s | -51.6°C | 3.8% | 0hPa | 2.6V | 00:00:00 | 01:53:08 | 00:00:00 | |
| IW2NTF | 2026-09-02 11:29:11 | 44.19088 | 8.23387 | 229° | 13km/h | 24137m | 5.5m/s | -51.6°C | 3.7% | 0hPa | 2.6V | 08:30:00 | 01:53:00 | 00:00:00 | |
| DO3MHA-12 | 2026-09-02 11:29:04 | 44.19094 | 8.23394 | 216° | 9km/h | 24126m | 4.3m/s | -51.5°C | 3.7% | 0hPa | 2.6V | 00:00:00 | 01:52:58 | 00:00:00 | |
| DB0UT-7 | 2026-09-02 11:29:03 | 44.19097 | 8.23397 | 216° | 9km/h | 24122m | 4.8m/s | -51.5°C | 3.7% | 0hPa | 2.7V | 00:00:00 | 00:00:00 | 00:00:00 | |
| IW2NTF | 2026-09-02 11:29:02 | 44.19111 | 8.23406 | 188° | 7km/h | 24085m | 5.7m/s | -51.6°C | 3.7% | 0hPa | 2.7V | 08:30:00 | 01:52:50 | 00:00:00 | |
| AUTORXJP | 2026-09-02 11:29:00 | 44.19104 | 8.23404 | 200° | 7km/h | 24101m | 5.7m/s | -51.5°C | 1.0% | -1.0hPa | 2.6V | 00:00:00 | 00:00:00 | 00:00:00 | |
| DO3MHA-12 | 2026-09-02 11:28:54 | 44.19114 | 8.23407 | 191° | 11km/h | 24076m | 4.2m/s | -51.7°C | 3.7% | 0hPa | 2.6V | 00:00:00 | 01:52:48 | 00:00:00 | |
| IW2NTF | 2026-09-02 11:28:52 | 44.19138 | 8.23396 | 114° | 7km/h | 24037m | 4.6m/s | -52.2°C | 3.9% | 0hPa | 2.6V | 08:30:00 | 01:52:40 | 00:00:00 | |
| DO3MHA-12 | 2026-09-02 11:28:44 | 44.19140 | 8.23392 | 137° | 7km/h | 24026m | 5.2m/s | -52.1°C | 3.9% | 0hPa | 2.6V | 00:00:00 | 01:52:38 | 00:00:00 | |
| IW2NTF | 2026-09-02 11:28:41 | 44.19147 | 8.23373 | 122° | 9km/h | 23988m | 4.5m/s | -52.1°C | 3.9% | 0hPa | 2.6V | 08:30:00 | 01:52:30 | 00:00:00 | |
| DO3MHA-12 | 2026-09-02 11:28:34 | 44.19148 | 8.23369 | 44° | 5km/h | 23978m | 5.1m/s | -52.0°C | 3.9% | 0hPa | 2.6V | 00:00:00 | 01:52:28 | 08:30:00 | |
| DB0UT-7 | 2026-09-02 11:28:33 | 44.19147 | 8.23369 | 356° | 5km/h | 23973m | 4.2m/s | -52.1°C | 3.9% | 0hPa | 2.6V | 00:00:00 | 01:52:27 | 00:00:00 | |
| IW2NTF | 2026-09-02 11:28:32 | 44.19139 | 8.23378 | 331° | 7km/h | 23939m | 5.1m/s | -52.1°C | 3.9% | 0hPa | 2.6V | 08:30:00 | 01:52:20 | 00:00:00 | |
| AUTORXJP | 2026-09-02 11:28:28 | 44.19141 | 8.23375 | 307° | 4km/h | 23950m | 4.3m/s | -52.1°C | 1.0% | -1.0hPa | 2.7V | 00:00:00 | 00:00:00 | 00:00:00 | |
| DO3MHA-12 | 2026-09-02 11:28:24 | 44.19136 | 8.23380 | 339° | 4km/h | 23930m | 4.5m/s | 0°C | 0% | 0hPa | 2.7V | 00:00:00 | 01:52:18 | 00:00:00 | |
| IW2NTF | 2026-09-02 11:28:21 | 44.19132 | 8.23387 | 314° | 7km/h | 23889m | 5.8m/s | -52°C | 3.9% | 0hPa | 2.7V | 08:30:00 | 01:52:10 | 00:00:00 | |
| DO3MHA-12 | 2026-09-02 11:28:14 | 44.19130 | 8.23389 | 325° | 5km/h | 23880m | 4.2m/s | 0°C | 0% | 0hPa | 2.6V | 00:00:00 | 01:52:08 | 00:00:00 | |
| IW2NTF | 2026-09-02 11:28:11 | 44.19126 | 8.23399 | 200° | 7km/h | 23840m | 4.5m/s | -52°C | 3.8% | 0hPa | 2.6V | 08:30:00 | 01:52:00 | 00:00:00 | |
| DO3MHA-12 | 2026-09-02 11:28:03 | 44.19128 | 8.23403 | 275° | 5km/h | 23825m | 4.5m/s | 0°C | 0% | 0hPa | 2.7V | 00:00:00 | 01:51:57 | 00:00:00 | |
| IW2NTF | 2026-09-02 11:28:01 | 44.19121 | 8.23411 | 342° | 11km/h | 23791m | 4.2m/s | -52.1°C | 3.8% | 0hPa | 2.7V | 08:30:00 | 01:51:50 | 00:00:00 | |
| AUTORXJP | 2026-09-02 11:27:57 | 44.19123 | 8.23410 | 345° | 9km/h | 23795m | 5.1m/s | -52.1°C | 1.0% | -1.0hPa | 2.7V | 00:00:00 | 00:00:00 | 00:00:00 | |
| DO3MHA-12 | 2026-09-02 11:27:53 | 44.19118 | 8.23416 | 241° | 11km/h | 23776m | 4.8m/s | 0°C | 0% | 0hPa | 2.7V | 00:00:00 | 01:51:47 | 00:00:00 | |
| IW2NTF | 2026-09-02 11:27:51 | 44.19117 | 8.23439 | 320° | 9km/h | 23741m | 5.5m/s | -52.3°C | 3.7% | 0hPa | 2.7V | 08:30:00 | 01:51:40 | 00:00:00 | |
| DO3MHA-12 | 2026-09-02 11:27:43 | 44.19110 | 8.23443 | 340° | 9km/h | 23727m | 5.8m/s | 0°C | 0% | 0hPa | 2.6V | 00:00:00 | 01:51:37 | 00:00:00 | |
| IW2NTF | 2026-09-02 11:27:41 | 44.19098 | 8.23454 | 308° | 9km/h | 23692m | 5.5m/s | -52.9°C | 4% | 0hPa | 2.6V | 08:30:00 | 01:51:30 | 00:00:00 | |
| DO3MHA-12 | 2026-09-02 11:27:33 | 44.19092 | 8.23463 | 320° | 7km/h | 23678m | 5.5m/s | 0°C | 0% | 0hPa | 2.6V | 00:00:00 | 01:51:27 | 00:00:00 | |
| IW2NTF | 2026-09-02 11:27:31 | 44.19079 | 8.23469 | 333° | 5km/h | 23642m | 5.1m/s | -52.8°C | 4% | 0hPa | 2.6V | 08:30:00 | 01:51:20 | 00:00:00 | |
| AUTORXJP | 2026-09-02 11:27:26 | 44.19079 | 8.23469 | 333° | 4km/h | 23642m | 5.1m/s | -52.8°C | 1.1% | -1.0hPa | 2.7V | 00:00:00 | 00:00:00 | 00:00:00 | |
| IW2NTF | 2026-09-02 11:27:21 | 44.19069 | 8.23483 | 338° | 9km/h | 23592m | 4.6m/s | -52.7°C | 4% | 0hPa | 2.7V | 08:30:00 | 01:51:10 | 00:00:00 | |
| DO3MHA-12 | 2026-09-02 11:27:13 | 44.19063 | 8.23489 | 306° | 9km/h | 23578m | 3.9m/s | 0°C | 0% | 0hPa | 2.6V | 00:00:00 | 01:51:07 | 00:00:00 | |
| IW2NTF | 2026-09-02 11:27:11 | 44.19059 | 8.23507 | 311° | 13km/h | 23543m | 4.5m/s | -52.5°C | 3.9% | 0hPa | 2.6V | 08:30:00 | 01:51:00 | 00:00:00 | |
| DO3MHA-12 | 2026-09-02 11:27:02 | 44.19051 | 8.23513 | 341° | 9km/h | 23524m | 4.0m/s | 0°C | 0% | 0hPa | 2.7V | 00:00:00 | 01:50:56 | 00:00:00 | |
| IW2NTF | 2026-09-02 11:27:01 | 44.19047 | 8.23528 | 258° | 5km/h | 23493m | 4.3m/s | -52.6°C | 4% | 0hPa | 2.7V | 08:30:00 | 01:50:50 | 00:00:00 | |
| AUTORXJP | 2026-09-02 11:26:55 | 44.19047 | 8.23530 | 278° | 5km/h | 23488m | 4.1m/s | -52.6°C | 1.1% | -1.0hPa | 2.7V | 00:00:00 | 00:00:00 | 00:00:00 | |
| IW2NTF | 2026-09-02 11:26:51 | 44.19034 | 8.23544 | 283° | 9km/h | 23444m | 5.8m/s | -52.5°C | 3.9% | 0hPa | 2.7V | 08:30:00 | 01:50:40 | 00:00:00 | |
| DB0UT-7 | 2026-09-02 11:26:43 | 44.19033 | 8.23556 | 264° | 5km/h | 23431m | 5.4m/s | -52.5°C | 3.9% | 0hPa | 2.7V | 00:00:00 | 00:00:00 | 00:00:00 | |
| IW2NTF | 2026-09-02 11:26:40 | 44.19029 | 8.23561 | 38° | 4km/h | 23385m | 4.2m/s | -52.6°C | 4.1% | 0hPa | 2.7V | 08:30:00 | 01:50:28 | 00:00:00 | |
| IW2NTF | 2026-09-02 11:26:29 | 44.19017 | 8.23560 | 24° | 11km/h | 23338m | 5.6m/s | -52.5°C | 4% | 0hPa | 2.6V | 08:30:00 | 01:50:18 | 00:00:00 | |
| AUTORXJP | 2026-09-02 11:26:24 | 44.19017 | 8.23560 | 24° | 9km/h | 23338m | 5.6m/s | -52.6°C | 1.1% | -1.0hPa | 2.6V | 00:00:00 | 00:00:00 | 00:00:00 | |
| IW2NTF | 2026-09-02 11:26:19 | 44.19003 | 8.23567 | 274° | 5km/h | 23289m | 5.3m/s | -52.6°C | 3.9% | 0hPa | 2.6V | 08:30:00 | 01:50:08 | 00:00:00 | |
| DB0UT-7 | 2026-09-02 11:26:13 | 44.19003 | 8.23568 | 333° | 11km/h | 23284m | 5.2m/s | -52.5°C | 4.0% | 0hPa | 2.6V | 00:00:00 | 01:50:07 | 00:00:00 | |
| IW2NTF | 2026-09-02 11:26:09 | 44.18984 | 8.23565 | 331° | 7km/h | 23241m | 4.5m/s | -52.6°C | 4% | 0hPa | 2.6V | 08:30:00 | 01:49:58 | 00:00:00 | |
| IW2NTF | 2026-09-02 11:25:58 | 44.18973 | 8.23598 | 330° | 16km/h | 23191m | 4.2m/s | -52.5°C | 4% | 0hPa | 2.6V | 08:30:00 | 01:49:47 | 00:00:00 | |
| AUTORXJP | 2026-09-02 11:25:53 | 44.18973 | 8.23598 | 330° | 15km/h | 23191m | 4.2m/s | -52.5°C | 1.1% | -1.0hPa | 2.6V | 00:00:00 | 00:00:00 | 00:00:00 | |
| IW2NTF | 2026-09-02 11:25:49 | 44.18950 | 8.23626 | 270° | 7km/h | 23142m | 4m/s | -52.3°C | 4% | 0hPa | 2.6V | 08:30:00 | 01:49:37 | 00:00:00 | |
| DB0UT-7 | 2026-09-02 11:25:43 | 44.18950 | 8.23626 | 271° | 15km/h | 23143m | 3.9m/s | -52.2°C | 4.0% | 0hPa | 2.6V | 00:00:00 | 00:00:00 | 00:00:00 | |
| IW2NTF | 2026-09-02 11:25:38 | 44.18931 | 8.23662 | 301° | 18km/h | 23094m | 3.6m/s | -52.1°C | 3.9% | 0hPa | 2.6V | 08:30:00 | 01:49:27 | 00:00:00 | |
| IW2NTF | 2026-09-02 11:25:29 | 44.18922 | 8.23707 | 262° | 16km/h | 23047m | 5.3m/s | -52°C | 3.9% | 0hPa | 2.7V | 08:30:00 | 01:49:17 | 00:00:00 | |
| AUTORXJP | 2026-09-02 11:25:22 | 44.18924 | 8.23712 | 250° | 15km/h | 23042m | 4.0m/s | -51.9°C | 1.1% | -1.0hPa | 2.6V | 00:00:00 | 00:00:00 | 00:00:00 | |
| IW2NTF | 2026-09-02 11:25:18 | 44.18932 | 8.23757 | 254° | 11km/h | 22999m | 5.2m/s | -51.6°C | 3.8% | 0hPa | 2.6V | 08:30:00 | 01:49:07 | 00:00:00 | |
| DB0UT-7 | 2026-09-02 11:25:13 | 44.18932 | 8.23757 | 255° | 13km/h | 22999m | 5.1m/s | -51.6°C | 3.8% | 0hPa | 2.7V | 00:00:00 | 01:49:07 | 00:00:00 | |
| IW2NTF | 2026-09-02 11:25:09 | 44.18954 | 8.23794 | 230° | 15km/h | 22950m | 5.7m/s | -51.6°C | 3.9% | 0hPa | 2.7V | 08:30:00 | 01:48:57 | 00:00:00 | |
| IW2NTF | 2026-09-02 11:24:58 | 44.18970 | 8.23833 | 222° | 15km/h | 22905m | 4.8m/s | -51.5°C | 3.8% | 0hPa | 2.7V | 08:30:00 | 01:48:47 | 00:00:00 | |
| AUTORXJP | 2026-09-02 11:24:51 | 44.18974 | 8.23841 | 247° | 13km/h | 22895m | 4.6m/s | -51.4°C | 1.1% | -1.0hPa | 2.6V | 00:00:00 | 00:00:00 | 00:00:00 | |
| IW2NTF | 2026-09-02 11:24:48 | 44.18989 | 8.23859 | 211° | 5km/h | 22857m | 4.5m/s | -51.3°C | 3.8% | 0hPa | 2.6V | 08:30:00 | 01:48:37 | 00:00:00 | |
| DB0UT-7 | 2026-09-02 11:24:43 | 44.18989 | 8.23858 | 212° | 5km/h | 22858m | 4.5m/s | -51.2°C | 3.8% | 0hPa | 2.7V | 00:00:00 | 00:00:00 | 00:00:00 | |
| IW2NTF | 2026-09-02 11:24:39 | 44.19005 | 8.23878 | 199° | 7km/h | 22809m | 5m/s | -51.3°C | 3.7% | 0hPa | 2.7V | 08:30:00 | 01:48:27 | 00:00:00 | |
| IW2NTF | 2026-09-02 11:24:29 | 44.19014 | 8.23872 | 119° | 2km/h | 22763m | 5m/s | -51.4°C | 3.7% | 0hPa | 2.6V | 08:30:00 | 01:48:17 | 00:00:00 | |
| AUTORXJP | 2026-09-02 11:24:20 | 44.19014 | 8.23870 | 112° | 4km/h | 22750m | 5.5m/s | -51.5°C | 1.1% | -1.0hPa | 2.7V | 00:00:00 | 00:00:00 | 00:00:00 | |
| IW2NTF | 2026-09-02 11:24:18 | 44.19012 | 8.23857 | 64° | 9km/h | 22716m | 5.7m/s | -51.7°C | 3.8% | 0hPa | 2.7V | 08:30:00 | 01:48:07 | 00:00:00 | |
| DB0UT-7 | 2026-09-02 11:24:13 | 44.19012 | 8.23857 | 65° | 11km/h | 22716m | 5.7m/s | -51.6°C | 3.8% | 0hPa | 2.7V | 00:00:00 | 01:48:07 | 00:00:00 | |
| IW2NTF | 2026-09-02 11:24:08 | 44.19008 | 8.23821 | 77° | 4km/h | 22670m | 5m/s | -51.7°C | 3.8% | 0hPa | 2.7V | 08:30:00 | 01:47:57 | 00:00:00 | |
| IW2NTF | 2026-09-02 11:23:58 | 44.18994 | 8.23796 | 76° | 15km/h | 22625m | 5.2m/s | -51.9°C | 3.8% | 0hPa | 2.6V | 08:30:00 | 01:47:47 | 00:00:00 | |
| IW2NTF | 2026-09-02 11:23:49 | 44.18974 | 8.23763 | 25° | 20km/h | 22578m | 5.2m/s | -51.9°C | 3.8% | 0hPa | 2.6V | 08:30:00 | 01:47:37 | 00:00:00 | |
| DB0UT-7 | 2026-09-02 11:23:43 | 44.18973 | 8.23763 | 26° | 16km/h | 22578m | 5.1m/s | -51.8°C | 3.8% | 0hPa | 2.6V | 00:00:00 | 00:00:00 | 00:00:00 | |
| IW2NTF | 2026-09-02 11:23:39 | 44.18931 | 8.23724 | 25° | 16km/h | 22532m | 5m/s | -51.8°C | 3.8% | 0hPa | 2.6V | 08:30:00 | 01:47:27 | 00:00:00 | |
| IW2NTF | 2026-09-02 11:23:28 | 44.18891 | 8.23706 | 50° | 13km/h | 22486m | 5.2m/s | -52°C | 3.7% | 0hPa | 2.7V | 08:30:00 | 01:47:17 | 00:00:00 | |
| IW2NTF | 2026-09-02 11:23:18 | 44.18868 | 8.23697 | 348° | 11km/h | 22439m | 5.1m/s | -52.6°C | 3.9% | 0hPa | 2.6V | 08:30:00 | 01:47:07 | 00:00:00 | |
| AUTORXJP | 2026-09-02 11:23:18 | 44.18878 | 8.23693 | 11° | 11km/h | 22459m | 4.7m/s | -52.4°C | 1.1% | -1.0hPa | 2.6V | 00:00:00 | 00:00:00 | 00:00:00 | |
| DB0UT-7 | 2026-09-02 11:23:13 | 44.18868 | 8.23697 | 349° | 11km/h | 22439m | 5.0m/s | -52.5°C | 3.9% | 0hPa | 2.6V | 00:00:00 | 01:47:07 | 00:00:00 | |
| IW2NTF | 2026-09-02 11:23:07 | 44.18856 | 8.23668 | 56° | 5km/h | 22389m | 5m/s | -52.8°C | 3.9% | 0hPa | 2.6V | 08:30:00 | 01:46:56 | 00:00:00 | |
| IW2NTF | 2026-09-02 11:22:57 | 44.18831 | 8.23668 | 18° | 9km/h | 22344m | 5.3m/s | -53.1°C | 4% | 0hPa | 2.6V | 08:30:00 | 01:46:46 | 00:00:00 | |
| IW2NTF | 2026-09-02 11:22:47 | 44.18806 | 8.23659 | 356° | 11km/h | 22298m | 5.2m/s | -53.7°C | 4.2% | 0hPa | 2.6V | 08:30:00 | 01:46:36 | 00:00:00 | |
| AUTORXJP | 2026-09-02 11:22:47 | 44.18815 | 8.23661 | 4° | 7km/h | 22316m | 4.5m/s | -53.5°C | 1.1% | -1.0hPa | 2.6V | 00:00:00 | 00:00:00 | 00:00:00 | |
| DB0UT-7 | 2026-09-02 11:22:43 | 44.18808 | 8.23659 | 10° | 16km/h | 22303m | 3.9m/s | -53.6°C | 4.1% | 0hPa | 2.6V | 00:00:00 | 00:00:00 | 08:30:00 | |
| IW2NTF | 2026-09-02 11:22:37 | 44.18761 | 8.23663 | 355° | 16km/h | 22251m | 5.1m/s | -53.5°C | 4.1% | 0hPa | 2.6V | 08:30:00 | 01:46:26 | 00:00:00 | |
| IW2NTF | 2026-09-02 11:22:27 | 44.18719 | 8.23677 | 359° | 16km/h | 22207m | 3.7m/s | -53.6°C | 4.1% | 0hPa | 2.6V | 08:30:00 | 01:46:16 | 00:00:00 | |
| IW2NTF | 2026-09-02 11:22:17 | 44.18690 | 8.23693 | 333° | 13km/h | 22161m | 4.7m/s | -53.7°C | 4.1% | 0hPa | 2.6V | 08:30:00 | 01:46:06 | 00:00:00 | |
| AUTORXJP | 2026-09-02 11:22:16 | 44.18701 | 8.23687 | 340° | 15km/h | 22175m | 4.1m/s | -53.7°C | 1.2% | -1.0hPa | 2.6V | 00:00:00 | 00:00:00 | 00:00:00 | |
| DB0UT-7 | 2026-09-02 11:22:13 | 44.18693 | 8.23691 | 339° | 13km/h | 22167m | 5.3m/s | -53.6°C | 4.1% | 0hPa | 2.6V | 00:00:00 | 01:46:07 | 00:00:00 | |
| IW2NTF | 2026-09-02 11:22:07 | 44.18669 | 8.23725 | 297° | 13km/h | 22114m | 4.5m/s | -53.6°C | 4.1% | 0hPa | 2.6V | 08:30:00 | 01:45:56 | 00:00:00 | |
| IW2NTF | 2026-09-02 11:21:58 | 44.18657 | 8.23760 | 278° | 15km/h | 22067m | 4.2m/s | -53.9°C | 4.1% | 0hPa | 2.6V | 08:30:00 | 01:45:46 | 00:00:00 | |
| IW2NTF | 2026-09-02 11:21:48 | 44.18663 | 8.23811 | 265° | 7km/h | 22019m | 4.8m/s | -54.5°C | 4.3% | 0hPa | 2.6V | 08:30:00 | 01:45:36 | 00:00:00 | |
| AUTORXJP | 2026-09-02 11:21:44 | 44.18661 | 8.23804 | 239° | 11km/h | 22029m | 4.9m/s | -54.3°C | 1.2% | -1.0hPa | 2.6V | 00:00:00 | 00:00:00 | 00:00:00 | |
| DB0UT-7 | 2026-09-02 11:21:43 | 44.18662 | 8.23808 | 250° | 16km/h | 22024m | 5.5m/s | -54.3°C | 4.3% | 0hPa | 2.6V | 00:00:00 | 00:00:00 | 00:00:00 | |
| IW2NTF | 2026-09-02 11:21:37 | 44.18662 | 8.23866 | 265° | 24km/h | 21972m | 3.8m/s | -54.7°C | 4.3% | 0hPa | 2.6V | 08:30:00 | 01:45:26 | 00:00:00 | |
| IW2NTF | 2026-09-02 11:21:27 | 44.18662 | 8.23927 | 265° | 16km/h | 21925m | 4.2m/s | -54.6°C | 4.4% | 0hPa | 2.6V | 08:30:00 | 01:45:16 | 00:00:00 | |
| IW2NTF | 2026-09-02 11:21:15 | 44.18679 | 8.23993 | 235° | 9km/h | 21868m | 5.7m/s | -54.4°C | 4.3% | 0hPa | 2.7V | 08:30:00 | 01:45:04 | 00:00:00 | |
| AUTORXJP | 2026-09-02 11:21:14 | 44.18673 | 8.23983 | 238° | 15km/h | 21883m | 4.7m/s | -54.4°C | 1.2% | -1.0hPa | 2.6V | 00:00:00 | 00:00:00 | 00:00:00 | |
| DB0UT-7 | 2026-09-02 11:21:13 | 44.18673 | 8.23982 | 239° | 15km/h | 21883m | 4.6m/s | -54.4°C | 4.3% | 0hPa | 2.6V | 00:00:00 | 01:45:07 | 00:00:00 | |
| IW2NTF | 2026-09-02 11:21:00 | 44.18705 | 8.24032 | 223° | 18km/h | 21814m | 5.5m/s | -54.3°C | 4.3% | 0hPa | 2.7V | 08:30:00 | 01:44:53 | 00:00:00 | |
| IW2NTF | 2026-09-02 11:20:50 | 44.18740 | 8.24051 | 201° | 11km/h | 21765m | 4.9m/s | -54°C | 4.2% | 0hPa | 2.7V | 08:30:00 | 01:44:43 | 00:00:00 | |
| DB0UT-7 | 2026-09-02 11:20:43 | 44.18766 | 8.24071 | 202° | 26km/h | 21736m | 5.3m/s | -53.9°C | 4.2% | 0hPa | 2.7V | 00:00:00 | 00:00:00 | 00:00:00 | |
| AUTORXJP | 2026-09-02 11:20:42 | 44.18771 | 8.24073 | 193° | 22km/h | 21731m | 3.8m/s | -53.9°C | 1.2% | -1.0hPa | 2.7V | 00:00:00 | 00:00:00 | 00:00:00 | |
| IW2NTF | 2026-09-02 11:20:41 | 44.18789 | 8.24073 | 166° | 24km/h | 21716m | 4.6m/s | -54°C | 4.2% | 0hPa | 2.7V | 08:30:00 | 01:44:33 | 00:00:00 | |
| IW2NTF | 2026-09-02 11:20:31 | 44.18841 | 8.24085 | 198° | 29km/h | 21669m | 4.4m/s | -54.4°C | 4.3% | 0hPa | 2.7V | 08:30:00 | 01:44:23 | 00:00:00 | |
| IW2NTF | 2026-09-02 11:20:20 | 44.18913 | 8.24062 | 168° | 20km/h | 21622m | 5.3m/s | -54.4°C | 4.3% | 0hPa | 2.7V | 08:30:00 | 01:44:13 | 00:00:00 | |
| DB0UT-7 | 2026-09-02 11:20:13 | 44.18949 | 8.24055 | 162° | 18km/h | 21594m | 4.1m/s | -54.4°C | 4.4% | 0hPa | 2.6V | 00:00:00 | 01:44:07 | 00:00:00 | |
| IW2NTF | 2026-09-02 11:20:11 | 44.18975 | 8.24038 | 144° | 26km/h | 21575m | 5.1m/s | -54.3°C | 4.4% | 0hPa | 2.6V | 08:30:00 | 01:44:03 | 00:00:00 | |
| IW2NTF | 2026-09-02 11:20:00 | 44.19016 | 8.24015 | 161° | 18km/h | 21528m | 4.8m/s | -54°C | 4.3% | 0hPa | 2.7V | 08:30:00 | 01:43:53 | 00:00:00 | |
| IW2NTF | 2026-09-02 11:19:50 | 44.19051 | 8.23996 | 172° | 16km/h | 21481m | 4m/s | -53.8°C | 4.2% | 0hPa | 2.7V | 08:30:00 | 01:43:43 | 00:00:00 | |
| IW2NTF | 2026-09-02 11:19:44 | 44.19085 | 8.23982 | 123° | 11km/h | 21434m | 4.3m/s | -53.4°C | 4.1% | 0hPa | 2.7V | 08:30:00 | 01:43:33 | 00:00:00 | |
| DB0UT-7 | 2026-09-02 11:19:43 | 44.19073 | 8.23992 | 160° | 13km/h | 21452m | 4.0m/s | -53.5°C | 4.2% | 0hPa | 2.7V | 00:00:00 | 00:00:00 | 00:00:00 | |
| AUTORXJP | 2026-09-02 11:19:40 | 44.19084 | 8.23985 | 134° | 11km/h | 21438m | 4.3m/s | -53.5°C | 1.2% | -1.0hPa | 2.6V | 00:00:00 | 00:00:00 | 00:00:00 | |
| IW2NTF | 2026-09-02 11:19:32 | 44.19105 | 8.23953 | 157° | 15km/h | 21385m | 4.9m/s | -53.4°C | 4.1% | 0hPa | 2.6V | 08:30:00 | 01:43:23 | 00:00:00 | |
| IW2NTF | 2026-09-02 11:19:20 | 44.19118 | 8.23914 | 96° | 11km/h | 21338m | 5.5m/s | -53.5°C | 4% | 0hPa | 2.6V | 08:30:00 | 01:43:13 | 00:00:00 | |
| IW2NTF | 2026-09-02 11:19:14 | 44.19131 | 8.23881 | 97° | 11km/h | 21293m | 5m/s | -53.6°C | 4.1% | 0hPa | 2.6V | 08:30:00 | 01:43:03 | 00:00:00 | |
| DB0UT-7 | 2026-09-02 11:19:14 | 44.19125 | 8.23898 | 126° | 9km/h | 21310m | 4.8m/s | -53.5°C | 4.1% | 0hPa | 2.6V | 00:00:00 | 01:43:07 | 00:00:00 | |
| AUTORXJP | 2026-09-02 11:19:09 | 44.19131 | 8.23881 | 97° | 9km/h | 21293m | 5.0m/s | -53.6°C | 1.2% | -1.0hPa | 2.6V | 00:00:00 | 00:00:00 | 00:00:00 | |
| IW2NTF | 2026-09-02 11:19:03 | 44.19123 | 8.23856 | 80° | 11km/h | 21246m | 5m/s | -53.8°C | 4.1% | 0hPa | 2.6V | 08:30:00 | 01:42:53 | 00:00:00 | |
| IW2NTF | 2026-09-02 11:18:50 | 44.19104 | 8.23832 | 26° | 15km/h | 21202m | 4.8m/s | -54.1°C | 4.2% | 0hPa | 2.6V | 08:30:00 | 01:42:43 | 00:00:00 | |
| IW2NTF | 2026-09-02 11:18:44 | 44.19094 | 8.23825 | 307° | 9km/h | 21158m | 4.3m/s | -54°C | 4.2% | 0hPa | 2.7V | 08:30:00 | 01:42:33 | 00:00:00 | |
| DB0UT-7 | 2026-09-02 11:18:41 | 44.19097 | 8.23819 | 288° | 9km/h | 21167m | 4.7m/s | 0°C | 0% | 0hPa | 2.7V | 00:00:00 | 00:00:00 | 00:00:00 | |
| AUTORXJP | 2026-09-02 11:18:38 | 44.19093 | 8.23827 | 314° | 7km/h | 21153m | 4.6m/s | -54.0°C | 1.2% | -1.0hPa | 2.7V | 00:00:00 | 00:00:00 | 00:00:00 | |
| IW2NTF | 2026-09-02 11:18:32 | 44.19084 | 8.23844 | 234° | 2km/h | 21116m | 4m/s | -54.1°C | 4.2% | 0hPa | 2.7V | 08:30:00 | 01:42:23 | 00:00:00 | |
| IW2NTF | 2026-09-02 11:18:20 | 44.19079 | 8.23878 | 294° | 11km/h | 21074m | 4.4m/s | -54.1°C | 4.2% | 0hPa | 2.7V | 08:30:00 | 01:42:13 | 00:00:00 | |
| IW2NTF | 2026-09-02 11:18:14 | 44.19086 | 8.23916 | 218° | 11km/h | 21031m | 4.2m/s | -53.9°C | 4.2% | 0hPa | 2.7V | 08:30:00 | 01:42:03 | 00:00:00 | |
| DB0UT-7 | 2026-09-02 11:18:11 | 44.19082 | 8.23909 | 241° | 9km/h | 21040m | 4.1m/s | 0°C | 0% | 0hPa | 2.6V | 00:00:00 | 01:42:05 | 00:00:00 | |
| AUTORXJP | 2026-09-02 11:18:07 | 44.19090 | 8.23919 | 214° | 5km/h | 21022m | 5.2m/s | -53.8°C | 1.2% | -1.0hPa | 2.6V | 00:00:00 | 00:00:00 | 00:00:00 | |
| IW2NTF | 2026-09-02 11:18:02 | 44.19103 | 8.23924 | 199° | 9km/h | 20987m | 3.5m/s | -53.8°C | 4% | 0hPa | 2.6V | 08:30:00 | 01:41:53 | 00:00:00 | |
| IW2NTF | 2026-09-02 11:17:50 | 44.19137 | 8.23923 | 163° | 18km/h | 20942m | 4.9m/s | -54.4°C | 4.3% | 0hPa | 2.7V | 08:30:00 | 01:41:43 | 00:00:00 | |
| IW2NTF | 2026-09-02 11:17:44 | 44.19180 | 8.23887 | 145° | 16km/h | 20897m | 4.2m/s | -54.7°C | 4.3% | 0hPa | 2.6V | 08:30:00 | 01:41:33 | 00:00:00 | |
| AUTORXJP | 2026-09-02 11:17:36 | 44.19196 | 8.23876 | 163° | 16km/h | 20879m | 4.1m/s | -54.7°C | 1.3% | -1.0hPa | 2.6V | 00:00:00 | 00:00:00 | 00:00:00 | |
| IW2NTF | 2026-09-02 11:17:32 | 44.19215 | 8.23876 | 173° | 13km/h | 20852m | 3.6m/s | -54.6°C | 4.3% | 0hPa | 2.6V | 08:30:00 | 01:41:23 | 00:00:00 | |
| IW2NTF | 2026-09-02 11:17:20 | 44.19247 | 8.23867 | 190° | 15km/h | 20809m | 4.3m/s | -54.8°C | 4.2% | 0hPa | 2.6V | 08:30:00 | 01:41:13 | 00:00:00 | |
| IW2NTF | 2026-09-02 11:17:15 | 44.19285 | 8.23871 | 161° | 18km/h | 20765m | 3.9m/s | -55.1°C | 4.4% | 0hPa | 2.6V | 08:30:00 | 01:41:03 | 00:00:00 | |
| AUTORXJP | 2026-09-02 11:17:05 | 44.19305 | 8.23858 | 151° | 16km/h | 20742m | 4.2m/s | -55.2°C | 1.3% | -1.0hPa | 2.7V | 00:00:00 | 00:00:00 | 00:00:00 | |
| IW2NTF | 2026-09-02 11:17:02 | 44.19324 | 8.23847 | 161° | 20km/h | 20721m | 5.4m/s | -55.3°C | 4.4% | 0hPa | 2.7V | 08:30:00 | 01:40:53 | 00:00:00 | |
| IW2NTF | 2026-09-02 11:16:50 | 44.19377 | 8.23825 | 148° | 16km/h | 20677m | 5m/s | -55.5°C | 4.5% | 0hPa | 2.6V | 08:30:00 | 01:40:43 | 00:00:00 | |
| IW2NTF | 2026-09-02 11:16:44 | 44.19413 | 8.23793 | 136° | 18km/h | 20634m | 5.1m/s | -55.5°C | 4.5% | 0hPa | 2.7V | 08:30:00 | 01:40:33 | 00:00:00 | |
| AUTORXJP | 2026-09-02 11:16:34 | 44.19429 | 8.23764 | 129° | 18km/h | 20608m | 5.3m/s | -55.4°C | 1.3% | -1.0hPa | 2.7V | 00:00:00 | 00:00:00 | 00:00:00 | |
| IW2NTF | 2026-09-02 11:16:32 | 44.19442 | 8.23742 | 130° | 18km/h | 20589m | 4.2m/s | -55.3°C | 4.5% | 0hPa | 2.7V | 08:30:00 | 01:40:23 | 00:00:00 | |
| IW2NTF | 2026-09-02 11:16:20 | 44.19464 | 8.23686 | 130° | 26km/h | 20545m | 4.6m/s | -55.6°C | 4.4% | 0hPa | 2.7V | 08:30:00 | 01:40:13 | 00:00:00 | |
| IW2NTF | 2026-09-02 11:16:14 | 44.19507 | 8.23615 | 119° | 20km/h | 20502m | 5.2m/s | -55.5°C | 4.5% | 0hPa | 2.7V | 08:30:00 | 01:40:03 | 00:00:00 | |
| AUTORXJP | 2026-09-02 11:16:03 | 44.19536 | 8.23573 | 139° | 35km/h | 20471m | 4.5m/s | -55.5°C | 1.3% | -1.0hPa | 2.6V | 00:00:00 | 00:00:00 | 00:00:00 | |
| IW2NTF | 2026-09-02 11:16:02 | 44.19557 | 8.23548 | 138° | 35km/h | 20458m | 4.3m/s | -55.5°C | 4.4% | 0hPa | 2.6V | 08:30:00 | 01:39:53 | 00:00:00 | |
| IW2NTF | 2026-09-02 11:15:51 | 44.19593 | 8.23483 | 146° | 29km/h | 20416m | 5.1m/s | -55.6°C | 4.4% | 0hPa | 2.6V | 08:30:00 | 01:39:43 | 00:00:00 | |
| IW2NTF | 2026-09-02 11:15:45 | 44.19641 | 8.23408 | 110° | 24km/h | 20375m | 4.8m/s | -55.7°C | 4.6% | 0hPa | 2.6V | 08:30:00 | 01:39:33 | 00:00:00 | |
| IW2NTF | 2026-09-02 11:15:33 | 44.19680 | 8.23335 | 109° | 27km/h | 20330m | 5.1m/s | -55.5°C | 4.6% | 0hPa | 2.6V | 08:30:00 | 01:39:23 | 00:00:00 | |
| AUTORXJP | 2026-09-02 11:15:32 | 44.19674 | 8.23351 | 128° | 26km/h | 20339m | 3.4m/s | -55.6°C | 1.3% | -1.0hPa | 2.6V | 00:00:00 | 00:00:00 | 00:00:00 | |
| IW2NTF | 2026-09-02 11:15:21 | 44.19699 | 8.23251 | 129° | 24km/h | 20284m | 5.3m/s | -55.5°C | 4.6% | 0hPa | 2.6V | 08:30:00 | 01:39:13 | 00:00:00 | |
| IW2NTF | 2026-09-02 11:15:15 | 44.19712 | 8.23167 | 94° | 22km/h | 20241m | 5.2m/s | -55.3°C | 4.4% | 0hPa | 2.7V | 08:30:00 | 01:39:03 | 00:00:00 | |
| IW2NTF | 2026-09-02 11:15:03 | 44.19722 | 8.23098 | 92° | 20km/h | 20196m | 5.2m/s | -55.4°C | 4.3% | 0hPa | 2.7V | 08:30:00 | 01:38:53 | 00:00:00 | |
| AUTORXJP | 2026-09-02 11:15:01 | 44.19722 | 8.23106 | 95° | 20km/h | 20201m | 4.1m/s | -55.3°C | 1.3% | -1.0hPa | 2.7V | 00:00:00 | 00:00:00 | 00:00:00 | |
| IW2NTF | 2026-09-02 11:14:51 | 44.19724 | 8.23048 | 91° | 16km/h | 20150m | 4.3m/s | -55.7°C | 4.5% | 0hPa | 2.7V | 08:30:00 | 01:38:43 | 00:00:00 | |
| IW2NTF | 2026-09-02 11:14:44 | 44.19708 | 8.23008 | 36° | 9km/h | 20106m | 4.3m/s | -56°C | 4.5% | 0hPa | 2.7V | 08:30:00 | 01:38:33 | 00:00:00 | |
| IW2NTF | 2026-09-02 11:14:32 | 44.19689 | 8.22977 | 71° | 11km/h | 20061m | 4.9m/s | -56.2°C | 4.7% | 0hPa | 2.6V | 08:30:00 | 01:38:23 | 00:00:00 | |
| AUTORXJP | 2026-09-02 11:14:29 | 44.19689 | 8.22977 | 71° | 9km/h | 20061m | 4.9m/s | -56.2°C | 1.4% | -1.0hPa | 2.7V | 00:00:00 | 00:00:00 | 00:00:00 | |
| IW2NTF | 2026-09-02 11:14:20 | 44.19680 | 8.22947 | 91° | 16km/h | 20016m | 4.2m/s | -56°C | 4.4% | 0hPa | 2.7V | 08:30:00 | 01:38:13 | 00:00:00 | |
| IW2NTF | 2026-09-02 11:14:14 | 44.19690 | 8.22894 | 99° | 13km/h | 19971m | 4.1m/s | -56°C | 4.4% | 0hPa | 2.7V | 08:30:00 | 01:38:03 | 00:00:00 | |
| IW2NTF | 2026-09-02 11:14:02 | 44.19702 | 8.22834 | 111° | 20km/h | 19927m | 3.7m/s | -56.6°C | 4.7% | 0hPa | 2.6V | 08:30:00 | 01:37:53 | 00:00:00 | |
| AUTORXJP | 2026-09-02 11:13:58 | 44.19704 | 8.22828 | 115° | 18km/h | 19922m | 4.9m/s | -56.6°C | 1.4% | -1.0hPa | 2.6V | 00:00:00 | 00:00:00 | 00:00:00 | |
| IW2NTF | 2026-09-02 11:13:50 | 44.19728 | 8.22770 | 116° | 22km/h | 19884m | 3.9m/s | -56.7°C | 4.7% | 0hPa | 2.6V | 08:30:00 | 01:37:43 | 00:00:00 | |
| IW2NTF | 2026-09-02 11:13:44 | 44.19749 | 8.22687 | 96° | 24km/h | 19837m | 4.7m/s | -56.8°C | 4.6% | 0hPa | 2.6V | 08:30:00 | 01:37:32 | 00:00:00 | |
| IW2NTF | 2026-09-02 11:13:32 | 44.19746 | 8.22609 | 83° | 24km/h | 19792m | 4.3m/s | -56.9°C | 4.8% | 0hPa | 2.6V | 08:30:00 | 01:37:22 | 00:00:00 | |
| AUTORXJP | 2026-09-02 11:13:27 | 44.19745 | 8.22600 | 83° | 24km/h | 19788m | 4.3m/s | -57.0°C | 1.4% | -1.0hPa | 2.6V | 00:00:00 | 00:00:00 | 00:00:00 | |
| IW2NTF | 2026-09-02 11:13:20 | 44.19741 | 8.22542 | 69° | 13km/h | 19746m | 4m/s | -56.8°C | 4.8% | 0hPa | 2.6V | 08:30:00 | 01:37:12 | 00:00:00 | |
| IW2NTF | 2026-09-02 11:13:11 | 44.19736 | 8.22481 | 115° | 20km/h | 19703m | 4.1m/s | -56.5°C | 4.7% | 0hPa | 2.6V | 08:30:00 | 01:37:02 | 00:00:00 | |
| IW2NTF | 2026-09-02 11:13:00 | 44.19746 | 8.22438 | 104° | 18km/h | 19657m | 4.8m/s | -56.6°C | 4.7% | 0hPa | 2.6V | 08:30:00 | 01:36:52 | 00:00:00 | |
| AUTORXJP | 2026-09-02 11:12:56 | 44.19750 | 8.22425 | 123° | 22km/h | 19649m | 4.0m/s | -56.6°C | 1.4% | -1.0hPa | 2.7V | 00:00:00 | 00:00:00 | 00:00:00 | |
| IW2NTF | 2026-09-02 11:12:53 | 44.19767 | 8.22378 | 95° | 18km/h | 19612m | 4.9m/s | -56.6°C | 4.6% | 0hPa | 2.7V | 08:30:00 | 01:36:42 | 00:00:00 | |
| IW2NTF | 2026-09-02 11:12:41 | 44.19789 | 8.22301 | 106° | 27km/h | 19568m | 5m/s | -56.8°C | 4.7% | 0hPa | 2.7V | 08:30:00 | 01:36:32 | 00:00:00 | |
| IW2NTF | 2026-09-02 11:12:29 | 44.19807 | 8.22206 | 106° | 27km/h | 19522m | 4.5m/s | -56.9°C | 4.8% | 0hPa | 2.7V | 08:30:00 | 01:36:22 | 00:00:00 | |
| AUTORXJP | 2026-09-02 11:12:25 | 44.19812 | 8.22176 | 99° | 31km/h | 19509m | 4.2m/s | -57.0°C | 1.4% | -1.0hPa | 2.7V | 00:00:00 | 00:00:00 | 00:00:00 | |
| IW2NTF | 2026-09-02 11:12:23 | 44.19824 | 8.22091 | 92° | 27km/h | 19474m | 3.9m/s | -57°C | 4.8% | 0hPa | 2.7V | 08:30:00 | 01:36:11 | 00:00:00 | |
| IW2NTF | 2026-09-02 11:12:09 | 44.19826 | 8.22013 | 87° | 18km/h | 19429m | 5.1m/s | -56.7°C | 4.7% | 0hPa | 2.7V | 08:30:00 | 01:36:01 | 00:00:00 | |
| IW2NTF | 2026-09-02 11:12:02 | 44.19818 | 8.21949 | 64° | 15km/h | 19386m | 5.5m/s | -56.6°C | 4.8% | 0hPa | 2.7V | 08:30:00 | 01:35:51 | 00:00:00 | |
| IW2NTF | 2026-09-02 11:11:51 | 44.19804 | 8.21902 | 62° | 22km/h | 19340m | 4.8m/s | -56.7°C | 4.7% | 0hPa | 2.6V | 08:30:00 | 01:35:41 | 00:00:00 | |
| IW2NTF | 2026-09-02 11:11:39 | 44.19776 | 8.21858 | 26° | 13km/h | 19297m | 5.1m/s | -56.7°C | 4.7% | 0hPa | 2.7V | 08:30:00 | 01:35:31 | 00:00:00 | |
| IW2NTF | 2026-09-02 11:11:32 | 44.19746 | 8.21830 | 37° | 15km/h | 19251m | 3.8m/s | -56.9°C | 4.9% | 0hPa | 2.6V | 08:30:00 | 01:35:21 | 00:00:00 | |
| AUTORXJP | 2026-09-02 11:11:23 | 44.19736 | 8.21826 | 342° | 11km/h | 19233m | 4.1m/s | -56.9°C | 1.4% | -1.0hPa | 2.7V | 00:00:00 | 00:00:00 | 00:00:00 | |
| IW2NTF | 2026-09-02 11:11:20 | 44.19710 | 8.21836 | 10° | 7km/h | 19198m | 4.7m/s | -56.5°C | 4.8% | 0hPa | 2.7V | 08:30:00 | 01:35:09 | 00:00:00 | |
| IW2NTF | 2026-09-02 11:11:08 | 44.19692 | 8.21844 | 334° | 9km/h | 19153m | 3.9m/s | -56.6°C | 4.7% | 0hPa | 2.6V | 08:30:00 | 01:34:59 | 00:00:00 | |
| IW2NTF | 2026-09-02 11:10:57 | 44.19679 | 8.21842 | 356° | 5km/h | 19109m | 4.2m/s | -56.8°C | 4.7% | 0hPa | 2.7V | 08:30:00 | 01:34:49 | 00:00:00 | |
| AUTORXJP | 2026-09-02 11:10:52 | 44.19676 | 8.21843 | 301° | 0km/h | 19096m | 4.3m/s | -56.9°C | 1.5% | -1.0hPa | 2.6V | 00:00:00 | 00:00:00 | 00:00:00 | |
| IW2NTF | 2026-09-02 11:10:51 | 44.19677 | 8.21832 | 128° | 9km/h | 19066m | 4.8m/s | -56.9°C | 4.8% | 0hPa | 2.6V | 08:30:00 | 01:34:39 | 00:00:00 | |
| IW2NTF | 2026-09-02 11:10:40 | 44.19686 | 8.21813 | 104° | 16km/h | 19022m | 3.9m/s | -56.6°C | 4.7% | 0hPa | 2.6V | 08:30:00 | 01:34:29 | 00:00:00 | |
| IW2NTF | 2026-09-02 11:10:27 | 44.19701 | 8.21773 | 144° | 9km/h | 18978m | 3.3m/s | -56.6°C | 4.7% | 0hPa | 2.6V | 08:30:00 | 01:34:19 | 00:00:00 | |
| AUTORXJP | 2026-09-02 11:10:21 | 44.19707 | 8.21763 | 119° | 11km/h | 18962m | 4.5m/s | -56.7°C | 1.5% | -1.0hPa | 2.6V | 00:00:00 | 00:00:00 | 00:00:00 | |
| IW2NTF | 2026-09-02 11:10:20 | 44.19720 | 8.21730 | 105° | 22km/h | 18933m | 3.4m/s | -56.4°C | 4.5% | 0hPa | 2.6V | 08:30:00 | 01:34:09 | 00:00:00 | |
| IW2NTF | 2026-09-02 11:10:09 | 44.19740 | 8.21665 | 118° | 24km/h | 18888m | 4.3m/s | -56.8°C | 4.7% | 0hPa | 2.7V | 08:30:00 | 01:33:59 | 00:00:00 | |
| IW2NTF | 2026-09-02 11:09:58 | 44.19767 | 8.21585 | 95° | 27km/h | 18842m | 4.7m/s | -57.3°C | 4.8% | 0hPa | 2.6V | 08:30:00 | 01:33:49 | 00:00:00 | |
| IW2NTF | 2026-09-02 11:09:50 | 44.19783 | 8.21485 | 106° | 37km/h | 18797m | 4.1m/s | -57.5°C | 4.9% | 0hPa | 2.7V | 08:30:00 | 01:33:39 | 00:00:00 | |
| AUTORXJP | 2026-09-02 11:09:50 | 44.19773 | 8.21536 | 99° | 26km/h | 18819m | 5.2m/s | -57.5°C | 1.5% | -1.0hPa | 2.7V | 00:00:00 | 00:00:00 | 00:00:00 | |
| IW2NTF | 2026-09-02 11:09:39 | 44.19788 | 8.21350 | 90° | 38km/h | 18754m | 4.8m/s | -58.2°C | 5% | 0hPa | 2.7V | 08:30:00 | 01:33:29 | 00:00:00 | |
| IW2NTF | 2026-09-02 11:09:27 | 44.19791 | 8.21201 | 83° | 44km/h | 18710m | 4.8m/s | -58.2°C | 5.1% | 0hPa | 2.7V | 08:30:00 | 01:33:19 | 00:00:00 | |
| IW2NTF | 2026-09-02 11:09:20 | 44.19771 | 8.21038 | 85° | 53km/h | 18668m | 4.1m/s | -58.5°C | 5.3% | 0hPa | 2.7V | 08:30:00 | 01:33:09 | 00:00:00 | |
| AUTORXJP | 2026-09-02 11:09:19 | 44.19778 | 8.21105 | 78° | 46km/h | 18685m | 5.2m/s | -58.5°C | 1.6% | -1.0hPa | 2.7V | 00:00:00 | 00:00:00 | 00:00:00 | |
| IW2NTF | 2026-09-02 11:09:09 | 44.19740 | 8.20850 | 70° | 53km/h | 18627m | 4m/s | -58.2°C | 5.2% | 0hPa | 2.7V | 08:30:00 | 01:32:59 | 00:00:00 | |
| IW2NTF | 2026-09-02 11:08:58 | 44.19707 | 8.20665 | 75° | 57km/h | 18585m | 3.9m/s | -58°C | 5.2% | 0hPa | 2.6V | 08:30:00 | 01:32:49 | 00:00:00 | |
| IW2NTF | 2026-09-02 11:08:50 | 44.19669 | 8.20495 | 76° | 58km/h | 18542m | 4.4m/s | -57.9°C | 5% | 0hPa | 2.7V | 08:30:00 | 01:32:39 | 00:00:00 | |
| AUTORXJP | 2026-09-02 11:08:48 | 44.19676 | 8.20532 | 75° | 51km/h | 18552m | 4.7m/s | -57.9°C | 1.6% | -1.0hPa | 2.7V | 00:00:00 | 00:00:00 | 00:00:00 | |
| IW2NTF | 2026-09-02 11:08:39 | 44.19638 | 8.20322 | 71° | 38km/h | 18496m | 5.1m/s | -57.9°C | 5.2% | 0hPa | 2.7V | 08:30:00 | 01:32:29 | 00:00:00 | |
| IW2NTF | 2026-09-02 11:08:27 | 44.19599 | 8.20126 | 69° | 40km/h | 18444m | 4.3m/s | -57.9°C | 5.1% | 0hPa | 2.6V | 08:30:00 | 01:32:17 | 00:00:00 | |
| AUTORXJP | 2026-09-02 11:08:17 | 44.19573 | 8.20035 | 71° | 40km/h | 18414m | 4.7m/s | -57.8°C | 1.6% | -1.0hPa | 2.7V | 00:00:00 | 00:00:00 | 00:00:00 | |
| IW2NTF | 2026-09-02 11:08:15 | 44.19561 | 8.19992 | 67° | 44km/h | 18400m | 4.3m/s | -57.6°C | 5% | 0hPa | 2.7V | 08:30:00 | 01:32:07 | 00:00:00 | |
| IW2NTF | 2026-09-02 11:08:03 | 44.19528 | 8.19844 | 78° | 38km/h | 18348m | 4.9m/s | -57.5°C | 5% | 0hPa | 2.6V | 08:30:00 | 01:31:55 | 00:00:00 | |
| IW2NTF | 2026-09-02 11:07:56 | 44.19501 | 8.19726 | 75° | 31km/h | 18305m | 3.6m/s | -57.4°C | 4.9% | 0hPa | 2.6V | 08:30:00 | 01:31:45 | 00:00:00 | |
| AUTORXJP | 2026-09-02 11:07:46 | 44.19496 | 8.19664 | 80° | 31km/h | 18278m | 4.2m/s | -57.5°C | 1.6% | -1.0hPa | 2.7V | 00:00:00 | 00:00:00 | 00:00:00 | |
| IW2NTF | 2026-09-02 11:07:45 | 44.19482 | 8.19593 | 71° | 35km/h | 18251m | 5.1m/s | -57.6°C | 5% | 0hPa | 2.7V | 08:30:00 | 01:31:33 | 00:00:00 | |
| IW2NTF | 2026-09-02 11:07:33 | 44.19481 | 8.19498 | 82° | 29km/h | 18206m | 4.2m/s | -57.4°C | 4.9% | 0hPa | 2.6V | 08:30:00 | 01:31:23 | 00:00:00 | |
| IW2NTF | 2026-09-02 11:07:21 | 44.19473 | 8.19393 | 98° | 29km/h | 18162m | 4.6m/s | -57.7°C | 5% | 0hPa | 2.6V | 08:30:00 | 01:31:13 | 00:00:00 | |
| AUTORXJP | 2026-09-02 11:07:15 | 44.19475 | 8.19339 | 91° | 29km/h | 18140m | 4.0m/s | -57.7°C | 1.6% | -1.0hPa | 2.7V | 00:00:00 | 00:00:00 | 00:00:00 | |
| IW2NTF | 2026-09-02 11:07:09 | 44.19484 | 8.19276 | 100° | 29km/h | 18112m | 4.1m/s | -57.5°C | 5.1% | 0hPa | 2.7V | 08:30:00 | 01:31:02 | 00:00:00 | |
| IW2NTF | 2026-09-02 11:07:03 | 44.19506 | 8.19184 | 109° | 27km/h | 18070m | 4m/s | -57.2°C | 4.9% | 0hPa | 2.6V | 08:30:00 | 01:30:52 | 00:00:00 | |
| IW2NTF | 2026-09-02 11:06:51 | 44.19520 | 8.19108 | 107° | 22km/h | 18026m | 3.4m/s | -57°C | 5% | 0hPa | 2.7V | 08:30:00 | 01:30:42 | 00:00:00 | |
| AUTORXJP | 2026-09-02 11:06:43 | 44.19528 | 8.19073 | 97° | 16km/h | 18004m | 4.2m/s | -56.8°C | 1.5% | -1.0hPa | 2.6V | 00:00:00 | 00:00:00 | 00:00:00 | |
| IW2NTF | 2026-09-02 11:06:39 | 44.19531 | 8.19044 | 98° | 18km/h | 17981m | 4.5m/s | -56.6°C | 4.9% | 0hPa | 2.6V | 08:30:00 | 01:30:32 | 00:00:00 | |
| IW2NTF | 2026-09-02 11:06:31 | 44.19553 | 8.18972 | 110° | 16km/h | 17937m | 4.7m/s | -56.2°C | 4.7% | 0hPa | 2.7V | 08:30:00 | 01:30:22 | 00:00:00 | |
| IW2NTF | 2026-09-02 11:06:23 | 44.19572 | 8.18912 | 127° | 26km/h | 17893m | 4.8m/s | -56.1°C | 4.7% | 0hPa | 2.6V | 08:30:00 | 01:30:12 | 00:00:00 | |
| AUTORXJP | 2026-09-02 11:06:12 | 44.19585 | 8.18870 | 87° | 16km/h | 17867m | 4.0m/s | -56.0°C | 1.4% | -1.0hPa | 2.6V | 00:00:00 | 00:00:00 | 00:00:00 | |
| IW2NTF | 2026-09-02 11:06:11 | 44.19592 | 8.18849 | 134° | 20km/h | 17850m | 4m/s | -56°C | 4.6% | 0hPa | 2.6V | 08:30:00 | 01:30:02 | 00:00:00 | |
| IW2NTF | 2026-09-02 11:05:59 | 44.19634 | 8.18764 | 111° | 29km/h | 17805m | 3.9m/s | -56°C | 4.7% | 0hPa | 2.7V | 08:30:00 | 01:29:52 | 00:00:00 | |
| IW2NTF | 2026-09-02 11:05:54 | 44.19675 | 8.18678 | 124° | 37km/h | 17762m | 3.6m/s | -56.2°C | 4.6% | 0hPa | 2.6V | 08:30:00 | 01:29:42 | 00:00:00 | |
| IW2NTF | 2026-09-02 11:05:41 | 44.19724 | 8.18514 | 115° | 38km/h | 17710m | 3.5m/s | -56.7°C | 4.7% | 0hPa | 2.6V | 08:30:00 | 01:29:30 | 00:00:00 | |
| AUTORXJP | 2026-09-02 11:05:41 | 44.19706 | 8.18579 | 109° | 44km/h | 17732m | 4.7m/s | -56.5°C | 1.5% | -1.0hPa | 2.6V | 00:00:00 | 00:00:00 | 00:00:00 | |
| IW2NTF | 2026-09-02 11:05:29 | 44.19785 | 8.18359 | 115° | 47km/h | 17657m | 4.3m/s | -57.3°C | 4.9% | 0hPa | 2.6V | 08:30:00 | 01:29:18 | 00:00:00 | |
| IW2NTF | 2026-09-02 11:05:17 | 44.19825 | 8.18225 | 109° | 49km/h | 17612m | 4m/s | -57.6°C | 5.1% | 0hPa | 2.6V | 08:30:00 | 01:29:08 | 00:00:00 | |
| AUTORXJP | 2026-09-02 11:05:10 | 44.19838 | 8.18155 | 98° | 53km/h | 17595m | 3.0m/s | -57.5°C | 1.7% | -1.0hPa | 2.6V | 00:00:00 | 00:00:00 | 00:00:00 | |
| IW2NTF | 2026-09-02 11:05:05 | 44.19854 | 8.18049 | 107° | 47km/h | 17570m | 4m/s | -57.5°C | 4.9% | 0hPa | 2.6V | 08:30:00 | 01:28:58 | 00:00:00 | |
| IW2NTF | 2026-09-02 11:04:59 | 44.19885 | 8.17902 | 104° | 47km/h | 17527m | 4.3m/s | -58°C | 5.2% | 0hPa | 2.7V | 08:30:00 | 01:28:48 | 00:00:00 | |
| IW2NTF | 2026-09-02 11:04:48 | 44.19926 | 8.17755 | 118° | 42km/h | 17482m | 4.9m/s | -58.5°C | 5.4% | 0hPa | 2.6V | 08:30:00 | 01:28:38 | 00:00:00 | |
| AUTORXJP | 2026-09-02 11:04:39 | 44.19949 | 8.17681 | 107° | 49km/h | 17460m | 5.1m/s | -58.5°C | 1.8% | -1.0hPa | 2.6V | 00:00:00 | 00:00:00 | 00:00:00 | |
| IW2NTF | 2026-09-02 11:04:35 | 44.19965 | 8.17595 | 102° | 47km/h | 17437m | 3.7m/s | -58.2°C | 5.5% | 0hPa | 2.6V | 08:30:00 | 01:28:28 | 00:00:00 | |
| IW2NTF | 2026-09-02 11:04:29 | 44.19997 | 8.17439 | 107° | 51km/h | 17393m | 4.6m/s | -58.2°C | 5.3% | 0hPa | 2.7V | 08:30:00 | 01:28:18 | 00:00:00 | |
| IW2NTF | 2026-09-02 11:04:17 | 44.20031 | 8.17283 | 112° | 49km/h | 17347m | 4.4m/s | -58.3°C | 5.5% | 0hPa | 2.7V | 08:30:00 | 01:28:08 | 00:00:00 | |
| AUTORXJP | 2026-09-02 11:04:08 | 44.20064 | 8.17186 | 115° | 53km/h | 17323m | 4.6m/s | -58.4°C | 1.9% | -1.0hPa | 2.7V | 00:00:00 | 00:00:00 | 00:00:00 | |
| IW2NTF | 2026-09-02 11:04:05 | 44.20085 | 8.17120 | 112° | 47km/h | 17304m | 4.4m/s | -58.6°C | 5.4% | 0hPa | 2.7V | 08:30:00 | 01:27:58 | 00:00:00 | |
| IW2NTF | 2026-09-02 11:03:59 | 44.20133 | 8.16961 | 114° | 55km/h | 17260m | 4.2m/s | -58.8°C | 5.7% | 0hPa | 2.7V | 08:30:00 | 01:27:48 | 00:00:00 | |
| IW2NTF | 2026-09-02 11:03:47 | 44.20182 | 8.16783 | 114° | 53km/h | 17215m | 5.2m/s | -59°C | 5.7% | 0hPa | 2.6V | 08:30:00 | 01:27:38 | 00:00:00 | |
| AUTORXJP | 2026-09-02 11:03:37 | 44.20215 | 8.16663 | 109° | 47km/h | 17186m | 4.3m/s | -59.0°C | 2.1% | -1.0hPa | 2.7V | 00:00:00 | 00:00:00 | 00:00:00 | |
| IW2NTF | 2026-09-02 11:03:35 | 44.20226 | 8.16615 | 102° | 49km/h | 17173m | 4.7m/s | -59°C | 5.8% | 0hPa | 2.7V | 08:30:00 | 01:27:28 | 00:00:00 | |
| IW2NTF | 2026-09-02 11:03:29 | 44.20257 | 8.16458 | 109° | 40km/h | 17131m | 3.9m/s | -59.1°C | 5.9% | 0hPa | 2.7V | 08:30:00 | 01:27:18 | 00:00:00 | |
| IW2NTF | 2026-09-02 11:03:16 | 44.20283 | 8.16282 | 105° | 38km/h | 17077m | 3.9m/s | -59°C | 5.7% | 0hPa | 2.7V | 08:30:00 | 01:27:05 | 00:00:00 | |
| AUTORXJP | 2026-09-02 11:03:06 | 44.20300 | 8.16212 | 109° | 42km/h | 17055m | 4.2m/s | -59.1°C | 2.1% | -1.0hPa | 2.6V | 00:00:00 | 00:00:00 | 00:00:00 | |
| IW2NTF | 2026-09-02 11:02:51 | 44.20350 | 8.15903 | 102° | 46km/h | 16970m | 3.8m/s | -59.1°C | 5.9% | 0hPa | 2.6V | 08:30:00 | 01:26:40 | 00:00:00 | |
| IW2NTF | 2026-09-02 11:02:42 | 44.20373 | 8.15758 | 103° | 42km/h | 16926m | 5m/s | -59°C | 5.9% | 0hPa | 2.6V | 08:30:00 | 01:26:30 | 00:00:00 | |
| AUTORXJP | 2026-09-02 11:02:35 | 44.20378 | 8.15728 | 102° | 44km/h | 16918m | 3.7m/s | -58.9°C | 2.2% | -1.0hPa | 2.7V | 00:00:00 | 00:00:00 | 00:00:00 | |
| IW2NTF | 2026-09-02 11:02:31 | 44.20388 | 8.15607 | 98° | 38km/h | 16884m | 3.7m/s | -58.7°C | 5.8% | 0hPa | 2.7V | 08:30:00 | 01:26:20 | 00:00:00 | |
| IW2NTF | 2026-09-02 11:02:21 | 44.20403 | 8.15464 | 91° | 42km/h | 16844m | 4.1m/s | -58.4°C | 5.8% | 0hPa | 2.7V | 08:30:00 | 01:26:10 | 00:00:00 | |
| IW2NTF | 2026-09-02 11:02:11 | 44.20406 | 8.15323 | 91° | 38km/h | 16801m | 3.7m/s | -58.2°C | 5.7% | 0hPa | 2.6V | 08:30:00 | 01:26:00 | 00:00:00 | |
| AUTORXJP | 2026-09-02 11:02:04 | 44.20407 | 8.15296 | 93° | 38km/h | 16793m | 4.0m/s | -58.0°C | 2.1% | -1.0hPa | 2.7V | 00:00:00 | 00:00:00 | 00:00:00 | |
| IW2NTF | 2026-09-02 11:02:02 | 44.20405 | 8.15194 | 88° | 37km/h | 16759m | 4.5m/s | -57.8°C | 5.5% | 0hPa | 2.7V | 08:30:00 | 01:25:50 | 00:00:00 | |
| IW2NTF | 2026-09-02 11:01:49 | 44.20409 | 8.15039 | 95° | 31km/h | 16706m | 4.9m/s | -57.5°C | 5.5% | 0hPa | 2.6V | 08:30:00 | 01:25:38 | 00:00:00 | |
| IW2NTF | 2026-09-02 11:01:39 | 44.20419 | 8.14906 | 102° | 40km/h | 16663m | 3.6m/s | -57.6°C | 5.4% | 0hPa | 2.6V | 08:30:00 | 01:25:28 | 00:00:00 | |
| AUTORXJP | 2026-09-02 11:01:33 | 44.20423 | 8.14880 | 101° | 35km/h | 16654m | 4.7m/s | -57.5°C | 2.0% | -1.0hPa | 2.7V | 00:00:00 | 00:00:00 | 00:00:00 | |
| IW2NTF | 2026-09-02 11:01:29 | 44.20444 | 8.14792 | 111° | 38km/h | 16621m | 5m/s | -57.6°C | 5.4% | 0hPa | 2.7V | 08:30:00 | 01:25:18 | 00:00:00 | |
| IW2NTF | 2026-09-02 11:01:19 | 44.20476 | 8.14656 | 102° | 35km/h | 16579m | 4.3m/s | -58.1°C | 5.6% | 0hPa | 2.6V | 08:30:00 | 01:25:08 | 00:00:00 | |
| IW2NTF | 2026-09-02 11:01:09 | 44.20497 | 8.14522 | 101° | 40km/h | 16537m | 4.3m/s | -58°C | 5.5% | 0hPa | 2.6V | 08:30:00 | 01:24:58 | 00:00:00 | |
| AUTORXJP | 2026-09-02 11:01:02 | 44.20502 | 8.14481 | 97° | 40km/h | 16525m | 3.7m/s | -58.0°C | 2.0% | -1.0hPa | 2.7V | 00:00:00 | 00:00:00 | 00:00:00 | |
| IW2NTF | 2026-09-02 11:00:58 | 44.20519 | 8.14347 | 103° | 49km/h | 16492m | 3.6m/s | -57.9°C | 5.3% | 0hPa | 2.7V | 08:30:00 | 01:24:47 | 00:00:00 | |
| IW2NTF | 2026-09-02 11:00:48 | 44.20539 | 8.14191 | 96° | 51km/h | 16450m | 4.3m/s | -57.8°C | 5.5% | 0hPa | 2.7V | 08:30:00 | 01:24:37 | 00:00:00 | |
| IW2NTF | 2026-09-02 11:00:36 | 44.20573 | 8.13988 | 107° | 51km/h | 16399m | 5.1m/s | -57.8°C | 5.4% | 0hPa | 2.7V | 08:30:00 | 01:24:25 | 00:00:00 | |
| AUTORXJP | 2026-09-02 11:00:31 | 44.20577 | 8.13970 | 106° | 55km/h | 16394m | 4.8m/s | -57.7°C | 2.0% | -1.0hPa | 2.6V | 00:00:00 | 00:00:00 | 00:00:00 | |
| IW2NTF | 2026-09-02 11:00:26 | 44.20600 | 8.13786 | 99° | 55km/h | 16356m | 4.2m/s | -57.7°C | 5.4% | 0hPa | 2.6V | 08:30:00 | 01:24:15 | 00:00:00 | |
| IW2NTF | 2026-09-02 11:00:17 | 44.20624 | 8.13601 | 97° | 57km/h | 16314m | 3.6m/s | -57.5°C | 5.4% | 0hPa | 2.7V | 08:30:00 | 01:24:05 | 00:00:00 | |
| IW2NTF | 2026-09-02 11:00:06 | 44.20634 | 8.13407 | 95° | 55km/h | 16271m | 5m/s | -57.4°C | 5.3% | 0hPa | 2.7V | 08:30:00 | 01:23:55 | 00:00:00 | |
| AUTORXJP | 2026-09-02 11:00:00 | 44.20637 | 8.13368 | 98° | 55km/h | 16262m | 3.3m/s | -57.2°C | 1.9% | -1.0hPa | 2.6V | 00:00:00 | 00:00:00 | 00:00:00 | |
| IW2NTF | 2026-09-02 10:59:56 | 44.20647 | 8.13219 | 88° | 53km/h | 16227m | 4m/s | -57°C | 5.2% | 0hPa | 2.6V | 08:30:00 | 01:23:45 | 00:00:00 | |
| IW2NTF | 2026-09-02 10:59:46 | 44.20653 | 8.13042 | 94° | 49km/h | 16185m | 4.2m/s | -56.8°C | 5.1% | 0hPa | 2.7V | 08:30:00 | 01:23:35 | 00:00:00 | |
| IW2NTF | 2026-09-02 10:59:36 | 44.20651 | 8.12864 | 89° | 53km/h | 16142m | 3.8m/s | -56.9°C | 5.2% | 0hPa | 2.8V | 08:30:00 | 01:23:25 | 00:00:00 | |
| AUTORXJP | 2026-09-02 10:59:29 | 44.20651 | 8.12812 | 88° | 46km/h | 16130m | 4.0m/s | -56.8°C | 1.9% | -1.0hPa | 2.6V | 00:00:00 | 00:00:00 | 00:00:00 | |
| IW2NTF | 2026-09-02 10:59:26 | 44.20650 | 8.12700 | 89° | 42km/h | 16100m | 4.6m/s | -56.9°C | 5.1% | 0hPa | 2.6V | 08:30:00 | 01:23:15 | 00:00:00 | |
| IW2NTF | 2026-09-02 10:59:16 | 44.20652 | 8.12554 | 88° | 40km/h | 16060m | 4.1m/s | -56.8°C | 5.3% | 0hPa | 2.7V | 08:30:00 | 01:23:05 | 00:00:00 | |
| IW2NTF | 2026-09-02 10:59:06 | 44.20642 | 8.12394 | 81° | 47km/h | 16021m | 4.6m/s | -56.6°C | 5.2% | 0hPa | 2.7V | 08:30:00 | 01:22:55 | 00:00:00 | |
| AUTORXJP | 2026-09-02 10:58:57 | 44.20637 | 8.12327 | 87° | 46km/h | 16004m | 3.7m/s | -56.4°C | 1.9% | -1.0hPa | 2.6V | 00:00:00 | 00:00:00 | 00:00:00 | |
| IW2NTF | 2026-09-02 10:58:56 | 44.20643 | 8.12230 | 97° | 42km/h | 15978m | 2.7m/s | -56.2°C | 5% | 0hPa | 2.6V | 08:30:00 | 01:22:45 | 00:00:00 | |
| IW2NTF | 2026-09-02 10:58:46 | 44.20654 | 8.12070 | 101° | 44km/h | 15933m | 4.6m/s | -56.2°C | 5.1% | 0hPa | 2.7V | 08:30:00 | 01:22:35 | 00:00:00 | |
| IW2NTF | 2026-09-02 10:58:36 | 44.20676 | 8.11890 | 102° | 49km/h | 15890m | 4.5m/s | -56.5°C | 5.1% | 0hPa | 2.8V | 08:30:00 | 01:22:25 | 00:00:00 | |
| IW2NTF | 2026-09-02 10:58:26 | 44.20713 | 8.11704 | 106° | 62km/h | 15848m | 3.7m/s | -56.4°C | 5.1% | 0hPa | 2.6V | 08:30:00 | 01:22:15 | 00:00:00 | |
| IW2NTF | 2026-09-02 10:58:16 | 44.20764 | 8.11513 | 113° | 60km/h | 15808m | 4.5m/s | -56.6°C | 5.1% | 0hPa | 2.7V | 08:30:00 | 01:22:05 | 00:00:00 | |
| IW2NTF | 2026-09-02 10:58:06 | 44.20823 | 8.11315 | 108° | 62km/h | 15769m | 3.2m/s | -56.7°C | 5.2% | 0hPa | 2.8V | 08:30:00 | 01:21:55 | 00:00:00 | |
| IW2NTF | 2026-09-02 10:57:56 | 44.20878 | 8.11095 | 108° | 69km/h | 15729m | 4m/s | -56.9°C | 5.2% | 0hPa | 2.6V | 08:30:00 | 01:21:45 | 00:00:00 | |
| AUTORXJP | 2026-09-02 10:57:55 | 44.20855 | 8.11187 | 108° | 68km/h | 15745m | 3.9m/s | -56.7°C | 2.0% | -1.0hPa | 2.7V | 00:00:00 | 00:00:00 | 00:00:00 | |
| IW2NTF | 2026-09-02 10:57:46 | 44.20927 | 8.10869 | 108° | 64km/h | 15689m | 4.2m/s | -57°C | 5.3% | 0hPa | 2.7V | 08:30:00 | 01:21:35 | 00:00:00 | |
| IW2NTF | 2026-09-02 10:57:37 | 44.20977 | 8.10656 | 106° | 68km/h | 15648m | 4.2m/s | -57.6°C | 5.5% | 0hPa | 2.8V | 08:30:00 | 01:21:25 | 00:00:00 | |
| IW2NTF | 2026-09-02 10:57:26 | 44.21027 | 8.10414 | 103° | 77km/h | 15606m | 3.6m/s | -57.6°C | 5.4% | 0hPa | 2.6V | 08:30:00 | 01:21:15 | 00:00:00 | |
| AUTORXJP | 2026-09-02 10:57:24 | 44.21012 | 8.10491 | 106° | 73km/h | 15618m | 3.8m/s | -57.6°C | 2.1% | -1.0hPa | 2.7V | 00:00:00 | 00:00:00 | 00:00:00 | |
| IW2NTF | 2026-09-02 10:57:16 | 44.21072 | 8.10162 | 103° | 69km/h | 15564m | 4.9m/s | -57.3°C | 5.5% | 0hPa | 2.7V | 08:30:00 | 01:21:05 | 00:00:00 | |
| IW2NTF | 2026-09-02 10:57:06 | 44.21111 | 8.09919 | 104° | 69km/h | 15522m | 4.1m/s | -57.1°C | 5.5% | 0hPa | 2.8V | 08:30:00 | 01:20:55 | 00:00:00 | |
| IW2NTF | 2026-09-02 10:56:56 | 44.21149 | 8.09696 | 104° | 68km/h | 15479m | 4.2m/s | -56.9°C | 5.4% | 0hPa | 2.6V | 08:30:00 | 01:20:45 | 00:00:00 | |
| AUTORXJP | 2026-09-02 10:56:53 | 44.21142 | 8.09741 | 102° | 64km/h | 15487m | 3.3m/s | -56.9°C | 2.1% | -1.0hPa | 2.8V | 00:00:00 | 00:00:00 | 00:00:00 | |
| IW2NTF | 2026-09-02 10:56:47 | 44.21185 | 8.09477 | 103° | 60km/h | 15436m | 4.6m/s | -56.6°C | 5.4% | 0hPa | 2.8V | 08:30:00 | 01:20:35 | 00:00:00 | |
| IW2NTF | 2026-09-02 10:56:36 | 44.21220 | 8.09267 | 100° | 62km/h | 15395m | 4.2m/s | -56.2°C | 5.2% | 0hPa | 2.8V | 08:30:00 | 01:20:25 | 00:00:00 | |
| IW2NTF | 2026-09-02 10:56:26 | 44.21254 | 8.09066 | 105° | 58km/h | 15352m | 3.8m/s | -56°C | 5.2% | 0hPa | 2.6V | 08:30:00 | 01:20:15 | 00:00:00 | |
| AUTORXJP | 2026-09-02 10:56:22 | 44.21250 | 8.09085 | 106° | 57km/h | 15356m | 4.0m/s | -55.9°C | 2.0% | -1.0hPa | 2.8V | 00:00:00 | 00:00:00 | 00:00:00 | |
| IW2NTF | 2026-09-02 10:56:16 | 44.21291 | 8.08872 | 108° | 55km/h | 15308m | 4.3m/s | -55.8°C | 5.2% | 0hPa | 2.8V | 08:30:00 | 01:20:05 | 00:00:00 | |
| IW2NTF | 2026-09-02 10:56:06 | 44.21330 | 8.08692 | 108° | 53km/h | 15266m | 3.5m/s | -55.6°C | 5.1% | 0hPa | 2.8V | 08:30:00 | 01:19:55 | 00:00:00 | |
| IW2NTF | 2026-09-02 10:55:56 | 44.21391 | 8.08510 | 117° | 60km/h | 15220m | 4.5m/s | -55.7°C | 5.2% | 0hPa | 2.6V | 08:30:00 | 01:19:45 | 00:00:00 | |
| AUTORXJP | 2026-09-02 10:55:52 | 44.21391 | 8.08511 | 117° | 58km/h | 15220m | 4.5m/s | -55.7°C | 2.1% | -1.0hPa | 2.7V | 00:00:00 | 00:00:00 | 00:00:00 | |
| IW2NTF | 2026-09-02 10:55:38 | 44.21540 | 8.08157 | 117° | 64km/h | 15133m | 3.7m/s | -55.8°C | 5.1% | 0hPa | 2.7V | 08:30:00 | 01:19:26 | 00:00:00 | |
| IW2NTF | 2026-09-02 10:55:27 | 44.21624 | 8.07955 | 117° | 69km/h | 15092m | 4m/s | -56.1°C | 5.3% | 0hPa | 2.6V | 08:30:00 | 01:19:16 | 00:00:00 | |
| AUTORXJP | 2026-09-02 10:55:20 | 44.21641 | 8.07912 | 118° | 68km/h | 15084m | 5.0m/s | -56.2°C | 2.2% | -1.0hPa | 2.8V | 00:00:00 | 00:00:00 | 00:00:00 | |
| IW2NTF | 2026-09-02 10:55:18 | 44.21716 | 8.07739 | 120° | 75km/h | 15053m | 3.5m/s | -56.5°C | 5.6% | 0hPa | 2.8V | 08:30:00 | 01:19:06 | 00:00:00 | |
| AUTORXJP | 2026-09-02 10:54:49 | 44.21914 | 8.07202 | 114° | 73km/h | 14959m | 4.3m/s | -56.6°C | 2.3% | -1.0hPa | 2.8V | 00:00:00 | 00:00:00 | 00:00:00 | |
| IW2NTF | 2026-09-02 10:54:43 | 44.21984 | 8.06942 | 112° | 69km/h | 14917m | 4.4m/s | -57.1°C | 5.7% | 0hPa | 2.8V | 08:30:00 | 01:18:32 | 00:00:00 | |
| IW2NTF | 2026-09-02 10:54:24 | 44.22116 | 8.06472 | 112° | 78km/h | 14840m | 4.4m/s | -58°C | 6% | 0hPa | 2.7V | 08:30:00 | 01:18:12 | 00:00:00 | |
| AUTORXJP | 2026-09-02 10:54:18 | 44.22117 | 8.06473 | 112° | 77km/h | 14840m | 4.4m/s | -58.0°C | 2.5% | -1.0hPa | 2.8V | 00:00:00 | 00:00:00 | 00:00:00 | |
| IW2NTF | 2026-09-02 10:53:50 | 44.22327 | 8.05715 | 115° | 68km/h | 14690m | 3.9m/s | -57.4°C | 5.8% | 0hPa | 2.8V | 08:30:00 | 01:17:38 | 00:00:00 | |
| AUTORXJP | 2026-09-02 10:53:49 | 44.22308 | 8.05777 | 113° | 58km/h | 14702m | 4.4m/s | -57.6°C | 2.5% | -1.0hPa | 2.8V | 00:00:00 | 00:00:00 | 00:00:00 | |
| IW2NTF | 2026-09-02 10:53:40 | 44.22399 | 8.05515 | 112° | 60km/h | 14647m | 4m/s | -57°C | 6% | 0hPa | 2.8V | 08:30:00 | 01:17:28 | 00:00:00 | |
| IW2NTF | 2026-09-02 10:53:30 | 44.22472 | 8.05327 | 127° | 66km/h | 14603m | 5.4m/s | -56.6°C | 5.7% | 0hPa | 2.8V | 08:30:00 | 01:17:18 | 00:00:00 | |
| IW2NTF | 2026-09-02 10:53:19 | 44.22539 | 8.05141 | 118° | 58km/h | 14559m | 4.4m/s | -56.3°C | 5.6% | 0hPa | 2.8V | 08:30:00 | 01:17:08 | 00:00:00 | |
| AUTORXJP | 2026-09-02 10:53:16 | 44.22525 | 8.05175 | 116° | 51km/h | 14568m | 3.9m/s | -56.4°C | 2.5% | -1.0hPa | 2.7V | 00:00:00 | 00:00:00 | 00:00:00 | |
| IW2NTF | 2026-09-02 10:53:10 | 44.22610 | 8.04958 | 122° | 57km/h | 14519m | 3.5m/s | -56.9°C | 5.8% | 0hPa | 2.7V | 08:30:00 | 01:16:58 | 00:00:00 | |
| AUTORXJP | 2026-09-02 10:52:45 | 44.22777 | 8.04599 | 125° | 69km/h | 14445m | 3.9m/s | -57.3°C | 2.9% | -1.0hPa | 2.7V | 00:00:00 | 00:00:00 | 00:00:00 | |
| IW2NTF | 2026-09-02 10:52:30 | 44.22965 | 8.04163 | 115° | 73km/h | 14367m | 2.7m/s | -57.6°C | 6.6% | 0hPa | 2.7V | 08:30:00 | 01:16:19 | 00:00:00 | |
| AUTORXJP | 2026-09-02 10:52:14 | 44.23064 | 8.03929 | 122° | 69km/h | 14327m | 3.8m/s | -57.7°C | 3.3% | -1.0hPa | 2.7V | 00:00:00 | 00:00:00 | 00:00:00 | |
| AUTORXJP | 2026-09-02 10:51:43 | 44.23316 | 8.03328 | 122° | 60km/h | 14209m | 3.3m/s | -58.2°C | 3.4% | -1.0hPa | 2.7V | 00:00:00 | 00:00:00 | 00:00:00 | |
| IW2NTF | 2026-09-02 10:51:30 | 44.23504 | 8.02966 | 131° | 75km/h | 14137m | 3m/s | -58.2°C | 7% | 0hPa | 2.7V | 08:30:00 | 01:15:19 | 00:00:00 | |
| IW2NTF | 2026-09-02 10:51:24 | 44.23616 | 8.02762 | 123° | 75km/h | 14098m | 3m/s | -58.7°C | 7.5% | 0hPa | 2.8V | 08:30:00 | 01:15:09 | 00:00:00 | |
| AUTORXJP | 2026-09-02 10:51:12 | 44.23661 | 8.02675 | 126° | 77km/h | 14083m | 4.4m/s | -58.6°C | -1.0% | -1.0hPa | 2.7V | 00:00:00 | 00:00:00 | 00:00:00 | |
| IW2NTF | 2026-09-02 10:51:10 | 44.23730 | 8.02543 | 126° | 77km/h | 14060m | 4.9m/s | -58.9°C | 7.4% | 0hPa | 2.7V | 08:30:00 | 01:14:59 | 00:00:00 | |
| IW2NTF | 2026-09-02 10:50:59 | 44.23843 | 8.02307 | 119° | 75km/h | 14016m | 4.9m/s | -58.8°C | 7.5% | 0hPa | 2.8V | 08:30:00 | 01:14:48 | 00:00:00 | |
| IW2NTF | 2026-09-02 10:50:50 | 44.23937 | 8.02078 | 119° | 71km/h | 13975m | 3.6m/s | -58.7°C | 7.5% | 0hPa | 2.8V | 08:30:00 | 01:14:38 | 00:00:00 | |
| AUTORXJP | 2026-09-02 10:50:42 | 44.23973 | 8.01986 | 117° | 75km/h | 13959m | 4.8m/s | 0°C | -1.0% | -1.0hPa | 2.8V | 00:00:00 | 00:00:00 | 00:00:00 | |
| IW2NTF | 2026-09-02 10:50:39 | 44.24022 | 8.01846 | 114° | 68km/h | 13933m | 4.9m/s | -58.5°C | 7.5% | 0hPa | 2.8V | 08:30:00 | 01:14:28 | 00:00:00 | |
| IW2NTF | 2026-09-02 10:50:29 | 44.24100 | 8.01631 | 118° | 71km/h | 13891m | 4.6m/s | -58.4°C | 7.5% | 0hPa | 2.7V | 08:30:00 | 01:14:18 | 00:00:00 | |
| IW2NTF | 2026-09-02 10:50:19 | 44.24173 | 8.01429 | 115° | 64km/h | 13846m | 5.6m/s | -58.1°C | 7.5% | 0hPa | 2.7V | 08:30:00 | 01:14:08 | 00:00:00 | |
| IW2NTF | 2026-09-02 10:50:09 | 44.24241 | 8.01232 | 112° | 53km/h | 13799m | 3.5m/s | -57.8°C | 7.2% | 0hPa | 2.7V | 08:30:00 | 01:13:58 | 00:00:00 | |
| IW2NTF | 2026-09-02 10:49:59 | 44.24327 | 8.01060 | 125° | 55km/h | 13753m | 4.3m/s | -57.5°C | 7.3% | 0hPa | 2.7V | 08:30:00 | 01:13:48 | 00:00:00 | |
| IW2NTF | 2026-09-02 10:49:49 | 44.24405 | 8.00889 | 134° | 57km/h | 13703m | 5.5m/s | -57.1°C | 7.5% | 0hPa | 2.8V | 08:30:00 | 01:13:38 | 00:00:00 | |
| IW2NTF | 2026-09-02 10:49:41 | 44.24488 | 8.00732 | 126° | 62km/h | 13652m | 5.8m/s | -56.9°C | 7.4% | 0hPa | 2.8V | 08:30:00 | 01:13:28 | 00:00:00 | |
| IW2NTF | 2026-09-02 10:49:29 | 44.24591 | 8.00569 | 130° | 47km/h | 13598m | 3.6m/s | -56.4°C | 7.2% | 0hPa | 2.8V | 08:30:00 | 01:13:18 | 00:00:00 | |
| IW2NTF | 2026-09-02 10:49:19 | 44.24704 | 8.00404 | 140° | 84km/h | 13544m | 4.7m/s | -56.2°C | 8% | 0hPa | 2.7V | 08:30:00 | 01:13:08 | 00:00:00 | |
| IW2NTF | 2026-09-02 10:49:09 | 44.24819 | 8.00256 | 145° | 78km/h | 13479m | 8.1m/s | -56.5°C | 8.3% | 0hPa | 2.7V | 08:30:00 | 01:12:58 | 00:00:00 | |
| IW2NTF | 2026-09-02 10:48:59 | 44.24968 | 8.00070 | 133° | 86km/h | 13404m | 7.3m/s | -57.3°C | 9% | 0hPa | 2.8V | 08:30:00 | 01:12:48 | 00:00:00 | |
| IW2NTF | 2026-09-02 10:48:49 | 44.25122 | 7.99855 | 133° | 82km/h | 13353m | 3.6m/s | -57.2°C | 9.7% | 0hPa | 2.8V | 08:30:00 | 01:12:38 | 00:00:00 | |
| IW2NTF | 2026-09-02 10:48:38 | 44.25296 | 7.99616 | 134° | 80km/h | 13296m | 5.5m/s | -57.3°C | 9.8% | 0hPa | 2.8V | 08:30:00 | 01:12:26 | 00:00:00 | |
| IW2NTF | 2026-09-02 10:48:29 | 44.25434 | 7.99418 | 129° | 77km/h | 13249m | 3.8m/s | -57°C | 10% | 0hPa | 2.7V | 08:30:00 | 01:12:16 | 00:00:00 | |
| IW2NTF | 2026-09-02 10:48:17 | 44.25556 | 7.99220 | 133° | 73km/h | 13204m | 4.9m/s | -56.8°C | 10.2% | 0hPa | 2.7V | 08:30:00 | 01:12:06 | 00:00:00 | |
| IW2NTF | 2026-09-02 10:48:07 | 44.25680 | 7.99029 | 130° | 73km/h | 13160m | 5m/s | -56.7°C | 10.6% | 0hPa | 2.8V | 08:30:00 | 01:11:56 | 00:00:00 | |
| IW2NTF | 2026-09-02 10:47:59 | 44.25798 | 7.98845 | 130° | 68km/h | 13117m | 4.5m/s | -56.7°C | 10.9% | 0hPa | 2.7V | 08:30:00 | 01:11:46 | 00:00:00 | |
| IW2NTF | 2026-09-02 10:47:47 | 44.25920 | 7.98669 | 136° | 73km/h | 13075m | 3.4m/s | -56.6°C | 11.3% | 0hPa | 2.8V | 08:30:00 | 01:11:36 | 00:00:00 | |
| IW2NTF | 2026-09-02 10:47:37 | 44.26051 | 7.98515 | 139° | 73km/h | 13035m | 4.2m/s | -56.3°C | 11.7% | 0hPa | 2.7V | 08:30:00 | 01:11:26 | 00:00:00 | |
| IW2NTF | 2026-09-02 10:47:27 | 44.26197 | 7.98364 | 146° | 69km/h | 12996m | 4.8m/s | -56.2°C | 12.6% | 0hPa | 2.7V | 08:30:00 | 01:11:16 | 00:00:00 | |
| IW2NTF | 2026-09-02 10:47:17 | 44.26345 | 7.98223 | 147° | 69km/h | 12959m | 3.8m/s | -56.1°C | 12.9% | 0hPa | 2.8V | 08:30:00 | 01:11:06 | 00:00:00 | |
| IW2NTF | 2026-09-02 10:47:07 | 44.26502 | 7.98091 | 152° | 69km/h | 12921m | 4.4m/s | -56°C | 14.1% | 0hPa | 2.8V | 08:30:00 | 01:10:56 | 00:00:00 | |
| IW2NTF | 2026-09-02 10:46:57 | 44.26670 | 7.97966 | 149° | 73km/h | 12883m | 3.3m/s | -55.7°C | 14.5% | 0hPa | 2.7V | 08:30:00 | 01:10:46 | 00:00:00 | |
| IW2NTF | 2026-09-02 10:46:47 | 44.26840 | 7.97832 | 154° | 80km/h | 12843m | 4.2m/s | -56.2°C | 17.6% | 0hPa | 2.8V | 08:30:00 | 01:10:36 | 00:00:00 | |
| IW2NTF | 2026-09-02 10:46:37 | 44.27023 | 7.97688 | 149° | 82km/h | 12803m | 4.9m/s | -56.7°C | 18.1% | 0hPa | 2.7V | 08:30:00 | 01:10:26 | 00:00:00 | |
| IW2NTF | 2026-09-02 10:46:27 | 44.27223 | 7.97528 | 149° | 97km/h | 12767m | 3.7m/s | -56.9°C | 20.7% | 0hPa | 2.7V | 08:30:00 | 01:10:16 | 00:00:00 | |
| IW2NTF | 2026-09-02 10:46:17 | 44.27418 | 7.97366 | 149° | 95km/h | 12732m | 3.3m/s | -56.7°C | 21.5% | 0hPa | 2.7V | 08:30:00 | 01:10:06 | 00:00:00 | |
| IW2NTF | 2026-09-02 10:46:08 | 44.27627 | 7.97196 | 151° | 95km/h | 12692m | 3.6m/s | -56.8°C | 21.7% | 0hPa | 2.8V | 08:30:00 | 01:09:56 | 00:00:00 | |
| IW2NTF | 2026-09-02 10:45:57 | 44.27845 | 7.97033 | 150° | 104km/h | 12656m | 4.5m/s | -56.9°C | 22.7% | 0hPa | 2.8V | 08:30:00 | 01:09:46 | 00:00:00 | |
| IW2NTF | 2026-09-02 10:45:47 | 44.28083 | 7.96862 | 151° | 108km/h | 12619m | 3.4m/s | -57°C | 24.1% | 0hPa | 2.7V | 08:30:00 | 01:09:36 | 00:00:00 | |
| IW2NTF | 2026-09-02 10:45:37 | 44.28321 | 7.96684 | 149° | 100km/h | 12584m | 2.4m/s | -57.3°C | 25.6% | 0hPa | 2.7V | 08:30:00 | 01:09:26 | 00:00:00 | |
| IW2NTF | 2026-09-02 10:45:28 | 44.28547 | 7.96517 | 152° | 108km/h | 12550m | 3.6m/s | -57.1°C | 26.2% | 0hPa | 2.7V | 08:30:00 | 01:09:16 | 00:00:00 | |
| IW2NTF | 2026-09-02 10:45:17 | 44.28785 | 7.96335 | 151° | 108km/h | 12511m | 3.6m/s | -57°C | 27.5% | 0hPa | 2.7V | 08:30:00 | 01:09:06 | 00:00:00 | |
| IW2NTF | 2026-09-02 10:45:07 | 44.29028 | 7.96143 | 150° | 110km/h | 12475m | 3.8m/s | -57.1°C | 28% | 0hPa | 2.7V | 08:30:00 | 01:08:56 | 00:00:00 | |
| IW2NTF | 2026-09-02 10:44:58 | 44.29276 | 7.95946 | 149° | 122km/h | 12442m | 3.7m/s | -56.8°C | 28.4% | 0hPa | 2.7V | 08:30:00 | 01:08:46 | 00:00:00 | |
| IW2NTF | 2026-09-02 10:44:38 | 44.29760 | 7.95546 | 148° | 117km/h | 12372m | 4.7m/s | -56.5°C | 28% | 0hPa | 2.8V | 08:30:00 | 01:08:27 | 00:00:00 | |
| IW2NTF | 2026-09-02 10:44:28 | 44.30006 | 7.95337 | 148° | 113km/h | 12334m | 4.5m/s | -56.7°C | 28.9% | 0hPa | 2.8V | 08:30:00 | 01:08:17 | 00:00:00 | |
| IW2NTF | 2026-09-02 10:44:18 | 44.30244 | 7.95145 | 149° | 99km/h | 12294m | 4.7m/s | -56.5°C | 28.4% | 0hPa | 2.8V | 08:30:00 | 01:08:07 | 00:00:00 | |
| IW2NTF | 2026-09-02 10:44:09 | 44.30479 | 7.94954 | 149° | 100km/h | 12251m | 3.8m/s | -56.3°C | 28.1% | 0hPa | 2.8V | 08:30:00 | 01:07:57 | 00:00:00 | |
| IW2NTF | 2026-09-02 10:43:58 | 44.30711 | 7.94794 | 155° | 102km/h | 12211m | 3.9m/s | -56.2°C | 28.8% | 0hPa | 2.7V | 08:30:00 | 01:07:47 | 00:00:00 | |
| IW2NTF | 2026-09-02 10:43:49 | 44.30941 | 7.94639 | 154° | 102km/h | 12174m | 4.2m/s | -56°C | 29.7% | 0hPa | 2.7V | 08:30:00 | 01:07:37 | 00:00:00 | |
| IW2NTF | 2026-09-02 10:43:38 | 44.31166 | 7.94496 | 157° | 99km/h | 12137m | 4.3m/s | -55.8°C | 29.2% | 0hPa | 2.8V | 08:30:00 | 01:07:27 | 00:00:00 | |
| IW2NTF | 2026-09-02 10:43:29 | 44.31404 | 7.94368 | 160° | 99km/h | 12098m | 4.5m/s | -55.6°C | 30.3% | 0hPa | 2.8V | 08:30:00 | 01:07:17 | 00:00:00 | |
| IW2NTF | 2026-09-02 10:43:18 | 44.31640 | 7.94251 | 160° | 106km/h | 12060m | 3.5m/s | -55.4°C | 31.1% | 0hPa | 2.7V | 08:30:00 | 01:07:07 | 00:00:00 | |
| IW2NTF | 2026-09-02 10:43:08 | 44.31882 | 7.94142 | 163° | 102km/h | 12021m | 3.8m/s | -55.1°C | 31.6% | 0hPa | 2.7V | 08:30:00 | 01:06:57 | 00:00:00 | |
| IW2NTF | 2026-09-02 10:42:58 | 44.32132 | 7.94034 | 164° | 99km/h | 11984m | 4.3m/s | -54.9°C | 32% | 0hPa | 2.8V | 08:30:00 | 01:06:47 | 00:00:00 | |
| IW2NTF | 2026-09-02 10:42:48 | 44.32391 | 7.93937 | 165° | 108km/h | 11946m | 3.2m/s | -54.9°C | 32.9% | 0hPa | 2.8V | 08:30:00 | 01:06:37 | 00:00:00 | |
| IW2NTF | 2026-09-02 10:42:41 | 44.32654 | 7.93849 | 166° | 110km/h | 11905m | 4m/s | -54.7°C | 32.5% | 0hPa | 2.8V | 08:30:00 | 01:06:27 | 00:00:00 | |
| IW2NTF | 2026-09-02 10:42:28 | 44.32926 | 7.93756 | 165° | 108km/h | 11865m | 3.9m/s | -54.6°C | 32% | 0hPa | 2.8V | 08:30:00 | 01:06:17 | 00:00:00 | |
| IW2NTF | 2026-09-02 10:42:18 | 44.33209 | 7.93663 | 167° | 115km/h | 11826m | 4m/s | -54.3°C | 31.5% | 0hPa | 2.7V | 08:30:00 | 01:06:07 | 00:00:00 | |
| IW2NTF | 2026-09-02 10:42:08 | 44.33496 | 7.93572 | 165° | 110km/h | 11787m | 4.4m/s | -53.8°C | 30.9% | 0hPa | 2.7V | 08:30:00 | 01:05:57 | 00:00:00 | |
| IW2NTF | 2026-09-02 10:41:57 | 44.33799 | 7.93462 | 166° | 115km/h | 11744m | 5m/s | -53.5°C | 30% | 0hPa | 2.7V | 08:30:00 | 01:05:46 | 00:00:00 | |
| IW2NTF | 2026-09-02 10:41:47 | 44.34076 | 7.93364 | 165° | 111km/h | 11703m | 4.8m/s | -53.2°C | 28.9% | 0hPa | 2.8V | 08:30:00 | 01:05:36 | 00:00:00 | |
| IW2NTF | 2026-09-02 10:41:37 | 44.34348 | 7.93264 | 163° | 110km/h | 11665m | 3.7m/s | -52.9°C | 27% | 0hPa | 2.8V | 08:30:00 | 01:05:26 | 00:00:00 | |
| IW2NTF | 2026-09-02 10:41:27 | 44.34614 | 7.93159 | 162° | 106km/h | 11628m | 3.5m/s | -52.6°C | 25.7% | 0hPa | 2.8V | 08:30:00 | 01:05:16 | 00:00:00 | |
| IW2NTF | 2026-09-02 10:41:17 | 44.34872 | 7.93051 | 162° | 106km/h | 11588m | 4.8m/s | -52.4°C | 24.6% | 0hPa | 2.7V | 08:30:00 | 01:05:06 | 00:00:00 | |
| IW2NTF | 2026-09-02 10:41:07 | 44.35123 | 7.92951 | 166° | 99km/h | 11545m | 4.7m/s | -52.2°C | 24.4% | 0hPa | 2.7V | 08:30:00 | 01:04:56 | 00:00:00 | |
| IW2NTF | 2026-09-02 10:40:57 | 44.35368 | 7.92860 | 163° | 104km/h | 11506m | 3.9m/s | -52.1°C | 24.4% | 0hPa | 2.8V | 08:30:00 | 01:04:46 | 00:00:00 | |
| IW2NTF | 2026-09-02 10:40:48 | 44.35616 | 7.92768 | 162° | 104km/h | 11467m | 4m/s | -51.8°C | 24.1% | 0hPa | 2.8V | 08:30:00 | 01:04:36 | 00:00:00 | |
| IW2NTF | 2026-09-02 10:40:37 | 44.35863 | 7.92667 | 164° | 100km/h | 11426m | 4.1m/s | -51.6°C | 24.3% | 0hPa | 2.8V | 08:30:00 | 01:04:26 | 00:00:00 | |
| IW2NTF | 2026-09-02 10:40:27 | 44.36105 | 7.92568 | 162° | 100km/h | 11386m | 3.7m/s | -51.4°C | 23.9% | 0hPa | 2.7V | 08:30:00 | 01:04:16 | 00:00:00 | |
| IW2NTF | 2026-09-02 10:40:17 | 44.36345 | 7.92470 | 164° | 100km/h | 11343m | 3.6m/s | -51.2°C | 23.9% | 0hPa | 2.9V | 08:30:00 | 01:04:06 | 00:00:00 | |
| IW2NTF | 2026-09-02 10:40:07 | 44.36573 | 7.92373 | 163° | 93km/h | 11302m | 4m/s | -51.2°C | 24.8% | 0hPa | 2.9V | 08:30:00 | 01:03:56 | 00:00:00 | |
| IW2NTF | 2026-09-02 10:39:57 | 44.36800 | 7.92280 | 163° | 95km/h | 11261m | 4m/s | -51.1°C | 24.7% | 0hPa | 2.8V | 08:30:00 | 01:03:46 | 00:00:00 | |
| IW2NTF | 2026-09-02 10:39:48 | 44.37028 | 7.92185 | 163° | 95km/h | 11221m | 4.7m/s | -50.9°C | 24.5% | 0hPa | 2.9V | 08:30:00 | 01:03:36 | 00:00:00 | |
| IW2NTF | 2026-09-02 10:39:37 | 44.37259 | 7.92078 | 161° | 99km/h | 11181m | 4.1m/s | -50.7°C | 25.4% | 0hPa | 2.9V | 08:30:00 | 01:03:26 | 00:00:00 | |
| IW2NTF | 2026-09-02 10:39:28 | 44.37497 | 7.91973 | 160° | 99km/h | 11140m | 4.1m/s | -50.5°C | 26.4% | 0hPa | 2.8V | 08:30:00 | 01:03:16 | 00:00:00 | |
| IW2NTF | 2026-09-02 10:39:17 | 44.37735 | 7.91861 | 164° | 99km/h | 11101m | 4.2m/s | -50.2°C | 28.1% | 0hPa | 2.9V | 08:30:00 | 01:03:06 | 00:00:00 | |
| IW2NTF | 2026-09-02 10:39:07 | 44.37978 | 7.91753 | 161° | 104km/h | 11064m | 4.6m/s | -50°C | 27.5% | 0hPa | 2.8V | 08:30:00 | 01:02:56 | 00:00:00 | |
| IW2NTF | 2026-09-02 10:38:57 | 44.38225 | 7.91648 | 161° | 102km/h | 11025m | 4.5m/s | -49.8°C | 27.3% | 0hPa | 2.9V | 08:30:00 | 01:02:46 | 00:00:00 | |
| IW2NTF | 2026-09-02 10:38:47 | 44.38464 | 7.91531 | 161° | 99km/h | 10989m | 4.8m/s | -49.6°C | 28.9% | 0hPa | 2.9V | 08:30:00 | 01:02:36 | 00:00:00 | |
| IW2NTF | 2026-09-02 10:38:37 | 44.38693 | 7.91409 | 158° | 97km/h | 10946m | 3.3m/s | -49.5°C | 32.3% | 0hPa | 2.8V | 08:30:00 | 01:02:26 | 00:00:00 | |
| IW2NTF | 2026-09-02 10:38:27 | 44.38923 | 7.91286 | 160° | 97km/h | 10912m | 4.6m/s | -49.3°C | 34.6% | 0hPa | 2.9V | 08:30:00 | 01:02:16 | 00:00:00 | |
| IW2NTF | 2026-09-02 10:38:17 | 44.39149 | 7.91169 | 162° | 97km/h | 10874m | 4.5m/s | -49°C | 36% | 0hPa | 2.8V | 08:30:00 | 01:02:06 | 00:00:00 | |
| IW2NTF | 2026-09-02 10:38:08 | 44.39376 | 7.91057 | 161° | 93km/h | 10839m | 3.7m/s | -48.8°C | 37% | 0hPa | 2.9V | 08:30:00 | 01:01:56 | 00:00:00 | |
| IW2NTF | 2026-09-02 10:37:57 | 44.39608 | 7.90954 | 159° | 97km/h | 10805m | 3m/s | -48.5°C | 37.2% | 0hPa | 2.9V | 08:30:00 | 01:01:46 | 00:00:00 | |
| IW2NTF | 2026-09-02 10:37:47 | 44.39841 | 7.90844 | 161° | 99km/h | 10773m | 3.4m/s | -48.2°C | 36.8% | 0hPa | 2.9V | 08:30:00 | 01:01:36 | 00:00:00 | |
| IW2NTF | 2026-09-02 10:37:37 | 44.40077 | 7.90727 | 162° | 99km/h | 10737m | 4.2m/s | -47.9°C | 36.4% | 0hPa | 2.9V | 08:30:00 | 01:01:26 | 00:00:00 | |
| IW2NTF | 2026-09-02 10:37:27 | 44.40313 | 7.90624 | 160° | 100km/h | 10704m | 3.4m/s | -47.6°C | 37.5% | 0hPa | 2.9V | 08:30:00 | 01:01:16 | 00:00:00 | |
| IW2NTF | 2026-09-02 10:37:17 | 44.40553 | 7.90515 | 162° | 100km/h | 10672m | 3.1m/s | -47.4°C | 39.3% | 0hPa | 2.9V | 08:30:00 | 01:01:06 | 00:00:00 | |
| IW2NTF | 2026-09-02 10:37:07 | 44.40790 | 7.90406 | 162° | 99km/h | 10639m | 2.9m/s | -47.2°C | 40.9% | 0hPa | 2.9V | 08:30:00 | 01:00:56 | 00:00:00 | |
| IW2NTF | 2026-09-02 10:36:57 | 44.41032 | 7.90299 | 162° | 97km/h | 10607m | 3.7m/s | -47°C | 42.6% | 0hPa | 2.9V | 08:30:00 | 01:00:46 | 00:00:00 | |
| IW2NTF | 2026-09-02 10:36:47 | 44.41270 | 7.90191 | 162° | 100km/h | 10573m | 2.9m/s | -46.8°C | 47.9% | 0hPa | 2.9V | 08:30:00 | 01:00:36 | 00:00:00 | |
| IW2NTF | 2026-09-02 10:36:37 | 44.41512 | 7.90086 | 163° | 97km/h | 10539m | 2.8m/s | -46.6°C | 48.9% | 0hPa | 2.8V | 08:30:00 | 01:00:26 | 00:00:00 | |
| IW2NTF | 2026-09-02 10:36:27 | 44.41755 | 7.89981 | 163° | 102km/h | 10506m | 3.3m/s | -46.3°C | 48.7% | 0hPa | 2.9V | 08:30:00 | 01:00:16 | 00:00:00 | |
| IW2NTF | 2026-09-02 10:36:17 | 44.41993 | 7.89876 | 160° | 97km/h | 10473m | 3.1m/s | -46.2°C | 50.5% | 0hPa | 2.8V | 08:30:00 | 01:00:06 | 00:00:00 | |
| IW2NTF | 2026-09-02 10:36:08 | 44.42223 | 7.89767 | 159° | 89km/h | 10433m | 4.9m/s | -45.8°C | 49.1% | 0hPa | 2.9V | 08:30:00 | 00:59:56 | 00:00:00 | |
| IW2NTF | 2026-09-02 10:35:57 | 44.42451 | 7.89661 | 160° | 97km/h | 10397m | 3.6m/s | -45.4°C | 47.8% | 0hPa | 2.9V | 08:30:00 | 00:59:46 | 00:00:00 | |
| IW2NTF | 2026-09-02 10:35:46 | 44.42699 | 7.89545 | 162° | 100km/h | 10359m | 3.2m/s | -45.1°C | 50% | 0hPa | 2.9V | 08:30:00 | 00:59:35 | 00:00:00 | |
| IW2NTF | 2026-09-02 10:35:36 | 44.42928 | 7.89432 | 160° | 93km/h | 10322m | 3m/s | -44.9°C | 57.1% | 0hPa | 2.9V | 08:30:00 | 00:59:25 | 00:00:00 | |
| IW2NTF | 2026-09-02 10:35:26 | 44.43154 | 7.89317 | 158° | 93km/h | 10285m | 3.3m/s | -44.6°C | 58.9% | 0hPa | 2.8V | 08:30:00 | 00:59:15 | 00:00:00 | |
| IW2NTF | 2026-09-02 10:35:16 | 44.43377 | 7.89194 | 158° | 97km/h | 10251m | 4.1m/s | -44.4°C | 60.5% | 0hPa | 2.9V | 08:30:00 | 00:59:05 | 00:00:00 | |
| IW2NTF | 2026-09-02 10:35:08 | 44.43596 | 7.89068 | 157° | 91km/h | 10216m | 4.4m/s | -44.1°C | 58.4% | 0hPa | 2.8V | 08:30:00 | 00:58:55 | 00:00:00 | |
| IW2NTF | 2026-09-02 10:34:56 | 44.43805 | 7.88929 | 159° | 93km/h | 10181m | 3m/s | -43.8°C | 57.4% | 0hPa | 2.9V | 08:30:00 | 00:58:45 | 00:00:00 | |
| IW2NTF | 2026-09-02 10:34:46 | 44.44022 | 7.88789 | 148° | 91km/h | 10146m | 3.2m/s | -43.5°C | 57% | 0hPa | 2.9V | 08:30:00 | 00:58:35 | 00:00:00 | |
| IW2NTF | 2026-09-02 10:34:36 | 44.44224 | 7.88643 | 154° | 91km/h | 10110m | 4.3m/s | -43.2°C | 53.7% | 0hPa | 2.9V | 08:30:00 | 00:58:25 | 00:00:00 | |
| IW2NTF | 2026-09-02 10:34:26 | 44.44422 | 7.88503 | 149° | 88km/h | 10073m | 3.3m/s | -42.8°C | 54% | 0hPa | 2.8V | 08:30:00 | 00:58:15 | 00:00:00 | |
| IW2NTF | 2026-09-02 10:34:16 | 44.44639 | 7.88366 | 158° | 91km/h | 10032m | 5.6m/s | -42.5°C | 51.6% | 0hPa | 2.9V | 08:30:00 | 00:58:05 | 00:00:00 | |
| IW2NTF | 2026-09-02 10:34:06 | 44.44865 | 7.88207 | 159° | 93km/h | 9980m | 6.1m/s | -42°C | 48.2% | 0hPa | 2.9V | 08:30:00 | 00:57:55 | 00:00:00 | |
| IW2NTF | 2026-09-02 10:33:56 | 44.45050 | 7.88041 | 139° | 78km/h | 9933m | 4.8m/s | -41.7°C | 44.7% | 0hPa | 2.9V | 08:30:00 | 00:57:45 | 00:00:00 | |
| IW2NTF | 2026-09-02 10:33:46 | 44.45231 | 7.87879 | 149° | 93km/h | 9885m | 6.6m/s | -41.3°C | 40.3% | 0hPa | 2.9V | 08:30:00 | 00:57:35 | 00:00:00 | |
| IW2NTF | 2026-09-02 10:33:36 | 44.45405 | 7.87719 | 143° | 60km/h | 9838m | 5.9m/s | -40.8°C | 39.5% | 0hPa | 2.9V | 08:30:00 | 00:57:25 | 00:00:00 | |
| IW2NTF | 2026-09-02 10:33:26 | 44.45586 | 7.87561 | 148° | 73km/h | 9774m | 7.3m/s | -40.2°C | 38.9% | 0hPa | 2.9V | 08:30:00 | 00:57:15 | 00:00:00 | |
| IW2NTF | 2026-09-02 10:33:16 | 44.45735 | 7.87371 | 146° | 80km/h | 9713m | 6.6m/s | -39.6°C | 35.7% | 0hPa | 2.9V | 08:30:00 | 00:57:05 | 00:00:00 | |
| IW2NTF | 2026-09-02 10:33:06 | 44.45921 | 7.87249 | 160° | 69km/h | 9658m | 5.9m/s | -39.1°C | 33.2% | 0hPa | 2.9V | 08:30:00 | 00:56:55 | 00:00:00 | |
| IW2NTF | 2026-09-02 10:32:56 | 44.46111 | 7.87105 | 154° | 73km/h | 9605m | 5.4m/s | -38.7°C | 29.3% | 0hPa | 2.9V | 08:30:00 | 00:56:45 | 00:00:00 | |
| IW2NTF | 2026-09-02 10:32:46 | 44.46254 | 7.86954 | 147° | 64km/h | 9557m | 4.8m/s | -38.2°C | 29.4% | 0hPa | 2.9V | 08:30:00 | 00:56:35 | 00:00:00 | |
| IW2NTF | 2026-09-02 10:32:36 | 44.46384 | 7.86808 | 131° | 68km/h | 9509m | 6.9m/s | -37.8°C | 27.9% | 0hPa | 2.9V | 08:30:00 | 00:56:25 | 00:00:00 | |
| IW2NTF | 2026-09-02 10:32:26 | 44.46521 | 7.86653 | 146° | 77km/h | 9465m | 7.3m/s | -37.4°C | 26% | 0hPa | 2.9V | 08:30:00 | 00:56:15 | 00:00:00 | |
| IW2NTF | 2026-09-02 10:32:18 | 44.46683 | 7.86488 | 134° | 93km/h | 9418m | 4.7m/s | -37.1°C | 23.8% | 0hPa | 2.8V | 08:30:00 | 00:56:05 | 00:00:00 | |
| IW2NTF | 2026-09-02 10:32:06 | 44.46835 | 7.86292 | 139° | 86km/h | 9376m | 5m/s | -36.6°C | 23.1% | 0hPa | 2.8V | 08:30:00 | 00:55:55 | 00:00:00 | |
| IW2NTF | 2026-09-02 10:31:56 | 44.46969 | 7.86120 | 146° | 75km/h | 9338m | 6.1m/s | -36.6°C | 22% | 0hPa | 2.8V | 08:30:00 | 00:55:45 | 00:00:00 | |
| IW2NTF | 2026-09-02 10:31:46 | 44.47128 | 7.85946 | 125° | 71km/h | 9275m | 6.4m/s | -36.3°C | 24.2% | 0hPa | 2.9V | 08:30:00 | 00:55:35 | 00:00:00 | |
| IW2NTF | 2026-09-02 10:31:36 | 44.47261 | 7.85747 | 138° | 80km/h | 9223m | 4.8m/s | -35.9°C | 24.4% | 0hPa | 2.9V | 08:30:00 | 00:55:25 | 00:00:00 | |
| IW2NTF | 2026-09-02 10:31:26 | 44.47393 | 7.85528 | 129° | 86km/h | 9178m | 7.1m/s | -35.6°C | 21.1% | 0hPa | 2.9V | 08:30:00 | 00:55:15 | 00:00:00 | |
| IW2NTF | 2026-09-02 10:31:16 | 44.47519 | 7.85297 | 127° | 80km/h | 9122m | 5m/s | -35.3°C | 22.1% | 0hPa | 2.9V | 08:30:00 | 00:55:05 | 00:00:00 | |
| IW2NTF | 2026-09-02 10:31:07 | 44.47648 | 7.85075 | 132° | 88km/h | 9075m | 5.1m/s | -35.1°C | 22.1% | 0hPa | 2.8V | 08:30:00 | 00:54:55 | 00:00:00 | |
| IW2NTF | 2026-09-02 10:30:56 | 44.47791 | 7.84836 | 129° | 78km/h | 9029m | 3.9m/s | -34.8°C | 24.9% | 0hPa | 2.9V | 08:30:00 | 00:54:45 | 00:00:00 | |
| IW2NTF | 2026-09-02 10:30:46 | 44.47927 | 7.84622 | 132° | 82km/h | 8985m | 6.3m/s | -34.7°C | 30.4% | 0hPa | 2.9V | 08:30:00 | 00:54:35 | 00:00:00 | |
| IW2NTF | 2026-09-02 10:30:36 | 44.48062 | 7.84401 | 124° | 77km/h | 8942m | 4.9m/s | -34.3°C | 31% | 0hPa | 2.9V | 08:30:00 | 00:54:25 | 00:00:00 | |
| IW2NTF | 2026-09-02 10:30:26 | 44.48185 | 7.84186 | 127° | 68km/h | 8902m | 3.7m/s | -33.9°C | 33.1% | 0hPa | 2.9V | 08:30:00 | 00:54:15 | 00:00:00 | |
| IW2NTF | 2026-09-02 10:30:16 | 44.48293 | 7.83963 | 118° | 82km/h | 8857m | 5.9m/s | -33.6°C | 37.2% | 0hPa | 2.9V | 08:30:00 | 00:54:05 | 00:00:00 | |
| IW2NTF | 2026-09-02 10:30:06 | 44.48383 | 7.83750 | 132° | 77km/h | 8805m | 4.3m/s | -33.2°C | 46.2% | 0hPa | 2.9V | 08:30:00 | 00:53:55 | 00:00:00 | |
| IW2NTF | 2026-09-02 10:29:56 | 44.48476 | 7.83575 | 120° | 60km/h | 8756m | 4.6m/s | -32.9°C | 54.8% | 0hPa | 2.9V | 08:30:00 | 00:53:45 | 00:00:00 | |
| IW2NTF | 2026-09-02 10:29:47 | 44.48566 | 7.83385 | 119° | 69km/h | 8702m | 4.4m/s | -32.4°C | 56.2% | 0hPa | 2.9V | 08:30:00 | 00:53:35 | 00:00:00 | |
| IW2NTF | 2026-09-02 10:29:36 | 44.48655 | 7.83175 | 118° | 71km/h | 8665m | 3m/s | -32°C | 56.7% | 0hPa | 2.9V | 08:30:00 | 00:53:25 | 00:00:00 | |
| IW2NTF | 2026-09-02 10:29:26 | 44.48746 | 7.82961 | 117° | 69km/h | 8626m | 3.7m/s | -31.7°C | 57.4% | 0hPa | 2.9V | 08:30:00 | 00:53:15 | 00:00:00 | |
| IW2NTF | 2026-09-02 10:29:16 | 44.48834 | 7.82741 | 115° | 75km/h | 8582m | 4.8m/s | -31.3°C | 57.6% | 0hPa | 2.8V | 08:30:00 | 00:53:05 | 00:00:00 | |
| IW2NTF | 2026-09-02 10:29:06 | 44.48929 | 7.82522 | 117° | 71km/h | 8536m | 4.1m/s | -30.8°C | 56.9% | 0hPa | 2.9V | 08:30:00 | 00:52:55 | 00:00:00 | |
| IW2NTF | 2026-09-02 10:28:56 | 44.49020 | 7.82299 | 121° | 66km/h | 8489m | 7m/s | -30.4°C | 55.9% | 0hPa | 2.9V | 08:30:00 | 00:52:45 | 00:00:00 | |
| IW2NTF | 2026-09-02 10:28:46 | 44.49119 | 7.82094 | 115° | 69km/h | 8435m | 6.3m/s | -29.9°C | 54.5% | 0hPa | 2.9V | 08:30:00 | 00:52:35 | 00:00:00 | |
| IW2NTF | 2026-09-02 10:28:36 | 44.49207 | 7.81867 | 120° | 71km/h | 8384m | 4.5m/s | -29.4°C | 59.4% | 0hPa | 2.9V | 08:30:00 | 00:52:25 | 00:00:00 | |
| IW2NTF | 2026-09-02 10:28:26 | 44.49297 | 7.81646 | 116° | 73km/h | 8339m | 4.4m/s | -29°C | 57.4% | 0hPa | 2.9V | 08:30:00 | 00:52:15 | 00:00:00 | |
| IW2NTF | 2026-09-02 10:28:16 | 44.49377 | 7.81423 | 115° | 69km/h | 8299m | 3.5m/s | -28.7°C | 63.5% | 0hPa | 2.9V | 08:30:00 | 00:52:05 | 00:00:00 | |
| IW2NTF | 2026-09-02 10:28:06 | 44.49457 | 7.81183 | 112° | 66km/h | 8251m | 6.2m/s | -28.5°C | 61.6% | 0hPa | 2.9V | 08:30:00 | 00:51:55 | 00:00:00 | |
| IW2NTF | 2026-09-02 10:27:57 | 44.49530 | 7.80964 | 114° | 73km/h | 8200m | 6.6m/s | -28.1°C | 63.9% | 0hPa | 2.9V | 08:30:00 | 00:51:45 | 00:00:00 | |
| IW2NTF | 2026-09-02 10:27:46 | 44.49603 | 7.80759 | 116° | 68km/h | 8139m | 5m/s | -27.7°C | 65.8% | 0hPa | 2.8V | 08:30:00 | 00:51:35 | 00:00:00 | |
| IW2NTF | 2026-09-02 10:27:36 | 44.49667 | 7.80557 | 116° | 69km/h | 8086m | 5.7m/s | -27.3°C | 68.4% | 0hPa | 2.8V | 08:30:00 | 00:51:25 | 00:00:00 | |
| IW2NTF | 2026-09-02 10:27:26 | 44.49742 | 7.80356 | 118° | 62km/h | 8032m | 4.7m/s | -26.8°C | 66.4% | 0hPa | 2.9V | 08:30:00 | 00:51:15 | 00:00:00 | |
| IW2NTF | 2026-09-02 10:27:16 | 44.49817 | 7.80168 | 114° | 64km/h | 7990m | 4.2m/s | -26.4°C | 63.3% | 0hPa | 2.9V | 08:30:00 | 00:51:05 | 00:00:00 | |
| IW2NTF | 2026-09-02 10:27:06 | 44.49889 | 7.79973 | 116° | 64km/h | 7949m | 4.3m/s | -26.1°C | 67.2% | 0hPa | 2.9V | 08:30:00 | 00:50:55 | 00:00:00 | |
| IW2NTF | 2026-09-02 10:26:56 | 44.49963 | 7.79765 | 113° | 57km/h | 7900m | 5.6m/s | -25.8°C | 69.2% | 0hPa | 2.8V | 08:30:00 | 00:50:45 | 00:00:00 | |
| IW2NTF | 2026-09-02 10:26:46 | 44.50049 | 7.79579 | 128° | 71km/h | 7839m | 7m/s | -25.4°C | 79.3% | 0hPa | 2.9V | 08:30:00 | 00:50:35 | 00:00:00 | |
| IW2NTF | 2026-09-02 10:26:36 | 44.50145 | 7.79380 | 125° | 75km/h | 7780m | 7.2m/s | -24.9°C | 70.4% | 0hPa | 2.9V | 08:30:00 | 00:50:25 | 00:00:00 | |
| IW2NTF | 2026-09-02 10:26:26 | 44.50232 | 7.79188 | 114° | 58km/h | 7721m | 4.5m/s | -24.4°C | 67.7% | 0hPa | 2.9V | 08:30:00 | 00:50:15 | 00:00:00 | |
| IW2NTF | 2026-09-02 10:26:17 | 44.50320 | 7.78998 | 128° | 64km/h | 7660m | 4.9m/s | -23.9°C | 67.7% | 0hPa | 2.9V | 08:30:00 | 00:50:05 | 00:00:00 | |
| IW2NTF | 2026-09-02 10:26:06 | 44.50412 | 7.78803 | 131° | 73km/h | 7600m | 5.9m/s | -23.5°C | 75.5% | 0hPa | 2.9V | 08:30:00 | 00:49:55 | 00:00:00 | |
| IW2NTF | 2026-09-02 10:25:56 | 44.50510 | 7.78617 | 123° | 62km/h | 7547m | 5.7m/s | -23.3°C | 86.5% | 0hPa | 3V | 08:30:00 | 00:49:45 | 00:00:00 | |
| IW2NTF | 2026-09-02 10:25:46 | 44.50607 | 7.78438 | 127° | 57km/h | 7504m | 3m/s | -23.2°C | 96.5% | 0hPa | 2.9V | 08:30:00 | 00:49:35 | 00:00:00 | |
| IW2NTF | 2026-09-02 10:25:36 | 44.50685 | 7.78253 | 123° | 66km/h | 7450m | 5.2m/s | -22.7°C | 94.3% | 0hPa | 3V | 08:30:00 | 00:49:25 | 00:00:00 | |
| IW2NTF | 2026-09-02 10:25:26 | 44.50797 | 7.78044 | 123° | 75km/h | 7408m | 4.8m/s | -22.4°C | 95.8% | 0hPa | 3V | 08:30:00 | 00:49:15 | 00:00:00 | |
| IW2NTF | 2026-09-02 10:25:16 | 44.50892 | 7.77836 | 117° | 75km/h | 7365m | 6.3m/s | -22.1°C | 94.3% | 0hPa | 2.9V | 08:30:00 | 00:49:05 | 00:00:00 | |
| IW2NTF | 2026-09-02 10:25:06 | 44.50978 | 7.77604 | 120° | 73km/h | 7305m | 6.8m/s | -21.7°C | 92.6% | 0hPa | 2.9V | 08:30:00 | 00:48:55 | 00:00:00 | |
| IW2NTF | 2026-09-02 10:24:56 | 44.51092 | 7.77392 | 126° | 91km/h | 7250m | 6.7m/s | -21.6°C | 89.4% | 0hPa | 3V | 08:30:00 | 00:48:45 | 00:00:00 | |
| IW2NTF | 2026-09-02 10:24:46 | 44.51183 | 7.77146 | 121° | 80km/h | 7186m | 5.5m/s | -21.8°C | 80.9% | 0hPa | 3V | 08:30:00 | 00:48:35 | 00:00:00 | |
| IW2NTF | 2026-09-02 10:24:36 | 44.51272 | 7.76888 | 112° | 73km/h | 7134m | 3.7m/s | -21.4°C | 69.3% | 0hPa | 3V | 08:30:00 | 00:48:25 | 00:00:00 | |
| IW2NTF | 2026-09-02 10:24:26 | 44.51360 | 7.76641 | 112° | 80km/h | 7078m | 7.2m/s | -21.2°C | 53.4% | 0hPa | 3V | 08:30:00 | 00:48:15 | 00:00:00 | |
| IW2NTF | 2026-09-02 10:24:16 | 44.51439 | 7.76382 | 114° | 75km/h | 7022m | 8.5m/s | -20.9°C | 42.4% | 0hPa | 3V | 08:30:00 | 00:48:05 | 00:00:00 | |
| IW2NTF | 2026-09-02 10:24:06 | 44.51508 | 7.76141 | 109° | 69km/h | 6963m | 5.1m/s | -20.5°C | 40.4% | 0hPa | 3V | 08:30:00 | 00:47:55 | 00:00:00 | |
| IW2NTF | 2026-09-02 10:23:56 | 44.51561 | 7.75924 | 106° | 71km/h | 6899m | 5.8m/s | -20°C | 38.4% | 0hPa | 3V | 08:30:00 | 00:47:45 | 00:00:00 | |
| IW2NTF | 2026-09-02 10:23:46 | 44.51616 | 7.75680 | 107° | 60km/h | 6842m | 5.2m/s | -19.6°C | 38% | 0hPa | 3V | 08:30:00 | 00:47:35 | 00:00:00 | |
| IW2NTF | 2026-09-02 10:23:36 | 44.51661 | 7.75479 | 107° | 66km/h | 6791m | 5.2m/s | -19.2°C | 40.7% | 0hPa | 3V | 08:30:00 | 00:47:25 | 00:00:00 | |
| IW2NTF | 2026-09-02 10:23:26 | 44.51716 | 7.75265 | 118° | 60km/h | 6741m | 6m/s | -19.1°C | 35.5% | 0hPa | 3V | 08:30:00 | 00:47:15 | 00:00:00 | |
| IW2NTF | 2026-09-02 10:23:16 | 44.51772 | 7.75062 | 108° | 53km/h | 6683m | 8.1m/s | -18.6°C | 32.6% | 0hPa | 3V | 08:30:00 | 00:47:05 | 00:00:00 | |
| IW2NTF | 2026-09-02 10:23:06 | 44.51840 | 7.74883 | 118° | 55km/h | 6629m | 5.3m/s | -18.2°C | 29.6% | 0hPa | 3V | 08:30:00 | 00:46:55 | 00:00:00 | |
| IW2NTF | 2026-09-02 10:22:56 | 44.51897 | 7.74690 | 108° | 58km/h | 6578m | 5m/s | -17.8°C | 34.4% | 0hPa | 3V | 08:30:00 | 00:46:45 | 00:00:00 | |
| IW2NTF | 2026-09-02 10:22:46 | 44.51936 | 7.74490 | 110° | 58km/h | 6532m | 4.5m/s | -17.3°C | 39.1% | 0hPa | 3V | 08:30:00 | 00:46:35 | 00:00:00 | |
| IW2NTF | 2026-09-02 10:22:36 | 44.51991 | 7.74307 | 111° | 60km/h | 6490m | 5.6m/s | -16.9°C | 41% | 0hPa | 3V | 08:30:00 | 00:46:25 | 00:00:00 | |
| IW2NTF | 2026-09-02 10:22:27 | 44.52032 | 7.74130 | 115° | 57km/h | 6439m | 3.4m/s | -16.5°C | 41.6% | 0hPa | 3V | 08:30:00 | 00:46:15 | 00:00:00 | |
| IW2NTF | 2026-09-02 10:22:17 | 44.52071 | 7.73936 | 108° | 57km/h | 6396m | 4.6m/s | -16.1°C | 40.6% | 0hPa | 3V | 08:30:00 | 00:46:05 | 00:00:00 | |
| IW2NTF | 2026-09-02 10:22:06 | 44.52114 | 7.73752 | 103° | 53km/h | 6355m | 5.3m/s | -15.7°C | 39.2% | 0hPa | 3V | 08:30:00 | 00:45:55 | 00:00:00 | |
| IW2NTF | 2026-09-02 10:21:56 | 44.52153 | 7.73555 | 107° | 57km/h | 6315m | 3m/s | -15.3°C | 37.9% | 0hPa | 3V | 08:30:00 | 00:45:45 | 00:00:00 | |
| IW2NTF | 2026-09-02 10:21:46 | 44.52191 | 7.73372 | 105° | 58km/h | 6278m | 4m/s | -15.1°C | 42.1% | 0hPa | 3V | 08:30:00 | 00:45:35 | 00:00:00 | |
| IW2NTF | 2026-09-02 10:21:36 | 44.52235 | 7.73174 | 114° | 49km/h | 6242m | 5.2m/s | -14.8°C | 42.2% | 0hPa | 3V | 08:30:00 | 00:45:25 | 00:00:00 | |
| IW2NTF | 2026-09-02 10:21:26 | 44.52267 | 7.73006 | 92° | 47km/h | 6194m | 3.9m/s | -14.4°C | 42.8% | 0hPa | 3V | 08:30:00 | 00:45:15 | 00:00:00 | |
| IW2NTF | 2026-09-02 10:21:16 | 44.52294 | 7.72837 | 118° | 38km/h | 6153m | 5.6m/s | -14.2°C | 43% | 0hPa | 3V | 08:30:00 | 00:45:05 | 00:00:00 | |
| IW2NTF | 2026-09-02 10:21:06 | 44.52334 | 7.72674 | 109° | 44km/h | 6114m | 3m/s | -13.8°C | 43.5% | 0hPa | 3V | 08:30:00 | 00:44:55 | 00:00:00 | |
| IW2NTF | 2026-09-02 10:20:56 | 44.52369 | 7.72518 | 107° | 47km/h | 6081m | 3.6m/s | -13.7°C | 43.9% | 0hPa | 3V | 08:30:00 | 00:44:45 | 00:00:00 | |
| IW2NTF | 2026-09-02 10:20:46 | 44.52402 | 7.72373 | 106° | 42km/h | 6052m | 3.3m/s | -13.5°C | 44.5% | 0hPa | 3V | 08:30:00 | 00:44:35 | 00:00:00 | |
| IW2NTF | 2026-09-02 10:20:36 | 44.52429 | 7.72223 | 100° | 40km/h | 6020m | 3.1m/s | -13.5°C | 43.4% | 0hPa | 3V | 08:30:00 | 00:44:25 | 00:00:00 | |
| IW2NTF | 2026-09-02 10:20:26 | 44.52460 | 7.72079 | 106° | 57km/h | 5987m | 5m/s | -13.3°C | 42.2% | 0hPa | 3V | 08:30:00 | 00:44:15 | 00:00:00 | |
| IW2NTF | 2026-09-02 10:20:16 | 44.52481 | 7.71930 | 112° | 46km/h | 5941m | 6.9m/s | -12.9°C | 40.3% | 0hPa | 3V | 08:30:00 | 00:44:05 | 00:00:00 | |
| IW2NTF | 2026-09-02 10:20:06 | 44.52522 | 7.71764 | 116° | 62km/h | 5894m | 4.2m/s | -12.5°C | 37.3% | 0hPa | 3V | 08:30:00 | 00:43:55 | 00:00:00 | |
| IW2NTF | 2026-09-02 10:19:56 | 44.52572 | 7.71580 | 106° | 47km/h | 5848m | 5.4m/s | -12.1°C | 36.6% | 0hPa | 3V | 08:30:00 | 00:43:45 | 00:00:00 | |
| IW2NTF | 2026-09-02 10:19:46 | 44.52599 | 7.71394 | 120° | 57km/h | 5803m | 5.2m/s | -11.8°C | 35.1% | 0hPa | 3V | 08:30:00 | 00:43:35 | 00:00:00 | |
| IW2NTF | 2026-09-02 10:19:36 | 44.52643 | 7.71229 | 109° | 58km/h | 5750m | 6.1m/s | -11.4°C | 32.8% | 0hPa | 3V | 08:30:00 | 00:43:25 | 00:00:00 | |
| IW2NTF | 2026-09-02 10:19:26 | 44.52702 | 7.71038 | 115° | 55km/h | 5710m | 2.5m/s | -11.1°C | 33.7% | 0hPa | 3V | 08:30:00 | 00:43:15 | 00:00:00 | |
| IW2NTF | 2026-09-02 10:19:17 | 44.52757 | 7.70848 | 113° | 57km/h | 5677m | 3.1m/s | -11°C | 37.5% | 0hPa | 3V | 08:30:00 | 00:43:05 | 00:00:00 | |
| IW2NTF | 2026-09-02 10:19:04 | 44.52824 | 7.70616 | 113° | 58km/h | 5639m | 4.1m/s | -10.6°C | 36.9% | 0hPa | 3V | 08:30:00 | 00:42:53 | 00:00:00 | |
| IW2NTF | 2026-09-02 10:18:54 | 44.52879 | 7.70439 | 108° | 57km/h | 5607m | 4.2m/s | -10.3°C | 35% | 0hPa | 3V | 08:30:00 | 00:42:43 | 00:00:00 | |
| IW2NTF | 2026-09-02 10:18:44 | 44.52937 | 7.70256 | 113° | 57km/h | 5564m | 5.6m/s | -9.9°C | 28.7% | 0hPa | 3V | 08:30:00 | 00:42:33 | 00:00:00 | |
| IW2NTF | 2026-09-02 10:18:34 | 44.52987 | 7.70068 | 112° | 60km/h | 5522m | 3.7m/s | -9.6°C | 26.8% | 0hPa | 3V | 08:30:00 | 00:42:23 | 00:00:00 | |
| IW2NTF | 2026-09-02 10:18:24 | 44.53039 | 7.69886 | 93° | 46km/h | 5478m | 5.7m/s | -9.3°C | 25.6% | 0hPa | 3V | 08:30:00 | 00:42:13 | 00:00:00 | |
| IW2NTF | 2026-09-02 10:18:14 | 44.53087 | 7.69714 | 104° | 49km/h | 5428m | 4.4m/s | -8.9°C | 22% | 0hPa | 3V | 08:30:00 | 00:42:03 | 00:00:00 | |
| IW2NTF | 2026-09-02 10:18:04 | 44.53122 | 7.69535 | 102° | 55km/h | 5382m | 4.2m/s | -8.6°C | 23.3% | 0hPa | 3V | 08:30:00 | 00:41:53 | 00:00:00 | |
| IW2NTF | 2026-09-02 10:17:54 | 44.53140 | 7.69356 | 106° | 46km/h | 5337m | 4.6m/s | -8.3°C | 23.3% | 0hPa | 3V | 08:30:00 | 00:41:43 | 00:00:00 | |
| IW2NTF | 2026-09-02 10:17:44 | 44.53165 | 7.69182 | 110° | 55km/h | 5284m | 4.9m/s | -7.8°C | 22.2% | 0hPa | 3V | 08:30:00 | 00:41:33 | 00:00:00 | |
| IW2NTF | 2026-09-02 10:17:34 | 44.53193 | 7.68992 | 104° | 55km/h | 5234m | 5.2m/s | -7.4°C | 20.9% | 0hPa | 3V | 08:30:00 | 00:41:23 | 00:00:00 | |
| IW2NTF | 2026-09-02 10:17:24 | 44.53222 | 7.68811 | 100° | 51km/h | 5182m | 5.4m/s | -7°C | 20.1% | 0hPa | 3V | 08:30:00 | 00:41:13 | 00:00:00 | |
| IW2NTF | 2026-09-02 10:17:14 | 44.53244 | 7.68628 | 100° | 55km/h | 5130m | 6.5m/s | -6.6°C | 19.5% | 0hPa | 3V | 08:30:00 | 00:41:03 | 00:00:00 | |
| IW2NTF | 2026-09-02 10:17:04 | 44.53263 | 7.68451 | 102° | 53km/h | 5083m | 4.6m/s | -6.1°C | 19.3% | 0hPa | 3V | 08:30:00 | 00:40:53 | 00:00:00 | |
| IW2NTF | 2026-09-02 10:16:54 | 44.53297 | 7.68270 | 95° | 49km/h | 5035m | 6.9m/s | -5.8°C | 17.4% | 0hPa | 3V | 08:30:00 | 00:40:43 | 00:00:00 | |
| IW2NTF | 2026-09-02 10:16:44 | 44.53312 | 7.68111 | 96° | 46km/h | 4978m | 6.2m/s | -5.2°C | 17.4% | 0hPa | 3V | 08:30:00 | 00:40:33 | 00:00:00 | |
| IW2NTF | 2026-09-02 10:16:39 | 44.53320 | 7.68010 | 101° | 46km/h | 4949m | 5.5m/s | -5°C | 17.5% | 0hPa | 3V | 08:30:00 | 00:40:27 | 00:00:00 | |
| IW2NTF | 2026-09-02 10:16:32 | 44.53333 | 7.67915 | 100° | 51km/h | 4921m | 4.3m/s | -4.8°C | 17.9% | 0hPa | 3V | 08:30:00 | 00:40:21 | 00:00:00 | |
| IW2NTF | 2026-09-02 10:16:26 | 44.53345 | 7.67815 | 95° | 46km/h | 4895m | 4.5m/s | -4.5°C | 17.5% | 0hPa | 3V | 08:30:00 | 00:40:15 | 00:00:00 | |
| IW2NTF | 2026-09-02 10:16:21 | 44.53354 | 7.67734 | 108° | 38km/h | 4869m | 5.7m/s | -4.4°C | 18.2% | 0hPa | 3V | 08:30:00 | 00:40:09 | 00:00:00 | |
| IW2NTF | 2026-09-02 10:16:14 | 44.53373 | 7.67626 | 104° | 57km/h | 4834m | 6m/s | -4°C | 17.7% | 0hPa | 3V | 08:30:00 | 00:40:03 | 00:00:00 | |
| IW2NTF | 2026-09-02 10:16:08 | 44.53387 | 7.67530 | 97° | 40km/h | 4802m | 5m/s | -3.7°C | 17.1% | 0hPa | 3V | 08:30:00 | 00:39:57 | 00:00:00 | |
| IW2NTF | 2026-09-02 10:16:02 | 44.53400 | 7.67438 | 104° | 46km/h | 4767m | 5.8m/s | -3.4°C | 17.1% | 0hPa | 3V | 08:30:00 | 00:39:51 | 00:00:00 | |
| IW2NTF | 2026-09-02 10:15:56 | 44.53411 | 7.67327 | 95° | 58km/h | 4740m | 3.8m/s | -3.2°C | 16.6% | 0hPa | 3V | 08:30:00 | 00:39:45 | 00:00:00 | |
| IW2NTF | 2026-09-02 10:15:50 | 44.53414 | 7.67210 | 92° | 49km/h | 4708m | 7.5m/s | -2.9°C | 16.2% | 0hPa | 3V | 08:30:00 | 00:39:39 | 00:00:00 | |
| IW2NTF | 2026-09-02 10:15:44 | 44.53420 | 7.67115 | 98° | 49km/h | 4670m | 3.9m/s | -2.5°C | 13.5% | 0hPa | 3V | 08:30:00 | 00:39:33 | 00:00:00 | |
| IW2NTF | 2026-09-02 10:15:38 | 44.53425 | 7.67024 | 91° | 40km/h | 4642m | 5.4m/s | -2.3°C | 14.4% | 0hPa | 3V | 08:30:00 | 00:39:27 | 00:00:00 | |
| IW2NTF | 2026-09-02 10:15:32 | 44.53436 | 7.66927 | 104° | 47km/h | 4604m | 6.6m/s | -1.9°C | 14.8% | 0hPa | 3V | 08:30:00 | 00:39:21 | 00:00:00 | |
| IW2NTF | 2026-09-02 10:15:26 | 44.53454 | 7.66826 | 101° | 46km/h | 4569m | 5.5m/s | -1.6°C | 14.3% | 0hPa | 3V | 08:30:00 | 00:39:15 | 00:00:00 | |
| IW2NTF | 2026-09-02 10:15:20 | 44.53458 | 7.66724 | 87° | 53km/h | 4535m | 6.2m/s | -1.3°C | 17% | 0hPa | 3V | 08:30:00 | 00:39:09 | 00:00:00 | |
| IW2NTF | 2026-09-02 10:15:14 | 44.53466 | 7.66629 | 97° | 46km/h | 4503m | 5.8m/s | -0.9°C | 16.1% | 0hPa | 3V | 08:30:00 | 00:39:03 | 00:00:00 | |
| IW2NTF | 2026-09-02 10:15:08 | 44.53469 | 7.66535 | 86° | 37km/h | 4472m | 5.1m/s | -0.6°C | 13.4% | 0hPa | 3V | 08:30:00 | 00:38:57 | 00:00:00 | |
| IW2NTF | 2026-09-02 10:15:02 | 44.53466 | 7.66447 | 99° | 49km/h | 4436m | 6.6m/s | -0.3°C | 14.1% | 0hPa | 3V | 08:30:00 | 00:38:51 | 00:00:00 | |
| IW2NTF | 2026-09-02 10:14:56 | 44.53477 | 7.66344 | 91° | 49km/h | 4402m | 6.3m/s | -0°C | 14.2% | 0hPa | 3V | 08:30:00 | 00:38:45 | 00:00:00 | |
| IW2NTF | 2026-09-02 10:14:50 | 44.53480 | 7.66246 | 94° | 44km/h | 4363m | 6.4m/s | 0.2°C | 4.6% | 0hPa | 3V | 08:30:00 | 00:38:39 | 00:00:00 | |
| IW2NTF | 2026-09-02 10:14:44 | 44.53485 | 7.66145 | 92° | 49km/h | 4334m | 5.3m/s | 0.4°C | 5.4% | 0hPa | 3V | 08:30:00 | 00:38:33 | 00:00:00 | |
| IW2NTF | 2026-09-02 10:14:38 | 44.53491 | 7.66050 | 107° | 49km/h | 4302m | 6.3m/s | 0.7°C | 6.3% | 0hPa | 3V | 08:30:00 | 00:38:27 | 00:00:00 | |
| IW2NTF | 2026-09-02 10:14:32 | 44.53506 | 7.65937 | 91° | 51km/h | 4265m | 6m/s | 0.9°C | 8.2% | 0hPa | 3V | 08:30:00 | 00:38:21 | 00:00:00 | |
| IW2NTF | 2026-09-02 10:14:26 | 44.53506 | 7.65839 | 91° | 47km/h | 4233m | 5.6m/s | 1.2°C | 8.5% | 0hPa | 3V | 08:30:00 | 00:38:15 | 00:00:00 | |
| IW2NTF | 2026-09-02 10:14:20 | 44.53519 | 7.65726 | 101° | 53km/h | 4199m | 6.1m/s | 1.5°C | 9.1% | 0hPa | 3V | 08:30:00 | 00:38:09 | 00:00:00 | |
| IW2NTF | 2026-09-02 10:14:14 | 44.53534 | 7.65619 | 110° | 53km/h | 4162m | 5.4m/s | 1.8°C | 9.5% | 0hPa | 3V | 08:30:00 | 00:38:03 | 00:00:00 | |
| IW2NTF | 2026-09-02 10:14:08 | 44.53551 | 7.65515 | 96° | 46km/h | 4131m | 5.3m/s | 1.9°C | 10.5% | 0hPa | 3V | 08:30:00 | 00:37:57 | 00:00:00 | |
| IW2NTF | 2026-09-02 10:14:02 | 44.53574 | 7.65424 | 119° | 49km/h | 4099m | 5.5m/s | 2.2°C | 9.5% | 0hPa | 3V | 08:30:00 | 00:37:51 | 00:00:00 | |
| IW2NTF | 2026-09-02 10:13:56 | 44.53603 | 7.65315 | 101° | 55km/h | 4066m | 7.3m/s | 2.4°C | 8.6% | 0hPa | 3V | 08:30:00 | 00:37:45 | 00:00:00 | |
| IW2NTF | 2026-09-02 10:13:50 | 44.53624 | 7.65216 | 107° | 51km/h | 4032m | 5m/s | 2.7°C | 8.5% | 0hPa | 3V | 08:30:00 | 00:37:39 | 00:00:00 | |
| IW2NTF | 2026-09-02 10:13:44 | 44.53642 | 7.65108 | 107° | 53km/h | 4003m | 4.6m/s | 2.8°C | 6% | 0hPa | 3V | 08:30:00 | 00:37:33 | 00:00:00 | |
| IW2NTF | 2026-09-02 10:13:38 | 44.53659 | 7.65009 | 110° | 44km/h | 3974m | 5.8m/s | 2.8°C | 6% | 0hPa | 3V | 08:30:00 | 00:37:27 | 00:00:00 | |
| IW2NTF | 2026-09-02 10:13:32 | 44.53686 | 7.64925 | 105° | 47km/h | 3946m | 6.1m/s | 3°C | 5.8% | 0hPa | 3V | 08:30:00 | 00:37:21 | 00:00:00 | |
| IW2NTF | 2026-09-02 10:13:26 | 44.53699 | 7.64814 | 103° | 55km/h | 3907m | 6.7m/s | 3.2°C | 6.9% | 0hPa | 3V | 08:30:00 | 00:37:15 | 00:00:00 | |
| IW2NTF | 2026-09-02 10:13:20 | 44.53722 | 7.64724 | 113° | 44km/h | 3876m | 6m/s | 3.2°C | 12.1% | 0hPa | 3V | 08:30:00 | 00:37:09 | 00:00:00 | |
| IW2NTF | 2026-09-02 10:13:14 | 44.53754 | 7.64617 | 105° | 58km/h | 3839m | 6.1m/s | 3.1°C | 23.4% | 0hPa | 3V | 08:30:00 | 00:37:03 | 00:00:00 | |
| IW2NTF | 2026-09-02 10:13:08 | 44.53777 | 7.64501 | 110° | 55km/h | 3802m | 7.3m/s | 3.2°C | 19.9% | 0hPa | 3V | 08:30:00 | 00:36:57 | 00:00:00 | |
| IW2NTF | 2026-09-02 10:13:02 | 44.53806 | 7.64398 | 105° | 53km/h | 3769m | 6.2m/s | 3.4°C | 20% | 0hPa | 3V | 08:30:00 | 00:36:51 | 00:00:00 | |
| IW2NTF | 2026-09-02 10:12:56 | 44.53820 | 7.64285 | 100° | 47km/h | 3732m | 3.8m/s | 3.8°C | 14.3% | 0hPa | 3V | 08:30:00 | 00:36:45 | 00:00:00 | |
| IW2NTF | 2026-09-02 10:12:50 | 44.53827 | 7.64179 | 91° | 58km/h | 3702m | 7.8m/s | 3.8°C | 8% | 0hPa | 3V | 08:30:00 | 00:36:39 | 00:00:00 | |
| IW2NTF | 2026-09-02 10:12:44 | 44.53843 | 7.64049 | 108° | 62km/h | 3665m | 5m/s | 3.9°C | 8.4% | 0hPa | 3V | 08:30:00 | 00:36:33 | 00:00:00 | |
| IW2NTF | 2026-09-02 10:12:38 | 44.53862 | 7.63944 | 96° | 42km/h | 3633m | 4.6m/s | 4°C | 12.2% | 0hPa | 3V | 08:30:00 | 00:36:27 | 00:00:00 | |
| IW2NTF | 2026-09-02 10:12:32 | 44.53876 | 7.63848 | 102° | 49km/h | 3603m | 7.4m/s | 4.2°C | 13.6% | 0hPa | 3V | 08:30:00 | 00:36:21 | 00:00:00 | |
| IW2NTF | 2026-09-02 10:12:26 | 44.53893 | 7.63747 | 106° | 49km/h | 3572m | 4.5m/s | 4.4°C | 15.4% | 0hPa | 3V | 08:30:00 | 00:36:15 | 00:00:00 | |
| IW2NTF | 2026-09-02 10:12:20 | 44.53913 | 7.63650 | 103° | 49km/h | 3546m | 4.3m/s | 4.6°C | 16.8% | 0hPa | 3V | 08:30:00 | 00:36:09 | 00:00:00 | |
| IW2NTF | 2026-09-02 10:12:14 | 44.53933 | 7.63556 | 109° | 35km/h | 3520m | 4.5m/s | 4.6°C | 18.8% | 0hPa | 3V | 08:30:00 | 00:36:03 | 00:00:00 | |
| IW2NTF | 2026-09-02 10:12:08 | 44.53944 | 7.63469 | 92° | 57km/h | 3492m | 4.4m/s | 4.5°C | 30.1% | 0hPa | 3V | 08:30:00 | 00:35:57 | 00:00:00 | |
| IW2NTF | 2026-09-02 10:12:02 | 44.53962 | 7.63354 | 109° | 42km/h | 3461m | 8.1m/s | 4.4°C | 39.8% | 0hPa | 3V | 08:30:00 | 00:35:51 | 00:00:00 | |
| IW2NTF | 2026-09-02 10:11:56 | 44.53974 | 7.63296 | 97° | 26km/h | 3423m | 4m/s | 4.7°C | 40.1% | 0hPa | 3V | 08:30:00 | 00:35:45 | 00:00:00 | |
| IW2NTF | 2026-09-02 10:11:50 | 44.53973 | 7.63227 | 93° | 46km/h | 3396m | 5m/s | 4.9°C | 43.9% | 0hPa | 3V | 08:30:00 | 00:35:39 | 00:00:00 | |
| IW2NTF | 2026-09-02 10:11:44 | 44.53998 | 7.63137 | 123° | 37km/h | 3367m | 4.9m/s | 5°C | 47.9% | 0hPa | 3V | 08:30:00 | 00:35:33 | 00:00:00 | |
| IW2NTF | 2026-09-02 10:11:38 | 44.54007 | 7.63074 | 85° | 40km/h | 3337m | 5m/s | 5.2°C | 50.7% | 0hPa | 3V | 08:30:00 | 00:35:27 | 00:00:00 | |
| IW2NTF | 2026-09-02 10:11:32 | 44.54021 | 7.62990 | 123° | 35km/h | 3306m | 6.1m/s | 5.2°C | 54.6% | 0hPa | 3V | 08:30:00 | 00:35:21 | 00:00:00 | |
| IW2NTF | 2026-09-02 10:11:26 | 44.54043 | 7.62930 | 101° | 31km/h | 3276m | 4.7m/s | 5.3°C | 59.6% | 0hPa | 3V | 08:30:00 | 00:35:15 | 00:00:00 | |
| IW2NTF | 2026-09-02 10:11:20 | 44.54042 | 7.62883 | 68° | 18km/h | 3243m | 4.8m/s | 5.6°C | 59.4% | 0hPa | 3V | 08:30:00 | 00:35:09 | 00:00:00 | |
| IW2NTF | 2026-09-02 10:11:14 | 44.54028 | 7.62825 | 84° | 35km/h | 3217m | 5.8m/s | 5.8°C | 60.3% | 0hPa | 3V | 08:30:00 | 00:35:03 | 00:00:00 | |
| IW2NTF | 2026-09-02 10:11:08 | 44.54032 | 7.62758 | 81° | 31km/h | 3186m | 3.8m/s | 6°C | 61.6% | 0hPa | 3V | 08:30:00 | 00:34:57 | 00:00:00 | |
| IW2NTF | 2026-09-02 10:11:02 | 44.54025 | 7.62697 | 89° | 31km/h | 3165m | 3.8m/s | 6.2°C | 61.4% | 0hPa | 3V | 08:30:00 | 00:34:51 | 00:00:00 | |
| IW2NTF | 2026-09-02 10:10:56 | 44.54027 | 7.62633 | 97° | 27km/h | 3146m | 3.4m/s | 6.3°C | 61.3% | 0hPa | 3V | 08:30:00 | 00:34:45 | 00:00:00 | |
| IW2NTF | 2026-09-02 10:10:50 | 44.54023 | 7.62571 | 72° | 29km/h | 3126m | 3.8m/s | 6.5°C | 61.2% | 0hPa | 3V | 08:30:00 | 00:34:39 | 00:00:00 | |
| IW2NTF | 2026-09-02 10:10:44 | 44.54015 | 7.62502 | 90° | 33km/h | 3105m | 3.9m/s | 6.7°C | 60.7% | 0hPa | 3V | 08:30:00 | 00:34:33 | 00:00:00 | |
| IW2NTF | 2026-09-02 10:10:38 | 44.54026 | 7.62429 | 104° | 38km/h | 3082m | 2.3m/s | 6.9°C | 60.4% | 0hPa | 3V | 08:30:00 | 00:34:27 | 00:00:00 | |
| IW2NTF | 2026-09-02 10:10:32 | 44.54027 | 7.62365 | 72° | 20km/h | 3057m | 5.2m/s | 7.1°C | 60% | 0hPa | 3V | 08:30:00 | 00:34:21 | 00:00:00 | |
| IW2NTF | 2026-09-02 10:10:26 | 44.54026 | 7.62310 | 90° | 35km/h | 3027m | 4.1m/s | 7.4°C | 59.2% | 0hPa | 3V | 08:30:00 | 00:34:15 | 00:00:00 | |
| IW2NTF | 2026-09-02 10:10:20 | 44.54023 | 7.62254 | 84° | 18km/h | 3007m | 2.7m/s | 7.6°C | 58.7% | 0hPa | 3V | 08:30:00 | 00:34:09 | 00:00:00 | |
| IW2NTF | 2026-09-02 10:10:14 | 44.54007 | 7.62202 | 72° | 35km/h | 2986m | 4m/s | 7.8°C | 58.3% | 0hPa | 3V | 08:30:00 | 00:34:03 | 00:00:00 | |
| IW2NTF | 2026-09-02 10:10:08 | 44.54004 | 7.62142 | 102° | 24km/h | 2959m | 3.6m/s | 8°C | 58% | 0hPa | 3V | 08:30:00 | 00:33:57 | 00:00:00 | |
| IW2NTF | 2026-09-02 10:10:02 | 44.54008 | 7.62069 | 98° | 40km/h | 2932m | 5m/s | 8.2°C | 57.3% | 0hPa | 3V | 08:30:00 | 00:33:51 | 00:00:00 | |
| IW2NTF | 2026-09-02 10:09:56 | 44.54012 | 7.61999 | 69° | 24km/h | 2907m | 4.4m/s | 8.4°C | 57.2% | 0hPa | 3V | 08:30:00 | 00:33:45 | 00:00:00 | |
| IW2NTF | 2026-09-02 10:09:50 | 44.53997 | 7.61937 | 86° | 33km/h | 2876m | 5.5m/s | 8.7°C | 56.4% | 0hPa | 3V | 08:30:00 | 00:33:39 | 00:00:00 | |
| IW2NTF | 2026-09-02 10:09:44 | 44.54008 | 7.61883 | 108° | 24km/h | 2852m | 4.7m/s | 8.9°C | 55.6% | 0hPa | 3V | 08:30:00 | 00:33:33 | 00:00:00 | |
| IW2NTF | 2026-09-02 10:09:39 | 44.53999 | 7.61825 | 66° | 37km/h | 2825m | 4.5m/s | 9.1°C | 54.8% | 0hPa | 3V | 08:30:00 | 00:33:27 | 00:00:00 | |
| IW2NTF | 2026-09-02 10:09:32 | 44.53996 | 7.61770 | 95° | 15km/h | 2802m | 6.2m/s | 9.4°C | 54.1% | 0hPa | 3V | 08:30:00 | 00:33:21 | 00:00:00 | |
| IW2NTF | 2026-09-02 10:09:26 | 44.53978 | 7.61732 | 62° | 29km/h | 2773m | 3.3m/s | 9.6°C | 53.8% | 0hPa | 3V | 08:30:00 | 00:33:15 | 00:00:00 | |
| IW2NTF | 2026-09-02 10:09:21 | 44.53969 | 7.61698 | 118° | 11km/h | 2740m | 6.8m/s | 9.8°C | 52.9% | 0hPa | 3V | 08:30:00 | 00:33:09 | 00:00:00 | |
| IW2NTF | 2026-09-02 10:09:14 | 44.53965 | 7.61668 | 36° | 24km/h | 2708m | 6.7m/s | 10°C | 54.4% | 0hPa | 3V | 08:30:00 | 00:33:03 | 00:00:00 | |
| IW2NTF | 2026-09-02 10:09:08 | 44.53944 | 7.61628 | 83° | 18km/h | 2672m | 5.1m/s | 10.3°C | 55.6% | 0hPa | 3V | 08:30:00 | 00:32:57 | 00:00:00 | |
| IW2NTF | 2026-09-02 10:09:02 | 44.53942 | 7.61600 | 74° | 16km/h | 2646m | 4.4m/s | 10.5°C | 55.4% | 0hPa | 3V | 08:30:00 | 00:32:51 | 00:00:00 | |
| IW2NTF | 2026-09-02 10:08:56 | 44.53927 | 7.61556 | 40° | 26km/h | 2618m | 3.3m/s | 10.8°C | 55% | 0hPa | 3V | 08:30:00 | 00:32:45 | 00:00:00 | |
| IW2NTF | 2026-09-02 10:08:50 | 44.53906 | 7.61526 | 55° | 16km/h | 2592m | 5.3m/s | 11°C | 54.5% | 0hPa | 3V | 08:30:00 | 00:32:39 | 00:00:00 | |
| IW2NTF | 2026-09-02 10:08:44 | 44.53888 | 7.61488 | 76° | 20km/h | 2566m | 3m/s | 11.2°C | 54.4% | 0hPa | 3V | 08:30:00 | 00:32:33 | 00:00:00 | |
| IW2NTF | 2026-09-02 10:08:38 | 44.53874 | 7.61449 | 51° | 18km/h | 2545m | 4.2m/s | 11.4°C | 54.8% | 0hPa | 3V | 08:30:00 | 00:32:27 | 00:00:00 | |
| IW2NTF | 2026-09-02 10:08:32 | 44.53853 | 7.61418 | 45° | 18km/h | 2524m | 3.1m/s | 11.6°C | 54.4% | 0hPa | 3V | 08:30:00 | 00:32:21 | 00:00:00 | |
| IW2NTF | 2026-09-02 10:08:26 | 44.53837 | 7.61387 | 56° | 18km/h | 2505m | 2.5m/s | 11.8°C | 54.6% | 0hPa | 3V | 08:30:00 | 00:32:15 | 00:00:00 | |
| IW2NTF | 2026-09-02 10:08:21 | 44.53811 | 7.61342 | 55° | 31km/h | 2487m | 3.5m/s | 11.9°C | 54.3% | 0hPa | 3V | 08:30:00 | 00:32:09 | 00:00:00 | |
| IW2NTF | 2026-09-02 10:08:14 | 44.53796 | 7.61306 | 25° | 16km/h | 2460m | 6.2m/s | 12.1°C | 52.5% | 0hPa | 3V | 08:30:00 | 00:32:03 | 00:00:00 | |
| IW2NTF | 2026-09-02 10:08:08 | 44.53762 | 7.61272 | 54° | 31km/h | 2431m | 4.8m/s | 12.2°C | 45.5% | 0hPa | 3V | 08:30:00 | 00:31:57 | 00:00:00 | |
| IW2NTF | 2026-09-02 10:08:02 | 44.53748 | 7.61226 | 79° | 11km/h | 2397m | 6.1m/s | 12.5°C | 44.2% | 0hPa | 3V | 08:30:00 | 00:31:51 | 00:00:00 | |
| IW2NTF | 2026-09-02 10:07:56 | 44.53739 | 7.61205 | 46° | 13km/h | 2363m | 7.4m/s | 12.8°C | 43.8% | 0hPa | 3V | 08:30:00 | 00:31:45 | 00:00:00 | |
| IW2NTF | 2026-09-02 10:07:50 | 44.53716 | 7.61204 | 8° | 22km/h | 2333m | 4.4m/s | 13.2°C | 43.4% | 0hPa | 3V | 08:30:00 | 00:31:39 | 00:00:00 | |
| IW2NTF | 2026-09-02 10:07:44 | 44.53691 | 7.61176 | 76° | 16km/h | 2307m | 4.3m/s | 13.4°C | 42.4% | 0hPa | 3V | 08:30:00 | 00:31:33 | 00:00:00 | |
| IW2NTF | 2026-09-02 10:07:38 | 44.53686 | 7.61162 | 25° | 16km/h | 2281m | 4.7m/s | 13.7°C | 42.7% | 0hPa | 3V | 08:30:00 | 00:31:27 | 00:00:00 | |
| IW2NTF | 2026-09-02 10:07:32 | 44.53674 | 7.61134 | 110° | 7km/h | 2251m | 5.2m/s | 13.9°C | 40.8% | 0hPa | 3V | 00:00:00 | 00:31:21 | 00:00:00 | |
| IW2NTF | 2026-09-02 10:07:26 | 44.53662 | 7.61122 | 52° | 20km/h | 2223m | 5m/s | 14.2°C | 39.6% | 0hPa | 3V | 00:00:00 | 00:31:15 | 00:00:00 | |
| IW2NTF | 2026-09-02 10:07:18 | 44.53649 | 7.61102 | 4° | 18km/h | 2184m | 5.5m/s | 14.6°C | 38.7% | 0hPa | 3V | 00:00:00 | 00:31:07 | 00:00:00 | |
| IW2NTF | 2026-09-02 10:07:12 | 44.53633 | 7.61080 | 98° | 11km/h | 2156m | 4.6m/s | 14.9°C | 32.8% | 0hPa | 3V | 00:00:00 | 00:31:01 | 00:00:00 | |
| IW2NTF | 2026-09-02 10:07:06 | 44.53624 | 7.61073 | 6° | 15km/h | 2130m | 5.7m/s | 15.1°C | 0% | 0hPa | 3V | 00:00:00 | 00:30:55 | 00:00:00 | |
| IW2NTF | 2026-09-02 10:07:00 | 44.53623 | 7.61066 | 206° | 9km/h | 2098m | 6.2m/s | 15.3°C | 0% | 0hPa | 3V | 00:00:00 | 00:30:49 | 00:00:00 | |
| IW2NTF | 2026-09-02 10:06:54 | 44.53623 | 7.61069 | 16° | 7km/h | 2072m | 5.5m/s | 15.5°C | 0% | 0hPa | 3V | 00:00:00 | 00:30:43 | 00:00:00 | |
| IW2NTF | 2026-09-02 10:06:48 | 44.53613 | 7.61078 | 339° | 7km/h | 2050m | 3.1m/s | 0°C | 0% | 0hPa | 3V | 00:00:00 | 00:30:37 | 00:00:00 | |
| IW2NTF | 2026-09-02 10:06:42 | 44.53607 | 7.61080 | 327° | 5km/h | 2031m | 3.4m/s | 0°C | 0% | 0hPa | 3V | 00:00:00 | 00:30:31 | 00:00:00 | |
| IW2NTF | 2026-09-02 10:06:36 | 44.53601 | 7.61085 | 297° | 5km/h | 2012m | 3.5m/s | 0°C | 0% | 0hPa | 3V | 00:00:00 | 00:30:25 | 00:00:00 | |
| IW2NTF | 2026-09-02 10:06:30 | 44.53600 | 7.61096 | 265° | 7km/h | 1994m | 3.1m/s | 0°C | 0% | 0hPa | 3V | 00:00:00 | 00:30:19 | 00:00:00 | |
| IW2NTF | 2026-09-02 10:06:24 | 44.53602 | 7.61100 | 228° | 9km/h | 1987m | 3m/s | 0°C | 0% | 0hPa | 3V | 00:00:00 | 00:30:17 | 00:00:00 | |
| IW2NTF | 2026-09-02 10:06:24 | 44.53605 | 7.61104 | 238° | 7km/h | 1980m | 5.3m/s | 0°C | 0% | 0hPa | 3V | 00:00:00 | 00:30:15 | 00:00:00 | |
| IW2NTF | 2026-09-02 10:06:24 | 44.53605 | 7.61109 | 281° | 5km/h | 1971m | 4.7m/s | 0°C | 0% | 0hPa | 3V | 00:00:00 | 00:30:13 | 00:00:00 | |
| IW2NTF | 2026-09-02 10:06:19 | 44.53603 | 7.61112 | 303° | 7km/h | 1961m | 6.4m/s | 0°C | 0% | 0hPa | 3V | 00:00:00 | 00:30:11 | 00:00:00 | |
| IW2NTF | 2026-09-02 10:06:19 | 44.53602 | 7.61115 | 289° | 2km/h | 1950m | 4.4m/s | 0°C | 0% | 0hPa | 3V | 00:00:00 | 00:30:09 | 00:00:00 | |
| IW2NTF | 2026-09-02 10:06:19 | 44.53601 | 7.61112 | 75° | 9km/h | 1940m | 3.6m/s | 0°C | 0% | 0hPa | 3V | 00:00:00 | 00:30:07 | 00:00:00 | |
| IW2NTF | 2026-09-02 10:06:13 | 44.53600 | 7.61104 | 82° | 13km/h | 1932m | 6.7m/s | 0°C | 0% | 0hPa | 3V | 00:00:00 | 00:30:05 | 00:00:00 | |
| IW2NTF | 2026-09-02 10:06:13 | 44.53599 | 7.61097 | 57° | 5km/h | 1921m | 4.4m/s | 0°C | 0% | 0hPa | 3V | 00:00:00 | 00:30:03 | 00:00:00 | |
| IW2NTF | 2026-09-02 10:06:13 | 44.53597 | 7.61096 | 2° | 5km/h | 1910m | 5.8m/s | 0°C | 0% | 0hPa | 3V | 00:00:00 | 00:30:01 | 00:00:00 | |
| IW2NTF | 2026-09-02 10:06:06 | 44.53596 | 7.61095 | 37° | 4km/h | 1896m | 6.2m/s | 0°C | 0% | 0hPa | 3V | 00:00:00 | 00:29:59 | 00:00:00 | |
| IW2NTF | 2026-09-02 10:06:06 | 44.53595 | 7.61093 | 40° | 4km/h | 1887m | 3.5m/s | 0°C | 0% | 0hPa | 3V | 00:00:00 | 00:29:57 | 00:00:00 | |
| IW2NTF | 2026-09-02 10:06:06 | 44.53592 | 7.61092 | 3° | 7km/h | 1880m | 3.6m/s | 0°C | 0% | 0hPa | 3V | 00:00:00 | 00:29:55 | 00:00:00 | |
| IW2NTF | 2026-09-02 10:06:01 | 44.53588 | 7.61092 | 17° | 7km/h | 1871m | 4.1m/s | 0°C | 0% | 0hPa | 3V | 00:00:00 | 00:29:53 | 00:00:00 | |
| IW2NTF | 2026-09-02 10:06:01 | 44.53586 | 7.61089 | 56° | 5km/h | 1864m | 2.9m/s | 0°C | 0% | 0hPa | 3V | 00:00:00 | 00:29:51 | 00:00:00 | |
| IW2NTF | 2026-09-02 10:06:01 | 44.53584 | 7.61088 | 9° | 4km/h | 1858m | 3.7m/s | 0°C | 0% | 0hPa | 3V | 00:00:00 | 00:29:49 | 00:00:00 | |
| IW2NTF | 2026-09-02 10:05:55 | 44.53581 | 7.61089 | 337° | 7km/h | 1853m | 3m/s | 0°C | 0% | 0hPa | 3V | 00:00:00 | 00:29:47 | 00:00:00 | |
| IW2NTF | 2026-09-02 10:05:55 | 44.53578 | 7.61092 | 319° | 7km/h | 1846m | 4.5m/s | 0°C | 0% | 0hPa | 3V | 00:00:00 | 00:29:45 | 00:00:00 | |
| IW2NTF | 2026-09-02 10:05:55 | 44.53576 | 7.61095 | 304° | 5km/h | 1839m | 2.9m/s | 0°C | 0% | 0hPa | 3V | 00:00:00 | 00:29:43 | 00:00:00 | |
| IW2NTF | 2026-09-02 10:05:48 | 44.53569 | 7.61100 | 355° | 11km/h | 1825m | 4m/s | 0°C | 0% | 0hPa | 3V | 00:00:00 | 00:29:39 | 00:00:00 | |
| IW2NTF | 2026-09-02 10:05:48 | 44.53563 | 7.61100 | 6° | 11km/h | 1818m | 3m/s | 0°C | 0% | 0hPa | 3V | 00:00:00 | 00:29:37 | 00:00:00 | |
| IW2NTF | 2026-09-02 10:05:42 | 44.53555 | 7.61100 | 2° | 16km/h | 1811m | 3.2m/s | 0°C | 0% | 0hPa | 3V | 00:00:00 | 00:29:35 | 00:00:00 | |
| IW2NTF | 2026-09-02 10:05:42 | 44.53547 | 7.61101 | 352° | 15km/h | 1804m | 3.5m/s | 0°C | 0% | 0hPa | 3V | 00:00:00 | 00:29:33 | 00:00:00 | |
| IW2NTF | 2026-09-02 10:05:42 | 44.53540 | 7.61103 | 6° | 9km/h | 1797m | 4.1m/s | 0°C | 0% | 0hPa | 3V | 00:00:00 | 00:29:31 | 00:00:00 | |
| IW2NTF | 2026-09-02 10:05:36 | 44.53536 | 7.61102 | 9° | 9km/h | 1788m | 5.6m/s | 0°C | 0% | 0hPa | 3V | 00:00:00 | 00:29:29 | 00:00:00 | |
| IW2NTF | 2026-09-02 10:05:36 | 44.53529 | 7.61101 | 9° | 18km/h | 1776m | 5m/s | 0°C | 0% | 0hPa | 3V | 00:00:00 | 00:29:27 | 00:00:00 | |
| IW2NTF | 2026-09-02 10:05:36 | 44.53520 | 7.61101 | 357° | 20km/h | 1768m | 5m/s | 0°C | 0% | 0hPa | 3V | 00:00:00 | 00:29:25 | 00:00:00 | |
| IW2NTF | 2026-09-02 10:05:30 | 44.53511 | 7.61099 | 16° | 16km/h | 1760m | 4.5m/s | 0°C | 0% | 0hPa | 3V | 00:00:00 | 00:29:23 | 00:00:00 | |
| IW2NTF | 2026-09-02 10:05:30 | 44.53503 | 7.61095 | 28° | 15km/h | 1751m | 4.9m/s | 0°C | 0% | 0hPa | 3V | 00:00:00 | 00:29:21 | 00:00:00 | |
| IW2NTF | 2026-09-02 10:05:30 | 44.53498 | 7.61092 | 354° | 7km/h | 1740m | 5.4m/s | 0°C | 0% | 0hPa | 3V | 00:00:00 | 00:29:19 | 00:00:00 |